<?xml version="1.0" encoding="UTF-8" standalone="no" ?>
<gpx xmlns="http://www.topografix.com/GPX/1/1" xmlns:xsi="http://www.w3.org/2001/XMLSchema-instance" xsi:schemaLocation="http://www.topografix.com/GPX/1/1 http://www.topografix.com/GPX/1/1/gpx.xsd" version="1.1" creator="VisuGPX - https://www.visugpx.com">
  <metadata>
    <name>Vosges - Pyrénées 07. De la baraque aux juifs à La Broque (Schirmeck)</name>
    <desc><![CDATA[Trace AlpineQuest 15/03/2026 08:12:20]]></desc>
  </metadata>
  <trk>
    <name><![CDATA[visugpx_Dwu8r3uVm3_1]]></name>
    <extensions>
      <line xmlns="http://www.topografix.com/GPX/gpx_style/0/2">
        <color>0000FF</color>
        <width>4</width>
      </line>
    </extensions>
    <trkseg>
      <trkpt lat="48.54659" lon="7.22841">
        <ele>818.9</ele>
        <time>2026-03-15T07:12:20Z</time>
      </trkpt>
      <trkpt lat="48.5483" lon="7.22853">
        <ele>904.5</ele>
        <time>2026-03-15T07:12:25Z</time>
      </trkpt>
      <trkpt lat="48.54844" lon="7.229">
        <ele>902.8</ele>
        <time>2026-03-15T07:12:31Z</time>
      </trkpt>
      <trkpt lat="48.54844" lon="7.229">
        <ele>902.8</ele>
        <time>2026-03-15T07:12:36Z</time>
      </trkpt>
      <trkpt lat="48.54844" lon="7.229">
        <ele>902.8</ele>
        <time>2026-03-15T07:12:41Z</time>
      </trkpt>
      <trkpt lat="48.54844" lon="7.229">
        <ele>902.8</ele>
        <time>2026-03-15T07:12:46Z</time>
      </trkpt>
      <trkpt lat="48.54844" lon="7.229">
        <ele>902.8</ele>
        <time>2026-03-15T07:12:51Z</time>
      </trkpt>
      <trkpt lat="48.54844" lon="7.229">
        <ele>902.8</ele>
        <time>2026-03-15T07:12:56Z</time>
      </trkpt>
      <trkpt lat="48.54844" lon="7.229">
        <ele>902.8</ele>
        <time>2026-03-15T07:13:01Z</time>
      </trkpt>
      <trkpt lat="48.54844" lon="7.229">
        <ele>902.8</ele>
        <time>2026-03-15T07:13:06Z</time>
      </trkpt>
      <trkpt lat="48.54844" lon="7.229">
        <ele>902.8</ele>
        <time>2026-03-15T07:13:11Z</time>
      </trkpt>
      <trkpt lat="48.54844" lon="7.229">
        <ele>902.8</ele>
        <time>2026-03-15T07:13:16Z</time>
      </trkpt>
      <trkpt lat="48.54844" lon="7.229">
        <ele>902.8</ele>
        <time>2026-03-15T07:13:21Z</time>
      </trkpt>
      <trkpt lat="48.54844" lon="7.229">
        <ele>902.8</ele>
        <time>2026-03-15T07:13:26Z</time>
      </trkpt>
      <trkpt lat="48.54844" lon="7.229">
        <ele>902.8</ele>
        <time>2026-03-15T07:13:31Z</time>
      </trkpt>
      <trkpt lat="48.54844" lon="7.229">
        <ele>902.8</ele>
        <time>2026-03-15T07:13:36Z</time>
      </trkpt>
      <trkpt lat="48.54844" lon="7.229">
        <ele>902.8</ele>
        <time>2026-03-15T07:13:41Z</time>
      </trkpt>
      <trkpt lat="48.54844" lon="7.229">
        <ele>902.8</ele>
        <time>2026-03-15T07:13:46Z</time>
      </trkpt>
      <trkpt lat="48.54844" lon="7.229">
        <ele>902.8</ele>
        <time>2026-03-15T07:13:51Z</time>
      </trkpt>
      <trkpt lat="48.54844" lon="7.229">
        <ele>902.8</ele>
        <time>2026-03-15T07:13:56Z</time>
      </trkpt>
      <trkpt lat="48.54844" lon="7.229">
        <ele>902.8</ele>
        <time>2026-03-15T07:14:01Z</time>
      </trkpt>
      <trkpt lat="48.54844" lon="7.229">
        <ele>902.8</ele>
        <time>2026-03-15T07:14:06Z</time>
      </trkpt>
      <trkpt lat="48.54832" lon="7.22903">
        <ele>898.3</ele>
        <time>2026-03-15T07:14:11Z</time>
      </trkpt>
      <trkpt lat="48.54829" lon="7.22898">
        <ele>897.4</ele>
        <time>2026-03-15T07:14:16Z</time>
      </trkpt>
      <trkpt lat="48.54826" lon="7.22891">
        <ele>896.9</ele>
        <time>2026-03-15T07:14:21Z</time>
      </trkpt>
      <trkpt lat="48.54823" lon="7.22883">
        <ele>896.5</ele>
        <time>2026-03-15T07:14:26Z</time>
      </trkpt>
      <trkpt lat="48.5482" lon="7.22878">
        <ele>895.7</ele>
        <time>2026-03-15T07:14:31Z</time>
      </trkpt>
      <trkpt lat="48.54816" lon="7.22872">
        <ele>894.5</ele>
        <time>2026-03-15T07:14:36Z</time>
      </trkpt>
      <trkpt lat="48.54813" lon="7.22864">
        <ele>894.2</ele>
        <time>2026-03-15T07:14:41Z</time>
      </trkpt>
      <trkpt lat="48.5481" lon="7.22855">
        <ele>894</ele>
        <time>2026-03-15T07:14:46Z</time>
      </trkpt>
      <trkpt lat="48.54809" lon="7.22846">
        <ele>894.8</ele>
        <time>2026-03-15T07:14:51Z</time>
      </trkpt>
      <trkpt lat="48.54807" lon="7.2284">
        <ele>894.7</ele>
        <time>2026-03-15T07:14:56Z</time>
      </trkpt>
      <trkpt lat="48.54804" lon="7.22831">
        <ele>894.6</ele>
        <time>2026-03-15T07:15:01Z</time>
      </trkpt>
      <trkpt lat="48.548" lon="7.2282">
        <ele>894.4</ele>
        <time>2026-03-15T07:15:06Z</time>
      </trkpt>
      <trkpt lat="48.54797" lon="7.22812">
        <ele>894.3</ele>
        <time>2026-03-15T07:15:11Z</time>
      </trkpt>
      <trkpt lat="48.54793" lon="7.22803">
        <ele>893.9</ele>
        <time>2026-03-15T07:15:16Z</time>
      </trkpt>
      <trkpt lat="48.5479" lon="7.22795">
        <ele>893.9</ele>
        <time>2026-03-15T07:15:21Z</time>
      </trkpt>
      <trkpt lat="48.54786" lon="7.22788">
        <ele>893.2</ele>
        <time>2026-03-15T07:15:26Z</time>
      </trkpt>
      <trkpt lat="48.54784" lon="7.2278">
        <ele>893.7</ele>
        <time>2026-03-15T07:15:31Z</time>
      </trkpt>
      <trkpt lat="48.54782" lon="7.22778">
        <ele>893.1</ele>
        <time>2026-03-15T07:15:36Z</time>
      </trkpt>
      <trkpt lat="48.54782" lon="7.22778">
        <ele>893.1</ele>
        <time>2026-03-15T07:15:41Z</time>
      </trkpt>
      <trkpt lat="48.54781" lon="7.22772">
        <ele>893.8</ele>
        <time>2026-03-15T07:15:46Z</time>
      </trkpt>
      <trkpt lat="48.54778" lon="7.22766">
        <ele>893.5</ele>
        <time>2026-03-15T07:15:51Z</time>
      </trkpt>
      <trkpt lat="48.54774" lon="7.22757">
        <ele>893.3</ele>
        <time>2026-03-15T07:15:56Z</time>
      </trkpt>
      <trkpt lat="48.54771" lon="7.22749">
        <ele>893.6</ele>
        <time>2026-03-15T07:16:01Z</time>
      </trkpt>
      <trkpt lat="48.54768" lon="7.22743">
        <ele>893.7</ele>
        <time>2026-03-15T07:16:06Z</time>
      </trkpt>
      <trkpt lat="48.54765" lon="7.22737">
        <ele>894</ele>
        <time>2026-03-15T07:16:11Z</time>
      </trkpt>
      <trkpt lat="48.54763" lon="7.22731">
        <ele>894.6</ele>
        <time>2026-03-15T07:16:16Z</time>
      </trkpt>
      <trkpt lat="48.5476" lon="7.22722">
        <ele>895.6</ele>
        <time>2026-03-15T07:16:21Z</time>
      </trkpt>
      <trkpt lat="48.54759" lon="7.22714">
        <ele>897.3</ele>
        <time>2026-03-15T07:16:26Z</time>
      </trkpt>
      <trkpt lat="48.54757" lon="7.22706">
        <ele>898.5</ele>
        <time>2026-03-15T07:16:31Z</time>
      </trkpt>
      <trkpt lat="48.54751" lon="7.22698">
        <ele>898.1</ele>
        <time>2026-03-15T07:16:36Z</time>
      </trkpt>
      <trkpt lat="48.54748" lon="7.22692">
        <ele>898.5</ele>
        <time>2026-03-15T07:16:41Z</time>
      </trkpt>
      <trkpt lat="48.54745" lon="7.22686">
        <ele>898.9</ele>
        <time>2026-03-15T07:16:46Z</time>
      </trkpt>
      <trkpt lat="48.54741" lon="7.22676">
        <ele>900</ele>
        <time>2026-03-15T07:16:51Z</time>
      </trkpt>
      <trkpt lat="48.54739" lon="7.22666">
        <ele>902</ele>
        <time>2026-03-15T07:16:56Z</time>
      </trkpt>
      <trkpt lat="48.54733" lon="7.22656">
        <ele>902.9</ele>
        <time>2026-03-15T07:17:01Z</time>
      </trkpt>
      <trkpt lat="48.54728" lon="7.22651">
        <ele>902.6</ele>
        <time>2026-03-15T07:17:06Z</time>
      </trkpt>
      <trkpt lat="48.54724" lon="7.22643">
        <ele>903.7</ele>
        <time>2026-03-15T07:17:11Z</time>
      </trkpt>
      <trkpt lat="48.54719" lon="7.22636">
        <ele>904</ele>
        <time>2026-03-15T07:17:16Z</time>
      </trkpt>
      <trkpt lat="48.54715" lon="7.22629">
        <ele>904.8</ele>
        <time>2026-03-15T07:17:21Z</time>
      </trkpt>
      <trkpt lat="48.54711" lon="7.22623">
        <ele>905.2</ele>
        <time>2026-03-15T07:17:26Z</time>
      </trkpt>
      <trkpt lat="48.54706" lon="7.22617">
        <ele>905.2</ele>
        <time>2026-03-15T07:17:31Z</time>
      </trkpt>
      <trkpt lat="48.547" lon="7.22611">
        <ele>904.8</ele>
        <time>2026-03-15T07:17:36Z</time>
      </trkpt>
      <trkpt lat="48.54694" lon="7.22604">
        <ele>904.8</ele>
        <time>2026-03-15T07:17:41Z</time>
      </trkpt>
      <trkpt lat="48.54689" lon="7.22597">
        <ele>905.1</ele>
        <time>2026-03-15T07:17:46Z</time>
      </trkpt>
      <trkpt lat="48.54686" lon="7.22593">
        <ele>905.3</ele>
        <time>2026-03-15T07:17:51Z</time>
      </trkpt>
      <trkpt lat="48.54681" lon="7.22589">
        <ele>904.7</ele>
        <time>2026-03-15T07:17:56Z</time>
      </trkpt>
      <trkpt lat="48.54674" lon="7.22584">
        <ele>903.6</ele>
        <time>2026-03-15T07:18:01Z</time>
      </trkpt>
      <trkpt lat="48.54671" lon="7.2258">
        <ele>903.4</ele>
        <time>2026-03-15T07:18:06Z</time>
      </trkpt>
      <trkpt lat="48.54668" lon="7.22578">
        <ele>902.6</ele>
        <time>2026-03-15T07:18:11Z</time>
      </trkpt>
      <trkpt lat="48.54662" lon="7.22576">
        <ele>900</ele>
        <time>2026-03-15T07:18:16Z</time>
      </trkpt>
      <trkpt lat="48.54658" lon="7.22571">
        <ele>898.9</ele>
        <time>2026-03-15T07:18:21Z</time>
      </trkpt>
      <trkpt lat="48.54653" lon="7.22566">
        <ele>897.2</ele>
        <time>2026-03-15T07:18:26Z</time>
      </trkpt>
      <trkpt lat="48.54647" lon="7.22561">
        <ele>894.8</ele>
        <time>2026-03-15T07:18:31Z</time>
      </trkpt>
      <trkpt lat="48.54641" lon="7.22558">
        <ele>892.1</ele>
        <time>2026-03-15T07:18:36Z</time>
      </trkpt>
      <trkpt lat="48.54634" lon="7.22554">
        <ele>888.9</ele>
        <time>2026-03-15T07:18:41Z</time>
      </trkpt>
      <trkpt lat="48.54628" lon="7.22548">
        <ele>886.5</ele>
        <time>2026-03-15T07:18:46Z</time>
      </trkpt>
      <trkpt lat="48.54624" lon="7.22543">
        <ele>885</ele>
        <time>2026-03-15T07:18:51Z</time>
      </trkpt>
      <trkpt lat="48.54618" lon="7.22539">
        <ele>882.1</ele>
        <time>2026-03-15T07:18:56Z</time>
      </trkpt>
      <trkpt lat="48.54614" lon="7.22533">
        <ele>880.7</ele>
        <time>2026-03-15T07:19:01Z</time>
      </trkpt>
      <trkpt lat="48.54611" lon="7.22525">
        <ele>880</ele>
        <time>2026-03-15T07:19:06Z</time>
      </trkpt>
      <trkpt lat="48.54608" lon="7.22518">
        <ele>879.1</ele>
        <time>2026-03-15T07:19:11Z</time>
      </trkpt>
      <trkpt lat="48.54603" lon="7.22519">
        <ele>876</ele>
        <time>2026-03-15T07:19:16Z</time>
      </trkpt>
      <trkpt lat="48.546" lon="7.22519">
        <ele>874.2</ele>
        <time>2026-03-15T07:19:21Z</time>
      </trkpt>
      <trkpt lat="48.546" lon="7.22519">
        <ele>874.2</ele>
        <time>2026-03-15T07:19:26Z</time>
      </trkpt>
      <trkpt lat="48.546" lon="7.22519">
        <ele>874.2</ele>
        <time>2026-03-15T07:19:31Z</time>
      </trkpt>
      <trkpt lat="48.546" lon="7.22519">
        <ele>874.2</ele>
        <time>2026-03-15T07:19:36Z</time>
      </trkpt>
      <trkpt lat="48.546" lon="7.22519">
        <ele>874.2</ele>
        <time>2026-03-15T07:19:41Z</time>
      </trkpt>
      <trkpt lat="48.546" lon="7.22519">
        <ele>874.2</ele>
        <time>2026-03-15T07:19:46Z</time>
      </trkpt>
      <trkpt lat="48.54599" lon="7.22512">
        <ele>874.4</ele>
        <time>2026-03-15T07:19:51Z</time>
      </trkpt>
      <trkpt lat="48.54599" lon="7.22505">
        <ele>875.2</ele>
        <time>2026-03-15T07:19:56Z</time>
      </trkpt>
      <trkpt lat="48.546" lon="7.22503">
        <ele>876</ele>
        <time>2026-03-15T07:20:01Z</time>
      </trkpt>
      <trkpt lat="48.54601" lon="7.22504">
        <ele>876.5</ele>
        <time>2026-03-15T07:20:06Z</time>
      </trkpt>
      <trkpt lat="48.546" lon="7.22496">
        <ele>876.6</ele>
        <time>2026-03-15T07:20:11Z</time>
      </trkpt>
      <trkpt lat="48.546" lon="7.22489">
        <ele>877.1</ele>
        <time>2026-03-15T07:20:16Z</time>
      </trkpt>
      <trkpt lat="48.54599" lon="7.22483">
        <ele>876.8</ele>
        <time>2026-03-15T07:20:21Z</time>
      </trkpt>
      <trkpt lat="48.54598" lon="7.22475">
        <ele>876.7</ele>
        <time>2026-03-15T07:20:26Z</time>
      </trkpt>
      <trkpt lat="48.546" lon="7.22469">
        <ele>878.3</ele>
        <time>2026-03-15T07:20:31Z</time>
      </trkpt>
      <trkpt lat="48.54601" lon="7.22462">
        <ele>879.3</ele>
        <time>2026-03-15T07:20:36Z</time>
      </trkpt>
      <trkpt lat="48.54603" lon="7.22452">
        <ele>881.2</ele>
        <time>2026-03-15T07:20:41Z</time>
      </trkpt>
      <trkpt lat="48.54603" lon="7.2244">
        <ele>881.9</ele>
        <time>2026-03-15T07:20:46Z</time>
      </trkpt>
      <trkpt lat="48.54605" lon="7.2243">
        <ele>883.7</ele>
        <time>2026-03-15T07:20:51Z</time>
      </trkpt>
      <trkpt lat="48.54605" lon="7.22419">
        <ele>884.4</ele>
        <time>2026-03-15T07:20:56Z</time>
      </trkpt>
      <trkpt lat="48.54606" lon="7.22408">
        <ele>884.8</ele>
        <time>2026-03-15T07:21:01Z</time>
      </trkpt>
      <trkpt lat="48.54606" lon="7.22398">
        <ele>884.5</ele>
        <time>2026-03-15T07:21:06Z</time>
      </trkpt>
      <trkpt lat="48.54605" lon="7.22387">
        <ele>883.5</ele>
        <time>2026-03-15T07:21:11Z</time>
      </trkpt>
      <trkpt lat="48.54606" lon="7.22378">
        <ele>883.8</ele>
        <time>2026-03-15T07:21:16Z</time>
      </trkpt>
      <trkpt lat="48.54607" lon="7.22368">
        <ele>884</ele>
        <time>2026-03-15T07:21:21Z</time>
      </trkpt>
      <trkpt lat="48.54607" lon="7.22356">
        <ele>883.6</ele>
        <time>2026-03-15T07:21:26Z</time>
      </trkpt>
      <trkpt lat="48.54608" lon="7.22344">
        <ele>883.8</ele>
        <time>2026-03-15T07:21:31Z</time>
      </trkpt>
      <trkpt lat="48.54608" lon="7.22333">
        <ele>883.4</ele>
        <time>2026-03-15T07:21:36Z</time>
      </trkpt>
      <trkpt lat="48.54607" lon="7.22322">
        <ele>883</ele>
        <time>2026-03-15T07:21:41Z</time>
      </trkpt>
      <trkpt lat="48.54607" lon="7.22313">
        <ele>883.2</ele>
        <time>2026-03-15T07:21:46Z</time>
      </trkpt>
      <trkpt lat="48.54608" lon="7.22302">
        <ele>884</ele>
        <time>2026-03-15T07:21:51Z</time>
      </trkpt>
      <trkpt lat="48.54608" lon="7.22292">
        <ele>884.2</ele>
        <time>2026-03-15T07:21:56Z</time>
      </trkpt>
      <trkpt lat="48.54607" lon="7.22283">
        <ele>883.8</ele>
        <time>2026-03-15T07:22:01Z</time>
      </trkpt>
      <trkpt lat="48.54608" lon="7.22273">
        <ele>884.6</ele>
        <time>2026-03-15T07:22:06Z</time>
      </trkpt>
      <trkpt lat="48.54608" lon="7.22262">
        <ele>884.9</ele>
        <time>2026-03-15T07:22:11Z</time>
      </trkpt>
      <trkpt lat="48.54609" lon="7.22253">
        <ele>885.6</ele>
        <time>2026-03-15T07:22:16Z</time>
      </trkpt>
      <trkpt lat="48.54605" lon="7.22241">
        <ele>883.8</ele>
        <time>2026-03-15T07:22:21Z</time>
      </trkpt>
      <trkpt lat="48.54604" lon="7.22232">
        <ele>883.7</ele>
        <time>2026-03-15T07:22:26Z</time>
      </trkpt>
      <trkpt lat="48.54604" lon="7.22225">
        <ele>884.2</ele>
        <time>2026-03-15T07:22:31Z</time>
      </trkpt>
      <trkpt lat="48.54604" lon="7.22217">
        <ele>884.6</ele>
        <time>2026-03-15T07:22:36Z</time>
      </trkpt>
      <trkpt lat="48.54602" lon="7.22209">
        <ele>883.9</ele>
        <time>2026-03-15T07:22:41Z</time>
      </trkpt>
      <trkpt lat="48.54603" lon="7.22201">
        <ele>885</ele>
        <time>2026-03-15T07:22:46Z</time>
      </trkpt>
      <trkpt lat="48.54604" lon="7.22192">
        <ele>886.1</ele>
        <time>2026-03-15T07:22:51Z</time>
      </trkpt>
      <trkpt lat="48.54603" lon="7.22181">
        <ele>886.2</ele>
        <time>2026-03-15T07:22:56Z</time>
      </trkpt>
      <trkpt lat="48.54603" lon="7.22171">
        <ele>886.8</ele>
        <time>2026-03-15T07:23:01Z</time>
      </trkpt>
      <trkpt lat="48.54604" lon="7.22161">
        <ele>887.9</ele>
        <time>2026-03-15T07:23:06Z</time>
      </trkpt>
      <trkpt lat="48.54603" lon="7.2215">
        <ele>887.9</ele>
        <time>2026-03-15T07:23:11Z</time>
      </trkpt>
      <trkpt lat="48.54602" lon="7.2214">
        <ele>887.9</ele>
        <time>2026-03-15T07:23:16Z</time>
      </trkpt>
      <trkpt lat="48.54601" lon="7.22132">
        <ele>887.7</ele>
        <time>2026-03-15T07:23:21Z</time>
      </trkpt>
      <trkpt lat="48.546" lon="7.22122">
        <ele>887.7</ele>
        <time>2026-03-15T07:23:26Z</time>
      </trkpt>
      <trkpt lat="48.54601" lon="7.22109">
        <ele>888.9</ele>
        <time>2026-03-15T07:23:31Z</time>
      </trkpt>
      <trkpt lat="48.54599" lon="7.22098">
        <ele>888.3</ele>
        <time>2026-03-15T07:23:36Z</time>
      </trkpt>
      <trkpt lat="48.54597" lon="7.22088">
        <ele>887.6</ele>
        <time>2026-03-15T07:23:41Z</time>
      </trkpt>
      <trkpt lat="48.54596" lon="7.2208">
        <ele>887.4</ele>
        <time>2026-03-15T07:23:46Z</time>
      </trkpt>
      <trkpt lat="48.54596" lon="7.2207">
        <ele>887.9</ele>
        <time>2026-03-15T07:23:51Z</time>
      </trkpt>
      <trkpt lat="48.54597" lon="7.2206">
        <ele>888.9</ele>
        <time>2026-03-15T07:23:56Z</time>
      </trkpt>
      <trkpt lat="48.54597" lon="7.22051">
        <ele>889.4</ele>
        <time>2026-03-15T07:24:01Z</time>
      </trkpt>
      <trkpt lat="48.54599" lon="7.22041">
        <ele>891</ele>
        <time>2026-03-15T07:24:06Z</time>
      </trkpt>
      <trkpt lat="48.546" lon="7.22032">
        <ele>891.9</ele>
        <time>2026-03-15T07:24:11Z</time>
      </trkpt>
      <trkpt lat="48.546" lon="7.22021">
        <ele>892.4</ele>
        <time>2026-03-15T07:24:16Z</time>
      </trkpt>
      <trkpt lat="48.54599" lon="7.2201">
        <ele>892.4</ele>
        <time>2026-03-15T07:24:21Z</time>
      </trkpt>
      <trkpt lat="48.54598" lon="7.22002">
        <ele>892.2</ele>
        <time>2026-03-15T07:24:26Z</time>
      </trkpt>
      <trkpt lat="48.54599" lon="7.21991">
        <ele>892.8</ele>
        <time>2026-03-15T07:24:31Z</time>
      </trkpt>
      <trkpt lat="48.54601" lon="7.21982">
        <ele>893.9</ele>
        <time>2026-03-15T07:24:36Z</time>
      </trkpt>
      <trkpt lat="48.54602" lon="7.21972">
        <ele>894.5</ele>
        <time>2026-03-15T07:24:41Z</time>
      </trkpt>
      <trkpt lat="48.54603" lon="7.21963">
        <ele>895</ele>
        <time>2026-03-15T07:24:46Z</time>
      </trkpt>
      <trkpt lat="48.54603" lon="7.21956">
        <ele>895</ele>
        <time>2026-03-15T07:24:51Z</time>
      </trkpt>
      <trkpt lat="48.54603" lon="7.21952">
        <ele>895</ele>
        <time>2026-03-15T07:24:56Z</time>
      </trkpt>
      <trkpt lat="48.54603" lon="7.21943">
        <ele>894.9</ele>
        <time>2026-03-15T07:25:01Z</time>
      </trkpt>
      <trkpt lat="48.54605" lon="7.21934">
        <ele>896</ele>
        <time>2026-03-15T07:25:06Z</time>
      </trkpt>
      <trkpt lat="48.54607" lon="7.21924">
        <ele>897.1</ele>
        <time>2026-03-15T07:25:11Z</time>
      </trkpt>
      <trkpt lat="48.54608" lon="7.21915">
        <ele>897.5</ele>
        <time>2026-03-15T07:25:16Z</time>
      </trkpt>
      <trkpt lat="48.54611" lon="7.21907">
        <ele>898.3</ele>
        <time>2026-03-15T07:25:21Z</time>
      </trkpt>
      <trkpt lat="48.54615" lon="7.21899">
        <ele>899.7</ele>
        <time>2026-03-15T07:25:26Z</time>
      </trkpt>
      <trkpt lat="48.54619" lon="7.2189">
        <ele>901</ele>
        <time>2026-03-15T07:25:31Z</time>
      </trkpt>
      <trkpt lat="48.54622" lon="7.21882">
        <ele>901.8</ele>
        <time>2026-03-15T07:25:36Z</time>
      </trkpt>
      <trkpt lat="48.54627" lon="7.21876">
        <ele>903.9</ele>
        <time>2026-03-15T07:25:41Z</time>
      </trkpt>
      <trkpt lat="48.54633" lon="7.21871">
        <ele>906.7</ele>
        <time>2026-03-15T07:25:46Z</time>
      </trkpt>
      <trkpt lat="48.54636" lon="7.21858">
        <ele>907</ele>
        <time>2026-03-15T07:25:51Z</time>
      </trkpt>
      <trkpt lat="48.54639" lon="7.21846">
        <ele>907.4</ele>
        <time>2026-03-15T07:25:56Z</time>
      </trkpt>
      <trkpt lat="48.54642" lon="7.21836">
        <ele>908</ele>
        <time>2026-03-15T07:26:01Z</time>
      </trkpt>
      <trkpt lat="48.54644" lon="7.21827">
        <ele>907.9</ele>
        <time>2026-03-15T07:26:06Z</time>
      </trkpt>
      <trkpt lat="48.54646" lon="7.21816">
        <ele>907.6</ele>
        <time>2026-03-15T07:26:11Z</time>
      </trkpt>
      <trkpt lat="48.5465" lon="7.21806">
        <ele>908.4</ele>
        <time>2026-03-15T07:26:16Z</time>
      </trkpt>
      <trkpt lat="48.54653" lon="7.21797">
        <ele>908.8</ele>
        <time>2026-03-15T07:26:21Z</time>
      </trkpt>
      <trkpt lat="48.54656" lon="7.21788">
        <ele>909.3</ele>
        <time>2026-03-15T07:26:26Z</time>
      </trkpt>
      <trkpt lat="48.54659" lon="7.21779">
        <ele>909.7</ele>
        <time>2026-03-15T07:26:31Z</time>
      </trkpt>
      <trkpt lat="48.54661" lon="7.21769">
        <ele>909.4</ele>
        <time>2026-03-15T07:26:36Z</time>
      </trkpt>
      <trkpt lat="48.54662" lon="7.21761">
        <ele>908.9</ele>
        <time>2026-03-15T07:26:41Z</time>
      </trkpt>
      <trkpt lat="48.54663" lon="7.2175">
        <ele>908</ele>
        <time>2026-03-15T07:26:46Z</time>
      </trkpt>
      <trkpt lat="48.54663" lon="7.21739">
        <ele>907</ele>
        <time>2026-03-15T07:26:51Z</time>
      </trkpt>
      <trkpt lat="48.54664" lon="7.21729">
        <ele>906.7</ele>
        <time>2026-03-15T07:26:56Z</time>
      </trkpt>
      <trkpt lat="48.54666" lon="7.21718">
        <ele>906.9</ele>
        <time>2026-03-15T07:27:01Z</time>
      </trkpt>
      <trkpt lat="48.54666" lon="7.21707">
        <ele>906</ele>
        <time>2026-03-15T07:27:06Z</time>
      </trkpt>
      <trkpt lat="48.54665" lon="7.21696">
        <ele>904.4</ele>
        <time>2026-03-15T07:27:11Z</time>
      </trkpt>
      <trkpt lat="48.54665" lon="7.21686">
        <ele>903.6</ele>
        <time>2026-03-15T07:27:16Z</time>
      </trkpt>
      <trkpt lat="48.54667" lon="7.21677">
        <ele>904</ele>
        <time>2026-03-15T07:27:21Z</time>
      </trkpt>
      <trkpt lat="48.54667" lon="7.21666">
        <ele>903.2</ele>
        <time>2026-03-15T07:27:26Z</time>
      </trkpt>
      <trkpt lat="48.54668" lon="7.21655">
        <ele>903.7</ele>
        <time>2026-03-15T07:27:31Z</time>
      </trkpt>
      <trkpt lat="48.54668" lon="7.21643">
        <ele>903.7</ele>
        <time>2026-03-15T07:27:36Z</time>
      </trkpt>
      <trkpt lat="48.54667" lon="7.21632">
        <ele>903.2</ele>
        <time>2026-03-15T07:27:41Z</time>
      </trkpt>
      <trkpt lat="48.54667" lon="7.21622">
        <ele>903.2</ele>
        <time>2026-03-15T07:27:46Z</time>
      </trkpt>
      <trkpt lat="48.54667" lon="7.21611">
        <ele>903.2</ele>
        <time>2026-03-15T07:27:51Z</time>
      </trkpt>
      <trkpt lat="48.54669" lon="7.21603">
        <ele>904.2</ele>
        <time>2026-03-15T07:27:56Z</time>
      </trkpt>
      <trkpt lat="48.54669" lon="7.21597">
        <ele>904.2</ele>
        <time>2026-03-15T07:28:01Z</time>
      </trkpt>
      <trkpt lat="48.54669" lon="7.21593">
        <ele>904.2</ele>
        <time>2026-03-15T07:28:06Z</time>
      </trkpt>
      <trkpt lat="48.54669" lon="7.21593">
        <ele>904.2</ele>
        <time>2026-03-15T07:28:11Z</time>
      </trkpt>
      <trkpt lat="48.54669" lon="7.21593">
        <ele>904.2</ele>
        <time>2026-03-15T07:28:16Z</time>
      </trkpt>
      <trkpt lat="48.54669" lon="7.21593">
        <ele>904.2</ele>
        <time>2026-03-15T07:28:21Z</time>
      </trkpt>
      <trkpt lat="48.54669" lon="7.21593">
        <ele>904.2</ele>
        <time>2026-03-15T07:28:26Z</time>
      </trkpt>
      <trkpt lat="48.54669" lon="7.21586">
        <ele>904.3</ele>
        <time>2026-03-15T07:28:31Z</time>
      </trkpt>
      <trkpt lat="48.54669" lon="7.21577">
        <ele>904.5</ele>
        <time>2026-03-15T07:28:36Z</time>
      </trkpt>
      <trkpt lat="48.54668" lon="7.21567">
        <ele>904.3</ele>
        <time>2026-03-15T07:28:41Z</time>
      </trkpt>
      <trkpt lat="48.54669" lon="7.21557">
        <ele>905.2</ele>
        <time>2026-03-15T07:28:46Z</time>
      </trkpt>
      <trkpt lat="48.54669" lon="7.21548">
        <ele>905.6</ele>
        <time>2026-03-15T07:28:51Z</time>
      </trkpt>
      <trkpt lat="48.54669" lon="7.2154">
        <ele>905.8</ele>
        <time>2026-03-15T07:28:56Z</time>
      </trkpt>
      <trkpt lat="48.54668" lon="7.2153">
        <ele>905.7</ele>
        <time>2026-03-15T07:29:01Z</time>
      </trkpt>
      <trkpt lat="48.54668" lon="7.21522">
        <ele>906</ele>
        <time>2026-03-15T07:29:06Z</time>
      </trkpt>
      <trkpt lat="48.54668" lon="7.21514">
        <ele>906.2</ele>
        <time>2026-03-15T07:29:11Z</time>
      </trkpt>
      <trkpt lat="48.54667" lon="7.21504">
        <ele>906</ele>
        <time>2026-03-15T07:29:16Z</time>
      </trkpt>
      <trkpt lat="48.54665" lon="7.21497">
        <ele>904.9</ele>
        <time>2026-03-15T07:29:21Z</time>
      </trkpt>
      <trkpt lat="48.54665" lon="7.21487">
        <ele>905</ele>
        <time>2026-03-15T07:29:26Z</time>
      </trkpt>
      <trkpt lat="48.54665" lon="7.21476">
        <ele>905.2</ele>
        <time>2026-03-15T07:29:31Z</time>
      </trkpt>
      <trkpt lat="48.54665" lon="7.21465">
        <ele>905.3</ele>
        <time>2026-03-15T07:29:36Z</time>
      </trkpt>
      <trkpt lat="48.54664" lon="7.21456">
        <ele>904.8</ele>
        <time>2026-03-15T07:29:41Z</time>
      </trkpt>
      <trkpt lat="48.54662" lon="7.21448">
        <ele>903.7</ele>
        <time>2026-03-15T07:29:46Z</time>
      </trkpt>
      <trkpt lat="48.54661" lon="7.21437">
        <ele>903.3</ele>
        <time>2026-03-15T07:29:51Z</time>
      </trkpt>
      <trkpt lat="48.54659" lon="7.21427">
        <ele>902.3</ele>
        <time>2026-03-15T07:29:56Z</time>
      </trkpt>
      <trkpt lat="48.54659" lon="7.2142">
        <ele>902.4</ele>
        <time>2026-03-15T07:30:01Z</time>
      </trkpt>
      <trkpt lat="48.54659" lon="7.21415">
        <ele>902.7</ele>
        <time>2026-03-15T07:30:06Z</time>
      </trkpt>
      <trkpt lat="48.5466" lon="7.21412">
        <ele>903.7</ele>
        <time>2026-03-15T07:30:11Z</time>
      </trkpt>
      <trkpt lat="48.5466" lon="7.21412">
        <ele>903.7</ele>
        <time>2026-03-15T07:30:16Z</time>
      </trkpt>
      <trkpt lat="48.5466" lon="7.21412">
        <ele>903.7</ele>
        <time>2026-03-15T07:30:21Z</time>
      </trkpt>
      <trkpt lat="48.5466" lon="7.21412">
        <ele>903.7</ele>
        <time>2026-03-15T07:30:26Z</time>
      </trkpt>
      <trkpt lat="48.5466" lon="7.21412">
        <ele>903.7</ele>
        <time>2026-03-15T07:30:31Z</time>
      </trkpt>
      <trkpt lat="48.5466" lon="7.21412">
        <ele>903.7</ele>
        <time>2026-03-15T07:30:36Z</time>
      </trkpt>
      <trkpt lat="48.5466" lon="7.21412">
        <ele>903.7</ele>
        <time>2026-03-15T07:30:41Z</time>
      </trkpt>
      <trkpt lat="48.5466" lon="7.21412">
        <ele>903.7</ele>
        <time>2026-03-15T07:30:46Z</time>
      </trkpt>
      <trkpt lat="48.5466" lon="7.21412">
        <ele>903.7</ele>
        <time>2026-03-15T07:30:51Z</time>
      </trkpt>
      <trkpt lat="48.5466" lon="7.21412">
        <ele>903.7</ele>
        <time>2026-03-15T07:30:56Z</time>
      </trkpt>
      <trkpt lat="48.5466" lon="7.21412">
        <ele>903.7</ele>
        <time>2026-03-15T07:31:01Z</time>
      </trkpt>
      <trkpt lat="48.5466" lon="7.21412">
        <ele>903.7</ele>
        <time>2026-03-15T07:31:06Z</time>
      </trkpt>
      <trkpt lat="48.5466" lon="7.21412">
        <ele>903.7</ele>
        <time>2026-03-15T07:31:11Z</time>
      </trkpt>
      <trkpt lat="48.5466" lon="7.21412">
        <ele>903.7</ele>
        <time>2026-03-15T07:31:16Z</time>
      </trkpt>
      <trkpt lat="48.5466" lon="7.21412">
        <ele>903.7</ele>
        <time>2026-03-15T07:31:21Z</time>
      </trkpt>
      <trkpt lat="48.5466" lon="7.21412">
        <ele>903.7</ele>
        <time>2026-03-15T07:31:26Z</time>
      </trkpt>
      <trkpt lat="48.54654" lon="7.21396">
        <ele>902.4</ele>
        <time>2026-03-15T07:31:31Z</time>
      </trkpt>
      <trkpt lat="48.54654" lon="7.21389">
        <ele>903.4</ele>
        <time>2026-03-15T07:31:36Z</time>
      </trkpt>
      <trkpt lat="48.54652" lon="7.2138">
        <ele>903.6</ele>
        <time>2026-03-15T07:31:41Z</time>
      </trkpt>
      <trkpt lat="48.54649" lon="7.21368">
        <ele>903.7</ele>
        <time>2026-03-15T07:31:46Z</time>
      </trkpt>
      <trkpt lat="48.54648" lon="7.21359">
        <ele>904.5</ele>
        <time>2026-03-15T07:31:51Z</time>
      </trkpt>
      <trkpt lat="48.54646" lon="7.21352">
        <ele>904.5</ele>
        <time>2026-03-15T07:31:56Z</time>
      </trkpt>
      <trkpt lat="48.54644" lon="7.21344">
        <ele>904.8</ele>
        <time>2026-03-15T07:32:01Z</time>
      </trkpt>
      <trkpt lat="48.54641" lon="7.21336">
        <ele>904.6</ele>
        <time>2026-03-15T07:32:06Z</time>
      </trkpt>
      <trkpt lat="48.54637" lon="7.21327">
        <ele>904.7</ele>
        <time>2026-03-15T07:32:11Z</time>
      </trkpt>
      <trkpt lat="48.54631" lon="7.21317">
        <ele>904.6</ele>
        <time>2026-03-15T07:32:16Z</time>
      </trkpt>
      <trkpt lat="48.54629" lon="7.21307">
        <ele>906.3</ele>
        <time>2026-03-15T07:32:21Z</time>
      </trkpt>
      <trkpt lat="48.54627" lon="7.213">
        <ele>907.3</ele>
        <time>2026-03-15T07:32:26Z</time>
      </trkpt>
      <trkpt lat="48.54624" lon="7.21291">
        <ele>908.5</ele>
        <time>2026-03-15T07:32:31Z</time>
      </trkpt>
      <trkpt lat="48.54619" lon="7.21283">
        <ele>908.8</ele>
        <time>2026-03-15T07:32:36Z</time>
      </trkpt>
      <trkpt lat="48.54618" lon="7.21276">
        <ele>910.3</ele>
        <time>2026-03-15T07:32:41Z</time>
      </trkpt>
      <trkpt lat="48.54617" lon="7.21267">
        <ele>912.5</ele>
        <time>2026-03-15T07:32:46Z</time>
      </trkpt>
      <trkpt lat="48.54617" lon="7.21257">
        <ele>915.3</ele>
        <time>2026-03-15T07:32:51Z</time>
      </trkpt>
      <trkpt lat="48.54616" lon="7.21249">
        <ele>917.1</ele>
        <time>2026-03-15T07:32:56Z</time>
      </trkpt>
      <trkpt lat="48.54615" lon="7.21237">
        <ele>918.2</ele>
        <time>2026-03-15T07:33:01Z</time>
      </trkpt>
      <trkpt lat="48.54612" lon="7.21225">
        <ele>918.8</ele>
        <time>2026-03-15T07:33:06Z</time>
      </trkpt>
      <trkpt lat="48.54611" lon="7.21212">
        <ele>920.2</ele>
        <time>2026-03-15T07:33:11Z</time>
      </trkpt>
      <trkpt lat="48.54611" lon="7.21204">
        <ele>921.2</ele>
        <time>2026-03-15T07:33:16Z</time>
      </trkpt>
      <trkpt lat="48.54612" lon="7.21196">
        <ele>922.5</ele>
        <time>2026-03-15T07:33:21Z</time>
      </trkpt>
      <trkpt lat="48.54612" lon="7.21185">
        <ele>923.9</ele>
        <time>2026-03-15T07:33:26Z</time>
      </trkpt>
      <trkpt lat="48.54613" lon="7.21174">
        <ele>925.5</ele>
        <time>2026-03-15T07:33:31Z</time>
      </trkpt>
      <trkpt lat="48.54615" lon="7.21165">
        <ele>926.7</ele>
        <time>2026-03-15T07:33:36Z</time>
      </trkpt>
      <trkpt lat="48.54618" lon="7.21156">
        <ele>926.6</ele>
        <time>2026-03-15T07:33:41Z</time>
      </trkpt>
      <trkpt lat="48.5462" lon="7.21146">
        <ele>926.2</ele>
        <time>2026-03-15T07:33:46Z</time>
      </trkpt>
      <trkpt lat="48.54621" lon="7.21135">
        <ele>925.5</ele>
        <time>2026-03-15T07:33:51Z</time>
      </trkpt>
      <trkpt lat="48.54623" lon="7.21126">
        <ele>925.2</ele>
        <time>2026-03-15T07:33:56Z</time>
      </trkpt>
      <trkpt lat="48.54627" lon="7.21115">
        <ele>925.1</ele>
        <time>2026-03-15T07:34:01Z</time>
      </trkpt>
      <trkpt lat="48.54633" lon="7.21106">
        <ele>925.6</ele>
        <time>2026-03-15T07:34:06Z</time>
      </trkpt>
      <trkpt lat="48.54635" lon="7.21096">
        <ele>925.2</ele>
        <time>2026-03-15T07:34:11Z</time>
      </trkpt>
      <trkpt lat="48.54637" lon="7.21086">
        <ele>924.8</ele>
        <time>2026-03-15T07:34:16Z</time>
      </trkpt>
      <trkpt lat="48.54641" lon="7.21077">
        <ele>924.4</ele>
        <time>2026-03-15T07:34:21Z</time>
      </trkpt>
      <trkpt lat="48.54647" lon="7.2107">
        <ele>924.5</ele>
        <time>2026-03-15T07:34:26Z</time>
      </trkpt>
      <trkpt lat="48.54649" lon="7.21063">
        <ele>923.8</ele>
        <time>2026-03-15T07:34:31Z</time>
      </trkpt>
      <trkpt lat="48.54654" lon="7.2105">
        <ele>922.8</ele>
        <time>2026-03-15T07:34:36Z</time>
      </trkpt>
      <trkpt lat="48.54658" lon="7.21043">
        <ele>922.6</ele>
        <time>2026-03-15T07:34:41Z</time>
      </trkpt>
      <trkpt lat="48.54663" lon="7.21036">
        <ele>922.7</ele>
        <time>2026-03-15T07:34:46Z</time>
      </trkpt>
      <trkpt lat="48.54668" lon="7.21033">
        <ele>923.4</ele>
        <time>2026-03-15T07:34:51Z</time>
      </trkpt>
      <trkpt lat="48.54674" lon="7.2103">
        <ele>923.9</ele>
        <time>2026-03-15T07:34:56Z</time>
      </trkpt>
      <trkpt lat="48.54679" lon="7.21024">
        <ele>923.9</ele>
        <time>2026-03-15T07:35:01Z</time>
      </trkpt>
      <trkpt lat="48.54684" lon="7.21017">
        <ele>923.8</ele>
        <time>2026-03-15T07:35:06Z</time>
      </trkpt>
      <trkpt lat="48.5469" lon="7.21013">
        <ele>924.3</ele>
        <time>2026-03-15T07:35:11Z</time>
      </trkpt>
      <trkpt lat="48.54696" lon="7.21007">
        <ele>924.6</ele>
        <time>2026-03-15T07:35:16Z</time>
      </trkpt>
      <trkpt lat="48.54702" lon="7.21004">
        <ele>925.3</ele>
        <time>2026-03-15T07:35:21Z</time>
      </trkpt>
      <trkpt lat="48.54707" lon="7.21002">
        <ele>926</ele>
        <time>2026-03-15T07:35:26Z</time>
      </trkpt>
      <trkpt lat="48.54713" lon="7.20999">
        <ele>926.8</ele>
        <time>2026-03-15T07:35:31Z</time>
      </trkpt>
      <trkpt lat="48.54718" lon="7.20999">
        <ele>927.8</ele>
        <time>2026-03-15T07:35:36Z</time>
      </trkpt>
      <trkpt lat="48.54724" lon="7.21003">
        <ele>929.4</ele>
        <time>2026-03-15T07:35:41Z</time>
      </trkpt>
      <trkpt lat="48.54731" lon="7.21005">
        <ele>930.9</ele>
        <time>2026-03-15T07:35:46Z</time>
      </trkpt>
      <trkpt lat="48.54737" lon="7.21008">
        <ele>932.3</ele>
        <time>2026-03-15T07:35:51Z</time>
      </trkpt>
      <trkpt lat="48.54744" lon="7.21014">
        <ele>934.3</ele>
        <time>2026-03-15T07:35:56Z</time>
      </trkpt>
      <trkpt lat="48.54749" lon="7.21017">
        <ele>935.5</ele>
        <time>2026-03-15T07:36:01Z</time>
      </trkpt>
      <trkpt lat="48.54754" lon="7.21019">
        <ele>936.1</ele>
        <time>2026-03-15T07:36:06Z</time>
      </trkpt>
      <trkpt lat="48.54759" lon="7.21022">
        <ele>936.7</ele>
        <time>2026-03-15T07:36:11Z</time>
      </trkpt>
      <trkpt lat="48.54762" lon="7.21027">
        <ele>937.4</ele>
        <time>2026-03-15T07:36:16Z</time>
      </trkpt>
      <trkpt lat="48.54765" lon="7.21031">
        <ele>938.1</ele>
        <time>2026-03-15T07:36:21Z</time>
      </trkpt>
      <trkpt lat="48.54768" lon="7.21034">
        <ele>938.7</ele>
        <time>2026-03-15T07:36:26Z</time>
      </trkpt>
      <trkpt lat="48.54773" lon="7.21038">
        <ele>939.5</ele>
        <time>2026-03-15T07:36:31Z</time>
      </trkpt>
      <trkpt lat="48.54779" lon="7.21039">
        <ele>940.1</ele>
        <time>2026-03-15T07:36:36Z</time>
      </trkpt>
      <trkpt lat="48.54785" lon="7.21044">
        <ele>941.2</ele>
        <time>2026-03-15T07:36:41Z</time>
      </trkpt>
      <trkpt lat="48.54788" lon="7.2105">
        <ele>942.3</ele>
        <time>2026-03-15T07:36:46Z</time>
      </trkpt>
      <trkpt lat="48.54791" lon="7.21053">
        <ele>942.9</ele>
        <time>2026-03-15T07:36:51Z</time>
      </trkpt>
      <trkpt lat="48.54797" lon="7.21057">
        <ele>944</ele>
        <time>2026-03-15T07:36:56Z</time>
      </trkpt>
      <trkpt lat="48.54802" lon="7.21062">
        <ele>945.2</ele>
        <time>2026-03-15T07:37:01Z</time>
      </trkpt>
      <trkpt lat="48.54808" lon="7.21065">
        <ele>946.3</ele>
        <time>2026-03-15T07:37:06Z</time>
      </trkpt>
      <trkpt lat="48.54815" lon="7.2107">
        <ele>947.8</ele>
        <time>2026-03-15T07:37:11Z</time>
      </trkpt>
      <trkpt lat="48.54822" lon="7.21071">
        <ele>948.7</ele>
        <time>2026-03-15T07:37:16Z</time>
      </trkpt>
      <trkpt lat="48.54826" lon="7.21074">
        <ele>949.6</ele>
        <time>2026-03-15T07:37:21Z</time>
      </trkpt>
      <trkpt lat="48.54832" lon="7.21075">
        <ele>950.4</ele>
        <time>2026-03-15T07:37:26Z</time>
      </trkpt>
      <trkpt lat="48.54841" lon="7.21077">
        <ele>950.6</ele>
        <time>2026-03-15T07:37:31Z</time>
      </trkpt>
      <trkpt lat="48.54846" lon="7.21077">
        <ele>950.3</ele>
        <time>2026-03-15T07:37:36Z</time>
      </trkpt>
      <trkpt lat="48.54853" lon="7.21078">
        <ele>950.2</ele>
        <time>2026-03-15T07:37:41Z</time>
      </trkpt>
      <trkpt lat="48.54861" lon="7.21081">
        <ele>950.3</ele>
        <time>2026-03-15T07:37:46Z</time>
      </trkpt>
      <trkpt lat="48.54867" lon="7.21081">
        <ele>950</ele>
        <time>2026-03-15T07:37:51Z</time>
      </trkpt>
      <trkpt lat="48.54873" lon="7.21083">
        <ele>950</ele>
        <time>2026-03-15T07:37:56Z</time>
      </trkpt>
      <trkpt lat="48.54881" lon="7.21087">
        <ele>950.3</ele>
        <time>2026-03-15T07:38:01Z</time>
      </trkpt>
      <trkpt lat="48.54884" lon="7.21089">
        <ele>950.4</ele>
        <time>2026-03-15T07:38:06Z</time>
      </trkpt>
      <trkpt lat="48.54892" lon="7.21091">
        <ele>950.4</ele>
        <time>2026-03-15T07:38:11Z</time>
      </trkpt>
      <trkpt lat="48.54897" lon="7.2109">
        <ele>950</ele>
        <time>2026-03-15T07:38:16Z</time>
      </trkpt>
      <trkpt lat="48.54903" lon="7.2109">
        <ele>949.8</ele>
        <time>2026-03-15T07:38:21Z</time>
      </trkpt>
      <trkpt lat="48.54909" lon="7.21089">
        <ele>949.4</ele>
        <time>2026-03-15T07:38:26Z</time>
      </trkpt>
      <trkpt lat="48.54914" lon="7.21087">
        <ele>948.8</ele>
        <time>2026-03-15T07:38:31Z</time>
      </trkpt>
      <trkpt lat="48.54921" lon="7.21086">
        <ele>948.3</ele>
        <time>2026-03-15T07:38:36Z</time>
      </trkpt>
      <trkpt lat="48.54929" lon="7.21085">
        <ele>947.9</ele>
        <time>2026-03-15T07:38:41Z</time>
      </trkpt>
      <trkpt lat="48.54937" lon="7.21085">
        <ele>947.6</ele>
        <time>2026-03-15T07:38:46Z</time>
      </trkpt>
      <trkpt lat="48.54944" lon="7.21084">
        <ele>947.1</ele>
        <time>2026-03-15T07:38:51Z</time>
      </trkpt>
      <trkpt lat="48.54948" lon="7.21085">
        <ele>947.2</ele>
        <time>2026-03-15T07:38:56Z</time>
      </trkpt>
      <trkpt lat="48.54955" lon="7.21084">
        <ele>946.7</ele>
        <time>2026-03-15T07:39:01Z</time>
      </trkpt>
      <trkpt lat="48.54962" lon="7.21085">
        <ele>946.7</ele>
        <time>2026-03-15T07:39:06Z</time>
      </trkpt>
      <trkpt lat="48.54969" lon="7.21083">
        <ele>946.1</ele>
        <time>2026-03-15T07:39:11Z</time>
      </trkpt>
      <trkpt lat="48.54975" lon="7.21083">
        <ele>945.8</ele>
        <time>2026-03-15T07:39:16Z</time>
      </trkpt>
      <trkpt lat="48.54981" lon="7.21081">
        <ele>945.3</ele>
        <time>2026-03-15T07:39:21Z</time>
      </trkpt>
      <trkpt lat="48.54988" lon="7.21082">
        <ele>945.2</ele>
        <time>2026-03-15T07:39:26Z</time>
      </trkpt>
      <trkpt lat="48.54995" lon="7.2108">
        <ele>944.5</ele>
        <time>2026-03-15T07:39:31Z</time>
      </trkpt>
      <trkpt lat="48.55001" lon="7.2108">
        <ele>944.4</ele>
        <time>2026-03-15T07:39:36Z</time>
      </trkpt>
      <trkpt lat="48.55008" lon="7.21079">
        <ele>944.4</ele>
        <time>2026-03-15T07:39:41Z</time>
      </trkpt>
      <trkpt lat="48.55014" lon="7.21078">
        <ele>944.3</ele>
        <time>2026-03-15T07:39:46Z</time>
      </trkpt>
      <trkpt lat="48.5502" lon="7.21076">
        <ele>944.1</ele>
        <time>2026-03-15T07:39:51Z</time>
      </trkpt>
      <trkpt lat="48.55026" lon="7.21076">
        <ele>944.2</ele>
        <time>2026-03-15T07:39:56Z</time>
      </trkpt>
      <trkpt lat="48.55034" lon="7.21075">
        <ele>944.2</ele>
        <time>2026-03-15T07:40:01Z</time>
      </trkpt>
      <trkpt lat="48.55042" lon="7.21073">
        <ele>944</ele>
        <time>2026-03-15T07:40:06Z</time>
      </trkpt>
      <trkpt lat="48.55049" lon="7.21072">
        <ele>943.9</ele>
        <time>2026-03-15T07:40:11Z</time>
      </trkpt>
      <trkpt lat="48.55056" lon="7.21067">
        <ele>943.1</ele>
        <time>2026-03-15T07:40:16Z</time>
      </trkpt>
      <trkpt lat="48.55061" lon="7.21062">
        <ele>942.2</ele>
        <time>2026-03-15T07:40:21Z</time>
      </trkpt>
      <trkpt lat="48.55065" lon="7.21057">
        <ele>941.3</ele>
        <time>2026-03-15T07:40:26Z</time>
      </trkpt>
      <trkpt lat="48.5507" lon="7.2105">
        <ele>939.9</ele>
        <time>2026-03-15T07:40:31Z</time>
      </trkpt>
      <trkpt lat="48.55076" lon="7.21046">
        <ele>939.2</ele>
        <time>2026-03-15T07:40:36Z</time>
      </trkpt>
      <trkpt lat="48.55082" lon="7.21038">
        <ele>937.7</ele>
        <time>2026-03-15T07:40:41Z</time>
      </trkpt>
      <trkpt lat="48.55086" lon="7.2103">
        <ele>936.4</ele>
        <time>2026-03-15T07:40:46Z</time>
      </trkpt>
      <trkpt lat="48.5509" lon="7.21023">
        <ele>935.3</ele>
        <time>2026-03-15T07:40:51Z</time>
      </trkpt>
      <trkpt lat="48.55094" lon="7.21015">
        <ele>934.1</ele>
        <time>2026-03-15T07:40:56Z</time>
      </trkpt>
      <trkpt lat="48.55098" lon="7.21007">
        <ele>932.8</ele>
        <time>2026-03-15T07:41:01Z</time>
      </trkpt>
      <trkpt lat="48.55101" lon="7.20997">
        <ele>931.2</ele>
        <time>2026-03-15T07:41:06Z</time>
      </trkpt>
      <trkpt lat="48.55104" lon="7.20989">
        <ele>930.1</ele>
        <time>2026-03-15T07:41:11Z</time>
      </trkpt>
      <trkpt lat="48.55108" lon="7.2098">
        <ele>928.9</ele>
        <time>2026-03-15T07:41:16Z</time>
      </trkpt>
      <trkpt lat="48.55113" lon="7.20974">
        <ele>928.4</ele>
        <time>2026-03-15T07:41:21Z</time>
      </trkpt>
      <trkpt lat="48.55115" lon="7.20966">
        <ele>927.2</ele>
        <time>2026-03-15T07:41:26Z</time>
      </trkpt>
      <trkpt lat="48.55115" lon="7.20956">
        <ele>925.5</ele>
        <time>2026-03-15T07:41:31Z</time>
      </trkpt>
      <trkpt lat="48.55118" lon="7.20947">
        <ele>924.3</ele>
        <time>2026-03-15T07:41:36Z</time>
      </trkpt>
      <trkpt lat="48.5512" lon="7.20935">
        <ele>922.5</ele>
        <time>2026-03-15T07:41:41Z</time>
      </trkpt>
      <trkpt lat="48.55121" lon="7.20923">
        <ele>920.6</ele>
        <time>2026-03-15T07:41:46Z</time>
      </trkpt>
      <trkpt lat="48.55122" lon="7.20914">
        <ele>919.2</ele>
        <time>2026-03-15T07:41:51Z</time>
      </trkpt>
      <trkpt lat="48.55125" lon="7.20906">
        <ele>918.5</ele>
        <time>2026-03-15T07:41:56Z</time>
      </trkpt>
      <trkpt lat="48.55127" lon="7.20897">
        <ele>917.4</ele>
        <time>2026-03-15T07:42:01Z</time>
      </trkpt>
      <trkpt lat="48.55129" lon="7.20887">
        <ele>916.3</ele>
        <time>2026-03-15T07:42:06Z</time>
      </trkpt>
      <trkpt lat="48.55133" lon="7.20878">
        <ele>915.7</ele>
        <time>2026-03-15T07:42:11Z</time>
      </trkpt>
      <trkpt lat="48.55136" lon="7.20867">
        <ele>914.6</ele>
        <time>2026-03-15T07:42:16Z</time>
      </trkpt>
      <trkpt lat="48.55138" lon="7.20857">
        <ele>913.6</ele>
        <time>2026-03-15T07:42:21Z</time>
      </trkpt>
      <trkpt lat="48.55139" lon="7.20847">
        <ele>912.5</ele>
        <time>2026-03-15T07:42:26Z</time>
      </trkpt>
      <trkpt lat="48.5514" lon="7.20842">
        <ele>912</ele>
        <time>2026-03-15T07:42:31Z</time>
      </trkpt>
      <trkpt lat="48.55139" lon="7.20838">
        <ele>911.3</ele>
        <time>2026-03-15T07:42:36Z</time>
      </trkpt>
      <trkpt lat="48.55139" lon="7.20837">
        <ele>911.2</ele>
        <time>2026-03-15T07:42:41Z</time>
      </trkpt>
      <trkpt lat="48.55139" lon="7.20837">
        <ele>911.2</ele>
        <time>2026-03-15T07:42:46Z</time>
      </trkpt>
      <trkpt lat="48.55139" lon="7.20837">
        <ele>911.2</ele>
        <time>2026-03-15T07:42:51Z</time>
      </trkpt>
      <trkpt lat="48.55139" lon="7.20837">
        <ele>911.2</ele>
        <time>2026-03-15T07:42:56Z</time>
      </trkpt>
      <trkpt lat="48.55139" lon="7.20837">
        <ele>911.2</ele>
        <time>2026-03-15T07:43:01Z</time>
      </trkpt>
      <trkpt lat="48.55139" lon="7.20837">
        <ele>911.2</ele>
        <time>2026-03-15T07:43:06Z</time>
      </trkpt>
      <trkpt lat="48.55139" lon="7.20837">
        <ele>911.2</ele>
        <time>2026-03-15T07:43:11Z</time>
      </trkpt>
      <trkpt lat="48.55139" lon="7.20837">
        <ele>911.2</ele>
        <time>2026-03-15T07:43:16Z</time>
      </trkpt>
      <trkpt lat="48.55139" lon="7.20837">
        <ele>911.2</ele>
        <time>2026-03-15T07:43:21Z</time>
      </trkpt>
      <trkpt lat="48.55139" lon="7.20837">
        <ele>911.2</ele>
        <time>2026-03-15T07:43:26Z</time>
      </trkpt>
      <trkpt lat="48.55147" lon="7.20829">
        <ele>911.6</ele>
        <time>2026-03-15T07:43:31Z</time>
      </trkpt>
      <trkpt lat="48.55147" lon="7.20821">
        <ele>910.4</ele>
        <time>2026-03-15T07:43:36Z</time>
      </trkpt>
      <trkpt lat="48.55147" lon="7.20814">
        <ele>909.4</ele>
        <time>2026-03-15T07:43:41Z</time>
      </trkpt>
      <trkpt lat="48.55147" lon="7.20808">
        <ele>908.5</ele>
        <time>2026-03-15T07:43:46Z</time>
      </trkpt>
      <trkpt lat="48.55148" lon="7.20801">
        <ele>907.8</ele>
        <time>2026-03-15T07:43:51Z</time>
      </trkpt>
      <trkpt lat="48.55149" lon="7.20794">
        <ele>907</ele>
        <time>2026-03-15T07:43:56Z</time>
      </trkpt>
      <trkpt lat="48.55151" lon="7.20784">
        <ele>906.1</ele>
        <time>2026-03-15T07:44:01Z</time>
      </trkpt>
      <trkpt lat="48.55152" lon="7.20775">
        <ele>905.1</ele>
        <time>2026-03-15T07:44:06Z</time>
      </trkpt>
      <trkpt lat="48.55152" lon="7.20766">
        <ele>903.8</ele>
        <time>2026-03-15T07:44:11Z</time>
      </trkpt>
      <trkpt lat="48.5515" lon="7.20755">
        <ele>901.7</ele>
        <time>2026-03-15T07:44:16Z</time>
      </trkpt>
      <trkpt lat="48.55151" lon="7.20745">
        <ele>900.7</ele>
        <time>2026-03-15T07:44:21Z</time>
      </trkpt>
      <trkpt lat="48.55151" lon="7.20737">
        <ele>899.8</ele>
        <time>2026-03-15T07:44:26Z</time>
      </trkpt>
      <trkpt lat="48.55151" lon="7.20726">
        <ele>898.5</ele>
        <time>2026-03-15T07:44:31Z</time>
      </trkpt>
      <trkpt lat="48.55152" lon="7.20717">
        <ele>897.8</ele>
        <time>2026-03-15T07:44:36Z</time>
      </trkpt>
      <trkpt lat="48.55153" lon="7.20708">
        <ele>897.1</ele>
        <time>2026-03-15T07:44:41Z</time>
      </trkpt>
      <trkpt lat="48.55153" lon="7.20699">
        <ele>896.1</ele>
        <time>2026-03-15T07:44:46Z</time>
      </trkpt>
      <trkpt lat="48.55152" lon="7.20688">
        <ele>894.5</ele>
        <time>2026-03-15T07:44:51Z</time>
      </trkpt>
      <trkpt lat="48.55151" lon="7.20676">
        <ele>892.7</ele>
        <time>2026-03-15T07:44:56Z</time>
      </trkpt>
      <trkpt lat="48.5515" lon="7.20666">
        <ele>891.1</ele>
        <time>2026-03-15T07:45:01Z</time>
      </trkpt>
      <trkpt lat="48.55147" lon="7.20657">
        <ele>888.8</ele>
        <time>2026-03-15T07:45:06Z</time>
      </trkpt>
      <trkpt lat="48.55147" lon="7.20648">
        <ele>887.7</ele>
        <time>2026-03-15T07:45:11Z</time>
      </trkpt>
      <trkpt lat="48.55148" lon="7.2064">
        <ele>887.2</ele>
        <time>2026-03-15T07:45:16Z</time>
      </trkpt>
      <trkpt lat="48.55149" lon="7.20634">
        <ele>886.9</ele>
        <time>2026-03-15T07:45:21Z</time>
      </trkpt>
      <trkpt lat="48.55149" lon="7.20633">
        <ele>886.8</ele>
        <time>2026-03-15T07:45:26Z</time>
      </trkpt>
      <trkpt lat="48.55149" lon="7.20633">
        <ele>886.8</ele>
        <time>2026-03-15T07:45:31Z</time>
      </trkpt>
      <trkpt lat="48.55149" lon="7.20633">
        <ele>886.8</ele>
        <time>2026-03-15T07:45:36Z</time>
      </trkpt>
      <trkpt lat="48.55149" lon="7.20633">
        <ele>886.8</ele>
        <time>2026-03-15T07:45:41Z</time>
      </trkpt>
      <trkpt lat="48.55147" lon="7.20617">
        <ele>884</ele>
        <time>2026-03-15T07:45:46Z</time>
      </trkpt>
      <trkpt lat="48.55148" lon="7.2061">
        <ele>883.7</ele>
        <time>2026-03-15T07:45:51Z</time>
      </trkpt>
      <trkpt lat="48.55149" lon="7.20601">
        <ele>883</ele>
        <time>2026-03-15T07:45:56Z</time>
      </trkpt>
      <trkpt lat="48.55149" lon="7.20595">
        <ele>882.3</ele>
        <time>2026-03-15T07:46:01Z</time>
      </trkpt>
      <trkpt lat="48.55148" lon="7.20586">
        <ele>880.8</ele>
        <time>2026-03-15T07:46:06Z</time>
      </trkpt>
      <trkpt lat="48.5515" lon="7.20579">
        <ele>880.9</ele>
        <time>2026-03-15T07:46:11Z</time>
      </trkpt>
      <trkpt lat="48.55148" lon="7.20568">
        <ele>878.7</ele>
        <time>2026-03-15T07:46:16Z</time>
      </trkpt>
      <trkpt lat="48.55146" lon="7.20557">
        <ele>876.6</ele>
        <time>2026-03-15T07:46:21Z</time>
      </trkpt>
      <trkpt lat="48.55146" lon="7.20546">
        <ele>875.3</ele>
        <time>2026-03-15T07:46:26Z</time>
      </trkpt>
      <trkpt lat="48.55147" lon="7.20536">
        <ele>874.6</ele>
        <time>2026-03-15T07:46:31Z</time>
      </trkpt>
      <trkpt lat="48.55145" lon="7.20525">
        <ele>872.5</ele>
        <time>2026-03-15T07:46:36Z</time>
      </trkpt>
      <trkpt lat="48.55145" lon="7.20514">
        <ele>871.2</ele>
        <time>2026-03-15T07:46:41Z</time>
      </trkpt>
      <trkpt lat="48.55146" lon="7.20504">
        <ele>870.5</ele>
        <time>2026-03-15T07:46:46Z</time>
      </trkpt>
      <trkpt lat="48.55146" lon="7.20494">
        <ele>869.4</ele>
        <time>2026-03-15T07:46:51Z</time>
      </trkpt>
      <trkpt lat="48.55146" lon="7.2048">
        <ele>867.7</ele>
        <time>2026-03-15T07:46:56Z</time>
      </trkpt>
      <trkpt lat="48.55148" lon="7.20472">
        <ele>867.6</ele>
        <time>2026-03-15T07:47:01Z</time>
      </trkpt>
      <trkpt lat="48.55147" lon="7.20461">
        <ele>865.9</ele>
        <time>2026-03-15T07:47:06Z</time>
      </trkpt>
      <trkpt lat="48.55147" lon="7.20448">
        <ele>864.3</ele>
        <time>2026-03-15T07:47:11Z</time>
      </trkpt>
      <trkpt lat="48.55148" lon="7.20437">
        <ele>863.5</ele>
        <time>2026-03-15T07:47:16Z</time>
      </trkpt>
      <trkpt lat="48.55148" lon="7.20425">
        <ele>862</ele>
        <time>2026-03-15T07:47:21Z</time>
      </trkpt>
      <trkpt lat="48.55147" lon="7.20415">
        <ele>860.3</ele>
        <time>2026-03-15T07:47:26Z</time>
      </trkpt>
      <trkpt lat="48.55147" lon="7.20408">
        <ele>859.4</ele>
        <time>2026-03-15T07:47:31Z</time>
      </trkpt>
      <trkpt lat="48.55146" lon="7.20399">
        <ele>857.6</ele>
        <time>2026-03-15T07:47:36Z</time>
      </trkpt>
      <trkpt lat="48.55145" lon="7.20388">
        <ele>855.6</ele>
        <time>2026-03-15T07:47:41Z</time>
      </trkpt>
      <trkpt lat="48.55144" lon="7.20378">
        <ele>853.8</ele>
        <time>2026-03-15T07:47:46Z</time>
      </trkpt>
      <trkpt lat="48.55145" lon="7.20369">
        <ele>853</ele>
        <time>2026-03-15T07:47:51Z</time>
      </trkpt>
      <trkpt lat="48.55146" lon="7.20359">
        <ele>852.1</ele>
        <time>2026-03-15T07:47:56Z</time>
      </trkpt>
      <trkpt lat="48.55146" lon="7.20349">
        <ele>850.7</ele>
        <time>2026-03-15T07:48:01Z</time>
      </trkpt>
      <trkpt lat="48.55145" lon="7.2034">
        <ele>849</ele>
        <time>2026-03-15T07:48:06Z</time>
      </trkpt>
      <trkpt lat="48.55146" lon="7.20329">
        <ele>848</ele>
        <time>2026-03-15T07:48:11Z</time>
      </trkpt>
      <trkpt lat="48.55144" lon="7.20317">
        <ele>845.5</ele>
        <time>2026-03-15T07:48:16Z</time>
      </trkpt>
      <trkpt lat="48.55143" lon="7.20306">
        <ele>843.6</ele>
        <time>2026-03-15T07:48:21Z</time>
      </trkpt>
      <trkpt lat="48.55142" lon="7.20296">
        <ele>841.8</ele>
        <time>2026-03-15T07:48:26Z</time>
      </trkpt>
      <trkpt lat="48.55142" lon="7.20287">
        <ele>840.7</ele>
        <time>2026-03-15T07:48:31Z</time>
      </trkpt>
      <trkpt lat="48.55141" lon="7.20278">
        <ele>839</ele>
        <time>2026-03-15T07:48:36Z</time>
      </trkpt>
      <trkpt lat="48.55142" lon="7.20268">
        <ele>838.3</ele>
        <time>2026-03-15T07:48:41Z</time>
      </trkpt>
      <trkpt lat="48.55142" lon="7.20257">
        <ele>836.9</ele>
        <time>2026-03-15T07:48:46Z</time>
      </trkpt>
      <trkpt lat="48.55141" lon="7.20245">
        <ele>835.1</ele>
        <time>2026-03-15T07:48:51Z</time>
      </trkpt>
      <trkpt lat="48.55136" lon="7.20234">
        <ele>831.8</ele>
        <time>2026-03-15T07:48:56Z</time>
      </trkpt>
      <trkpt lat="48.55134" lon="7.20224">
        <ele>830.1</ele>
        <time>2026-03-15T07:49:01Z</time>
      </trkpt>
      <trkpt lat="48.55132" lon="7.20212">
        <ele>828.2</ele>
        <time>2026-03-15T07:49:06Z</time>
      </trkpt>
      <trkpt lat="48.5513" lon="7.20205">
        <ele>826.7</ele>
        <time>2026-03-15T07:49:11Z</time>
      </trkpt>
      <trkpt lat="48.55129" lon="7.20201">
        <ele>825.9</ele>
        <time>2026-03-15T07:49:16Z</time>
      </trkpt>
      <trkpt lat="48.55127" lon="7.20198">
        <ele>824.6</ele>
        <time>2026-03-15T07:49:21Z</time>
      </trkpt>
      <trkpt lat="48.55125" lon="7.20194">
        <ele>823.3</ele>
        <time>2026-03-15T07:49:26Z</time>
      </trkpt>
      <trkpt lat="48.55125" lon="7.20189">
        <ele>823</ele>
        <time>2026-03-15T07:49:31Z</time>
      </trkpt>
      <trkpt lat="48.55124" lon="7.20183">
        <ele>822</ele>
        <time>2026-03-15T07:49:36Z</time>
      </trkpt>
      <trkpt lat="48.55124" lon="7.20175">
        <ele>821.5</ele>
        <time>2026-03-15T07:49:41Z</time>
      </trkpt>
      <trkpt lat="48.55124" lon="7.20166">
        <ele>821</ele>
        <time>2026-03-15T07:49:46Z</time>
      </trkpt>
      <trkpt lat="48.55124" lon="7.20159">
        <ele>821.2</ele>
        <time>2026-03-15T07:49:51Z</time>
      </trkpt>
      <trkpt lat="48.55122" lon="7.20149">
        <ele>820.5</ele>
        <time>2026-03-15T07:49:56Z</time>
      </trkpt>
      <trkpt lat="48.55122" lon="7.2014">
        <ele>820.8</ele>
        <time>2026-03-15T07:50:01Z</time>
      </trkpt>
      <trkpt lat="48.5512" lon="7.20135">
        <ele>819.9</ele>
        <time>2026-03-15T07:50:06Z</time>
      </trkpt>
      <trkpt lat="48.55119" lon="7.20127">
        <ele>819.6</ele>
        <time>2026-03-15T07:50:11Z</time>
      </trkpt>
      <trkpt lat="48.55115" lon="7.20118">
        <ele>817.7</ele>
        <time>2026-03-15T07:50:16Z</time>
      </trkpt>
      <trkpt lat="48.55114" lon="7.20113">
        <ele>817.3</ele>
        <time>2026-03-15T07:50:21Z</time>
      </trkpt>
      <trkpt lat="48.55113" lon="7.20105">
        <ele>817</ele>
        <time>2026-03-15T07:50:26Z</time>
      </trkpt>
      <trkpt lat="48.5511" lon="7.20096">
        <ele>815.6</ele>
        <time>2026-03-15T07:50:31Z</time>
      </trkpt>
      <trkpt lat="48.55107" lon="7.20088">
        <ele>814.2</ele>
        <time>2026-03-15T07:50:36Z</time>
      </trkpt>
      <trkpt lat="48.55105" lon="7.20083">
        <ele>813.3</ele>
        <time>2026-03-15T07:50:41Z</time>
      </trkpt>
      <trkpt lat="48.55104" lon="7.20076">
        <ele>813.4</ele>
        <time>2026-03-15T07:50:46Z</time>
      </trkpt>
      <trkpt lat="48.55104" lon="7.20068">
        <ele>814.1</ele>
        <time>2026-03-15T07:50:51Z</time>
      </trkpt>
      <trkpt lat="48.55102" lon="7.20062">
        <ele>813.6</ele>
        <time>2026-03-15T07:50:56Z</time>
      </trkpt>
      <trkpt lat="48.55098" lon="7.20054">
        <ele>812.1</ele>
        <time>2026-03-15T07:51:01Z</time>
      </trkpt>
      <trkpt lat="48.55096" lon="7.20047">
        <ele>811.6</ele>
        <time>2026-03-15T07:51:06Z</time>
      </trkpt>
      <trkpt lat="48.55094" lon="7.2004">
        <ele>811.2</ele>
        <time>2026-03-15T07:51:11Z</time>
      </trkpt>
      <trkpt lat="48.55093" lon="7.20035">
        <ele>811.1</ele>
        <time>2026-03-15T07:51:16Z</time>
      </trkpt>
      <trkpt lat="48.55092" lon="7.20031">
        <ele>810.9</ele>
        <time>2026-03-15T07:51:21Z</time>
      </trkpt>
      <trkpt lat="48.55089" lon="7.20022">
        <ele>810.1</ele>
        <time>2026-03-15T07:51:26Z</time>
      </trkpt>
      <trkpt lat="48.55086" lon="7.20015">
        <ele>809.1</ele>
        <time>2026-03-15T07:51:31Z</time>
      </trkpt>
      <trkpt lat="48.55083" lon="7.2001">
        <ele>807.8</ele>
        <time>2026-03-15T07:51:36Z</time>
      </trkpt>
      <trkpt lat="48.55082" lon="7.20007">
        <ele>807.6</ele>
        <time>2026-03-15T07:51:41Z</time>
      </trkpt>
      <trkpt lat="48.55081" lon="7.20003">
        <ele>807.4</ele>
        <time>2026-03-15T07:51:46Z</time>
      </trkpt>
      <trkpt lat="48.55079" lon="7.19995">
        <ele>807.3</ele>
        <time>2026-03-15T07:51:51Z</time>
      </trkpt>
      <trkpt lat="48.55076" lon="7.19989">
        <ele>806.6</ele>
        <time>2026-03-15T07:51:56Z</time>
      </trkpt>
      <trkpt lat="48.55077" lon="7.19987">
        <ele>807.5</ele>
        <time>2026-03-15T07:52:01Z</time>
      </trkpt>
      <trkpt lat="48.55077" lon="7.19987">
        <ele>807.5</ele>
        <time>2026-03-15T07:52:06Z</time>
      </trkpt>
      <trkpt lat="48.55077" lon="7.19987">
        <ele>807.5</ele>
        <time>2026-03-15T07:52:11Z</time>
      </trkpt>
      <trkpt lat="48.55077" lon="7.19987">
        <ele>807.5</ele>
        <time>2026-03-15T07:52:16Z</time>
      </trkpt>
      <trkpt lat="48.55077" lon="7.19987">
        <ele>807.5</ele>
        <time>2026-03-15T07:52:21Z</time>
      </trkpt>
      <trkpt lat="48.55077" lon="7.19987">
        <ele>807.5</ele>
        <time>2026-03-15T07:52:26Z</time>
      </trkpt>
      <trkpt lat="48.55077" lon="7.19987">
        <ele>807.5</ele>
        <time>2026-03-15T07:52:31Z</time>
      </trkpt>
      <trkpt lat="48.55077" lon="7.19987">
        <ele>807.5</ele>
        <time>2026-03-15T07:52:36Z</time>
      </trkpt>
      <trkpt lat="48.55072" lon="7.19972">
        <ele>807.2</ele>
        <time>2026-03-15T07:52:41Z</time>
      </trkpt>
      <trkpt lat="48.55069" lon="7.19967">
        <ele>806.3</ele>
        <time>2026-03-15T07:52:46Z</time>
      </trkpt>
      <trkpt lat="48.55067" lon="7.19963">
        <ele>805.9</ele>
        <time>2026-03-15T07:52:51Z</time>
      </trkpt>
      <trkpt lat="48.55065" lon="7.19958">
        <ele>805.7</ele>
        <time>2026-03-15T07:52:56Z</time>
      </trkpt>
      <trkpt lat="48.55061" lon="7.19953">
        <ele>804.3</ele>
        <time>2026-03-15T07:53:01Z</time>
      </trkpt>
      <trkpt lat="48.5506" lon="7.19947">
        <ele>804.8</ele>
        <time>2026-03-15T07:53:06Z</time>
      </trkpt>
      <trkpt lat="48.55059" lon="7.19941">
        <ele>805.3</ele>
        <time>2026-03-15T07:53:11Z</time>
      </trkpt>
      <trkpt lat="48.55055" lon="7.19936">
        <ele>804</ele>
        <time>2026-03-15T07:53:16Z</time>
      </trkpt>
      <trkpt lat="48.55054" lon="7.19932">
        <ele>804.2</ele>
        <time>2026-03-15T07:53:21Z</time>
      </trkpt>
      <trkpt lat="48.55052" lon="7.19925">
        <ele>804.4</ele>
        <time>2026-03-15T07:53:26Z</time>
      </trkpt>
      <trkpt lat="48.55049" lon="7.19919">
        <ele>803.9</ele>
        <time>2026-03-15T07:53:31Z</time>
      </trkpt>
      <trkpt lat="48.55044" lon="7.19912">
        <ele>802.6</ele>
        <time>2026-03-15T07:53:36Z</time>
      </trkpt>
      <trkpt lat="48.5504" lon="7.19908">
        <ele>801.3</ele>
        <time>2026-03-15T07:53:41Z</time>
      </trkpt>
      <trkpt lat="48.55037" lon="7.19902">
        <ele>800.9</ele>
        <time>2026-03-15T07:53:46Z</time>
      </trkpt>
      <trkpt lat="48.55034" lon="7.19893">
        <ele>801.1</ele>
        <time>2026-03-15T07:53:51Z</time>
      </trkpt>
      <trkpt lat="48.55029" lon="7.19887">
        <ele>799.7</ele>
        <time>2026-03-15T07:53:56Z</time>
      </trkpt>
      <trkpt lat="48.55024" lon="7.19878">
        <ele>798.8</ele>
        <time>2026-03-15T07:54:01Z</time>
      </trkpt>
      <trkpt lat="48.55022" lon="7.19872">
        <ele>798.9</ele>
        <time>2026-03-15T07:54:06Z</time>
      </trkpt>
      <trkpt lat="48.5502" lon="7.19866">
        <ele>799</ele>
        <time>2026-03-15T07:54:11Z</time>
      </trkpt>
      <trkpt lat="48.55016" lon="7.1986">
        <ele>798.1</ele>
        <time>2026-03-15T07:54:16Z</time>
      </trkpt>
      <trkpt lat="48.55013" lon="7.19855">
        <ele>797.5</ele>
        <time>2026-03-15T07:54:21Z</time>
      </trkpt>
      <trkpt lat="48.55009" lon="7.19851">
        <ele>796.3</ele>
        <time>2026-03-15T07:54:26Z</time>
      </trkpt>
      <trkpt lat="48.55007" lon="7.19846">
        <ele>796.2</ele>
        <time>2026-03-15T07:54:31Z</time>
      </trkpt>
      <trkpt lat="48.55003" lon="7.1984">
        <ele>795.3</ele>
        <time>2026-03-15T07:54:36Z</time>
      </trkpt>
      <trkpt lat="48.55" lon="7.19833">
        <ele>795.1</ele>
        <time>2026-03-15T07:54:41Z</time>
      </trkpt>
      <trkpt lat="48.54998" lon="7.19828">
        <ele>794.6</ele>
        <time>2026-03-15T07:54:46Z</time>
      </trkpt>
      <trkpt lat="48.54996" lon="7.19822">
        <ele>794.3</ele>
        <time>2026-03-15T07:54:51Z</time>
      </trkpt>
      <trkpt lat="48.54992" lon="7.19815">
        <ele>792.8</ele>
        <time>2026-03-15T07:54:56Z</time>
      </trkpt>
      <trkpt lat="48.54988" lon="7.19807">
        <ele>791.5</ele>
        <time>2026-03-15T07:55:01Z</time>
      </trkpt>
      <trkpt lat="48.54986" lon="7.19802">
        <ele>791</ele>
        <time>2026-03-15T07:55:06Z</time>
      </trkpt>
      <trkpt lat="48.54986" lon="7.19802">
        <ele>791</ele>
        <time>2026-03-15T07:55:11Z</time>
      </trkpt>
      <trkpt lat="48.54986" lon="7.19802">
        <ele>791</ele>
        <time>2026-03-15T07:55:16Z</time>
      </trkpt>
      <trkpt lat="48.54986" lon="7.19802">
        <ele>791</ele>
        <time>2026-03-15T07:55:21Z</time>
      </trkpt>
      <trkpt lat="48.54986" lon="7.19802">
        <ele>791</ele>
        <time>2026-03-15T07:55:26Z</time>
      </trkpt>
      <trkpt lat="48.54978" lon="7.19793">
        <ele>787.1</ele>
        <time>2026-03-15T07:55:31Z</time>
      </trkpt>
      <trkpt lat="48.54978" lon="7.19793">
        <ele>787.1</ele>
        <time>2026-03-15T07:55:36Z</time>
      </trkpt>
      <trkpt lat="48.54978" lon="7.19793">
        <ele>787.1</ele>
        <time>2026-03-15T07:55:41Z</time>
      </trkpt>
      <trkpt lat="48.54978" lon="7.19793">
        <ele>787.1</ele>
        <time>2026-03-15T07:55:46Z</time>
      </trkpt>
      <trkpt lat="48.54978" lon="7.19793">
        <ele>787.1</ele>
        <time>2026-03-15T07:55:51Z</time>
      </trkpt>
      <trkpt lat="48.54978" lon="7.19793">
        <ele>787.1</ele>
        <time>2026-03-15T07:55:56Z</time>
      </trkpt>
      <trkpt lat="48.54969" lon="7.19791">
        <ele>781.2</ele>
        <time>2026-03-15T07:56:01Z</time>
      </trkpt>
      <trkpt lat="48.54965" lon="7.1979">
        <ele>778.6</ele>
        <time>2026-03-15T07:56:06Z</time>
      </trkpt>
      <trkpt lat="48.54962" lon="7.19788">
        <ele>776.9</ele>
        <time>2026-03-15T07:56:11Z</time>
      </trkpt>
      <trkpt lat="48.54959" lon="7.19785">
        <ele>775.4</ele>
        <time>2026-03-15T07:56:16Z</time>
      </trkpt>
      <trkpt lat="48.54959" lon="7.19785">
        <ele>775.4</ele>
        <time>2026-03-15T07:56:21Z</time>
      </trkpt>
      <trkpt lat="48.54959" lon="7.19785">
        <ele>775.4</ele>
        <time>2026-03-15T07:56:26Z</time>
      </trkpt>
      <trkpt lat="48.54959" lon="7.19785">
        <ele>775.4</ele>
        <time>2026-03-15T07:56:31Z</time>
      </trkpt>
      <trkpt lat="48.54959" lon="7.19785">
        <ele>775.4</ele>
        <time>2026-03-15T07:56:36Z</time>
      </trkpt>
      <trkpt lat="48.54959" lon="7.19785">
        <ele>775.4</ele>
        <time>2026-03-15T07:56:41Z</time>
      </trkpt>
      <trkpt lat="48.54959" lon="7.19785">
        <ele>775.4</ele>
        <time>2026-03-15T07:56:46Z</time>
      </trkpt>
      <trkpt lat="48.54959" lon="7.19785">
        <ele>775.4</ele>
        <time>2026-03-15T07:56:51Z</time>
      </trkpt>
      <trkpt lat="48.54959" lon="7.19785">
        <ele>775.4</ele>
        <time>2026-03-15T07:56:56Z</time>
      </trkpt>
      <trkpt lat="48.54959" lon="7.19785">
        <ele>775.4</ele>
        <time>2026-03-15T07:57:01Z</time>
      </trkpt>
      <trkpt lat="48.54959" lon="7.19785">
        <ele>775.4</ele>
        <time>2026-03-15T07:57:06Z</time>
      </trkpt>
      <trkpt lat="48.54959" lon="7.19785">
        <ele>775.4</ele>
        <time>2026-03-15T07:57:11Z</time>
      </trkpt>
      <trkpt lat="48.54959" lon="7.19785">
        <ele>775.4</ele>
        <time>2026-03-15T07:57:16Z</time>
      </trkpt>
      <trkpt lat="48.54959" lon="7.19785">
        <ele>775.4</ele>
        <time>2026-03-15T07:57:21Z</time>
      </trkpt>
      <trkpt lat="48.54959" lon="7.19785">
        <ele>775.4</ele>
        <time>2026-03-15T07:57:26Z</time>
      </trkpt>
      <trkpt lat="48.54959" lon="7.19785">
        <ele>775.4</ele>
        <time>2026-03-15T07:57:31Z</time>
      </trkpt>
      <trkpt lat="48.54959" lon="7.19785">
        <ele>775.4</ele>
        <time>2026-03-15T07:57:36Z</time>
      </trkpt>
      <trkpt lat="48.5496" lon="7.19776">
        <ele>777.6</ele>
        <time>2026-03-15T07:57:41Z</time>
      </trkpt>
      <trkpt lat="48.54958" lon="7.19767">
        <ele>777.8</ele>
        <time>2026-03-15T07:57:46Z</time>
      </trkpt>
      <trkpt lat="48.54955" lon="7.19759">
        <ele>777.1</ele>
        <time>2026-03-15T07:57:51Z</time>
      </trkpt>
      <trkpt lat="48.5495" lon="7.1975">
        <ele>775.2</ele>
        <time>2026-03-15T07:57:56Z</time>
      </trkpt>
      <trkpt lat="48.54947" lon="7.19742">
        <ele>774.8</ele>
        <time>2026-03-15T07:58:01Z</time>
      </trkpt>
      <trkpt lat="48.54943" lon="7.19733">
        <ele>773.9</ele>
        <time>2026-03-15T07:58:06Z</time>
      </trkpt>
      <trkpt lat="48.54938" lon="7.19729">
        <ele>771.3</ele>
        <time>2026-03-15T07:58:11Z</time>
      </trkpt>
      <trkpt lat="48.54935" lon="7.19721">
        <ele>770.8</ele>
        <time>2026-03-15T07:58:16Z</time>
      </trkpt>
      <trkpt lat="48.54932" lon="7.1971">
        <ele>771</ele>
        <time>2026-03-15T07:58:21Z</time>
      </trkpt>
      <trkpt lat="48.54929" lon="7.19701">
        <ele>770.8</ele>
        <time>2026-03-15T07:58:26Z</time>
      </trkpt>
      <trkpt lat="48.54927" lon="7.19693">
        <ele>771</ele>
        <time>2026-03-15T07:58:31Z</time>
      </trkpt>
      <trkpt lat="48.54923" lon="7.19684">
        <ele>770</ele>
        <time>2026-03-15T07:58:36Z</time>
      </trkpt>
      <trkpt lat="48.5492" lon="7.19674">
        <ele>769.9</ele>
        <time>2026-03-15T07:58:41Z</time>
      </trkpt>
      <trkpt lat="48.54917" lon="7.19665">
        <ele>769.6</ele>
        <time>2026-03-15T07:58:46Z</time>
      </trkpt>
      <trkpt lat="48.54913" lon="7.19657">
        <ele>768.7</ele>
        <time>2026-03-15T07:58:51Z</time>
      </trkpt>
      <trkpt lat="48.5491" lon="7.19647">
        <ele>768.9</ele>
        <time>2026-03-15T07:58:56Z</time>
      </trkpt>
      <trkpt lat="48.54908" lon="7.19638">
        <ele>769.4</ele>
        <time>2026-03-15T07:59:01Z</time>
      </trkpt>
      <trkpt lat="48.54904" lon="7.19627">
        <ele>769.1</ele>
        <time>2026-03-15T07:59:06Z</time>
      </trkpt>
      <trkpt lat="48.549" lon="7.19615">
        <ele>768.8</ele>
        <time>2026-03-15T07:59:11Z</time>
      </trkpt>
      <trkpt lat="48.54897" lon="7.19607">
        <ele>768.5</ele>
        <time>2026-03-15T07:59:16Z</time>
      </trkpt>
      <trkpt lat="48.54896" lon="7.19596">
        <ele>769.9</ele>
        <time>2026-03-15T07:59:21Z</time>
      </trkpt>
      <trkpt lat="48.54893" lon="7.19586">
        <ele>769.9</ele>
        <time>2026-03-15T07:59:26Z</time>
      </trkpt>
      <trkpt lat="48.54891" lon="7.19576">
        <ele>770.3</ele>
        <time>2026-03-15T07:59:31Z</time>
      </trkpt>
      <trkpt lat="48.54888" lon="7.19566">
        <ele>770.1</ele>
        <time>2026-03-15T07:59:36Z</time>
      </trkpt>
      <trkpt lat="48.54886" lon="7.19558">
        <ele>770.1</ele>
        <time>2026-03-15T07:59:41Z</time>
      </trkpt>
      <trkpt lat="48.54883" lon="7.19551">
        <ele>769.3</ele>
        <time>2026-03-15T07:59:46Z</time>
      </trkpt>
      <trkpt lat="48.54881" lon="7.19551">
        <ele>767.9</ele>
        <time>2026-03-15T07:59:51Z</time>
      </trkpt>
      <trkpt lat="48.54879" lon="7.1955">
        <ele>766.8</ele>
        <time>2026-03-15T07:59:56Z</time>
      </trkpt>
      <trkpt lat="48.54879" lon="7.1955">
        <ele>766.8</ele>
        <time>2026-03-15T08:00:01Z</time>
      </trkpt>
      <trkpt lat="48.54879" lon="7.1955">
        <ele>766.8</ele>
        <time>2026-03-15T08:00:06Z</time>
      </trkpt>
      <trkpt lat="48.54879" lon="7.1955">
        <ele>766.8</ele>
        <time>2026-03-15T08:00:11Z</time>
      </trkpt>
      <trkpt lat="48.54879" lon="7.1955">
        <ele>766.8</ele>
        <time>2026-03-15T08:00:16Z</time>
      </trkpt>
      <trkpt lat="48.54879" lon="7.1955">
        <ele>766.8</ele>
        <time>2026-03-15T08:00:21Z</time>
      </trkpt>
      <trkpt lat="48.54879" lon="7.1955">
        <ele>766.8</ele>
        <time>2026-03-15T08:00:26Z</time>
      </trkpt>
      <trkpt lat="48.54879" lon="7.1955">
        <ele>766.8</ele>
        <time>2026-03-15T08:00:31Z</time>
      </trkpt>
      <trkpt lat="48.54879" lon="7.1955">
        <ele>766.8</ele>
        <time>2026-03-15T08:00:36Z</time>
      </trkpt>
      <trkpt lat="48.54879" lon="7.1955">
        <ele>766.8</ele>
        <time>2026-03-15T08:00:41Z</time>
      </trkpt>
      <trkpt lat="48.54879" lon="7.1955">
        <ele>766.8</ele>
        <time>2026-03-15T08:00:46Z</time>
      </trkpt>
      <trkpt lat="48.54879" lon="7.1955">
        <ele>766.8</ele>
        <time>2026-03-15T08:00:51Z</time>
      </trkpt>
      <trkpt lat="48.54879" lon="7.1955">
        <ele>766.8</ele>
        <time>2026-03-15T08:00:56Z</time>
      </trkpt>
      <trkpt lat="48.54879" lon="7.1955">
        <ele>766.8</ele>
        <time>2026-03-15T08:01:01Z</time>
      </trkpt>
      <trkpt lat="48.54877" lon="7.19564">
        <ele>763.1</ele>
        <time>2026-03-15T08:01:06Z</time>
      </trkpt>
      <trkpt lat="48.54876" lon="7.19564">
        <ele>762.4</ele>
        <time>2026-03-15T08:01:11Z</time>
      </trkpt>
      <trkpt lat="48.54876" lon="7.19564">
        <ele>762.4</ele>
        <time>2026-03-15T08:01:16Z</time>
      </trkpt>
      <trkpt lat="48.5487" lon="7.19557">
        <ele>759.6</ele>
        <time>2026-03-15T08:01:21Z</time>
      </trkpt>
      <trkpt lat="48.54868" lon="7.1955">
        <ele>759.4</ele>
        <time>2026-03-15T08:01:26Z</time>
      </trkpt>
      <trkpt lat="48.54867" lon="7.19546">
        <ele>759.4</ele>
        <time>2026-03-15T08:01:31Z</time>
      </trkpt>
      <trkpt lat="48.54866" lon="7.19542">
        <ele>759.4</ele>
        <time>2026-03-15T08:01:36Z</time>
      </trkpt>
      <trkpt lat="48.54865" lon="7.19543">
        <ele>758.6</ele>
        <time>2026-03-15T08:01:41Z</time>
      </trkpt>
      <trkpt lat="48.54862" lon="7.19538">
        <ele>757.4</ele>
        <time>2026-03-15T08:01:46Z</time>
      </trkpt>
      <trkpt lat="48.54861" lon="7.19533">
        <ele>757.5</ele>
        <time>2026-03-15T08:01:51Z</time>
      </trkpt>
      <trkpt lat="48.54859" lon="7.19528">
        <ele>757</ele>
        <time>2026-03-15T08:01:56Z</time>
      </trkpt>
      <trkpt lat="48.54857" lon="7.19523">
        <ele>756.4</ele>
        <time>2026-03-15T08:02:01Z</time>
      </trkpt>
      <trkpt lat="48.54855" lon="7.19518">
        <ele>755.9</ele>
        <time>2026-03-15T08:02:06Z</time>
      </trkpt>
      <trkpt lat="48.54852" lon="7.19514">
        <ele>754.5</ele>
        <time>2026-03-15T08:02:11Z</time>
      </trkpt>
      <trkpt lat="48.5485" lon="7.19509">
        <ele>754</ele>
        <time>2026-03-15T08:02:16Z</time>
      </trkpt>
      <trkpt lat="48.54847" lon="7.19505">
        <ele>752.5</ele>
        <time>2026-03-15T08:02:21Z</time>
      </trkpt>
      <trkpt lat="48.54842" lon="7.19501">
        <ele>749.8</ele>
        <time>2026-03-15T08:02:26Z</time>
      </trkpt>
      <trkpt lat="48.5484" lon="7.19497">
        <ele>749.4</ele>
        <time>2026-03-15T08:02:31Z</time>
      </trkpt>
      <trkpt lat="48.54839" lon="7.19494">
        <ele>749.5</ele>
        <time>2026-03-15T08:02:36Z</time>
      </trkpt>
      <trkpt lat="48.54837" lon="7.19491">
        <ele>749</ele>
        <time>2026-03-15T08:02:41Z</time>
      </trkpt>
      <trkpt lat="48.54836" lon="7.19485">
        <ele>750</ele>
        <time>2026-03-15T08:02:46Z</time>
      </trkpt>
      <trkpt lat="48.54833" lon="7.19481">
        <ele>749</ele>
        <time>2026-03-15T08:02:51Z</time>
      </trkpt>
      <trkpt lat="48.5483" lon="7.19474">
        <ele>749.2</ele>
        <time>2026-03-15T08:02:56Z</time>
      </trkpt>
      <trkpt lat="48.54828" lon="7.19467">
        <ele>749.9</ele>
        <time>2026-03-15T08:03:01Z</time>
      </trkpt>
      <trkpt lat="48.54826" lon="7.19462">
        <ele>750.1</ele>
        <time>2026-03-15T08:03:06Z</time>
      </trkpt>
      <trkpt lat="48.54823" lon="7.19457">
        <ele>749.6</ele>
        <time>2026-03-15T08:03:11Z</time>
      </trkpt>
      <trkpt lat="48.5482" lon="7.19454">
        <ele>748.6</ele>
        <time>2026-03-15T08:03:16Z</time>
      </trkpt>
      <trkpt lat="48.54819" lon="7.19449">
        <ele>749.3</ele>
        <time>2026-03-15T08:03:21Z</time>
      </trkpt>
      <trkpt lat="48.54817" lon="7.19444">
        <ele>749.5</ele>
        <time>2026-03-15T08:03:26Z</time>
      </trkpt>
      <trkpt lat="48.54815" lon="7.19439">
        <ele>749.6</ele>
        <time>2026-03-15T08:03:31Z</time>
      </trkpt>
      <trkpt lat="48.54813" lon="7.19432">
        <ele>750.2</ele>
        <time>2026-03-15T08:03:36Z</time>
      </trkpt>
      <trkpt lat="48.5481" lon="7.19427">
        <ele>749.7</ele>
        <time>2026-03-15T08:03:41Z</time>
      </trkpt>
      <trkpt lat="48.54805" lon="7.19421">
        <ele>748.2</ele>
        <time>2026-03-15T08:03:46Z</time>
      </trkpt>
      <trkpt lat="48.54803" lon="7.19414">
        <ele>748.8</ele>
        <time>2026-03-15T08:03:51Z</time>
      </trkpt>
      <trkpt lat="48.54801" lon="7.19409">
        <ele>748.9</ele>
        <time>2026-03-15T08:03:56Z</time>
      </trkpt>
      <trkpt lat="48.54799" lon="7.19405">
        <ele>748.7</ele>
        <time>2026-03-15T08:04:01Z</time>
      </trkpt>
      <trkpt lat="48.54797" lon="7.194">
        <ele>748.8</ele>
        <time>2026-03-15T08:04:06Z</time>
      </trkpt>
      <trkpt lat="48.54795" lon="7.19395">
        <ele>748.9</ele>
        <time>2026-03-15T08:04:11Z</time>
      </trkpt>
      <trkpt lat="48.54794" lon="7.19391">
        <ele>749.4</ele>
        <time>2026-03-15T08:04:16Z</time>
      </trkpt>
      <trkpt lat="48.54793" lon="7.19388">
        <ele>749.6</ele>
        <time>2026-03-15T08:04:21Z</time>
      </trkpt>
      <trkpt lat="48.54792" lon="7.19387">
        <ele>749.2</ele>
        <time>2026-03-15T08:04:26Z</time>
      </trkpt>
      <trkpt lat="48.54787" lon="7.19381">
        <ele>747.8</ele>
        <time>2026-03-15T08:04:31Z</time>
      </trkpt>
      <trkpt lat="48.54786" lon="7.19377">
        <ele>748.3</ele>
        <time>2026-03-15T08:04:36Z</time>
      </trkpt>
      <trkpt lat="48.54785" lon="7.19373">
        <ele>748.8</ele>
        <time>2026-03-15T08:04:41Z</time>
      </trkpt>
      <trkpt lat="48.54783" lon="7.1937">
        <ele>748.4</ele>
        <time>2026-03-15T08:04:46Z</time>
      </trkpt>
      <trkpt lat="48.54782" lon="7.19365">
        <ele>749.1</ele>
        <time>2026-03-15T08:04:51Z</time>
      </trkpt>
      <trkpt lat="48.54781" lon="7.19364">
        <ele>748.8</ele>
        <time>2026-03-15T08:04:56Z</time>
      </trkpt>
      <trkpt lat="48.54779" lon="7.19358">
        <ele>749.3</ele>
        <time>2026-03-15T08:05:01Z</time>
      </trkpt>
      <trkpt lat="48.54779" lon="7.19358">
        <ele>749.3</ele>
        <time>2026-03-15T08:05:06Z</time>
      </trkpt>
      <trkpt lat="48.54779" lon="7.19358">
        <ele>749.3</ele>
        <time>2026-03-15T08:05:11Z</time>
      </trkpt>
      <trkpt lat="48.54779" lon="7.19358">
        <ele>749.3</ele>
        <time>2026-03-15T08:05:16Z</time>
      </trkpt>
      <trkpt lat="48.54779" lon="7.19358">
        <ele>749.3</ele>
        <time>2026-03-15T08:05:21Z</time>
      </trkpt>
      <trkpt lat="48.54775" lon="7.1935">
        <ele>749.1</ele>
        <time>2026-03-15T08:05:26Z</time>
      </trkpt>
      <trkpt lat="48.54773" lon="7.19344">
        <ele>749.6</ele>
        <time>2026-03-15T08:05:31Z</time>
      </trkpt>
      <trkpt lat="48.54771" lon="7.1934">
        <ele>749.5</ele>
        <time>2026-03-15T08:05:36Z</time>
      </trkpt>
      <trkpt lat="48.54768" lon="7.19334">
        <ele>749.4</ele>
        <time>2026-03-15T08:05:41Z</time>
      </trkpt>
      <trkpt lat="48.54767" lon="7.19329">
        <ele>750.5</ele>
        <time>2026-03-15T08:05:46Z</time>
      </trkpt>
      <trkpt lat="48.54765" lon="7.19326">
        <ele>750.3</ele>
        <time>2026-03-15T08:05:51Z</time>
      </trkpt>
      <trkpt lat="48.54762" lon="7.19322">
        <ele>749.8</ele>
        <time>2026-03-15T08:05:56Z</time>
      </trkpt>
      <trkpt lat="48.54758" lon="7.19317">
        <ele>749.1</ele>
        <time>2026-03-15T08:06:01Z</time>
      </trkpt>
      <trkpt lat="48.54753" lon="7.19313">
        <ele>747.4</ele>
        <time>2026-03-15T08:06:06Z</time>
      </trkpt>
      <trkpt lat="48.54749" lon="7.19311">
        <ele>745.7</ele>
        <time>2026-03-15T08:06:11Z</time>
      </trkpt>
      <trkpt lat="48.54745" lon="7.19308">
        <ele>744.4</ele>
        <time>2026-03-15T08:06:16Z</time>
      </trkpt>
      <trkpt lat="48.54741" lon="7.19304">
        <ele>743.5</ele>
        <time>2026-03-15T08:06:21Z</time>
      </trkpt>
      <trkpt lat="48.54737" lon="7.19299">
        <ele>742.9</ele>
        <time>2026-03-15T08:06:26Z</time>
      </trkpt>
      <trkpt lat="48.54734" lon="7.19294">
        <ele>742.9</ele>
        <time>2026-03-15T08:06:31Z</time>
      </trkpt>
      <trkpt lat="48.54732" lon="7.19288">
        <ele>743.8</ele>
        <time>2026-03-15T08:06:36Z</time>
      </trkpt>
      <trkpt lat="48.5473" lon="7.19283">
        <ele>744.3</ele>
        <time>2026-03-15T08:06:41Z</time>
      </trkpt>
      <trkpt lat="48.54726" lon="7.19277">
        <ele>744.1</ele>
        <time>2026-03-15T08:06:46Z</time>
      </trkpt>
      <trkpt lat="48.54721" lon="7.19272">
        <ele>743</ele>
        <time>2026-03-15T08:06:51Z</time>
      </trkpt>
      <trkpt lat="48.54717" lon="7.19265">
        <ele>743.2</ele>
        <time>2026-03-15T08:06:56Z</time>
      </trkpt>
      <trkpt lat="48.54713" lon="7.19258">
        <ele>743.3</ele>
        <time>2026-03-15T08:07:01Z</time>
      </trkpt>
      <trkpt lat="48.5471" lon="7.1925">
        <ele>744.4</ele>
        <time>2026-03-15T08:07:06Z</time>
      </trkpt>
      <trkpt lat="48.54707" lon="7.19244">
        <ele>744.9</ele>
        <time>2026-03-15T08:07:11Z</time>
      </trkpt>
      <trkpt lat="48.54704" lon="7.19239">
        <ele>745</ele>
        <time>2026-03-15T08:07:16Z</time>
      </trkpt>
      <trkpt lat="48.547" lon="7.19235">
        <ele>744.2</ele>
        <time>2026-03-15T08:07:21Z</time>
      </trkpt>
      <trkpt lat="48.54697" lon="7.1923">
        <ele>744.3</ele>
        <time>2026-03-15T08:07:26Z</time>
      </trkpt>
      <trkpt lat="48.54691" lon="7.19228">
        <ele>741.7</ele>
        <time>2026-03-15T08:07:31Z</time>
      </trkpt>
      <trkpt lat="48.54687" lon="7.19224">
        <ele>740.9</ele>
        <time>2026-03-15T08:07:36Z</time>
      </trkpt>
      <trkpt lat="48.54682" lon="7.1922">
        <ele>739.5</ele>
        <time>2026-03-15T08:07:41Z</time>
      </trkpt>
      <trkpt lat="48.54677" lon="7.19216">
        <ele>738.1</ele>
        <time>2026-03-15T08:07:46Z</time>
      </trkpt>
      <trkpt lat="48.54673" lon="7.19212">
        <ele>737.3</ele>
        <time>2026-03-15T08:07:51Z</time>
      </trkpt>
      <trkpt lat="48.54669" lon="7.19205">
        <ele>737.4</ele>
        <time>2026-03-15T08:07:56Z</time>
      </trkpt>
      <trkpt lat="48.54666" lon="7.19201">
        <ele>737.3</ele>
        <time>2026-03-15T08:08:01Z</time>
      </trkpt>
      <trkpt lat="48.54661" lon="7.19197">
        <ele>737</ele>
        <time>2026-03-15T08:08:06Z</time>
      </trkpt>
      <trkpt lat="48.54656" lon="7.1919">
        <ele>737.8</ele>
        <time>2026-03-15T08:08:11Z</time>
      </trkpt>
      <trkpt lat="48.54653" lon="7.19186">
        <ele>738.3</ele>
        <time>2026-03-15T08:08:16Z</time>
      </trkpt>
      <trkpt lat="48.54649" lon="7.19179">
        <ele>739.4</ele>
        <time>2026-03-15T08:08:21Z</time>
      </trkpt>
      <trkpt lat="48.54643" lon="7.19174">
        <ele>739.3</ele>
        <time>2026-03-15T08:08:26Z</time>
      </trkpt>
      <trkpt lat="48.54637" lon="7.19172">
        <ele>738.2</ele>
        <time>2026-03-15T08:08:31Z</time>
      </trkpt>
      <trkpt lat="48.54631" lon="7.19168">
        <ele>737.8</ele>
        <time>2026-03-15T08:08:36Z</time>
      </trkpt>
      <trkpt lat="48.54627" lon="7.19163">
        <ele>737.9</ele>
        <time>2026-03-15T08:08:41Z</time>
      </trkpt>
      <trkpt lat="48.54623" lon="7.19156">
        <ele>738.3</ele>
        <time>2026-03-15T08:08:46Z</time>
      </trkpt>
      <trkpt lat="48.54619" lon="7.1915">
        <ele>738.4</ele>
        <time>2026-03-15T08:08:51Z</time>
      </trkpt>
      <trkpt lat="48.54615" lon="7.19146">
        <ele>738.1</ele>
        <time>2026-03-15T08:08:56Z</time>
      </trkpt>
      <trkpt lat="48.54611" lon="7.1914">
        <ele>738.3</ele>
        <time>2026-03-15T08:09:01Z</time>
      </trkpt>
      <trkpt lat="48.54606" lon="7.19136">
        <ele>737.7</ele>
        <time>2026-03-15T08:09:06Z</time>
      </trkpt>
      <trkpt lat="48.54601" lon="7.1913">
        <ele>737.6</ele>
        <time>2026-03-15T08:09:11Z</time>
      </trkpt>
      <trkpt lat="48.54597" lon="7.19125">
        <ele>737.5</ele>
        <time>2026-03-15T08:09:16Z</time>
      </trkpt>
      <trkpt lat="48.54593" lon="7.19121">
        <ele>737.2</ele>
        <time>2026-03-15T08:09:21Z</time>
      </trkpt>
      <trkpt lat="48.54588" lon="7.19115">
        <ele>737.1</ele>
        <time>2026-03-15T08:09:26Z</time>
      </trkpt>
      <trkpt lat="48.54584" lon="7.19109">
        <ele>737.3</ele>
        <time>2026-03-15T08:09:31Z</time>
      </trkpt>
      <trkpt lat="48.5458" lon="7.19105">
        <ele>738.5</ele>
        <time>2026-03-15T08:09:36Z</time>
      </trkpt>
      <trkpt lat="48.54575" lon="7.19099">
        <ele>740.6</ele>
        <time>2026-03-15T08:09:41Z</time>
      </trkpt>
      <trkpt lat="48.54572" lon="7.19093">
        <ele>742.4</ele>
        <time>2026-03-15T08:09:46Z</time>
      </trkpt>
      <trkpt lat="48.5457" lon="7.19086">
        <ele>744.3</ele>
        <time>2026-03-15T08:09:51Z</time>
      </trkpt>
      <trkpt lat="48.54564" lon="7.19078">
        <ele>745.8</ele>
        <time>2026-03-15T08:09:56Z</time>
      </trkpt>
      <trkpt lat="48.54557" lon="7.1907">
        <ele>746.9</ele>
        <time>2026-03-15T08:10:01Z</time>
      </trkpt>
      <trkpt lat="48.54552" lon="7.19064">
        <ele>747.5</ele>
        <time>2026-03-15T08:10:06Z</time>
      </trkpt>
      <trkpt lat="48.54548" lon="7.19059">
        <ele>748.1</ele>
        <time>2026-03-15T08:10:11Z</time>
      </trkpt>
      <trkpt lat="48.54546" lon="7.19053">
        <ele>748.3</ele>
        <time>2026-03-15T08:10:16Z</time>
      </trkpt>
      <trkpt lat="48.54543" lon="7.19045">
        <ele>748.6</ele>
        <time>2026-03-15T08:10:21Z</time>
      </trkpt>
      <trkpt lat="48.54537" lon="7.19041">
        <ele>749.3</ele>
        <time>2026-03-15T08:10:26Z</time>
      </trkpt>
      <trkpt lat="48.54532" lon="7.19032">
        <ele>749.7</ele>
        <time>2026-03-15T08:10:31Z</time>
      </trkpt>
      <trkpt lat="48.54528" lon="7.19024">
        <ele>750</ele>
        <time>2026-03-15T08:10:36Z</time>
      </trkpt>
      <trkpt lat="48.54525" lon="7.19016">
        <ele>750.2</ele>
        <time>2026-03-15T08:10:41Z</time>
      </trkpt>
      <trkpt lat="48.54517" lon="7.19015">
        <ele>750.9</ele>
        <time>2026-03-15T08:10:46Z</time>
      </trkpt>
      <trkpt lat="48.54514" lon="7.19025">
        <ele>751.5</ele>
        <time>2026-03-15T08:10:51Z</time>
      </trkpt>
      <trkpt lat="48.54512" lon="7.19033">
        <ele>751.9</ele>
        <time>2026-03-15T08:10:56Z</time>
      </trkpt>
      <trkpt lat="48.54512" lon="7.19033">
        <ele>751.9</ele>
        <time>2026-03-15T08:11:01Z</time>
      </trkpt>
      <trkpt lat="48.54512" lon="7.19033">
        <ele>751.9</ele>
        <time>2026-03-15T08:11:06Z</time>
      </trkpt>
      <trkpt lat="48.54512" lon="7.19033">
        <ele>751.9</ele>
        <time>2026-03-15T08:11:11Z</time>
      </trkpt>
      <trkpt lat="48.54512" lon="7.19033">
        <ele>751.9</ele>
        <time>2026-03-15T08:11:16Z</time>
      </trkpt>
      <trkpt lat="48.54512" lon="7.19033">
        <ele>751.9</ele>
        <time>2026-03-15T08:11:21Z</time>
      </trkpt>
      <trkpt lat="48.54512" lon="7.19033">
        <ele>751.9</ele>
        <time>2026-03-15T08:11:26Z</time>
      </trkpt>
      <trkpt lat="48.54512" lon="7.19033">
        <ele>751.9</ele>
        <time>2026-03-15T08:11:31Z</time>
      </trkpt>
      <trkpt lat="48.54512" lon="7.19033">
        <ele>751.9</ele>
        <time>2026-03-15T08:11:36Z</time>
      </trkpt>
      <trkpt lat="48.54512" lon="7.19033">
        <ele>751.9</ele>
        <time>2026-03-15T08:11:41Z</time>
      </trkpt>
      <trkpt lat="48.54512" lon="7.19033">
        <ele>751.9</ele>
        <time>2026-03-15T08:11:46Z</time>
      </trkpt>
      <trkpt lat="48.54512" lon="7.19033">
        <ele>751.9</ele>
        <time>2026-03-15T08:11:51Z</time>
      </trkpt>
      <trkpt lat="48.54512" lon="7.19033">
        <ele>751.9</ele>
        <time>2026-03-15T08:11:56Z</time>
      </trkpt>
      <trkpt lat="48.54512" lon="7.19033">
        <ele>751.9</ele>
        <time>2026-03-15T08:12:01Z</time>
      </trkpt>
      <trkpt lat="48.54512" lon="7.19033">
        <ele>751.9</ele>
        <time>2026-03-15T08:12:06Z</time>
      </trkpt>
      <trkpt lat="48.54512" lon="7.19033">
        <ele>751.9</ele>
        <time>2026-03-15T08:12:11Z</time>
      </trkpt>
      <trkpt lat="48.54512" lon="7.19033">
        <ele>751.9</ele>
        <time>2026-03-15T08:12:16Z</time>
      </trkpt>
      <trkpt lat="48.54512" lon="7.19033">
        <ele>751.9</ele>
        <time>2026-03-15T08:12:21Z</time>
      </trkpt>
      <trkpt lat="48.54512" lon="7.19033">
        <ele>751.9</ele>
        <time>2026-03-15T08:12:26Z</time>
      </trkpt>
      <trkpt lat="48.54512" lon="7.19033">
        <ele>751.9</ele>
        <time>2026-03-15T08:12:31Z</time>
      </trkpt>
      <trkpt lat="48.54512" lon="7.19033">
        <ele>751.9</ele>
        <time>2026-03-15T08:12:36Z</time>
      </trkpt>
      <trkpt lat="48.54512" lon="7.19033">
        <ele>751.9</ele>
        <time>2026-03-15T08:12:41Z</time>
      </trkpt>
      <trkpt lat="48.54512" lon="7.19033">
        <ele>751.9</ele>
        <time>2026-03-15T08:12:46Z</time>
      </trkpt>
      <trkpt lat="48.54512" lon="7.19033">
        <ele>751.9</ele>
        <time>2026-03-15T08:12:51Z</time>
      </trkpt>
      <trkpt lat="48.54512" lon="7.19033">
        <ele>751.9</ele>
        <time>2026-03-15T08:12:56Z</time>
      </trkpt>
      <trkpt lat="48.54512" lon="7.19033">
        <ele>751.9</ele>
        <time>2026-03-15T08:13:01Z</time>
      </trkpt>
      <trkpt lat="48.54512" lon="7.19033">
        <ele>751.9</ele>
        <time>2026-03-15T08:13:06Z</time>
      </trkpt>
      <trkpt lat="48.54512" lon="7.19033">
        <ele>751.9</ele>
        <time>2026-03-15T08:13:11Z</time>
      </trkpt>
      <trkpt lat="48.54512" lon="7.19033">
        <ele>751.9</ele>
        <time>2026-03-15T08:13:16Z</time>
      </trkpt>
      <trkpt lat="48.54512" lon="7.19033">
        <ele>751.9</ele>
        <time>2026-03-15T08:13:21Z</time>
      </trkpt>
      <trkpt lat="48.54512" lon="7.19033">
        <ele>751.9</ele>
        <time>2026-03-15T08:13:26Z</time>
      </trkpt>
      <trkpt lat="48.54512" lon="7.19033">
        <ele>751.9</ele>
        <time>2026-03-15T08:13:31Z</time>
      </trkpt>
      <trkpt lat="48.54512" lon="7.19033">
        <ele>751.9</ele>
        <time>2026-03-15T08:13:36Z</time>
      </trkpt>
      <trkpt lat="48.54512" lon="7.19033">
        <ele>751.9</ele>
        <time>2026-03-15T08:13:41Z</time>
      </trkpt>
      <trkpt lat="48.54512" lon="7.19033">
        <ele>751.9</ele>
        <time>2026-03-15T08:13:46Z</time>
      </trkpt>
      <trkpt lat="48.54512" lon="7.19033">
        <ele>751.9</ele>
        <time>2026-03-15T08:13:51Z</time>
      </trkpt>
      <trkpt lat="48.54512" lon="7.19033">
        <ele>751.9</ele>
        <time>2026-03-15T08:13:56Z</time>
      </trkpt>
      <trkpt lat="48.54512" lon="7.19033">
        <ele>751.9</ele>
        <time>2026-03-15T08:14:01Z</time>
      </trkpt>
      <trkpt lat="48.54512" lon="7.19033">
        <ele>751.9</ele>
        <time>2026-03-15T08:14:06Z</time>
      </trkpt>
      <trkpt lat="48.54512" lon="7.19033">
        <ele>751.9</ele>
        <time>2026-03-15T08:14:11Z</time>
      </trkpt>
      <trkpt lat="48.54512" lon="7.19033">
        <ele>751.9</ele>
        <time>2026-03-15T08:14:16Z</time>
      </trkpt>
      <trkpt lat="48.54512" lon="7.19033">
        <ele>751.9</ele>
        <time>2026-03-15T08:14:21Z</time>
      </trkpt>
      <trkpt lat="48.54512" lon="7.19033">
        <ele>751.9</ele>
        <time>2026-03-15T08:14:26Z</time>
      </trkpt>
      <trkpt lat="48.54512" lon="7.19033">
        <ele>751.9</ele>
        <time>2026-03-15T08:14:31Z</time>
      </trkpt>
      <trkpt lat="48.54512" lon="7.19033">
        <ele>751.9</ele>
        <time>2026-03-15T08:14:36Z</time>
      </trkpt>
      <trkpt lat="48.54512" lon="7.19033">
        <ele>751.9</ele>
        <time>2026-03-15T08:14:41Z</time>
      </trkpt>
      <trkpt lat="48.54512" lon="7.19033">
        <ele>751.9</ele>
        <time>2026-03-15T08:14:46Z</time>
      </trkpt>
      <trkpt lat="48.54511" lon="7.19022">
        <ele>751.7</ele>
        <time>2026-03-15T08:14:51Z</time>
      </trkpt>
      <trkpt lat="48.54506" lon="7.19017">
        <ele>752</ele>
        <time>2026-03-15T08:14:56Z</time>
      </trkpt>
      <trkpt lat="48.54498" lon="7.19016">
        <ele>753.1</ele>
        <time>2026-03-15T08:15:01Z</time>
      </trkpt>
      <trkpt lat="48.54494" lon="7.19019">
        <ele>754.3</ele>
        <time>2026-03-15T08:15:06Z</time>
      </trkpt>
      <trkpt lat="48.54493" lon="7.1902">
        <ele>754.6</ele>
        <time>2026-03-15T08:15:11Z</time>
      </trkpt>
      <trkpt lat="48.54493" lon="7.1902">
        <ele>754.6</ele>
        <time>2026-03-15T08:15:16Z</time>
      </trkpt>
      <trkpt lat="48.54493" lon="7.1902">
        <ele>754.6</ele>
        <time>2026-03-15T08:15:21Z</time>
      </trkpt>
      <trkpt lat="48.54493" lon="7.1902">
        <ele>754.6</ele>
        <time>2026-03-15T08:15:26Z</time>
      </trkpt>
      <trkpt lat="48.54493" lon="7.1902">
        <ele>754.6</ele>
        <time>2026-03-15T08:15:31Z</time>
      </trkpt>
      <trkpt lat="48.54493" lon="7.1902">
        <ele>754.6</ele>
        <time>2026-03-15T08:15:36Z</time>
      </trkpt>
      <trkpt lat="48.54493" lon="7.1902">
        <ele>754.6</ele>
        <time>2026-03-15T08:15:41Z</time>
      </trkpt>
      <trkpt lat="48.54493" lon="7.1902">
        <ele>754.6</ele>
        <time>2026-03-15T08:15:46Z</time>
      </trkpt>
      <trkpt lat="48.54493" lon="7.1902">
        <ele>754.6</ele>
        <time>2026-03-15T08:15:51Z</time>
      </trkpt>
      <trkpt lat="48.54493" lon="7.1902">
        <ele>754.6</ele>
        <time>2026-03-15T08:15:56Z</time>
      </trkpt>
      <trkpt lat="48.54493" lon="7.1902">
        <ele>754.6</ele>
        <time>2026-03-15T08:16:01Z</time>
      </trkpt>
      <trkpt lat="48.54493" lon="7.1902">
        <ele>754.6</ele>
        <time>2026-03-15T08:16:06Z</time>
      </trkpt>
      <trkpt lat="48.54493" lon="7.1902">
        <ele>754.6</ele>
        <time>2026-03-15T08:16:11Z</time>
      </trkpt>
      <trkpt lat="48.54493" lon="7.1902">
        <ele>754.6</ele>
        <time>2026-03-15T08:16:16Z</time>
      </trkpt>
      <trkpt lat="48.54493" lon="7.1902">
        <ele>754.6</ele>
        <time>2026-03-15T08:16:21Z</time>
      </trkpt>
      <trkpt lat="48.54493" lon="7.1902">
        <ele>754.6</ele>
        <time>2026-03-15T08:16:26Z</time>
      </trkpt>
      <trkpt lat="48.54493" lon="7.1902">
        <ele>754.6</ele>
        <time>2026-03-15T08:16:31Z</time>
      </trkpt>
      <trkpt lat="48.54493" lon="7.1902">
        <ele>754.6</ele>
        <time>2026-03-15T08:16:36Z</time>
      </trkpt>
      <trkpt lat="48.54491" lon="7.19026">
        <ele>755.4</ele>
        <time>2026-03-15T08:16:41Z</time>
      </trkpt>
      <trkpt lat="48.54485" lon="7.19035">
        <ele>757.2</ele>
        <time>2026-03-15T08:16:46Z</time>
      </trkpt>
      <trkpt lat="48.5448" lon="7.1904">
        <ele>758.6</ele>
        <time>2026-03-15T08:16:51Z</time>
      </trkpt>
      <trkpt lat="48.54476" lon="7.19042">
        <ele>759.7</ele>
        <time>2026-03-15T08:16:56Z</time>
      </trkpt>
      <trkpt lat="48.5447" lon="7.19046">
        <ele>761.3</ele>
        <time>2026-03-15T08:17:01Z</time>
      </trkpt>
      <trkpt lat="48.54463" lon="7.19052">
        <ele>763.1</ele>
        <time>2026-03-15T08:17:06Z</time>
      </trkpt>
      <trkpt lat="48.54458" lon="7.19056">
        <ele>764.4</ele>
        <time>2026-03-15T08:17:11Z</time>
      </trkpt>
      <trkpt lat="48.54453" lon="7.19061">
        <ele>765.7</ele>
        <time>2026-03-15T08:17:16Z</time>
      </trkpt>
      <trkpt lat="48.54448" lon="7.19065">
        <ele>766.9</ele>
        <time>2026-03-15T08:17:21Z</time>
      </trkpt>
      <trkpt lat="48.54444" lon="7.19069">
        <ele>767.8</ele>
        <time>2026-03-15T08:17:26Z</time>
      </trkpt>
      <trkpt lat="48.54438" lon="7.1907">
        <ele>769.3</ele>
        <time>2026-03-15T08:17:31Z</time>
      </trkpt>
      <trkpt lat="48.54431" lon="7.19077">
        <ele>770.8</ele>
        <time>2026-03-15T08:17:36Z</time>
      </trkpt>
      <trkpt lat="48.54427" lon="7.19081">
        <ele>771.7</ele>
        <time>2026-03-15T08:17:41Z</time>
      </trkpt>
      <trkpt lat="48.54422" lon="7.19084">
        <ele>772.6</ele>
        <time>2026-03-15T08:17:46Z</time>
      </trkpt>
      <trkpt lat="48.54417" lon="7.19084">
        <ele>773.7</ele>
        <time>2026-03-15T08:17:51Z</time>
      </trkpt>
      <trkpt lat="48.5441" lon="7.19087">
        <ele>773.3</ele>
        <time>2026-03-15T08:17:56Z</time>
      </trkpt>
      <trkpt lat="48.544" lon="7.19096">
        <ele>771.1</ele>
        <time>2026-03-15T08:18:01Z</time>
      </trkpt>
      <trkpt lat="48.54392" lon="7.19108">
        <ele>767.5</ele>
        <time>2026-03-15T08:18:06Z</time>
      </trkpt>
      <trkpt lat="48.54385" lon="7.19114">
        <ele>765.9</ele>
        <time>2026-03-15T08:18:11Z</time>
      </trkpt>
      <trkpt lat="48.54378" lon="7.19117">
        <ele>765.4</ele>
        <time>2026-03-15T08:18:16Z</time>
      </trkpt>
      <trkpt lat="48.54371" lon="7.19117">
        <ele>765.9</ele>
        <time>2026-03-15T08:18:21Z</time>
      </trkpt>
      <trkpt lat="48.54365" lon="7.1912">
        <ele>765.2</ele>
        <time>2026-03-15T08:18:26Z</time>
      </trkpt>
      <trkpt lat="48.54359" lon="7.19123">
        <ele>764.5</ele>
        <time>2026-03-15T08:18:31Z</time>
      </trkpt>
      <trkpt lat="48.54353" lon="7.19128">
        <ele>763.1</ele>
        <time>2026-03-15T08:18:36Z</time>
      </trkpt>
      <trkpt lat="48.54346" lon="7.19131">
        <ele>762.5</ele>
        <time>2026-03-15T08:18:41Z</time>
      </trkpt>
      <trkpt lat="48.54339" lon="7.19136">
        <ele>761.1</ele>
        <time>2026-03-15T08:18:46Z</time>
      </trkpt>
      <trkpt lat="48.54333" lon="7.19139">
        <ele>760.3</ele>
        <time>2026-03-15T08:18:51Z</time>
      </trkpt>
      <trkpt lat="48.54326" lon="7.19143">
        <ele>758.9</ele>
        <time>2026-03-15T08:18:56Z</time>
      </trkpt>
      <trkpt lat="48.54319" lon="7.19145">
        <ele>758.2</ele>
        <time>2026-03-15T08:19:01Z</time>
      </trkpt>
      <trkpt lat="48.54311" lon="7.19147">
        <ele>757.4</ele>
        <time>2026-03-15T08:19:06Z</time>
      </trkpt>
      <trkpt lat="48.54306" lon="7.19149">
        <ele>756.7</ele>
        <time>2026-03-15T08:19:11Z</time>
      </trkpt>
      <trkpt lat="48.54301" lon="7.19153">
        <ele>755.1</ele>
        <time>2026-03-15T08:19:16Z</time>
      </trkpt>
      <trkpt lat="48.54294" lon="7.19155">
        <ele>754.3</ele>
        <time>2026-03-15T08:19:21Z</time>
      </trkpt>
      <trkpt lat="48.54287" lon="7.19155">
        <ele>754.3</ele>
        <time>2026-03-15T08:19:26Z</time>
      </trkpt>
      <trkpt lat="48.5428" lon="7.19158">
        <ele>753</ele>
        <time>2026-03-15T08:19:31Z</time>
      </trkpt>
      <trkpt lat="48.54273" lon="7.19161">
        <ele>751.7</ele>
        <time>2026-03-15T08:19:36Z</time>
      </trkpt>
      <trkpt lat="48.54265" lon="7.19164">
        <ele>750.3</ele>
        <time>2026-03-15T08:19:41Z</time>
      </trkpt>
      <trkpt lat="48.54258" lon="7.19163">
        <ele>750.7</ele>
        <time>2026-03-15T08:19:46Z</time>
      </trkpt>
      <trkpt lat="48.54251" lon="7.19163">
        <ele>750.6</ele>
        <time>2026-03-15T08:19:51Z</time>
      </trkpt>
      <trkpt lat="48.54245" lon="7.1916">
        <ele>752.1</ele>
        <time>2026-03-15T08:19:56Z</time>
      </trkpt>
      <trkpt lat="48.54239" lon="7.19158">
        <ele>753</ele>
        <time>2026-03-15T08:20:01Z</time>
      </trkpt>
      <trkpt lat="48.54232" lon="7.19159">
        <ele>752.7</ele>
        <time>2026-03-15T08:20:06Z</time>
      </trkpt>
      <trkpt lat="48.54225" lon="7.19161">
        <ele>752</ele>
        <time>2026-03-15T08:20:11Z</time>
      </trkpt>
      <trkpt lat="48.54217" lon="7.19162">
        <ele>751.7</ele>
        <time>2026-03-15T08:20:16Z</time>
      </trkpt>
      <trkpt lat="48.54209" lon="7.19164">
        <ele>751.1</ele>
        <time>2026-03-15T08:20:21Z</time>
      </trkpt>
      <trkpt lat="48.54203" lon="7.19164">
        <ele>751.2</ele>
        <time>2026-03-15T08:20:26Z</time>
      </trkpt>
      <trkpt lat="48.54194" lon="7.19162">
        <ele>752.2</ele>
        <time>2026-03-15T08:20:31Z</time>
      </trkpt>
      <trkpt lat="48.54188" lon="7.19161">
        <ele>752.7</ele>
        <time>2026-03-15T08:20:36Z</time>
      </trkpt>
      <trkpt lat="48.5418" lon="7.19162">
        <ele>752.5</ele>
        <time>2026-03-15T08:20:41Z</time>
      </trkpt>
      <trkpt lat="48.54174" lon="7.19161">
        <ele>753</ele>
        <time>2026-03-15T08:20:46Z</time>
      </trkpt>
      <trkpt lat="48.54168" lon="7.19163">
        <ele>752.3</ele>
        <time>2026-03-15T08:20:51Z</time>
      </trkpt>
      <trkpt lat="48.54161" lon="7.19163">
        <ele>751.1</ele>
        <time>2026-03-15T08:20:56Z</time>
      </trkpt>
      <trkpt lat="48.54154" lon="7.19163">
        <ele>749.6</ele>
        <time>2026-03-15T08:21:01Z</time>
      </trkpt>
      <trkpt lat="48.54146" lon="7.19166">
        <ele>746.8</ele>
        <time>2026-03-15T08:21:06Z</time>
      </trkpt>
      <trkpt lat="48.54138" lon="7.1917">
        <ele>743.5</ele>
        <time>2026-03-15T08:21:11Z</time>
      </trkpt>
      <trkpt lat="48.54131" lon="7.19174">
        <ele>740.5</ele>
        <time>2026-03-15T08:21:16Z</time>
      </trkpt>
      <trkpt lat="48.54124" lon="7.19174">
        <ele>739.1</ele>
        <time>2026-03-15T08:21:21Z</time>
      </trkpt>
      <trkpt lat="48.54117" lon="7.19176">
        <ele>736.9</ele>
        <time>2026-03-15T08:21:26Z</time>
      </trkpt>
      <trkpt lat="48.54112" lon="7.19175">
        <ele>736.2</ele>
        <time>2026-03-15T08:21:31Z</time>
      </trkpt>
      <trkpt lat="48.54106" lon="7.19178">
        <ele>733.9</ele>
        <time>2026-03-15T08:21:36Z</time>
      </trkpt>
      <trkpt lat="48.54102" lon="7.19179">
        <ele>732.8</ele>
        <time>2026-03-15T08:21:41Z</time>
      </trkpt>
      <trkpt lat="48.54094" lon="7.19176">
        <ele>732.2</ele>
        <time>2026-03-15T08:21:46Z</time>
      </trkpt>
      <trkpt lat="48.54087" lon="7.19175">
        <ele>731.1</ele>
        <time>2026-03-15T08:21:51Z</time>
      </trkpt>
      <trkpt lat="48.5408" lon="7.19173">
        <ele>729.8</ele>
        <time>2026-03-15T08:21:56Z</time>
      </trkpt>
      <trkpt lat="48.54075" lon="7.19171">
        <ele>728.6</ele>
        <time>2026-03-15T08:22:01Z</time>
      </trkpt>
      <trkpt lat="48.54069" lon="7.19167">
        <ele>727.7</ele>
        <time>2026-03-15T08:22:06Z</time>
      </trkpt>
      <trkpt lat="48.54061" lon="7.19163">
        <ele>726</ele>
        <time>2026-03-15T08:22:11Z</time>
      </trkpt>
      <trkpt lat="48.54053" lon="7.19159">
        <ele>724.3</ele>
        <time>2026-03-15T08:22:16Z</time>
      </trkpt>
      <trkpt lat="48.54047" lon="7.19155">
        <ele>723.3</ele>
        <time>2026-03-15T08:22:21Z</time>
      </trkpt>
      <trkpt lat="48.54042" lon="7.1915">
        <ele>722.9</ele>
        <time>2026-03-15T08:22:26Z</time>
      </trkpt>
      <trkpt lat="48.54036" lon="7.19146">
        <ele>721.9</ele>
        <time>2026-03-15T08:22:31Z</time>
      </trkpt>
      <trkpt lat="48.5403" lon="7.19142">
        <ele>720.8</ele>
        <time>2026-03-15T08:22:36Z</time>
      </trkpt>
      <trkpt lat="48.54025" lon="7.19138">
        <ele>720.1</ele>
        <time>2026-03-15T08:22:41Z</time>
      </trkpt>
      <trkpt lat="48.5402" lon="7.19134">
        <ele>719.4</ele>
        <time>2026-03-15T08:22:46Z</time>
      </trkpt>
      <trkpt lat="48.54014" lon="7.1913">
        <ele>718.3</ele>
        <time>2026-03-15T08:22:51Z</time>
      </trkpt>
      <trkpt lat="48.54008" lon="7.19125">
        <ele>717.5</ele>
        <time>2026-03-15T08:22:56Z</time>
      </trkpt>
      <trkpt lat="48.54002" lon="7.19121">
        <ele>716.4</ele>
        <time>2026-03-15T08:23:01Z</time>
      </trkpt>
      <trkpt lat="48.53997" lon="7.19115">
        <ele>716.3</ele>
        <time>2026-03-15T08:23:06Z</time>
      </trkpt>
      <trkpt lat="48.5399" lon="7.19109">
        <ele>715.8</ele>
        <time>2026-03-15T08:23:11Z</time>
      </trkpt>
      <trkpt lat="48.53985" lon="7.19104">
        <ele>715.7</ele>
        <time>2026-03-15T08:23:16Z</time>
      </trkpt>
      <trkpt lat="48.53979" lon="7.19097">
        <ele>715.8</ele>
        <time>2026-03-15T08:23:21Z</time>
      </trkpt>
      <trkpt lat="48.53973" lon="7.19089">
        <ele>716.3</ele>
        <time>2026-03-15T08:23:26Z</time>
      </trkpt>
      <trkpt lat="48.53968" lon="7.19081">
        <ele>717.2</ele>
        <time>2026-03-15T08:23:31Z</time>
      </trkpt>
      <trkpt lat="48.53963" lon="7.19074">
        <ele>718</ele>
        <time>2026-03-15T08:23:36Z</time>
      </trkpt>
      <trkpt lat="48.53956" lon="7.19068">
        <ele>718</ele>
        <time>2026-03-15T08:23:41Z</time>
      </trkpt>
      <trkpt lat="48.53951" lon="7.19062">
        <ele>718.7</ele>
        <time>2026-03-15T08:23:46Z</time>
      </trkpt>
      <trkpt lat="48.53945" lon="7.19055">
        <ele>719.6</ele>
        <time>2026-03-15T08:23:51Z</time>
      </trkpt>
      <trkpt lat="48.53938" lon="7.19045">
        <ele>721.4</ele>
        <time>2026-03-15T08:23:56Z</time>
      </trkpt>
      <trkpt lat="48.53932" lon="7.19038">
        <ele>722.6</ele>
        <time>2026-03-15T08:24:01Z</time>
      </trkpt>
      <trkpt lat="48.53928" lon="7.19032">
        <ele>723.9</ele>
        <time>2026-03-15T08:24:06Z</time>
      </trkpt>
      <trkpt lat="48.53922" lon="7.19026">
        <ele>724.9</ele>
        <time>2026-03-15T08:24:11Z</time>
      </trkpt>
      <trkpt lat="48.53917" lon="7.19019">
        <ele>726.5</ele>
        <time>2026-03-15T08:24:16Z</time>
      </trkpt>
      <trkpt lat="48.53913" lon="7.19016">
        <ele>727.2</ele>
        <time>2026-03-15T08:24:21Z</time>
      </trkpt>
      <trkpt lat="48.53906" lon="7.19011">
        <ele>728.4</ele>
        <time>2026-03-15T08:24:26Z</time>
      </trkpt>
      <trkpt lat="48.53899" lon="7.19004">
        <ele>730.3</ele>
        <time>2026-03-15T08:24:31Z</time>
      </trkpt>
      <trkpt lat="48.53893" lon="7.18997">
        <ele>732</ele>
        <time>2026-03-15T08:24:36Z</time>
      </trkpt>
      <trkpt lat="48.53887" lon="7.1899">
        <ele>733.5</ele>
        <time>2026-03-15T08:24:41Z</time>
      </trkpt>
      <trkpt lat="48.53881" lon="7.18983">
        <ele>734.9</ele>
        <time>2026-03-15T08:24:46Z</time>
      </trkpt>
      <trkpt lat="48.53876" lon="7.18977">
        <ele>736.3</ele>
        <time>2026-03-15T08:24:51Z</time>
      </trkpt>
      <trkpt lat="48.53873" lon="7.18971">
        <ele>737.9</ele>
        <time>2026-03-15T08:24:56Z</time>
      </trkpt>
      <trkpt lat="48.53867" lon="7.18964">
        <ele>739.5</ele>
        <time>2026-03-15T08:25:01Z</time>
      </trkpt>
      <trkpt lat="48.53863" lon="7.18957">
        <ele>741.4</ele>
        <time>2026-03-15T08:25:06Z</time>
      </trkpt>
      <trkpt lat="48.53854" lon="7.1895">
        <ele>743</ele>
        <time>2026-03-15T08:25:11Z</time>
      </trkpt>
      <trkpt lat="48.53844" lon="7.18949">
        <ele>742.6</ele>
        <time>2026-03-15T08:25:16Z</time>
      </trkpt>
      <trkpt lat="48.53837" lon="7.18947">
        <ele>742.7</ele>
        <time>2026-03-15T08:25:21Z</time>
      </trkpt>
      <trkpt lat="48.53833" lon="7.18941">
        <ele>744.5</ele>
        <time>2026-03-15T08:25:26Z</time>
      </trkpt>
      <trkpt lat="48.53826" lon="7.18937">
        <ele>744.4</ele>
        <time>2026-03-15T08:25:31Z</time>
      </trkpt>
      <trkpt lat="48.5382" lon="7.18933">
        <ele>744.5</ele>
        <time>2026-03-15T08:25:36Z</time>
      </trkpt>
      <trkpt lat="48.53816" lon="7.18929">
        <ele>745.1</ele>
        <time>2026-03-15T08:25:41Z</time>
      </trkpt>
      <trkpt lat="48.53809" lon="7.18924">
        <ele>745.3</ele>
        <time>2026-03-15T08:25:46Z</time>
      </trkpt>
      <trkpt lat="48.53803" lon="7.18921">
        <ele>745</ele>
        <time>2026-03-15T08:25:51Z</time>
      </trkpt>
      <trkpt lat="48.53797" lon="7.1892">
        <ele>744</ele>
        <time>2026-03-15T08:25:56Z</time>
      </trkpt>
      <trkpt lat="48.5379" lon="7.18918">
        <ele>743.2</ele>
        <time>2026-03-15T08:26:01Z</time>
      </trkpt>
      <trkpt lat="48.53781" lon="7.18915">
        <ele>742.2</ele>
        <time>2026-03-15T08:26:06Z</time>
      </trkpt>
      <trkpt lat="48.53774" lon="7.18915">
        <ele>740.7</ele>
        <time>2026-03-15T08:26:11Z</time>
      </trkpt>
      <trkpt lat="48.53768" lon="7.18912">
        <ele>740.3</ele>
        <time>2026-03-15T08:26:16Z</time>
      </trkpt>
      <trkpt lat="48.5376" lon="7.18913">
        <ele>738.3</ele>
        <time>2026-03-15T08:26:21Z</time>
      </trkpt>
      <trkpt lat="48.53751" lon="7.18913">
        <ele>736.4</ele>
        <time>2026-03-15T08:26:26Z</time>
      </trkpt>
      <trkpt lat="48.53745" lon="7.18911">
        <ele>735.4</ele>
        <time>2026-03-15T08:26:31Z</time>
      </trkpt>
      <trkpt lat="48.53741" lon="7.18906">
        <ele>735.8</ele>
        <time>2026-03-15T08:26:36Z</time>
      </trkpt>
      <trkpt lat="48.53733" lon="7.18904">
        <ele>734</ele>
        <time>2026-03-15T08:26:41Z</time>
      </trkpt>
      <trkpt lat="48.53726" lon="7.18902">
        <ele>732.5</ele>
        <time>2026-03-15T08:26:46Z</time>
      </trkpt>
      <trkpt lat="48.53715" lon="7.18904">
        <ele>728.8</ele>
        <time>2026-03-15T08:26:51Z</time>
      </trkpt>
      <trkpt lat="48.53706" lon="7.18902">
        <ele>726.7</ele>
        <time>2026-03-15T08:26:56Z</time>
      </trkpt>
      <trkpt lat="48.537" lon="7.189">
        <ele>725.3</ele>
        <time>2026-03-15T08:27:01Z</time>
      </trkpt>
      <trkpt lat="48.53693" lon="7.18897">
        <ele>723.8</ele>
        <time>2026-03-15T08:27:06Z</time>
      </trkpt>
      <trkpt lat="48.53688" lon="7.18893">
        <ele>723.1</ele>
        <time>2026-03-15T08:27:11Z</time>
      </trkpt>
      <trkpt lat="48.5368" lon="7.18889">
        <ele>721.2</ele>
        <time>2026-03-15T08:27:16Z</time>
      </trkpt>
      <trkpt lat="48.53673" lon="7.18886">
        <ele>719.5</ele>
        <time>2026-03-15T08:27:21Z</time>
      </trkpt>
      <trkpt lat="48.53667" lon="7.18883">
        <ele>718</ele>
        <time>2026-03-15T08:27:26Z</time>
      </trkpt>
      <trkpt lat="48.5366" lon="7.1888">
        <ele>715.3</ele>
        <time>2026-03-15T08:27:31Z</time>
      </trkpt>
      <trkpt lat="48.53656" lon="7.18878">
        <ele>713.7</ele>
        <time>2026-03-15T08:27:36Z</time>
      </trkpt>
      <trkpt lat="48.53651" lon="7.18873">
        <ele>712.1</ele>
        <time>2026-03-15T08:27:41Z</time>
      </trkpt>
      <trkpt lat="48.53645" lon="7.18868">
        <ele>710</ele>
        <time>2026-03-15T08:27:46Z</time>
      </trkpt>
      <trkpt lat="48.53637" lon="7.18861">
        <ele>707.2</ele>
        <time>2026-03-15T08:27:51Z</time>
      </trkpt>
      <trkpt lat="48.53633" lon="7.18856">
        <ele>706</ele>
        <time>2026-03-15T08:27:56Z</time>
      </trkpt>
      <trkpt lat="48.53627" lon="7.18853">
        <ele>703.6</ele>
        <time>2026-03-15T08:28:01Z</time>
      </trkpt>
      <trkpt lat="48.53621" lon="7.18847">
        <ele>701.5</ele>
        <time>2026-03-15T08:28:06Z</time>
      </trkpt>
      <trkpt lat="48.53614" lon="7.18841">
        <ele>698.8</ele>
        <time>2026-03-15T08:28:11Z</time>
      </trkpt>
      <trkpt lat="48.53609" lon="7.18832">
        <ele>697.5</ele>
        <time>2026-03-15T08:28:16Z</time>
      </trkpt>
      <trkpt lat="48.53605" lon="7.18824">
        <ele>696.5</ele>
        <time>2026-03-15T08:28:21Z</time>
      </trkpt>
      <trkpt lat="48.53601" lon="7.18813">
        <ele>695.8</ele>
        <time>2026-03-15T08:28:26Z</time>
      </trkpt>
      <trkpt lat="48.53598" lon="7.18802">
        <ele>695.6</ele>
        <time>2026-03-15T08:28:31Z</time>
      </trkpt>
      <trkpt lat="48.53593" lon="7.18794">
        <ele>694</ele>
        <time>2026-03-15T08:28:36Z</time>
      </trkpt>
      <trkpt lat="48.53589" lon="7.18785">
        <ele>693</ele>
        <time>2026-03-15T08:28:41Z</time>
      </trkpt>
      <trkpt lat="48.53585" lon="7.18776">
        <ele>692</ele>
        <time>2026-03-15T08:28:46Z</time>
      </trkpt>
      <trkpt lat="48.53584" lon="7.18766">
        <ele>692.6</ele>
        <time>2026-03-15T08:28:51Z</time>
      </trkpt>
      <trkpt lat="48.5358" lon="7.18758">
        <ele>691.4</ele>
        <time>2026-03-15T08:28:56Z</time>
      </trkpt>
      <trkpt lat="48.53576" lon="7.18748">
        <ele>690.4</ele>
        <time>2026-03-15T08:29:01Z</time>
      </trkpt>
      <trkpt lat="48.53575" lon="7.18739">
        <ele>690.9</ele>
        <time>2026-03-15T08:29:06Z</time>
      </trkpt>
      <trkpt lat="48.53574" lon="7.18728">
        <ele>691.6</ele>
        <time>2026-03-15T08:29:11Z</time>
      </trkpt>
      <trkpt lat="48.53572" lon="7.1872">
        <ele>691.4</ele>
        <time>2026-03-15T08:29:16Z</time>
      </trkpt>
      <trkpt lat="48.53571" lon="7.1871">
        <ele>692</ele>
        <time>2026-03-15T08:29:21Z</time>
      </trkpt>
      <trkpt lat="48.5357" lon="7.187">
        <ele>692.6</ele>
        <time>2026-03-15T08:29:26Z</time>
      </trkpt>
      <trkpt lat="48.53567" lon="7.18691">
        <ele>692.1</ele>
        <time>2026-03-15T08:29:31Z</time>
      </trkpt>
      <trkpt lat="48.53564" lon="7.18681">
        <ele>691.7</ele>
        <time>2026-03-15T08:29:36Z</time>
      </trkpt>
      <trkpt lat="48.53562" lon="7.18672">
        <ele>691.7</ele>
        <time>2026-03-15T08:29:41Z</time>
      </trkpt>
      <trkpt lat="48.5356" lon="7.18664">
        <ele>691.6</ele>
        <time>2026-03-15T08:29:46Z</time>
      </trkpt>
      <trkpt lat="48.53557" lon="7.18654">
        <ele>691.6</ele>
        <time>2026-03-15T08:29:51Z</time>
      </trkpt>
      <trkpt lat="48.53554" lon="7.18646">
        <ele>691.4</ele>
        <time>2026-03-15T08:29:56Z</time>
      </trkpt>
      <trkpt lat="48.53551" lon="7.18635">
        <ele>691.6</ele>
        <time>2026-03-15T08:30:01Z</time>
      </trkpt>
      <trkpt lat="48.53549" lon="7.18625">
        <ele>692.2</ele>
        <time>2026-03-15T08:30:06Z</time>
      </trkpt>
      <trkpt lat="48.53545" lon="7.18614">
        <ele>692.1</ele>
        <time>2026-03-15T08:30:11Z</time>
      </trkpt>
      <trkpt lat="48.53542" lon="7.18602">
        <ele>692.6</ele>
        <time>2026-03-15T08:30:16Z</time>
      </trkpt>
      <trkpt lat="48.53542" lon="7.18594">
        <ele>693.9</ele>
        <time>2026-03-15T08:30:21Z</time>
      </trkpt>
      <trkpt lat="48.5354" lon="7.18585">
        <ele>694.5</ele>
        <time>2026-03-15T08:30:26Z</time>
      </trkpt>
      <trkpt lat="48.53537" lon="7.18577">
        <ele>694.7</ele>
        <time>2026-03-15T08:30:31Z</time>
      </trkpt>
      <trkpt lat="48.53535" lon="7.18567">
        <ele>696</ele>
        <time>2026-03-15T08:30:36Z</time>
      </trkpt>
      <trkpt lat="48.53533" lon="7.18554">
        <ele>697.9</ele>
        <time>2026-03-15T08:30:41Z</time>
      </trkpt>
      <trkpt lat="48.53531" lon="7.18545">
        <ele>698.9</ele>
        <time>2026-03-15T08:30:46Z</time>
      </trkpt>
      <trkpt lat="48.53528" lon="7.18538">
        <ele>699.2</ele>
        <time>2026-03-15T08:30:51Z</time>
      </trkpt>
      <trkpt lat="48.53525" lon="7.18528">
        <ele>700.2</ele>
        <time>2026-03-15T08:30:56Z</time>
      </trkpt>
      <trkpt lat="48.53523" lon="7.18518">
        <ele>701.6</ele>
        <time>2026-03-15T08:31:01Z</time>
      </trkpt>
      <trkpt lat="48.53521" lon="7.18508">
        <ele>703</ele>
        <time>2026-03-15T08:31:06Z</time>
      </trkpt>
      <trkpt lat="48.53517" lon="7.185">
        <ele>703.3</ele>
        <time>2026-03-15T08:31:11Z</time>
      </trkpt>
      <trkpt lat="48.53515" lon="7.18491">
        <ele>704.5</ele>
        <time>2026-03-15T08:31:16Z</time>
      </trkpt>
      <trkpt lat="48.53512" lon="7.1848">
        <ele>705.8</ele>
        <time>2026-03-15T08:31:21Z</time>
      </trkpt>
      <trkpt lat="48.53509" lon="7.1847">
        <ele>706.9</ele>
        <time>2026-03-15T08:31:26Z</time>
      </trkpt>
      <trkpt lat="48.53507" lon="7.18459">
        <ele>708.5</ele>
        <time>2026-03-15T08:31:31Z</time>
      </trkpt>
      <trkpt lat="48.53503" lon="7.18451">
        <ele>708.7</ele>
        <time>2026-03-15T08:31:36Z</time>
      </trkpt>
      <trkpt lat="48.53498" lon="7.18445">
        <ele>708</ele>
        <time>2026-03-15T08:31:41Z</time>
      </trkpt>
      <trkpt lat="48.53494" lon="7.18436">
        <ele>708.3</ele>
        <time>2026-03-15T08:31:46Z</time>
      </trkpt>
      <trkpt lat="48.53491" lon="7.18428">
        <ele>708.8</ele>
        <time>2026-03-15T08:31:51Z</time>
      </trkpt>
      <trkpt lat="48.53489" lon="7.1842">
        <ele>709.8</ele>
        <time>2026-03-15T08:31:56Z</time>
      </trkpt>
      <trkpt lat="48.53484" lon="7.18407">
        <ele>710.8</ele>
        <time>2026-03-15T08:32:01Z</time>
      </trkpt>
      <trkpt lat="48.53479" lon="7.184">
        <ele>710.4</ele>
        <time>2026-03-15T08:32:06Z</time>
      </trkpt>
      <trkpt lat="48.53474" lon="7.18396">
        <ele>709.4</ele>
        <time>2026-03-15T08:32:11Z</time>
      </trkpt>
      <trkpt lat="48.53468" lon="7.18391">
        <ele>708.3</ele>
        <time>2026-03-15T08:32:16Z</time>
      </trkpt>
      <trkpt lat="48.53463" lon="7.18384">
        <ele>708</ele>
        <time>2026-03-15T08:32:21Z</time>
      </trkpt>
      <trkpt lat="48.53456" lon="7.18373">
        <ele>708.1</ele>
        <time>2026-03-15T08:32:26Z</time>
      </trkpt>
      <trkpt lat="48.53451" lon="7.18367">
        <ele>707.7</ele>
        <time>2026-03-15T08:32:31Z</time>
      </trkpt>
      <trkpt lat="48.53447" lon="7.18363">
        <ele>707.3</ele>
        <time>2026-03-15T08:32:36Z</time>
      </trkpt>
      <trkpt lat="48.53442" lon="7.18358">
        <ele>706.7</ele>
        <time>2026-03-15T08:32:41Z</time>
      </trkpt>
      <trkpt lat="48.53436" lon="7.18352">
        <ele>706</ele>
        <time>2026-03-15T08:32:46Z</time>
      </trkpt>
      <trkpt lat="48.53431" lon="7.18348">
        <ele>705.2</ele>
        <time>2026-03-15T08:32:51Z</time>
      </trkpt>
      <trkpt lat="48.53427" lon="7.18342">
        <ele>705.4</ele>
        <time>2026-03-15T08:32:56Z</time>
      </trkpt>
      <trkpt lat="48.53421" lon="7.18337">
        <ele>704.6</ele>
        <time>2026-03-15T08:33:01Z</time>
      </trkpt>
      <trkpt lat="48.53416" lon="7.18332">
        <ele>703.9</ele>
        <time>2026-03-15T08:33:06Z</time>
      </trkpt>
      <trkpt lat="48.5341" lon="7.18326">
        <ele>702.2</ele>
        <time>2026-03-15T08:33:11Z</time>
      </trkpt>
      <trkpt lat="48.53407" lon="7.18318">
        <ele>702.3</ele>
        <time>2026-03-15T08:33:16Z</time>
      </trkpt>
      <trkpt lat="48.53403" lon="7.18309">
        <ele>702.1</ele>
        <time>2026-03-15T08:33:21Z</time>
      </trkpt>
      <trkpt lat="48.53398" lon="7.18302">
        <ele>701.1</ele>
        <time>2026-03-15T08:33:26Z</time>
      </trkpt>
      <trkpt lat="48.53393" lon="7.18295">
        <ele>700</ele>
        <time>2026-03-15T08:33:31Z</time>
      </trkpt>
      <trkpt lat="48.53387" lon="7.18288">
        <ele>698.5</ele>
        <time>2026-03-15T08:33:36Z</time>
      </trkpt>
      <trkpt lat="48.53381" lon="7.18277">
        <ele>697.7</ele>
        <time>2026-03-15T08:33:41Z</time>
      </trkpt>
      <trkpt lat="48.53375" lon="7.1827">
        <ele>696.2</ele>
        <time>2026-03-15T08:33:46Z</time>
      </trkpt>
      <trkpt lat="48.5337" lon="7.18262">
        <ele>695.3</ele>
        <time>2026-03-15T08:33:51Z</time>
      </trkpt>
      <trkpt lat="48.53365" lon="7.18255">
        <ele>694.2</ele>
        <time>2026-03-15T08:33:56Z</time>
      </trkpt>
      <trkpt lat="48.5336" lon="7.18248">
        <ele>693.1</ele>
        <time>2026-03-15T08:34:01Z</time>
      </trkpt>
      <trkpt lat="48.53357" lon="7.18238">
        <ele>693</ele>
        <time>2026-03-15T08:34:06Z</time>
      </trkpt>
      <trkpt lat="48.53353" lon="7.18228">
        <ele>692.5</ele>
        <time>2026-03-15T08:34:11Z</time>
      </trkpt>
      <trkpt lat="48.53351" lon="7.18218">
        <ele>692.9</ele>
        <time>2026-03-15T08:34:16Z</time>
      </trkpt>
      <trkpt lat="48.53351" lon="7.18209">
        <ele>694.1</ele>
        <time>2026-03-15T08:34:21Z</time>
      </trkpt>
      <trkpt lat="48.53348" lon="7.18198">
        <ele>694.1</ele>
        <time>2026-03-15T08:34:26Z</time>
      </trkpt>
      <trkpt lat="48.53346" lon="7.18189">
        <ele>694.4</ele>
        <time>2026-03-15T08:34:31Z</time>
      </trkpt>
      <trkpt lat="48.53345" lon="7.1818">
        <ele>695.1</ele>
        <time>2026-03-15T08:34:36Z</time>
      </trkpt>
      <trkpt lat="48.53341" lon="7.18171">
        <ele>694.3</ele>
        <time>2026-03-15T08:34:41Z</time>
      </trkpt>
      <trkpt lat="48.53333" lon="7.18165">
        <ele>691</ele>
        <time>2026-03-15T08:34:46Z</time>
      </trkpt>
      <trkpt lat="48.53327" lon="7.18156">
        <ele>689</ele>
        <time>2026-03-15T08:34:51Z</time>
      </trkpt>
      <trkpt lat="48.53322" lon="7.18148">
        <ele>687.4</ele>
        <time>2026-03-15T08:34:56Z</time>
      </trkpt>
      <trkpt lat="48.53322" lon="7.18135">
        <ele>688.8</ele>
        <time>2026-03-15T08:35:01Z</time>
      </trkpt>
      <trkpt lat="48.5332" lon="7.18127">
        <ele>688.7</ele>
        <time>2026-03-15T08:35:06Z</time>
      </trkpt>
      <trkpt lat="48.53319" lon="7.18117">
        <ele>689.3</ele>
        <time>2026-03-15T08:35:11Z</time>
      </trkpt>
      <trkpt lat="48.53319" lon="7.18105">
        <ele>690.6</ele>
        <time>2026-03-15T08:35:16Z</time>
      </trkpt>
      <trkpt lat="48.53318" lon="7.18096">
        <ele>691.1</ele>
        <time>2026-03-15T08:35:21Z</time>
      </trkpt>
      <trkpt lat="48.53318" lon="7.18088">
        <ele>692</ele>
        <time>2026-03-15T08:35:26Z</time>
      </trkpt>
      <trkpt lat="48.53314" lon="7.18078">
        <ele>691</ele>
        <time>2026-03-15T08:35:31Z</time>
      </trkpt>
      <trkpt lat="48.53311" lon="7.18068">
        <ele>690.3</ele>
        <time>2026-03-15T08:35:36Z</time>
      </trkpt>
      <trkpt lat="48.53308" lon="7.18057">
        <ele>689.8</ele>
        <time>2026-03-15T08:35:41Z</time>
      </trkpt>
      <trkpt lat="48.53306" lon="7.18045">
        <ele>689.8</ele>
        <time>2026-03-15T08:35:46Z</time>
      </trkpt>
      <trkpt lat="48.53302" lon="7.18034">
        <ele>688.7</ele>
        <time>2026-03-15T08:35:51Z</time>
      </trkpt>
      <trkpt lat="48.53299" lon="7.18023">
        <ele>688</ele>
        <time>2026-03-15T08:35:56Z</time>
      </trkpt>
      <trkpt lat="48.53296" lon="7.18014">
        <ele>687.2</ele>
        <time>2026-03-15T08:36:01Z</time>
      </trkpt>
      <trkpt lat="48.53296" lon="7.18003">
        <ele>688</ele>
        <time>2026-03-15T08:36:06Z</time>
      </trkpt>
      <trkpt lat="48.53295" lon="7.17992">
        <ele>688.9</ele>
        <time>2026-03-15T08:36:11Z</time>
      </trkpt>
      <trkpt lat="48.53291" lon="7.17985">
        <ele>687.7</ele>
        <time>2026-03-15T08:36:16Z</time>
      </trkpt>
      <trkpt lat="48.53286" lon="7.17978">
        <ele>686.1</ele>
        <time>2026-03-15T08:36:21Z</time>
      </trkpt>
      <trkpt lat="48.53283" lon="7.1797">
        <ele>685.6</ele>
        <time>2026-03-15T08:36:26Z</time>
      </trkpt>
      <trkpt lat="48.53279" lon="7.17964">
        <ele>684.3</ele>
        <time>2026-03-15T08:36:31Z</time>
      </trkpt>
      <trkpt lat="48.53276" lon="7.17957">
        <ele>683.8</ele>
        <time>2026-03-15T08:36:36Z</time>
      </trkpt>
      <trkpt lat="48.53274" lon="7.17949">
        <ele>683.8</ele>
        <time>2026-03-15T08:36:41Z</time>
      </trkpt>
      <trkpt lat="48.53273" lon="7.17939">
        <ele>684.7</ele>
        <time>2026-03-15T08:36:46Z</time>
      </trkpt>
      <trkpt lat="48.5327" lon="7.17929">
        <ele>684.6</ele>
        <time>2026-03-15T08:36:51Z</time>
      </trkpt>
      <trkpt lat="48.53271" lon="7.17918">
        <ele>686.6</ele>
        <time>2026-03-15T08:36:56Z</time>
      </trkpt>
      <trkpt lat="48.53269" lon="7.1791">
        <ele>687.1</ele>
        <time>2026-03-15T08:37:01Z</time>
      </trkpt>
      <trkpt lat="48.53267" lon="7.17908">
        <ele>686.4</ele>
        <time>2026-03-15T08:37:06Z</time>
      </trkpt>
      <trkpt lat="48.53265" lon="7.17908">
        <ele>685.4</ele>
        <time>2026-03-15T08:37:11Z</time>
      </trkpt>
      <trkpt lat="48.53265" lon="7.17908">
        <ele>685.4</ele>
        <time>2026-03-15T08:37:16Z</time>
      </trkpt>
      <trkpt lat="48.53265" lon="7.17908">
        <ele>685.4</ele>
        <time>2026-03-15T08:37:21Z</time>
      </trkpt>
      <trkpt lat="48.53265" lon="7.17908">
        <ele>685.4</ele>
        <time>2026-03-15T08:37:26Z</time>
      </trkpt>
      <trkpt lat="48.53265" lon="7.17908">
        <ele>685.4</ele>
        <time>2026-03-15T08:37:31Z</time>
      </trkpt>
      <trkpt lat="48.53265" lon="7.17908">
        <ele>685.4</ele>
        <time>2026-03-15T08:37:36Z</time>
      </trkpt>
      <trkpt lat="48.53265" lon="7.17908">
        <ele>685.4</ele>
        <time>2026-03-15T08:37:41Z</time>
      </trkpt>
      <trkpt lat="48.53265" lon="7.17908">
        <ele>685.4</ele>
        <time>2026-03-15T08:37:46Z</time>
      </trkpt>
      <trkpt lat="48.53265" lon="7.17908">
        <ele>685.4</ele>
        <time>2026-03-15T08:37:51Z</time>
      </trkpt>
      <trkpt lat="48.53265" lon="7.17908">
        <ele>685.4</ele>
        <time>2026-03-15T08:37:56Z</time>
      </trkpt>
      <trkpt lat="48.53265" lon="7.17908">
        <ele>685.4</ele>
        <time>2026-03-15T08:38:01Z</time>
      </trkpt>
      <trkpt lat="48.53265" lon="7.17908">
        <ele>685.4</ele>
        <time>2026-03-15T08:38:06Z</time>
      </trkpt>
      <trkpt lat="48.53265" lon="7.17908">
        <ele>685.4</ele>
        <time>2026-03-15T08:38:11Z</time>
      </trkpt>
      <trkpt lat="48.53265" lon="7.17908">
        <ele>685.4</ele>
        <time>2026-03-15T08:38:16Z</time>
      </trkpt>
      <trkpt lat="48.53265" lon="7.17908">
        <ele>685.4</ele>
        <time>2026-03-15T08:38:21Z</time>
      </trkpt>
      <trkpt lat="48.53265" lon="7.17908">
        <ele>685.4</ele>
        <time>2026-03-15T08:38:26Z</time>
      </trkpt>
      <trkpt lat="48.53265" lon="7.17908">
        <ele>685.4</ele>
        <time>2026-03-15T08:38:31Z</time>
      </trkpt>
      <trkpt lat="48.53265" lon="7.17908">
        <ele>685.4</ele>
        <time>2026-03-15T08:38:36Z</time>
      </trkpt>
      <trkpt lat="48.53265" lon="7.17908">
        <ele>685.4</ele>
        <time>2026-03-15T08:38:41Z</time>
      </trkpt>
      <trkpt lat="48.53265" lon="7.17908">
        <ele>685.4</ele>
        <time>2026-03-15T08:38:46Z</time>
      </trkpt>
      <trkpt lat="48.53265" lon="7.17908">
        <ele>685.4</ele>
        <time>2026-03-15T08:38:51Z</time>
      </trkpt>
      <trkpt lat="48.53265" lon="7.17908">
        <ele>685.4</ele>
        <time>2026-03-15T08:38:56Z</time>
      </trkpt>
      <trkpt lat="48.53265" lon="7.17908">
        <ele>685.4</ele>
        <time>2026-03-15T08:39:01Z</time>
      </trkpt>
      <trkpt lat="48.53265" lon="7.17908">
        <ele>685.4</ele>
        <time>2026-03-15T08:39:06Z</time>
      </trkpt>
      <trkpt lat="48.53265" lon="7.17908">
        <ele>685.4</ele>
        <time>2026-03-15T08:39:11Z</time>
      </trkpt>
      <trkpt lat="48.53265" lon="7.17908">
        <ele>685.4</ele>
        <time>2026-03-15T08:39:16Z</time>
      </trkpt>
      <trkpt lat="48.53265" lon="7.17908">
        <ele>685.4</ele>
        <time>2026-03-15T08:39:21Z</time>
      </trkpt>
      <trkpt lat="48.53265" lon="7.17908">
        <ele>685.4</ele>
        <time>2026-03-15T08:39:26Z</time>
      </trkpt>
      <trkpt lat="48.53265" lon="7.17908">
        <ele>685.4</ele>
        <time>2026-03-15T08:39:31Z</time>
      </trkpt>
      <trkpt lat="48.53265" lon="7.17908">
        <ele>685.4</ele>
        <time>2026-03-15T08:39:36Z</time>
      </trkpt>
      <trkpt lat="48.53265" lon="7.17908">
        <ele>685.4</ele>
        <time>2026-03-15T08:39:41Z</time>
      </trkpt>
      <trkpt lat="48.53265" lon="7.17908">
        <ele>685.4</ele>
        <time>2026-03-15T08:39:46Z</time>
      </trkpt>
      <trkpt lat="48.53265" lon="7.17908">
        <ele>685.4</ele>
        <time>2026-03-15T08:39:51Z</time>
      </trkpt>
      <trkpt lat="48.53265" lon="7.17908">
        <ele>685.4</ele>
        <time>2026-03-15T08:39:56Z</time>
      </trkpt>
      <trkpt lat="48.53265" lon="7.17908">
        <ele>685.4</ele>
        <time>2026-03-15T08:40:01Z</time>
      </trkpt>
      <trkpt lat="48.53265" lon="7.17908">
        <ele>685.4</ele>
        <time>2026-03-15T08:40:06Z</time>
      </trkpt>
      <trkpt lat="48.53265" lon="7.17908">
        <ele>685.4</ele>
        <time>2026-03-15T08:40:11Z</time>
      </trkpt>
      <trkpt lat="48.53265" lon="7.17908">
        <ele>685.4</ele>
        <time>2026-03-15T08:40:16Z</time>
      </trkpt>
      <trkpt lat="48.53265" lon="7.17908">
        <ele>685.4</ele>
        <time>2026-03-15T08:40:21Z</time>
      </trkpt>
      <trkpt lat="48.53265" lon="7.17908">
        <ele>685.4</ele>
        <time>2026-03-15T08:40:26Z</time>
      </trkpt>
      <trkpt lat="48.53265" lon="7.17908">
        <ele>685.4</ele>
        <time>2026-03-15T08:40:31Z</time>
      </trkpt>
      <trkpt lat="48.53265" lon="7.17908">
        <ele>685.4</ele>
        <time>2026-03-15T08:40:36Z</time>
      </trkpt>
      <trkpt lat="48.53265" lon="7.17908">
        <ele>685.4</ele>
        <time>2026-03-15T08:40:41Z</time>
      </trkpt>
      <trkpt lat="48.53265" lon="7.17908">
        <ele>685.4</ele>
        <time>2026-03-15T08:40:46Z</time>
      </trkpt>
      <trkpt lat="48.53265" lon="7.17908">
        <ele>685.4</ele>
        <time>2026-03-15T08:40:51Z</time>
      </trkpt>
      <trkpt lat="48.53265" lon="7.17908">
        <ele>685.4</ele>
        <time>2026-03-15T08:40:56Z</time>
      </trkpt>
      <trkpt lat="48.53265" lon="7.17908">
        <ele>685.4</ele>
        <time>2026-03-15T08:41:01Z</time>
      </trkpt>
      <trkpt lat="48.53265" lon="7.17908">
        <ele>685.4</ele>
        <time>2026-03-15T08:41:06Z</time>
      </trkpt>
      <trkpt lat="48.53265" lon="7.17908">
        <ele>685.4</ele>
        <time>2026-03-15T08:41:11Z</time>
      </trkpt>
      <trkpt lat="48.53265" lon="7.17908">
        <ele>685.4</ele>
        <time>2026-03-15T08:41:16Z</time>
      </trkpt>
      <trkpt lat="48.53265" lon="7.17908">
        <ele>685.4</ele>
        <time>2026-03-15T08:41:21Z</time>
      </trkpt>
      <trkpt lat="48.53265" lon="7.17908">
        <ele>685.4</ele>
        <time>2026-03-15T08:41:26Z</time>
      </trkpt>
      <trkpt lat="48.53265" lon="7.17908">
        <ele>685.4</ele>
        <time>2026-03-15T08:41:31Z</time>
      </trkpt>
      <trkpt lat="48.53265" lon="7.17908">
        <ele>685.4</ele>
        <time>2026-03-15T08:41:36Z</time>
      </trkpt>
      <trkpt lat="48.53265" lon="7.17908">
        <ele>685.4</ele>
        <time>2026-03-15T08:41:41Z</time>
      </trkpt>
      <trkpt lat="48.53265" lon="7.17908">
        <ele>685.4</ele>
        <time>2026-03-15T08:41:46Z</time>
      </trkpt>
      <trkpt lat="48.53265" lon="7.17908">
        <ele>685.4</ele>
        <time>2026-03-15T08:41:51Z</time>
      </trkpt>
      <trkpt lat="48.53265" lon="7.17908">
        <ele>685.4</ele>
        <time>2026-03-15T08:41:56Z</time>
      </trkpt>
      <trkpt lat="48.53265" lon="7.17908">
        <ele>685.4</ele>
        <time>2026-03-15T08:42:01Z</time>
      </trkpt>
      <trkpt lat="48.53265" lon="7.17908">
        <ele>685.4</ele>
        <time>2026-03-15T08:42:06Z</time>
      </trkpt>
      <trkpt lat="48.53265" lon="7.17908">
        <ele>685.4</ele>
        <time>2026-03-15T08:42:11Z</time>
      </trkpt>
      <trkpt lat="48.53265" lon="7.17908">
        <ele>685.4</ele>
        <time>2026-03-15T08:42:16Z</time>
      </trkpt>
      <trkpt lat="48.53265" lon="7.17908">
        <ele>685.4</ele>
        <time>2026-03-15T08:42:21Z</time>
      </trkpt>
      <trkpt lat="48.53259" lon="7.17903">
        <ele>683.3</ele>
        <time>2026-03-15T08:42:26Z</time>
      </trkpt>
      <trkpt lat="48.53259" lon="7.1789">
        <ele>685.8</ele>
        <time>2026-03-15T08:42:31Z</time>
      </trkpt>
      <trkpt lat="48.53257" lon="7.17882">
        <ele>686.3</ele>
        <time>2026-03-15T08:42:36Z</time>
      </trkpt>
      <trkpt lat="48.53257" lon="7.17873">
        <ele>688</ele>
        <time>2026-03-15T08:42:41Z</time>
      </trkpt>
      <trkpt lat="48.53253" lon="7.17864">
        <ele>687.7</ele>
        <time>2026-03-15T08:42:46Z</time>
      </trkpt>
      <trkpt lat="48.53249" lon="7.17854">
        <ele>687.5</ele>
        <time>2026-03-15T08:42:51Z</time>
      </trkpt>
      <trkpt lat="48.53246" lon="7.17843">
        <ele>688.1</ele>
        <time>2026-03-15T08:42:56Z</time>
      </trkpt>
      <trkpt lat="48.53242" lon="7.17831">
        <ele>688.4</ele>
        <time>2026-03-15T08:43:01Z</time>
      </trkpt>
      <trkpt lat="48.53238" lon="7.17821">
        <ele>688.3</ele>
        <time>2026-03-15T08:43:06Z</time>
      </trkpt>
      <trkpt lat="48.53231" lon="7.17813">
        <ele>686.3</ele>
        <time>2026-03-15T08:43:11Z</time>
      </trkpt>
      <trkpt lat="48.5323" lon="7.17804">
        <ele>687.6</ele>
        <time>2026-03-15T08:43:16Z</time>
      </trkpt>
      <trkpt lat="48.53228" lon="7.17796">
        <ele>688.1</ele>
        <time>2026-03-15T08:43:21Z</time>
      </trkpt>
      <trkpt lat="48.53224" lon="7.17786">
        <ele>688</ele>
        <time>2026-03-15T08:43:26Z</time>
      </trkpt>
      <trkpt lat="48.5322" lon="7.17776">
        <ele>687.9</ele>
        <time>2026-03-15T08:43:31Z</time>
      </trkpt>
      <trkpt lat="48.53216" lon="7.17766">
        <ele>687.8</ele>
        <time>2026-03-15T08:43:36Z</time>
      </trkpt>
      <trkpt lat="48.53216" lon="7.17756">
        <ele>689.7</ele>
        <time>2026-03-15T08:43:41Z</time>
      </trkpt>
      <trkpt lat="48.53212" lon="7.17746">
        <ele>689.6</ele>
        <time>2026-03-15T08:43:46Z</time>
      </trkpt>
      <trkpt lat="48.53209" lon="7.17735">
        <ele>690</ele>
        <time>2026-03-15T08:43:51Z</time>
      </trkpt>
      <trkpt lat="48.53207" lon="7.17725">
        <ele>690.8</ele>
        <time>2026-03-15T08:43:56Z</time>
      </trkpt>
      <trkpt lat="48.53204" lon="7.17714">
        <ele>691.3</ele>
        <time>2026-03-15T08:44:01Z</time>
      </trkpt>
      <trkpt lat="48.532" lon="7.17703">
        <ele>691.1</ele>
        <time>2026-03-15T08:44:06Z</time>
      </trkpt>
      <trkpt lat="48.53197" lon="7.17694">
        <ele>691.2</ele>
        <time>2026-03-15T08:44:11Z</time>
      </trkpt>
      <trkpt lat="48.53196" lon="7.17682">
        <ele>692.8</ele>
        <time>2026-03-15T08:44:16Z</time>
      </trkpt>
      <trkpt lat="48.53193" lon="7.17673">
        <ele>692.8</ele>
        <time>2026-03-15T08:44:21Z</time>
      </trkpt>
      <trkpt lat="48.53187" lon="7.17662">
        <ele>691.5</ele>
        <time>2026-03-15T08:44:26Z</time>
      </trkpt>
      <trkpt lat="48.53182" lon="7.17654">
        <ele>690.2</ele>
        <time>2026-03-15T08:44:31Z</time>
      </trkpt>
      <trkpt lat="48.53178" lon="7.17645">
        <ele>689.6</ele>
        <time>2026-03-15T08:44:36Z</time>
      </trkpt>
      <trkpt lat="48.53175" lon="7.17636">
        <ele>689.5</ele>
        <time>2026-03-15T08:44:41Z</time>
      </trkpt>
      <trkpt lat="48.53172" lon="7.17626">
        <ele>689.6</ele>
        <time>2026-03-15T08:44:46Z</time>
      </trkpt>
      <trkpt lat="48.53169" lon="7.17616">
        <ele>689.7</ele>
        <time>2026-03-15T08:44:51Z</time>
      </trkpt>
      <trkpt lat="48.53166" lon="7.17607">
        <ele>689.7</ele>
        <time>2026-03-15T08:44:56Z</time>
      </trkpt>
      <trkpt lat="48.53164" lon="7.17597">
        <ele>690.5</ele>
        <time>2026-03-15T08:45:01Z</time>
      </trkpt>
      <trkpt lat="48.5316" lon="7.17587">
        <ele>690.4</ele>
        <time>2026-03-15T08:45:06Z</time>
      </trkpt>
      <trkpt lat="48.53157" lon="7.17577">
        <ele>690.6</ele>
        <time>2026-03-15T08:45:11Z</time>
      </trkpt>
      <trkpt lat="48.53152" lon="7.17567">
        <ele>689.9</ele>
        <time>2026-03-15T08:45:16Z</time>
      </trkpt>
      <trkpt lat="48.53149" lon="7.17557">
        <ele>690</ele>
        <time>2026-03-15T08:45:21Z</time>
      </trkpt>
      <trkpt lat="48.53146" lon="7.17548">
        <ele>690</ele>
        <time>2026-03-15T08:45:26Z</time>
      </trkpt>
      <trkpt lat="48.53144" lon="7.17538">
        <ele>690.6</ele>
        <time>2026-03-15T08:45:31Z</time>
      </trkpt>
      <trkpt lat="48.5314" lon="7.17528">
        <ele>690.3</ele>
        <time>2026-03-15T08:45:36Z</time>
      </trkpt>
      <trkpt lat="48.53136" lon="7.17519">
        <ele>689.9</ele>
        <time>2026-03-15T08:45:41Z</time>
      </trkpt>
      <trkpt lat="48.53136" lon="7.1751">
        <ele>691.3</ele>
        <time>2026-03-15T08:45:46Z</time>
      </trkpt>
      <trkpt lat="48.53134" lon="7.175">
        <ele>691.9</ele>
        <time>2026-03-15T08:45:51Z</time>
      </trkpt>
      <trkpt lat="48.5313" lon="7.1749">
        <ele>691.8</ele>
        <time>2026-03-15T08:45:56Z</time>
      </trkpt>
      <trkpt lat="48.53128" lon="7.17481">
        <ele>692.4</ele>
        <time>2026-03-15T08:46:01Z</time>
      </trkpt>
      <trkpt lat="48.53125" lon="7.17473">
        <ele>692.4</ele>
        <time>2026-03-15T08:46:06Z</time>
      </trkpt>
      <trkpt lat="48.53124" lon="7.17466">
        <ele>693.1</ele>
        <time>2026-03-15T08:46:11Z</time>
      </trkpt>
      <trkpt lat="48.5312" lon="7.17455">
        <ele>693.2</ele>
        <time>2026-03-15T08:46:16Z</time>
      </trkpt>
      <trkpt lat="48.53118" lon="7.17445">
        <ele>693.9</ele>
        <time>2026-03-15T08:46:21Z</time>
      </trkpt>
      <trkpt lat="48.53116" lon="7.17436">
        <ele>694.6</ele>
        <time>2026-03-15T08:46:26Z</time>
      </trkpt>
      <trkpt lat="48.53116" lon="7.17427">
        <ele>696</ele>
        <time>2026-03-15T08:46:31Z</time>
      </trkpt>
      <trkpt lat="48.53113" lon="7.17417">
        <ele>696.4</ele>
        <time>2026-03-15T08:46:36Z</time>
      </trkpt>
      <trkpt lat="48.53111" lon="7.17409">
        <ele>697.1</ele>
        <time>2026-03-15T08:46:41Z</time>
      </trkpt>
      <trkpt lat="48.5311" lon="7.17401">
        <ele>698.2</ele>
        <time>2026-03-15T08:46:46Z</time>
      </trkpt>
      <trkpt lat="48.53108" lon="7.17395">
        <ele>698.5</ele>
        <time>2026-03-15T08:46:51Z</time>
      </trkpt>
      <trkpt lat="48.53108" lon="7.17389">
        <ele>699.7</ele>
        <time>2026-03-15T08:46:56Z</time>
      </trkpt>
      <trkpt lat="48.53107" lon="7.1738">
        <ele>701</ele>
        <time>2026-03-15T08:47:01Z</time>
      </trkpt>
      <trkpt lat="48.53106" lon="7.17372">
        <ele>702.1</ele>
        <time>2026-03-15T08:47:06Z</time>
      </trkpt>
      <trkpt lat="48.53104" lon="7.17366">
        <ele>702.4</ele>
        <time>2026-03-15T08:47:11Z</time>
      </trkpt>
      <trkpt lat="48.53102" lon="7.17359">
        <ele>702.9</ele>
        <time>2026-03-15T08:47:16Z</time>
      </trkpt>
      <trkpt lat="48.53101" lon="7.17351">
        <ele>704</ele>
        <time>2026-03-15T08:47:21Z</time>
      </trkpt>
      <trkpt lat="48.53099" lon="7.17342">
        <ele>704.9</ele>
        <time>2026-03-15T08:47:26Z</time>
      </trkpt>
      <trkpt lat="48.53099" lon="7.17333">
        <ele>706.6</ele>
        <time>2026-03-15T08:47:31Z</time>
      </trkpt>
      <trkpt lat="48.53097" lon="7.17323">
        <ele>707.7</ele>
        <time>2026-03-15T08:47:36Z</time>
      </trkpt>
      <trkpt lat="48.53094" lon="7.17317">
        <ele>707.5</ele>
        <time>2026-03-15T08:47:41Z</time>
      </trkpt>
      <trkpt lat="48.53092" lon="7.17311">
        <ele>707.7</ele>
        <time>2026-03-15T08:47:46Z</time>
      </trkpt>
      <trkpt lat="48.53089" lon="7.17304">
        <ele>707.7</ele>
        <time>2026-03-15T08:47:51Z</time>
      </trkpt>
      <trkpt lat="48.53089" lon="7.17297">
        <ele>709</ele>
        <time>2026-03-15T08:47:56Z</time>
      </trkpt>
      <trkpt lat="48.53089" lon="7.17288">
        <ele>710.7</ele>
        <time>2026-03-15T08:48:01Z</time>
      </trkpt>
      <trkpt lat="48.53089" lon="7.17281">
        <ele>711.9</ele>
        <time>2026-03-15T08:48:06Z</time>
      </trkpt>
      <trkpt lat="48.53086" lon="7.17276">
        <ele>711.5</ele>
        <time>2026-03-15T08:48:11Z</time>
      </trkpt>
      <trkpt lat="48.53083" lon="7.1727">
        <ele>711.3</ele>
        <time>2026-03-15T08:48:16Z</time>
      </trkpt>
      <trkpt lat="48.5308" lon="7.17263">
        <ele>711.7</ele>
        <time>2026-03-15T08:48:21Z</time>
      </trkpt>
      <trkpt lat="48.53077" lon="7.17255">
        <ele>712.3</ele>
        <time>2026-03-15T08:48:26Z</time>
      </trkpt>
      <trkpt lat="48.53076" lon="7.17248">
        <ele>713.4</ele>
        <time>2026-03-15T08:48:31Z</time>
      </trkpt>
      <trkpt lat="48.53074" lon="7.17247">
        <ele>713.1</ele>
        <time>2026-03-15T08:48:36Z</time>
      </trkpt>
      <trkpt lat="48.53073" lon="7.17244">
        <ele>713.6</ele>
        <time>2026-03-15T08:48:41Z</time>
      </trkpt>
      <trkpt lat="48.53071" lon="7.17238">
        <ele>714.7</ele>
        <time>2026-03-15T08:48:46Z</time>
      </trkpt>
      <trkpt lat="48.53068" lon="7.17231">
        <ele>715.8</ele>
        <time>2026-03-15T08:48:51Z</time>
      </trkpt>
      <trkpt lat="48.53065" lon="7.17221">
        <ele>717.7</ele>
        <time>2026-03-15T08:48:56Z</time>
      </trkpt>
      <trkpt lat="48.53063" lon="7.17214">
        <ele>719.1</ele>
        <time>2026-03-15T08:49:01Z</time>
      </trkpt>
      <trkpt lat="48.5306" lon="7.17208">
        <ele>719.9</ele>
        <time>2026-03-15T08:49:06Z</time>
      </trkpt>
      <trkpt lat="48.53056" lon="7.17202">
        <ele>720.6</ele>
        <time>2026-03-15T08:49:11Z</time>
      </trkpt>
      <trkpt lat="48.53054" lon="7.17195">
        <ele>722</ele>
        <time>2026-03-15T08:49:16Z</time>
      </trkpt>
      <trkpt lat="48.53051" lon="7.17191">
        <ele>722.4</ele>
        <time>2026-03-15T08:49:21Z</time>
      </trkpt>
      <trkpt lat="48.5305" lon="7.17184">
        <ele>724.1</ele>
        <time>2026-03-15T08:49:26Z</time>
      </trkpt>
      <trkpt lat="48.53051" lon="7.17176">
        <ele>726.6</ele>
        <time>2026-03-15T08:49:31Z</time>
      </trkpt>
      <trkpt lat="48.5305" lon="7.17169">
        <ele>728.3</ele>
        <time>2026-03-15T08:49:36Z</time>
      </trkpt>
      <trkpt lat="48.53048" lon="7.17161">
        <ele>730.3</ele>
        <time>2026-03-15T08:49:41Z</time>
      </trkpt>
      <trkpt lat="48.53047" lon="7.17155">
        <ele>731.9</ele>
        <time>2026-03-15T08:49:46Z</time>
      </trkpt>
      <trkpt lat="48.53046" lon="7.17148">
        <ele>733.8</ele>
        <time>2026-03-15T08:49:51Z</time>
      </trkpt>
      <trkpt lat="48.53045" lon="7.17141">
        <ele>735.8</ele>
        <time>2026-03-15T08:49:56Z</time>
      </trkpt>
      <trkpt lat="48.53042" lon="7.17137">
        <ele>736.3</ele>
        <time>2026-03-15T08:50:01Z</time>
      </trkpt>
      <trkpt lat="48.53038" lon="7.17129">
        <ele>738</ele>
        <time>2026-03-15T08:50:06Z</time>
      </trkpt>
      <trkpt lat="48.53033" lon="7.17124">
        <ele>738.4</ele>
        <time>2026-03-15T08:50:11Z</time>
      </trkpt>
      <trkpt lat="48.53031" lon="7.17117">
        <ele>740.2</ele>
        <time>2026-03-15T08:50:16Z</time>
      </trkpt>
      <trkpt lat="48.53029" lon="7.1711">
        <ele>742.1</ele>
        <time>2026-03-15T08:50:21Z</time>
      </trkpt>
      <trkpt lat="48.53027" lon="7.17106">
        <ele>742.9</ele>
        <time>2026-03-15T08:50:26Z</time>
      </trkpt>
      <trkpt lat="48.53023" lon="7.17101">
        <ele>743.7</ele>
        <time>2026-03-15T08:50:31Z</time>
      </trkpt>
      <trkpt lat="48.5302" lon="7.17094">
        <ele>745.4</ele>
        <time>2026-03-15T08:50:36Z</time>
      </trkpt>
      <trkpt lat="48.53017" lon="7.17089">
        <ele>746.4</ele>
        <time>2026-03-15T08:50:41Z</time>
      </trkpt>
      <trkpt lat="48.53016" lon="7.17083">
        <ele>748.2</ele>
        <time>2026-03-15T08:50:46Z</time>
      </trkpt>
      <trkpt lat="48.53013" lon="7.17077">
        <ele>749.2</ele>
        <time>2026-03-15T08:50:51Z</time>
      </trkpt>
      <trkpt lat="48.5301" lon="7.17072">
        <ele>750</ele>
        <time>2026-03-15T08:50:56Z</time>
      </trkpt>
      <trkpt lat="48.53008" lon="7.17067">
        <ele>751</ele>
        <time>2026-03-15T08:51:01Z</time>
      </trkpt>
      <trkpt lat="48.53006" lon="7.1706">
        <ele>752.6</ele>
        <time>2026-03-15T08:51:06Z</time>
      </trkpt>
      <trkpt lat="48.53003" lon="7.17055">
        <ele>753.4</ele>
        <time>2026-03-15T08:51:11Z</time>
      </trkpt>
      <trkpt lat="48.53001" lon="7.17049">
        <ele>754.7</ele>
        <time>2026-03-15T08:51:16Z</time>
      </trkpt>
      <trkpt lat="48.52999" lon="7.17042">
        <ele>756.3</ele>
        <time>2026-03-15T08:51:21Z</time>
      </trkpt>
      <trkpt lat="48.52996" lon="7.17038">
        <ele>757.2</ele>
        <time>2026-03-15T08:51:26Z</time>
      </trkpt>
      <trkpt lat="48.5299" lon="7.17034">
        <ele>757.8</ele>
        <time>2026-03-15T08:51:31Z</time>
      </trkpt>
      <trkpt lat="48.52987" lon="7.17032">
        <ele>758.1</ele>
        <time>2026-03-15T08:51:36Z</time>
      </trkpt>
      <trkpt lat="48.52983" lon="7.17029">
        <ele>758.6</ele>
        <time>2026-03-15T08:51:41Z</time>
      </trkpt>
      <trkpt lat="48.52977" lon="7.17025">
        <ele>759.1</ele>
        <time>2026-03-15T08:51:46Z</time>
      </trkpt>
      <trkpt lat="48.52972" lon="7.17019">
        <ele>760.3</ele>
        <time>2026-03-15T08:51:51Z</time>
      </trkpt>
      <trkpt lat="48.52968" lon="7.17017">
        <ele>760.5</ele>
        <time>2026-03-15T08:51:56Z</time>
      </trkpt>
      <trkpt lat="48.52963" lon="7.17013">
        <ele>761.1</ele>
        <time>2026-03-15T08:52:01Z</time>
      </trkpt>
      <trkpt lat="48.52959" lon="7.17009">
        <ele>761.7</ele>
        <time>2026-03-15T08:52:06Z</time>
      </trkpt>
      <trkpt lat="48.52955" lon="7.17005">
        <ele>762.4</ele>
        <time>2026-03-15T08:52:11Z</time>
      </trkpt>
      <trkpt lat="48.52951" lon="7.17">
        <ele>763.3</ele>
        <time>2026-03-15T08:52:16Z</time>
      </trkpt>
      <trkpt lat="48.52946" lon="7.16995">
        <ele>763.8</ele>
        <time>2026-03-15T08:52:21Z</time>
      </trkpt>
      <trkpt lat="48.52941" lon="7.16992">
        <ele>763.9</ele>
        <time>2026-03-15T08:52:26Z</time>
      </trkpt>
      <trkpt lat="48.52938" lon="7.16987">
        <ele>764.7</ele>
        <time>2026-03-15T08:52:31Z</time>
      </trkpt>
      <trkpt lat="48.52935" lon="7.16983">
        <ele>765.2</ele>
        <time>2026-03-15T08:52:36Z</time>
      </trkpt>
      <trkpt lat="48.52932" lon="7.1698">
        <ele>765.5</ele>
        <time>2026-03-15T08:52:41Z</time>
      </trkpt>
      <trkpt lat="48.52927" lon="7.1698">
        <ele>765</ele>
        <time>2026-03-15T08:52:46Z</time>
      </trkpt>
      <trkpt lat="48.52922" lon="7.16977">
        <ele>765.2</ele>
        <time>2026-03-15T08:52:51Z</time>
      </trkpt>
      <trkpt lat="48.52918" lon="7.16973">
        <ele>765.6</ele>
        <time>2026-03-15T08:52:56Z</time>
      </trkpt>
      <trkpt lat="48.52914" lon="7.1697">
        <ele>766</ele>
        <time>2026-03-15T08:53:01Z</time>
      </trkpt>
      <trkpt lat="48.52909" lon="7.16965">
        <ele>766.8</ele>
        <time>2026-03-15T08:53:06Z</time>
      </trkpt>
      <trkpt lat="48.52904" lon="7.16962">
        <ele>767.2</ele>
        <time>2026-03-15T08:53:11Z</time>
      </trkpt>
      <trkpt lat="48.529" lon="7.16959">
        <ele>767.7</ele>
        <time>2026-03-15T08:53:16Z</time>
      </trkpt>
      <trkpt lat="48.52896" lon="7.16956">
        <ele>768.2</ele>
        <time>2026-03-15T08:53:21Z</time>
      </trkpt>
      <trkpt lat="48.52891" lon="7.16951">
        <ele>769.1</ele>
        <time>2026-03-15T08:53:26Z</time>
      </trkpt>
      <trkpt lat="48.52888" lon="7.16947">
        <ele>769.9</ele>
        <time>2026-03-15T08:53:31Z</time>
      </trkpt>
      <trkpt lat="48.52883" lon="7.16942">
        <ele>771</ele>
        <time>2026-03-15T08:53:36Z</time>
      </trkpt>
      <trkpt lat="48.52878" lon="7.1694">
        <ele>771.3</ele>
        <time>2026-03-15T08:53:41Z</time>
      </trkpt>
      <trkpt lat="48.52874" lon="7.16937">
        <ele>772</ele>
        <time>2026-03-15T08:53:46Z</time>
      </trkpt>
      <trkpt lat="48.52869" lon="7.16934">
        <ele>772.6</ele>
        <time>2026-03-15T08:53:51Z</time>
      </trkpt>
      <trkpt lat="48.52866" lon="7.16931">
        <ele>773.3</ele>
        <time>2026-03-15T08:53:56Z</time>
      </trkpt>
      <trkpt lat="48.52862" lon="7.1693">
        <ele>773.5</ele>
        <time>2026-03-15T08:54:01Z</time>
      </trkpt>
      <trkpt lat="48.52857" lon="7.16929">
        <ele>773.7</ele>
        <time>2026-03-15T08:54:06Z</time>
      </trkpt>
      <trkpt lat="48.52852" lon="7.16924">
        <ele>775</ele>
        <time>2026-03-15T08:54:11Z</time>
      </trkpt>
      <trkpt lat="48.52848" lon="7.1692">
        <ele>776.1</ele>
        <time>2026-03-15T08:54:16Z</time>
      </trkpt>
      <trkpt lat="48.52842" lon="7.16915">
        <ele>777.2</ele>
        <time>2026-03-15T08:54:21Z</time>
      </trkpt>
      <trkpt lat="48.52837" lon="7.16911">
        <ele>777.7</ele>
        <time>2026-03-15T08:54:26Z</time>
      </trkpt>
      <trkpt lat="48.52834" lon="7.16907">
        <ele>778.3</ele>
        <time>2026-03-15T08:54:31Z</time>
      </trkpt>
      <trkpt lat="48.52829" lon="7.16905">
        <ele>778.8</ele>
        <time>2026-03-15T08:54:36Z</time>
      </trkpt>
      <trkpt lat="48.52825" lon="7.16903">
        <ele>779.4</ele>
        <time>2026-03-15T08:54:41Z</time>
      </trkpt>
      <trkpt lat="48.52821" lon="7.16899">
        <ele>780.3</ele>
        <time>2026-03-15T08:54:46Z</time>
      </trkpt>
      <trkpt lat="48.52817" lon="7.16896">
        <ele>781</ele>
        <time>2026-03-15T08:54:51Z</time>
      </trkpt>
      <trkpt lat="48.52815" lon="7.16893">
        <ele>781.6</ele>
        <time>2026-03-15T08:54:56Z</time>
      </trkpt>
      <trkpt lat="48.52812" lon="7.16889">
        <ele>782.4</ele>
        <time>2026-03-15T08:55:01Z</time>
      </trkpt>
      <trkpt lat="48.52808" lon="7.16886">
        <ele>783.2</ele>
        <time>2026-03-15T08:55:06Z</time>
      </trkpt>
      <trkpt lat="48.52802" lon="7.16882">
        <ele>784.4</ele>
        <time>2026-03-15T08:55:11Z</time>
      </trkpt>
      <trkpt lat="48.52797" lon="7.16877">
        <ele>785.7</ele>
        <time>2026-03-15T08:55:16Z</time>
      </trkpt>
      <trkpt lat="48.52793" lon="7.16874">
        <ele>786.5</ele>
        <time>2026-03-15T08:55:21Z</time>
      </trkpt>
      <trkpt lat="48.52788" lon="7.1687">
        <ele>787.7</ele>
        <time>2026-03-15T08:55:26Z</time>
      </trkpt>
      <trkpt lat="48.52783" lon="7.16866">
        <ele>788.9</ele>
        <time>2026-03-15T08:55:31Z</time>
      </trkpt>
      <trkpt lat="48.52779" lon="7.16865">
        <ele>789.5</ele>
        <time>2026-03-15T08:55:36Z</time>
      </trkpt>
      <trkpt lat="48.52774" lon="7.16863">
        <ele>790.4</ele>
        <time>2026-03-15T08:55:41Z</time>
      </trkpt>
      <trkpt lat="48.5277" lon="7.1686">
        <ele>791.4</ele>
        <time>2026-03-15T08:55:46Z</time>
      </trkpt>
      <trkpt lat="48.52765" lon="7.16856">
        <ele>792.7</ele>
        <time>2026-03-15T08:55:51Z</time>
      </trkpt>
      <trkpt lat="48.5276" lon="7.16854">
        <ele>793.6</ele>
        <time>2026-03-15T08:55:56Z</time>
      </trkpt>
      <trkpt lat="48.52756" lon="7.16852">
        <ele>794.5</ele>
        <time>2026-03-15T08:56:01Z</time>
      </trkpt>
      <trkpt lat="48.52753" lon="7.1685">
        <ele>795.2</ele>
        <time>2026-03-15T08:56:06Z</time>
      </trkpt>
      <trkpt lat="48.52751" lon="7.16849">
        <ele>795.7</ele>
        <time>2026-03-15T08:56:11Z</time>
      </trkpt>
      <trkpt lat="48.52751" lon="7.16848">
        <ele>795.9</ele>
        <time>2026-03-15T08:56:16Z</time>
      </trkpt>
      <trkpt lat="48.52751" lon="7.16848">
        <ele>795.9</ele>
        <time>2026-03-15T08:56:21Z</time>
      </trkpt>
      <trkpt lat="48.52751" lon="7.16848">
        <ele>795.9</ele>
        <time>2026-03-15T08:56:26Z</time>
      </trkpt>
      <trkpt lat="48.52751" lon="7.16848">
        <ele>795.9</ele>
        <time>2026-03-15T08:56:31Z</time>
      </trkpt>
      <trkpt lat="48.52754" lon="7.16849">
        <ele>795.3</ele>
        <time>2026-03-15T08:56:36Z</time>
      </trkpt>
      <trkpt lat="48.5276" lon="7.16848">
        <ele>794.8</ele>
        <time>2026-03-15T08:56:41Z</time>
      </trkpt>
      <trkpt lat="48.52764" lon="7.16843">
        <ele>795.3</ele>
        <time>2026-03-15T08:56:46Z</time>
      </trkpt>
      <trkpt lat="48.52767" lon="7.16838">
        <ele>795.9</ele>
        <time>2026-03-15T08:56:51Z</time>
      </trkpt>
      <trkpt lat="48.5277" lon="7.1683">
        <ele>796.3</ele>
        <time>2026-03-15T08:56:56Z</time>
      </trkpt>
      <trkpt lat="48.52768" lon="7.16825">
        <ele>796.4</ele>
        <time>2026-03-15T08:57:01Z</time>
      </trkpt>
      <trkpt lat="48.52761" lon="7.16825">
        <ele>797.4</ele>
        <time>2026-03-15T08:57:06Z</time>
      </trkpt>
      <trkpt lat="48.52755" lon="7.16824">
        <ele>798.2</ele>
        <time>2026-03-15T08:57:11Z</time>
      </trkpt>
      <trkpt lat="48.52751" lon="7.16824">
        <ele>798.8</ele>
        <time>2026-03-15T08:57:16Z</time>
      </trkpt>
      <trkpt lat="48.52748" lon="7.16825">
        <ele>799.1</ele>
        <time>2026-03-15T08:57:21Z</time>
      </trkpt>
      <trkpt lat="48.52748" lon="7.16825">
        <ele>799.1</ele>
        <time>2026-03-15T08:57:26Z</time>
      </trkpt>
      <trkpt lat="48.52753" lon="7.16826">
        <ele>798.5</ele>
        <time>2026-03-15T08:57:31Z</time>
      </trkpt>
      <trkpt lat="48.52758" lon="7.16827">
        <ele>797.8</ele>
        <time>2026-03-15T08:57:36Z</time>
      </trkpt>
      <trkpt lat="48.52761" lon="7.16828">
        <ele>797.5</ele>
        <time>2026-03-15T08:57:41Z</time>
      </trkpt>
      <trkpt lat="48.52762" lon="7.16827">
        <ele>797.3</ele>
        <time>2026-03-15T08:57:46Z</time>
      </trkpt>
      <trkpt lat="48.52762" lon="7.16827">
        <ele>797.3</ele>
        <time>2026-03-15T08:57:51Z</time>
      </trkpt>
      <trkpt lat="48.52762" lon="7.16827">
        <ele>797.3</ele>
        <time>2026-03-15T08:57:56Z</time>
      </trkpt>
      <trkpt lat="48.52762" lon="7.16827">
        <ele>797.3</ele>
        <time>2026-03-15T08:58:01Z</time>
      </trkpt>
      <trkpt lat="48.52766" lon="7.16818">
        <ele>796.6</ele>
        <time>2026-03-15T08:58:06Z</time>
      </trkpt>
      <trkpt lat="48.52766" lon="7.16809">
        <ele>796.4</ele>
        <time>2026-03-15T08:58:11Z</time>
      </trkpt>
      <trkpt lat="48.52763" lon="7.16804">
        <ele>796.7</ele>
        <time>2026-03-15T08:58:16Z</time>
      </trkpt>
      <trkpt lat="48.52762" lon="7.16805">
        <ele>796.9</ele>
        <time>2026-03-15T08:58:21Z</time>
      </trkpt>
      <trkpt lat="48.5276" lon="7.16801">
        <ele>797.1</ele>
        <time>2026-03-15T08:58:26Z</time>
      </trkpt>
      <trkpt lat="48.52761" lon="7.16799">
        <ele>796.9</ele>
        <time>2026-03-15T08:58:31Z</time>
      </trkpt>
      <trkpt lat="48.52761" lon="7.16799">
        <ele>796.9</ele>
        <time>2026-03-15T08:58:36Z</time>
      </trkpt>
      <trkpt lat="48.52761" lon="7.16799">
        <ele>796.9</ele>
        <time>2026-03-15T08:58:41Z</time>
      </trkpt>
      <trkpt lat="48.52761" lon="7.16799">
        <ele>796.9</ele>
        <time>2026-03-15T08:58:46Z</time>
      </trkpt>
      <trkpt lat="48.52761" lon="7.16799">
        <ele>796.9</ele>
        <time>2026-03-15T08:58:51Z</time>
      </trkpt>
      <trkpt lat="48.52761" lon="7.16799">
        <ele>796.9</ele>
        <time>2026-03-15T08:58:56Z</time>
      </trkpt>
      <trkpt lat="48.52761" lon="7.16799">
        <ele>796.9</ele>
        <time>2026-03-15T08:59:01Z</time>
      </trkpt>
      <trkpt lat="48.52761" lon="7.16799">
        <ele>796.9</ele>
        <time>2026-03-15T08:59:06Z</time>
      </trkpt>
      <trkpt lat="48.52761" lon="7.16799">
        <ele>796.9</ele>
        <time>2026-03-15T08:59:11Z</time>
      </trkpt>
      <trkpt lat="48.52761" lon="7.16799">
        <ele>796.9</ele>
        <time>2026-03-15T08:59:16Z</time>
      </trkpt>
      <trkpt lat="48.52759" lon="7.16786">
        <ele>797</ele>
        <time>2026-03-15T08:59:21Z</time>
      </trkpt>
      <trkpt lat="48.52757" lon="7.16784">
        <ele>797.3</ele>
        <time>2026-03-15T08:59:26Z</time>
      </trkpt>
      <trkpt lat="48.52753" lon="7.16777">
        <ele>797.8</ele>
        <time>2026-03-15T08:59:31Z</time>
      </trkpt>
      <trkpt lat="48.52749" lon="7.1677">
        <ele>798.3</ele>
        <time>2026-03-15T08:59:36Z</time>
      </trkpt>
      <trkpt lat="48.52745" lon="7.16764">
        <ele>798.6</ele>
        <time>2026-03-15T08:59:41Z</time>
      </trkpt>
      <trkpt lat="48.52741" lon="7.1676">
        <ele>799</ele>
        <time>2026-03-15T08:59:46Z</time>
      </trkpt>
      <trkpt lat="48.52738" lon="7.16757">
        <ele>799.2</ele>
        <time>2026-03-15T08:59:51Z</time>
      </trkpt>
      <trkpt lat="48.52734" lon="7.16754">
        <ele>799.6</ele>
        <time>2026-03-15T08:59:56Z</time>
      </trkpt>
      <trkpt lat="48.52729" lon="7.16752">
        <ele>800</ele>
        <time>2026-03-15T09:00:01Z</time>
      </trkpt>
      <trkpt lat="48.52726" lon="7.16747">
        <ele>799.8</ele>
        <time>2026-03-15T09:00:06Z</time>
      </trkpt>
      <trkpt lat="48.52722" lon="7.16743">
        <ele>799.5</ele>
        <time>2026-03-15T09:00:11Z</time>
      </trkpt>
      <trkpt lat="48.52714" lon="7.16735">
        <ele>798.9</ele>
        <time>2026-03-15T09:00:16Z</time>
      </trkpt>
      <trkpt lat="48.52709" lon="7.16729">
        <ele>798.4</ele>
        <time>2026-03-15T09:00:21Z</time>
      </trkpt>
      <trkpt lat="48.52704" lon="7.16725">
        <ele>798.2</ele>
        <time>2026-03-15T09:00:26Z</time>
      </trkpt>
      <trkpt lat="48.52701" lon="7.16724">
        <ele>798.3</ele>
        <time>2026-03-15T09:00:31Z</time>
      </trkpt>
      <trkpt lat="48.52696" lon="7.16723">
        <ele>798.6</ele>
        <time>2026-03-15T09:00:36Z</time>
      </trkpt>
      <trkpt lat="48.52691" lon="7.16719">
        <ele>798.5</ele>
        <time>2026-03-15T09:00:41Z</time>
      </trkpt>
      <trkpt lat="48.52685" lon="7.16715">
        <ele>798.4</ele>
        <time>2026-03-15T09:00:46Z</time>
      </trkpt>
      <trkpt lat="48.5268" lon="7.16714">
        <ele>798.7</ele>
        <time>2026-03-15T09:00:51Z</time>
      </trkpt>
      <trkpt lat="48.52675" lon="7.16711">
        <ele>798.6</ele>
        <time>2026-03-15T09:00:56Z</time>
      </trkpt>
      <trkpt lat="48.52669" lon="7.16708">
        <ele>798.7</ele>
        <time>2026-03-15T09:01:01Z</time>
      </trkpt>
      <trkpt lat="48.52664" lon="7.16705">
        <ele>798.6</ele>
        <time>2026-03-15T09:01:06Z</time>
      </trkpt>
      <trkpt lat="48.52659" lon="7.16703">
        <ele>798.6</ele>
        <time>2026-03-15T09:01:11Z</time>
      </trkpt>
      <trkpt lat="48.52653" lon="7.16701">
        <ele>798.7</ele>
        <time>2026-03-15T09:01:16Z</time>
      </trkpt>
      <trkpt lat="48.52648" lon="7.167">
        <ele>798.9</ele>
        <time>2026-03-15T09:01:21Z</time>
      </trkpt>
      <trkpt lat="48.52643" lon="7.16698">
        <ele>798.9</ele>
        <time>2026-03-15T09:01:26Z</time>
      </trkpt>
      <trkpt lat="48.52638" lon="7.16696">
        <ele>798.9</ele>
        <time>2026-03-15T09:01:31Z</time>
      </trkpt>
      <trkpt lat="48.52632" lon="7.16694">
        <ele>799</ele>
        <time>2026-03-15T09:01:36Z</time>
      </trkpt>
      <trkpt lat="48.52627" lon="7.16691">
        <ele>798.8</ele>
        <time>2026-03-15T09:01:41Z</time>
      </trkpt>
      <trkpt lat="48.52621" lon="7.16688">
        <ele>798.7</ele>
        <time>2026-03-15T09:01:46Z</time>
      </trkpt>
      <trkpt lat="48.52615" lon="7.16686">
        <ele>798.8</ele>
        <time>2026-03-15T09:01:51Z</time>
      </trkpt>
      <trkpt lat="48.5261" lon="7.16684">
        <ele>798.9</ele>
        <time>2026-03-15T09:01:56Z</time>
      </trkpt>
      <trkpt lat="48.52603" lon="7.16684">
        <ele>799.3</ele>
        <time>2026-03-15T09:02:01Z</time>
      </trkpt>
      <trkpt lat="48.52597" lon="7.16684">
        <ele>799.8</ele>
        <time>2026-03-15T09:02:06Z</time>
      </trkpt>
      <trkpt lat="48.52592" lon="7.16684">
        <ele>800.1</ele>
        <time>2026-03-15T09:02:11Z</time>
      </trkpt>
      <trkpt lat="48.52586" lon="7.16684">
        <ele>800.5</ele>
        <time>2026-03-15T09:02:16Z</time>
      </trkpt>
      <trkpt lat="48.5258" lon="7.16685">
        <ele>801</ele>
        <time>2026-03-15T09:02:21Z</time>
      </trkpt>
      <trkpt lat="48.52573" lon="7.16685">
        <ele>801.3</ele>
        <time>2026-03-15T09:02:26Z</time>
      </trkpt>
      <trkpt lat="48.52569" lon="7.16685">
        <ele>801.4</ele>
        <time>2026-03-15T09:02:31Z</time>
      </trkpt>
      <trkpt lat="48.52562" lon="7.16686">
        <ele>801.8</ele>
        <time>2026-03-15T09:02:36Z</time>
      </trkpt>
      <trkpt lat="48.52557" lon="7.16688">
        <ele>802.4</ele>
        <time>2026-03-15T09:02:41Z</time>
      </trkpt>
      <trkpt lat="48.52552" lon="7.16689">
        <ele>802.7</ele>
        <time>2026-03-15T09:02:46Z</time>
      </trkpt>
      <trkpt lat="48.52547" lon="7.1669">
        <ele>803.1</ele>
        <time>2026-03-15T09:02:51Z</time>
      </trkpt>
      <trkpt lat="48.52541" lon="7.16693">
        <ele>803.8</ele>
        <time>2026-03-15T09:02:56Z</time>
      </trkpt>
      <trkpt lat="48.52534" lon="7.16695">
        <ele>804.4</ele>
        <time>2026-03-15T09:03:01Z</time>
      </trkpt>
      <trkpt lat="48.52528" lon="7.16695">
        <ele>804.6</ele>
        <time>2026-03-15T09:03:06Z</time>
      </trkpt>
      <trkpt lat="48.52522" lon="7.16696">
        <ele>805</ele>
        <time>2026-03-15T09:03:11Z</time>
      </trkpt>
      <trkpt lat="48.52516" lon="7.16697">
        <ele>805.5</ele>
        <time>2026-03-15T09:03:16Z</time>
      </trkpt>
      <trkpt lat="48.52511" lon="7.16698">
        <ele>805.8</ele>
        <time>2026-03-15T09:03:21Z</time>
      </trkpt>
      <trkpt lat="48.52506" lon="7.167">
        <ele>806.4</ele>
        <time>2026-03-15T09:03:26Z</time>
      </trkpt>
      <trkpt lat="48.525" lon="7.16701">
        <ele>806.8</ele>
        <time>2026-03-15T09:03:31Z</time>
      </trkpt>
      <trkpt lat="48.52494" lon="7.16701">
        <ele>806.5</ele>
        <time>2026-03-15T09:03:36Z</time>
      </trkpt>
      <trkpt lat="48.52489" lon="7.16703">
        <ele>806.6</ele>
        <time>2026-03-15T09:03:41Z</time>
      </trkpt>
      <trkpt lat="48.52485" lon="7.16703">
        <ele>806.4</ele>
        <time>2026-03-15T09:03:46Z</time>
      </trkpt>
      <trkpt lat="48.5248" lon="7.16704">
        <ele>806.3</ele>
        <time>2026-03-15T09:03:51Z</time>
      </trkpt>
      <trkpt lat="48.52474" lon="7.16706">
        <ele>806.4</ele>
        <time>2026-03-15T09:03:56Z</time>
      </trkpt>
      <trkpt lat="48.52468" lon="7.16706">
        <ele>806.1</ele>
        <time>2026-03-15T09:04:01Z</time>
      </trkpt>
      <trkpt lat="48.52463" lon="7.16708">
        <ele>806.2</ele>
        <time>2026-03-15T09:04:06Z</time>
      </trkpt>
      <trkpt lat="48.52457" lon="7.1671">
        <ele>806.2</ele>
        <time>2026-03-15T09:04:11Z</time>
      </trkpt>
      <trkpt lat="48.52452" lon="7.16712">
        <ele>806.3</ele>
        <time>2026-03-15T09:04:16Z</time>
      </trkpt>
      <trkpt lat="48.52447" lon="7.16716">
        <ele>806.7</ele>
        <time>2026-03-15T09:04:21Z</time>
      </trkpt>
      <trkpt lat="48.52442" lon="7.16719">
        <ele>807</ele>
        <time>2026-03-15T09:04:26Z</time>
      </trkpt>
      <trkpt lat="48.52436" lon="7.16722">
        <ele>807.2</ele>
        <time>2026-03-15T09:04:31Z</time>
      </trkpt>
      <trkpt lat="48.5243" lon="7.16724">
        <ele>807.3</ele>
        <time>2026-03-15T09:04:36Z</time>
      </trkpt>
      <trkpt lat="48.52424" lon="7.16726">
        <ele>807.3</ele>
        <time>2026-03-15T09:04:41Z</time>
      </trkpt>
      <trkpt lat="48.52419" lon="7.16729">
        <ele>807.6</ele>
        <time>2026-03-15T09:04:46Z</time>
      </trkpt>
      <trkpt lat="48.52413" lon="7.16731">
        <ele>807.4</ele>
        <time>2026-03-15T09:04:51Z</time>
      </trkpt>
      <trkpt lat="48.52407" lon="7.16733">
        <ele>807.1</ele>
        <time>2026-03-15T09:04:56Z</time>
      </trkpt>
      <trkpt lat="48.52402" lon="7.16736">
        <ele>807</ele>
        <time>2026-03-15T09:05:01Z</time>
      </trkpt>
      <trkpt lat="48.52397" lon="7.1674">
        <ele>807.1</ele>
        <time>2026-03-15T09:05:06Z</time>
      </trkpt>
      <trkpt lat="48.52392" lon="7.16743">
        <ele>807</ele>
        <time>2026-03-15T09:05:11Z</time>
      </trkpt>
      <trkpt lat="48.52387" lon="7.16744">
        <ele>806.5</ele>
        <time>2026-03-15T09:05:16Z</time>
      </trkpt>
      <trkpt lat="48.52382" lon="7.16746">
        <ele>806.2</ele>
        <time>2026-03-15T09:05:21Z</time>
      </trkpt>
      <trkpt lat="48.52376" lon="7.16749">
        <ele>806</ele>
        <time>2026-03-15T09:05:26Z</time>
      </trkpt>
      <trkpt lat="48.52372" lon="7.16751">
        <ele>805.8</ele>
        <time>2026-03-15T09:05:31Z</time>
      </trkpt>
      <trkpt lat="48.52368" lon="7.16754">
        <ele>806</ele>
        <time>2026-03-15T09:05:36Z</time>
      </trkpt>
      <trkpt lat="48.52363" lon="7.16756">
        <ele>805.8</ele>
        <time>2026-03-15T09:05:41Z</time>
      </trkpt>
      <trkpt lat="48.52358" lon="7.16759">
        <ele>805.8</ele>
        <time>2026-03-15T09:05:46Z</time>
      </trkpt>
      <trkpt lat="48.52352" lon="7.16763">
        <ele>805.9</ele>
        <time>2026-03-15T09:05:51Z</time>
      </trkpt>
      <trkpt lat="48.52346" lon="7.16767">
        <ele>806</ele>
        <time>2026-03-15T09:05:56Z</time>
      </trkpt>
      <trkpt lat="48.5234" lon="7.16771">
        <ele>806.1</ele>
        <time>2026-03-15T09:06:01Z</time>
      </trkpt>
      <trkpt lat="48.52335" lon="7.16777">
        <ele>806.7</ele>
        <time>2026-03-15T09:06:06Z</time>
      </trkpt>
      <trkpt lat="48.52332" lon="7.16781">
        <ele>807.1</ele>
        <time>2026-03-15T09:06:11Z</time>
      </trkpt>
      <trkpt lat="48.52328" lon="7.16786">
        <ele>807.5</ele>
        <time>2026-03-15T09:06:16Z</time>
      </trkpt>
      <trkpt lat="48.52322" lon="7.1679">
        <ele>807.5</ele>
        <time>2026-03-15T09:06:21Z</time>
      </trkpt>
      <trkpt lat="48.52319" lon="7.16795">
        <ele>808</ele>
        <time>2026-03-15T09:06:26Z</time>
      </trkpt>
      <trkpt lat="48.52314" lon="7.168">
        <ele>808.3</ele>
        <time>2026-03-15T09:06:31Z</time>
      </trkpt>
      <trkpt lat="48.52308" lon="7.16805">
        <ele>808.5</ele>
        <time>2026-03-15T09:06:36Z</time>
      </trkpt>
      <trkpt lat="48.52304" lon="7.16811">
        <ele>809.1</ele>
        <time>2026-03-15T09:06:41Z</time>
      </trkpt>
      <trkpt lat="48.52299" lon="7.16817">
        <ele>809.6</ele>
        <time>2026-03-15T09:06:46Z</time>
      </trkpt>
      <trkpt lat="48.52294" lon="7.16821">
        <ele>809.8</ele>
        <time>2026-03-15T09:06:51Z</time>
      </trkpt>
      <trkpt lat="48.5229" lon="7.16827">
        <ele>810.4</ele>
        <time>2026-03-15T09:06:56Z</time>
      </trkpt>
      <trkpt lat="48.52285" lon="7.16832">
        <ele>810.8</ele>
        <time>2026-03-15T09:07:01Z</time>
      </trkpt>
      <trkpt lat="48.52282" lon="7.16837">
        <ele>811.5</ele>
        <time>2026-03-15T09:07:06Z</time>
      </trkpt>
      <trkpt lat="48.52277" lon="7.16844">
        <ele>812.5</ele>
        <time>2026-03-15T09:07:11Z</time>
      </trkpt>
      <trkpt lat="48.52275" lon="7.16844">
        <ele>812.2</ele>
        <time>2026-03-15T09:07:16Z</time>
      </trkpt>
      <trkpt lat="48.52275" lon="7.16842">
        <ele>811.8</ele>
        <time>2026-03-15T09:07:21Z</time>
      </trkpt>
      <trkpt lat="48.52275" lon="7.16842">
        <ele>811.8</ele>
        <time>2026-03-15T09:07:26Z</time>
      </trkpt>
      <trkpt lat="48.52275" lon="7.16842">
        <ele>811.8</ele>
        <time>2026-03-15T09:07:31Z</time>
      </trkpt>
      <trkpt lat="48.52275" lon="7.16842">
        <ele>811.8</ele>
        <time>2026-03-15T09:07:36Z</time>
      </trkpt>
      <trkpt lat="48.52273" lon="7.16844">
        <ele>812</ele>
        <time>2026-03-15T09:07:41Z</time>
      </trkpt>
      <trkpt lat="48.52273" lon="7.16844">
        <ele>812</ele>
        <time>2026-03-15T09:07:46Z</time>
      </trkpt>
      <trkpt lat="48.52273" lon="7.16844">
        <ele>812</ele>
        <time>2026-03-15T09:07:51Z</time>
      </trkpt>
      <trkpt lat="48.5227" lon="7.16849">
        <ele>812.8</ele>
        <time>2026-03-15T09:07:56Z</time>
      </trkpt>
      <trkpt lat="48.52265" lon="7.16854">
        <ele>813.3</ele>
        <time>2026-03-15T09:08:01Z</time>
      </trkpt>
      <trkpt lat="48.52262" lon="7.1686">
        <ele>814.4</ele>
        <time>2026-03-15T09:08:06Z</time>
      </trkpt>
      <trkpt lat="48.52259" lon="7.16865">
        <ele>815.2</ele>
        <time>2026-03-15T09:08:11Z</time>
      </trkpt>
      <trkpt lat="48.52259" lon="7.16873">
        <ele>817.2</ele>
        <time>2026-03-15T09:08:16Z</time>
      </trkpt>
      <trkpt lat="48.52255" lon="7.16877">
        <ele>817.7</ele>
        <time>2026-03-15T09:08:21Z</time>
      </trkpt>
      <trkpt lat="48.5225" lon="7.16879">
        <ele>817.5</ele>
        <time>2026-03-15T09:08:26Z</time>
      </trkpt>
      <trkpt lat="48.5225" lon="7.16879">
        <ele>817.5</ele>
        <time>2026-03-15T09:08:31Z</time>
      </trkpt>
      <trkpt lat="48.5225" lon="7.16879">
        <ele>817.5</ele>
        <time>2026-03-15T09:08:36Z</time>
      </trkpt>
      <trkpt lat="48.5225" lon="7.16879">
        <ele>817.5</ele>
        <time>2026-03-15T09:08:41Z</time>
      </trkpt>
      <trkpt lat="48.5225" lon="7.16879">
        <ele>817.5</ele>
        <time>2026-03-15T09:08:46Z</time>
      </trkpt>
      <trkpt lat="48.5225" lon="7.16879">
        <ele>817.5</ele>
        <time>2026-03-15T09:08:51Z</time>
      </trkpt>
      <trkpt lat="48.52242" lon="7.16885">
        <ele>817.8</ele>
        <time>2026-03-15T09:08:56Z</time>
      </trkpt>
      <trkpt lat="48.52238" lon="7.16891">
        <ele>818.8</ele>
        <time>2026-03-15T09:09:01Z</time>
      </trkpt>
      <trkpt lat="48.52236" lon="7.16889">
        <ele>818</ele>
        <time>2026-03-15T09:09:06Z</time>
      </trkpt>
      <trkpt lat="48.52229" lon="7.16894">
        <ele>818.2</ele>
        <time>2026-03-15T09:09:11Z</time>
      </trkpt>
      <trkpt lat="48.52225" lon="7.16901">
        <ele>819.4</ele>
        <time>2026-03-15T09:09:16Z</time>
      </trkpt>
      <trkpt lat="48.52221" lon="7.16909">
        <ele>820.9</ele>
        <time>2026-03-15T09:09:21Z</time>
      </trkpt>
      <trkpt lat="48.52217" lon="7.16916">
        <ele>822.1</ele>
        <time>2026-03-15T09:09:26Z</time>
      </trkpt>
      <trkpt lat="48.52213" lon="7.16921">
        <ele>822.6</ele>
        <time>2026-03-15T09:09:31Z</time>
      </trkpt>
      <trkpt lat="48.52208" lon="7.16923">
        <ele>822.4</ele>
        <time>2026-03-15T09:09:36Z</time>
      </trkpt>
      <trkpt lat="48.52203" lon="7.16929">
        <ele>823.1</ele>
        <time>2026-03-15T09:09:41Z</time>
      </trkpt>
      <trkpt lat="48.52198" lon="7.16935">
        <ele>823.8</ele>
        <time>2026-03-15T09:09:46Z</time>
      </trkpt>
      <trkpt lat="48.52196" lon="7.16937">
        <ele>824</ele>
        <time>2026-03-15T09:09:51Z</time>
      </trkpt>
      <trkpt lat="48.52196" lon="7.16937">
        <ele>824</ele>
        <time>2026-03-15T09:09:56Z</time>
      </trkpt>
      <trkpt lat="48.52194" lon="7.1694">
        <ele>824.4</ele>
        <time>2026-03-15T09:10:01Z</time>
      </trkpt>
      <trkpt lat="48.52189" lon="7.16945">
        <ele>825</ele>
        <time>2026-03-15T09:10:06Z</time>
      </trkpt>
      <trkpt lat="48.52185" lon="7.16948">
        <ele>825.2</ele>
        <time>2026-03-15T09:10:11Z</time>
      </trkpt>
      <trkpt lat="48.5218" lon="7.16954">
        <ele>826</ele>
        <time>2026-03-15T09:10:16Z</time>
      </trkpt>
      <trkpt lat="48.52175" lon="7.16958">
        <ele>826.4</ele>
        <time>2026-03-15T09:10:21Z</time>
      </trkpt>
      <trkpt lat="48.5217" lon="7.16961">
        <ele>826.6</ele>
        <time>2026-03-15T09:10:26Z</time>
      </trkpt>
      <trkpt lat="48.52166" lon="7.16967">
        <ele>827.6</ele>
        <time>2026-03-15T09:10:31Z</time>
      </trkpt>
      <trkpt lat="48.52161" lon="7.16972">
        <ele>828.4</ele>
        <time>2026-03-15T09:10:36Z</time>
      </trkpt>
      <trkpt lat="48.52154" lon="7.16975">
        <ele>828.4</ele>
        <time>2026-03-15T09:10:41Z</time>
      </trkpt>
      <trkpt lat="48.5215" lon="7.16982">
        <ele>829.7</ele>
        <time>2026-03-15T09:10:46Z</time>
      </trkpt>
      <trkpt lat="48.52145" lon="7.16987">
        <ele>830.4</ele>
        <time>2026-03-15T09:10:51Z</time>
      </trkpt>
      <trkpt lat="48.52138" lon="7.16991">
        <ele>830.7</ele>
        <time>2026-03-15T09:10:56Z</time>
      </trkpt>
      <trkpt lat="48.52131" lon="7.16994">
        <ele>830.7</ele>
        <time>2026-03-15T09:11:01Z</time>
      </trkpt>
      <trkpt lat="48.52126" lon="7.16996">
        <ele>830.6</ele>
        <time>2026-03-15T09:11:06Z</time>
      </trkpt>
      <trkpt lat="48.5212" lon="7.17002">
        <ele>831.4</ele>
        <time>2026-03-15T09:11:11Z</time>
      </trkpt>
      <trkpt lat="48.52115" lon="7.17006">
        <ele>831.7</ele>
        <time>2026-03-15T09:11:16Z</time>
      </trkpt>
      <trkpt lat="48.52109" lon="7.17012">
        <ele>832.3</ele>
        <time>2026-03-15T09:11:21Z</time>
      </trkpt>
      <trkpt lat="48.52104" lon="7.1702">
        <ele>833.4</ele>
        <time>2026-03-15T09:11:26Z</time>
      </trkpt>
      <trkpt lat="48.52099" lon="7.17022">
        <ele>833.3</ele>
        <time>2026-03-15T09:11:31Z</time>
      </trkpt>
      <trkpt lat="48.52094" lon="7.17025">
        <ele>833.3</ele>
        <time>2026-03-15T09:11:36Z</time>
      </trkpt>
      <trkpt lat="48.5209" lon="7.17029">
        <ele>833.7</ele>
        <time>2026-03-15T09:11:41Z</time>
      </trkpt>
      <trkpt lat="48.52084" lon="7.17032">
        <ele>833.6</ele>
        <time>2026-03-15T09:11:46Z</time>
      </trkpt>
      <trkpt lat="48.52079" lon="7.17037">
        <ele>834.1</ele>
        <time>2026-03-15T09:11:51Z</time>
      </trkpt>
      <trkpt lat="48.52074" lon="7.17043">
        <ele>834.8</ele>
        <time>2026-03-15T09:11:56Z</time>
      </trkpt>
      <trkpt lat="48.52068" lon="7.17046">
        <ele>834.7</ele>
        <time>2026-03-15T09:12:01Z</time>
      </trkpt>
      <trkpt lat="48.52063" lon="7.17052">
        <ele>835.3</ele>
        <time>2026-03-15T09:12:06Z</time>
      </trkpt>
      <trkpt lat="48.52055" lon="7.17057">
        <ele>835.3</ele>
        <time>2026-03-15T09:12:11Z</time>
      </trkpt>
      <trkpt lat="48.52047" lon="7.17062">
        <ele>835.3</ele>
        <time>2026-03-15T09:12:16Z</time>
      </trkpt>
      <trkpt lat="48.52041" lon="7.17064">
        <ele>834.9</ele>
        <time>2026-03-15T09:12:21Z</time>
      </trkpt>
      <trkpt lat="48.52034" lon="7.17068">
        <ele>834.8</ele>
        <time>2026-03-15T09:12:26Z</time>
      </trkpt>
      <trkpt lat="48.52028" lon="7.17073">
        <ele>834.9</ele>
        <time>2026-03-15T09:12:31Z</time>
      </trkpt>
      <trkpt lat="48.52022" lon="7.17079">
        <ele>835.2</ele>
        <time>2026-03-15T09:12:36Z</time>
      </trkpt>
      <trkpt lat="48.52017" lon="7.17083">
        <ele>835.2</ele>
        <time>2026-03-15T09:12:41Z</time>
      </trkpt>
      <trkpt lat="48.5201" lon="7.17085">
        <ele>834.6</ele>
        <time>2026-03-15T09:12:46Z</time>
      </trkpt>
      <trkpt lat="48.52004" lon="7.17088">
        <ele>834.3</ele>
        <time>2026-03-15T09:12:51Z</time>
      </trkpt>
      <trkpt lat="48.51998" lon="7.17091">
        <ele>834.2</ele>
        <time>2026-03-15T09:12:56Z</time>
      </trkpt>
      <trkpt lat="48.51991" lon="7.17094">
        <ele>834.4</ele>
        <time>2026-03-15T09:13:01Z</time>
      </trkpt>
      <trkpt lat="48.51985" lon="7.17097">
        <ele>834.7</ele>
        <time>2026-03-15T09:13:06Z</time>
      </trkpt>
      <trkpt lat="48.5198" lon="7.171">
        <ele>834.9</ele>
        <time>2026-03-15T09:13:11Z</time>
      </trkpt>
      <trkpt lat="48.51975" lon="7.17102">
        <ele>835</ele>
        <time>2026-03-15T09:13:16Z</time>
      </trkpt>
      <trkpt lat="48.51968" lon="7.17104">
        <ele>835</ele>
        <time>2026-03-15T09:13:21Z</time>
      </trkpt>
      <trkpt lat="48.51962" lon="7.17108">
        <ele>835.4</ele>
        <time>2026-03-15T09:13:26Z</time>
      </trkpt>
      <trkpt lat="48.51956" lon="7.17115">
        <ele>836.1</ele>
        <time>2026-03-15T09:13:31Z</time>
      </trkpt>
      <trkpt lat="48.51949" lon="7.17118">
        <ele>836.2</ele>
        <time>2026-03-15T09:13:36Z</time>
      </trkpt>
      <trkpt lat="48.51942" lon="7.17124">
        <ele>836.7</ele>
        <time>2026-03-15T09:13:41Z</time>
      </trkpt>
      <trkpt lat="48.51937" lon="7.17126">
        <ele>836.7</ele>
        <time>2026-03-15T09:13:46Z</time>
      </trkpt>
      <trkpt lat="48.51931" lon="7.17127">
        <ele>836.6</ele>
        <time>2026-03-15T09:13:51Z</time>
      </trkpt>
      <trkpt lat="48.51921" lon="7.17128">
        <ele>836.1</ele>
        <time>2026-03-15T09:13:56Z</time>
      </trkpt>
      <trkpt lat="48.51913" lon="7.1713">
        <ele>836.2</ele>
        <time>2026-03-15T09:14:01Z</time>
      </trkpt>
      <trkpt lat="48.51907" lon="7.17131">
        <ele>836.3</ele>
        <time>2026-03-15T09:14:06Z</time>
      </trkpt>
      <trkpt lat="48.51897" lon="7.17127">
        <ele>835.8</ele>
        <time>2026-03-15T09:14:11Z</time>
      </trkpt>
      <trkpt lat="48.5189" lon="7.17126">
        <ele>835.6</ele>
        <time>2026-03-15T09:14:16Z</time>
      </trkpt>
      <trkpt lat="48.51882" lon="7.17126">
        <ele>835.6</ele>
        <time>2026-03-15T09:14:21Z</time>
      </trkpt>
      <trkpt lat="48.51875" lon="7.17126">
        <ele>835.6</ele>
        <time>2026-03-15T09:14:26Z</time>
      </trkpt>
      <trkpt lat="48.51869" lon="7.17128">
        <ele>835.9</ele>
        <time>2026-03-15T09:14:31Z</time>
      </trkpt>
      <trkpt lat="48.51863" lon="7.17131">
        <ele>836.3</ele>
        <time>2026-03-15T09:14:36Z</time>
      </trkpt>
      <trkpt lat="48.51856" lon="7.17132">
        <ele>836.4</ele>
        <time>2026-03-15T09:14:41Z</time>
      </trkpt>
      <trkpt lat="48.51849" lon="7.1713">
        <ele>836.2</ele>
        <time>2026-03-15T09:14:46Z</time>
      </trkpt>
      <trkpt lat="48.51842" lon="7.1713">
        <ele>836.2</ele>
        <time>2026-03-15T09:14:51Z</time>
      </trkpt>
      <trkpt lat="48.51837" lon="7.17132">
        <ele>836.4</ele>
        <time>2026-03-15T09:14:56Z</time>
      </trkpt>
      <trkpt lat="48.5183" lon="7.17134">
        <ele>837</ele>
        <time>2026-03-15T09:15:01Z</time>
      </trkpt>
      <trkpt lat="48.51824" lon="7.17135">
        <ele>837.7</ele>
        <time>2026-03-15T09:15:06Z</time>
      </trkpt>
      <trkpt lat="48.51816" lon="7.17134">
        <ele>838.3</ele>
        <time>2026-03-15T09:15:11Z</time>
      </trkpt>
      <trkpt lat="48.51808" lon="7.17136">
        <ele>839.3</ele>
        <time>2026-03-15T09:15:16Z</time>
      </trkpt>
      <trkpt lat="48.51802" lon="7.17139">
        <ele>840.2</ele>
        <time>2026-03-15T09:15:21Z</time>
      </trkpt>
      <trkpt lat="48.51794" lon="7.1714">
        <ele>841.1</ele>
        <time>2026-03-15T09:15:26Z</time>
      </trkpt>
      <trkpt lat="48.51786" lon="7.17142">
        <ele>842.1</ele>
        <time>2026-03-15T09:15:31Z</time>
      </trkpt>
      <trkpt lat="48.51777" lon="7.17143">
        <ele>843</ele>
        <time>2026-03-15T09:15:36Z</time>
      </trkpt>
      <trkpt lat="48.5177" lon="7.1714">
        <ele>843.3</ele>
        <time>2026-03-15T09:15:41Z</time>
      </trkpt>
      <trkpt lat="48.51767" lon="7.17139">
        <ele>843.4</ele>
        <time>2026-03-15T09:15:46Z</time>
      </trkpt>
      <trkpt lat="48.51757" lon="7.17137">
        <ele>844.1</ele>
        <time>2026-03-15T09:15:51Z</time>
      </trkpt>
      <trkpt lat="48.51751" lon="7.17138">
        <ele>844.8</ele>
        <time>2026-03-15T09:15:56Z</time>
      </trkpt>
      <trkpt lat="48.51745" lon="7.17136">
        <ele>844.3</ele>
        <time>2026-03-15T09:16:01Z</time>
      </trkpt>
      <trkpt lat="48.51739" lon="7.17136">
        <ele>843.8</ele>
        <time>2026-03-15T09:16:06Z</time>
      </trkpt>
      <trkpt lat="48.51733" lon="7.17132">
        <ele>842.9</ele>
        <time>2026-03-15T09:16:11Z</time>
      </trkpt>
      <trkpt lat="48.51726" lon="7.17128">
        <ele>841.8</ele>
        <time>2026-03-15T09:16:16Z</time>
      </trkpt>
      <trkpt lat="48.51717" lon="7.17126">
        <ele>840.8</ele>
        <time>2026-03-15T09:16:21Z</time>
      </trkpt>
      <trkpt lat="48.51711" lon="7.1712">
        <ele>839.6</ele>
        <time>2026-03-15T09:16:26Z</time>
      </trkpt>
      <trkpt lat="48.51708" lon="7.17111">
        <ele>838.3</ele>
        <time>2026-03-15T09:16:31Z</time>
      </trkpt>
      <trkpt lat="48.51702" lon="7.17106">
        <ele>837.2</ele>
        <time>2026-03-15T09:16:36Z</time>
      </trkpt>
      <trkpt lat="48.51695" lon="7.17103">
        <ele>836.2</ele>
        <time>2026-03-15T09:16:41Z</time>
      </trkpt>
      <trkpt lat="48.51689" lon="7.17097">
        <ele>834.9</ele>
        <time>2026-03-15T09:16:46Z</time>
      </trkpt>
      <trkpt lat="48.51686" lon="7.17092">
        <ele>834</ele>
        <time>2026-03-15T09:16:51Z</time>
      </trkpt>
      <trkpt lat="48.51681" lon="7.17085">
        <ele>832.6</ele>
        <time>2026-03-15T09:16:56Z</time>
      </trkpt>
      <trkpt lat="48.51673" lon="7.17078">
        <ele>831.5</ele>
        <time>2026-03-15T09:17:01Z</time>
      </trkpt>
      <trkpt lat="48.51666" lon="7.17071">
        <ele>830.7</ele>
        <time>2026-03-15T09:17:06Z</time>
      </trkpt>
      <trkpt lat="48.51661" lon="7.17066">
        <ele>829.7</ele>
        <time>2026-03-15T09:17:11Z</time>
      </trkpt>
      <trkpt lat="48.51654" lon="7.17058">
        <ele>828.2</ele>
        <time>2026-03-15T09:17:16Z</time>
      </trkpt>
      <trkpt lat="48.51647" lon="7.17054">
        <ele>826.9</ele>
        <time>2026-03-15T09:17:21Z</time>
      </trkpt>
      <trkpt lat="48.51638" lon="7.17049">
        <ele>825.2</ele>
        <time>2026-03-15T09:17:26Z</time>
      </trkpt>
      <trkpt lat="48.51631" lon="7.17046">
        <ele>824</ele>
        <time>2026-03-15T09:17:31Z</time>
      </trkpt>
      <trkpt lat="48.51624" lon="7.17044">
        <ele>822.8</ele>
        <time>2026-03-15T09:17:36Z</time>
      </trkpt>
      <trkpt lat="48.51619" lon="7.17041">
        <ele>821.9</ele>
        <time>2026-03-15T09:17:41Z</time>
      </trkpt>
      <trkpt lat="48.51613" lon="7.17037">
        <ele>821</ele>
        <time>2026-03-15T09:17:46Z</time>
      </trkpt>
      <trkpt lat="48.51606" lon="7.17034">
        <ele>819.9</ele>
        <time>2026-03-15T09:17:51Z</time>
      </trkpt>
      <trkpt lat="48.516" lon="7.17031">
        <ele>819</ele>
        <time>2026-03-15T09:17:56Z</time>
      </trkpt>
      <trkpt lat="48.51594" lon="7.17029">
        <ele>818.1</ele>
        <time>2026-03-15T09:18:01Z</time>
      </trkpt>
      <trkpt lat="48.51588" lon="7.17025">
        <ele>817.3</ele>
        <time>2026-03-15T09:18:06Z</time>
      </trkpt>
      <trkpt lat="48.51586" lon="7.17024">
        <ele>817</ele>
        <time>2026-03-15T09:18:11Z</time>
      </trkpt>
      <trkpt lat="48.51585" lon="7.17016">
        <ele>817.3</ele>
        <time>2026-03-15T09:18:16Z</time>
      </trkpt>
      <trkpt lat="48.51584" lon="7.17006">
        <ele>817.7</ele>
        <time>2026-03-15T09:18:21Z</time>
      </trkpt>
      <trkpt lat="48.51585" lon="7.16998">
        <ele>818.7</ele>
        <time>2026-03-15T09:18:26Z</time>
      </trkpt>
      <trkpt lat="48.51586" lon="7.16991">
        <ele>820.4</ele>
        <time>2026-03-15T09:18:31Z</time>
      </trkpt>
      <trkpt lat="48.51587" lon="7.16987">
        <ele>821.4</ele>
        <time>2026-03-15T09:18:36Z</time>
      </trkpt>
      <trkpt lat="48.51588" lon="7.16985">
        <ele>822</ele>
        <time>2026-03-15T09:18:41Z</time>
      </trkpt>
      <trkpt lat="48.51584" lon="7.16978">
        <ele>823.1</ele>
        <time>2026-03-15T09:18:46Z</time>
      </trkpt>
      <trkpt lat="48.51575" lon="7.16972">
        <ele>824.2</ele>
        <time>2026-03-15T09:18:51Z</time>
      </trkpt>
      <trkpt lat="48.51574" lon="7.1697">
        <ele>824.6</ele>
        <time>2026-03-15T09:18:56Z</time>
      </trkpt>
      <trkpt lat="48.51573" lon="7.1697">
        <ele>824.6</ele>
        <time>2026-03-15T09:19:01Z</time>
      </trkpt>
      <trkpt lat="48.51573" lon="7.16971">
        <ele>824.4</ele>
        <time>2026-03-15T09:19:06Z</time>
      </trkpt>
      <trkpt lat="48.51573" lon="7.16968">
        <ele>825.1</ele>
        <time>2026-03-15T09:19:11Z</time>
      </trkpt>
      <trkpt lat="48.51571" lon="7.16963">
        <ele>826.2</ele>
        <time>2026-03-15T09:19:16Z</time>
      </trkpt>
      <trkpt lat="48.51568" lon="7.16949">
        <ele>829.4</ele>
        <time>2026-03-15T09:19:21Z</time>
      </trkpt>
      <trkpt lat="48.5157" lon="7.16942">
        <ele>831.1</ele>
        <time>2026-03-15T09:19:26Z</time>
      </trkpt>
      <trkpt lat="48.5157" lon="7.16936">
        <ele>832.5</ele>
        <time>2026-03-15T09:19:31Z</time>
      </trkpt>
      <trkpt lat="48.51573" lon="7.1693">
        <ele>833.9</ele>
        <time>2026-03-15T09:19:36Z</time>
      </trkpt>
      <trkpt lat="48.51574" lon="7.16926">
        <ele>834.8</ele>
        <time>2026-03-15T09:19:41Z</time>
      </trkpt>
      <trkpt lat="48.51574" lon="7.16926">
        <ele>834.8</ele>
        <time>2026-03-15T09:19:46Z</time>
      </trkpt>
      <trkpt lat="48.51574" lon="7.16926">
        <ele>834.8</ele>
        <time>2026-03-15T09:19:51Z</time>
      </trkpt>
      <trkpt lat="48.51574" lon="7.16926">
        <ele>834.8</ele>
        <time>2026-03-15T09:19:56Z</time>
      </trkpt>
      <trkpt lat="48.51574" lon="7.16926">
        <ele>834.8</ele>
        <time>2026-03-15T09:20:01Z</time>
      </trkpt>
      <trkpt lat="48.51574" lon="7.16926">
        <ele>834.8</ele>
        <time>2026-03-15T09:20:06Z</time>
      </trkpt>
      <trkpt lat="48.51574" lon="7.16926">
        <ele>834.8</ele>
        <time>2026-03-15T09:20:11Z</time>
      </trkpt>
      <trkpt lat="48.51575" lon="7.16924">
        <ele>835.3</ele>
        <time>2026-03-15T09:20:16Z</time>
      </trkpt>
      <trkpt lat="48.51575" lon="7.16921">
        <ele>836</ele>
        <time>2026-03-15T09:20:21Z</time>
      </trkpt>
      <trkpt lat="48.51575" lon="7.16921">
        <ele>836</ele>
        <time>2026-03-15T09:20:26Z</time>
      </trkpt>
      <trkpt lat="48.51575" lon="7.16921">
        <ele>836</ele>
        <time>2026-03-15T09:20:31Z</time>
      </trkpt>
      <trkpt lat="48.51575" lon="7.16921">
        <ele>836</ele>
        <time>2026-03-15T09:20:36Z</time>
      </trkpt>
      <trkpt lat="48.51575" lon="7.16921">
        <ele>836</ele>
        <time>2026-03-15T09:20:41Z</time>
      </trkpt>
      <trkpt lat="48.51575" lon="7.16921">
        <ele>836</ele>
        <time>2026-03-15T09:20:46Z</time>
      </trkpt>
      <trkpt lat="48.51575" lon="7.16921">
        <ele>836</ele>
        <time>2026-03-15T09:20:51Z</time>
      </trkpt>
      <trkpt lat="48.51573" lon="7.16908">
        <ele>839.3</ele>
        <time>2026-03-15T09:20:56Z</time>
      </trkpt>
      <trkpt lat="48.51572" lon="7.16904">
        <ele>840.4</ele>
        <time>2026-03-15T09:21:01Z</time>
      </trkpt>
      <trkpt lat="48.51571" lon="7.16904">
        <ele>840.4</ele>
        <time>2026-03-15T09:21:06Z</time>
      </trkpt>
      <trkpt lat="48.51571" lon="7.16904">
        <ele>840.4</ele>
        <time>2026-03-15T09:21:11Z</time>
      </trkpt>
      <trkpt lat="48.51571" lon="7.16904">
        <ele>840.4</ele>
        <time>2026-03-15T09:21:16Z</time>
      </trkpt>
      <trkpt lat="48.51571" lon="7.16904">
        <ele>840.4</ele>
        <time>2026-03-15T09:21:21Z</time>
      </trkpt>
      <trkpt lat="48.51568" lon="7.16895">
        <ele>842.9</ele>
        <time>2026-03-15T09:21:26Z</time>
      </trkpt>
      <trkpt lat="48.51568" lon="7.16893">
        <ele>843.4</ele>
        <time>2026-03-15T09:21:31Z</time>
      </trkpt>
      <trkpt lat="48.51568" lon="7.16893">
        <ele>843.4</ele>
        <time>2026-03-15T09:21:36Z</time>
      </trkpt>
      <trkpt lat="48.51565" lon="7.16888">
        <ele>844.9</ele>
        <time>2026-03-15T09:21:41Z</time>
      </trkpt>
      <trkpt lat="48.51566" lon="7.16882">
        <ele>846.5</ele>
        <time>2026-03-15T09:21:46Z</time>
      </trkpt>
      <trkpt lat="48.51568" lon="7.16879">
        <ele>847.2</ele>
        <time>2026-03-15T09:21:51Z</time>
      </trkpt>
      <trkpt lat="48.5157" lon="7.16875">
        <ele>848.2</ele>
        <time>2026-03-15T09:21:56Z</time>
      </trkpt>
      <trkpt lat="48.51571" lon="7.16871">
        <ele>849.2</ele>
        <time>2026-03-15T09:22:01Z</time>
      </trkpt>
      <trkpt lat="48.5157" lon="7.16864">
        <ele>851.2</ele>
        <time>2026-03-15T09:22:06Z</time>
      </trkpt>
      <trkpt lat="48.51569" lon="7.16858">
        <ele>852.9</ele>
        <time>2026-03-15T09:22:11Z</time>
      </trkpt>
      <trkpt lat="48.51569" lon="7.16852">
        <ele>854.5</ele>
        <time>2026-03-15T09:22:16Z</time>
      </trkpt>
      <trkpt lat="48.51568" lon="7.16846">
        <ele>856.2</ele>
        <time>2026-03-15T09:22:21Z</time>
      </trkpt>
      <trkpt lat="48.51568" lon="7.1684">
        <ele>857.8</ele>
        <time>2026-03-15T09:22:26Z</time>
      </trkpt>
      <trkpt lat="48.51567" lon="7.16834">
        <ele>859.6</ele>
        <time>2026-03-15T09:22:31Z</time>
      </trkpt>
      <trkpt lat="48.51567" lon="7.16829">
        <ele>860.7</ele>
        <time>2026-03-15T09:22:36Z</time>
      </trkpt>
      <trkpt lat="48.51565" lon="7.16823">
        <ele>862.2</ele>
        <time>2026-03-15T09:22:41Z</time>
      </trkpt>
      <trkpt lat="48.51564" lon="7.16816">
        <ele>863.9</ele>
        <time>2026-03-15T09:22:46Z</time>
      </trkpt>
      <trkpt lat="48.51564" lon="7.16809">
        <ele>865.4</ele>
        <time>2026-03-15T09:22:51Z</time>
      </trkpt>
      <trkpt lat="48.51565" lon="7.16802">
        <ele>866.8</ele>
        <time>2026-03-15T09:22:56Z</time>
      </trkpt>
      <trkpt lat="48.51564" lon="7.16797">
        <ele>868.1</ele>
        <time>2026-03-15T09:23:01Z</time>
      </trkpt>
      <trkpt lat="48.51564" lon="7.16793">
        <ele>869</ele>
        <time>2026-03-15T09:23:06Z</time>
      </trkpt>
      <trkpt lat="48.51562" lon="7.16788">
        <ele>870.4</ele>
        <time>2026-03-15T09:23:11Z</time>
      </trkpt>
      <trkpt lat="48.51561" lon="7.16782">
        <ele>871.9</ele>
        <time>2026-03-15T09:23:16Z</time>
      </trkpt>
      <trkpt lat="48.5156" lon="7.16777">
        <ele>873.2</ele>
        <time>2026-03-15T09:23:21Z</time>
      </trkpt>
      <trkpt lat="48.5156" lon="7.1677">
        <ele>874.8</ele>
        <time>2026-03-15T09:23:26Z</time>
      </trkpt>
      <trkpt lat="48.51558" lon="7.16764">
        <ele>876.6</ele>
        <time>2026-03-15T09:23:31Z</time>
      </trkpt>
      <trkpt lat="48.51558" lon="7.16758">
        <ele>877.9</ele>
        <time>2026-03-15T09:23:36Z</time>
      </trkpt>
      <trkpt lat="48.51558" lon="7.16752">
        <ele>879.3</ele>
        <time>2026-03-15T09:23:41Z</time>
      </trkpt>
      <trkpt lat="48.51557" lon="7.16746">
        <ele>880.8</ele>
        <time>2026-03-15T09:23:46Z</time>
      </trkpt>
      <trkpt lat="48.51555" lon="7.16741">
        <ele>882.3</ele>
        <time>2026-03-15T09:23:51Z</time>
      </trkpt>
      <trkpt lat="48.51554" lon="7.16735">
        <ele>883.8</ele>
        <time>2026-03-15T09:23:56Z</time>
      </trkpt>
      <trkpt lat="48.51555" lon="7.1673">
        <ele>884.6</ele>
        <time>2026-03-15T09:24:01Z</time>
      </trkpt>
      <trkpt lat="48.51555" lon="7.16725">
        <ele>885.7</ele>
        <time>2026-03-15T09:24:06Z</time>
      </trkpt>
      <trkpt lat="48.51554" lon="7.1672">
        <ele>887</ele>
        <time>2026-03-15T09:24:11Z</time>
      </trkpt>
      <trkpt lat="48.51552" lon="7.16715">
        <ele>888.5</ele>
        <time>2026-03-15T09:24:16Z</time>
      </trkpt>
      <trkpt lat="48.51552" lon="7.16709">
        <ele>889.8</ele>
        <time>2026-03-15T09:24:21Z</time>
      </trkpt>
      <trkpt lat="48.51552" lon="7.16704">
        <ele>890.9</ele>
        <time>2026-03-15T09:24:26Z</time>
      </trkpt>
      <trkpt lat="48.51552" lon="7.16699">
        <ele>891.9</ele>
        <time>2026-03-15T09:24:31Z</time>
      </trkpt>
      <trkpt lat="48.51551" lon="7.16693">
        <ele>893.5</ele>
        <time>2026-03-15T09:24:36Z</time>
      </trkpt>
      <trkpt lat="48.51552" lon="7.16688">
        <ele>894.3</ele>
        <time>2026-03-15T09:24:41Z</time>
      </trkpt>
      <trkpt lat="48.51552" lon="7.16684">
        <ele>895.1</ele>
        <time>2026-03-15T09:24:46Z</time>
      </trkpt>
      <trkpt lat="48.51552" lon="7.16679">
        <ele>896.2</ele>
        <time>2026-03-15T09:24:51Z</time>
      </trkpt>
      <trkpt lat="48.51552" lon="7.16673">
        <ele>897.4</ele>
        <time>2026-03-15T09:24:56Z</time>
      </trkpt>
      <trkpt lat="48.51553" lon="7.16666">
        <ele>898.5</ele>
        <time>2026-03-15T09:25:01Z</time>
      </trkpt>
      <trkpt lat="48.51552" lon="7.16657">
        <ele>899.7</ele>
        <time>2026-03-15T09:25:06Z</time>
      </trkpt>
      <trkpt lat="48.51549" lon="7.1665">
        <ele>901.4</ele>
        <time>2026-03-15T09:25:11Z</time>
      </trkpt>
      <trkpt lat="48.51545" lon="7.16656">
        <ele>902.1</ele>
        <time>2026-03-15T09:25:16Z</time>
      </trkpt>
      <trkpt lat="48.51544" lon="7.16663">
        <ele>901.7</ele>
        <time>2026-03-15T09:25:21Z</time>
      </trkpt>
      <trkpt lat="48.51542" lon="7.16669">
        <ele>901.4</ele>
        <time>2026-03-15T09:25:26Z</time>
      </trkpt>
      <trkpt lat="48.51541" lon="7.16673">
        <ele>900.8</ele>
        <time>2026-03-15T09:25:31Z</time>
      </trkpt>
      <trkpt lat="48.5154" lon="7.16677">
        <ele>900.2</ele>
        <time>2026-03-15T09:25:36Z</time>
      </trkpt>
      <trkpt lat="48.51538" lon="7.16684">
        <ele>899.2</ele>
        <time>2026-03-15T09:25:41Z</time>
      </trkpt>
      <trkpt lat="48.51536" lon="7.1669">
        <ele>898.5</ele>
        <time>2026-03-15T09:25:46Z</time>
      </trkpt>
      <trkpt lat="48.51535" lon="7.16696">
        <ele>897.4</ele>
        <time>2026-03-15T09:25:51Z</time>
      </trkpt>
      <trkpt lat="48.51532" lon="7.16702">
        <ele>896.8</ele>
        <time>2026-03-15T09:25:56Z</time>
      </trkpt>
      <trkpt lat="48.5153" lon="7.16709">
        <ele>895.7</ele>
        <time>2026-03-15T09:26:01Z</time>
      </trkpt>
      <trkpt lat="48.51528" lon="7.16716">
        <ele>894.6</ele>
        <time>2026-03-15T09:26:06Z</time>
      </trkpt>
      <trkpt lat="48.51525" lon="7.16722">
        <ele>894</ele>
        <time>2026-03-15T09:26:11Z</time>
      </trkpt>
      <trkpt lat="48.51522" lon="7.16727">
        <ele>893.5</ele>
        <time>2026-03-15T09:26:16Z</time>
      </trkpt>
      <trkpt lat="48.51519" lon="7.16729">
        <ele>893.8</ele>
        <time>2026-03-15T09:26:21Z</time>
      </trkpt>
      <trkpt lat="48.51517" lon="7.16734">
        <ele>893.1</ele>
        <time>2026-03-15T09:26:26Z</time>
      </trkpt>
      <trkpt lat="48.51515" lon="7.16738">
        <ele>892.6</ele>
        <time>2026-03-15T09:26:31Z</time>
      </trkpt>
      <trkpt lat="48.51514" lon="7.16745">
        <ele>891.1</ele>
        <time>2026-03-15T09:26:36Z</time>
      </trkpt>
      <trkpt lat="48.51512" lon="7.16749">
        <ele>890.5</ele>
        <time>2026-03-15T09:26:41Z</time>
      </trkpt>
      <trkpt lat="48.5151" lon="7.16752">
        <ele>890.1</ele>
        <time>2026-03-15T09:26:46Z</time>
      </trkpt>
      <trkpt lat="48.51507" lon="7.16754">
        <ele>890.2</ele>
        <time>2026-03-15T09:26:51Z</time>
      </trkpt>
      <trkpt lat="48.51503" lon="7.16758">
        <ele>889.9</ele>
        <time>2026-03-15T09:26:56Z</time>
      </trkpt>
      <trkpt lat="48.515" lon="7.1676">
        <ele>889.9</ele>
        <time>2026-03-15T09:27:01Z</time>
      </trkpt>
      <trkpt lat="48.51497" lon="7.16764">
        <ele>889.1</ele>
        <time>2026-03-15T09:27:06Z</time>
      </trkpt>
      <trkpt lat="48.51493" lon="7.16768">
        <ele>888.4</ele>
        <time>2026-03-15T09:27:11Z</time>
      </trkpt>
      <trkpt lat="48.51489" lon="7.16769">
        <ele>888.7</ele>
        <time>2026-03-15T09:27:16Z</time>
      </trkpt>
      <trkpt lat="48.51484" lon="7.16768">
        <ele>889.7</ele>
        <time>2026-03-15T09:27:21Z</time>
      </trkpt>
      <trkpt lat="48.5148" lon="7.16766">
        <ele>890.9</ele>
        <time>2026-03-15T09:27:26Z</time>
      </trkpt>
      <trkpt lat="48.51477" lon="7.16762">
        <ele>892.6</ele>
        <time>2026-03-15T09:27:31Z</time>
      </trkpt>
      <trkpt lat="48.51474" lon="7.16759">
        <ele>894</ele>
        <time>2026-03-15T09:27:36Z</time>
      </trkpt>
      <trkpt lat="48.51472" lon="7.16757">
        <ele>894.9</ele>
        <time>2026-03-15T09:27:41Z</time>
      </trkpt>
      <trkpt lat="48.51468" lon="7.16757">
        <ele>895.5</ele>
        <time>2026-03-15T09:27:46Z</time>
      </trkpt>
      <trkpt lat="48.51464" lon="7.16755">
        <ele>896.6</ele>
        <time>2026-03-15T09:27:51Z</time>
      </trkpt>
      <trkpt lat="48.51459" lon="7.16755">
        <ele>897.4</ele>
        <time>2026-03-15T09:27:56Z</time>
      </trkpt>
      <trkpt lat="48.51455" lon="7.16754">
        <ele>898.3</ele>
        <time>2026-03-15T09:28:01Z</time>
      </trkpt>
      <trkpt lat="48.5145" lon="7.16755">
        <ele>898.7</ele>
        <time>2026-03-15T09:28:06Z</time>
      </trkpt>
      <trkpt lat="48.51445" lon="7.16754">
        <ele>899.7</ele>
        <time>2026-03-15T09:28:11Z</time>
      </trkpt>
      <trkpt lat="48.51442" lon="7.16753">
        <ele>900.4</ele>
        <time>2026-03-15T09:28:16Z</time>
      </trkpt>
      <trkpt lat="48.51438" lon="7.16753">
        <ele>901</ele>
        <time>2026-03-15T09:28:21Z</time>
      </trkpt>
      <trkpt lat="48.51434" lon="7.16753">
        <ele>901.6</ele>
        <time>2026-03-15T09:28:26Z</time>
      </trkpt>
      <trkpt lat="48.51431" lon="7.16751">
        <ele>902.6</ele>
        <time>2026-03-15T09:28:31Z</time>
      </trkpt>
      <trkpt lat="48.51427" lon="7.16751">
        <ele>903.2</ele>
        <time>2026-03-15T09:28:36Z</time>
      </trkpt>
      <trkpt lat="48.51424" lon="7.1675">
        <ele>903.9</ele>
        <time>2026-03-15T09:28:41Z</time>
      </trkpt>
      <trkpt lat="48.5142" lon="7.1675">
        <ele>904.5</ele>
        <time>2026-03-15T09:28:46Z</time>
      </trkpt>
      <trkpt lat="48.51417" lon="7.16751">
        <ele>904.7</ele>
        <time>2026-03-15T09:28:51Z</time>
      </trkpt>
      <trkpt lat="48.51411" lon="7.16753">
        <ele>904.6</ele>
        <time>2026-03-15T09:28:56Z</time>
      </trkpt>
      <trkpt lat="48.51408" lon="7.16755">
        <ele>904.2</ele>
        <time>2026-03-15T09:29:01Z</time>
      </trkpt>
      <trkpt lat="48.51404" lon="7.16755">
        <ele>904.6</ele>
        <time>2026-03-15T09:29:06Z</time>
      </trkpt>
      <trkpt lat="48.51402" lon="7.16752">
        <ele>905.6</ele>
        <time>2026-03-15T09:29:11Z</time>
      </trkpt>
      <trkpt lat="48.51401" lon="7.16748">
        <ele>907.2</ele>
        <time>2026-03-15T09:29:16Z</time>
      </trkpt>
      <trkpt lat="48.51405" lon="7.16745">
        <ele>908.1</ele>
        <time>2026-03-15T09:29:21Z</time>
      </trkpt>
      <trkpt lat="48.51406" lon="7.16743">
        <ele>908.9</ele>
        <time>2026-03-15T09:29:26Z</time>
      </trkpt>
      <trkpt lat="48.51408" lon="7.1674">
        <ele>910</ele>
        <time>2026-03-15T09:29:31Z</time>
      </trkpt>
      <trkpt lat="48.5141" lon="7.16735">
        <ele>911.9</ele>
        <time>2026-03-15T09:29:36Z</time>
      </trkpt>
      <trkpt lat="48.51412" lon="7.16731">
        <ele>913.4</ele>
        <time>2026-03-15T09:29:41Z</time>
      </trkpt>
      <trkpt lat="48.51416" lon="7.16728">
        <ele>914.3</ele>
        <time>2026-03-15T09:29:46Z</time>
      </trkpt>
      <trkpt lat="48.51417" lon="7.16725">
        <ele>915.4</ele>
        <time>2026-03-15T09:29:51Z</time>
      </trkpt>
      <trkpt lat="48.51421" lon="7.16723">
        <ele>915.5</ele>
        <time>2026-03-15T09:29:56Z</time>
      </trkpt>
      <trkpt lat="48.51426" lon="7.16722">
        <ele>914.9</ele>
        <time>2026-03-15T09:30:01Z</time>
      </trkpt>
      <trkpt lat="48.51428" lon="7.16721">
        <ele>914.9</ele>
        <time>2026-03-15T09:30:06Z</time>
      </trkpt>
      <trkpt lat="48.5143" lon="7.16721">
        <ele>914.5</ele>
        <time>2026-03-15T09:30:11Z</time>
      </trkpt>
      <trkpt lat="48.5143" lon="7.16721">
        <ele>914.5</ele>
        <time>2026-03-15T09:30:16Z</time>
      </trkpt>
      <trkpt lat="48.51438" lon="7.16715">
        <ele>915.2</ele>
        <time>2026-03-15T09:30:21Z</time>
      </trkpt>
      <trkpt lat="48.5144" lon="7.16712">
        <ele>915.9</ele>
        <time>2026-03-15T09:30:26Z</time>
      </trkpt>
      <trkpt lat="48.51443" lon="7.16711">
        <ele>915.7</ele>
        <time>2026-03-15T09:30:31Z</time>
      </trkpt>
      <trkpt lat="48.51446" lon="7.16708">
        <ele>916.1</ele>
        <time>2026-03-15T09:30:36Z</time>
      </trkpt>
      <trkpt lat="48.51447" lon="7.16707">
        <ele>916.3</ele>
        <time>2026-03-15T09:30:41Z</time>
      </trkpt>
      <trkpt lat="48.51447" lon="7.16707">
        <ele>916.3</ele>
        <time>2026-03-15T09:30:46Z</time>
      </trkpt>
      <trkpt lat="48.51447" lon="7.16707">
        <ele>916.3</ele>
        <time>2026-03-15T09:30:51Z</time>
      </trkpt>
      <trkpt lat="48.51447" lon="7.16707">
        <ele>916.3</ele>
        <time>2026-03-15T09:30:56Z</time>
      </trkpt>
      <trkpt lat="48.51447" lon="7.16707">
        <ele>916.3</ele>
        <time>2026-03-15T09:31:01Z</time>
      </trkpt>
      <trkpt lat="48.51447" lon="7.16707">
        <ele>916.3</ele>
        <time>2026-03-15T09:31:06Z</time>
      </trkpt>
      <trkpt lat="48.51447" lon="7.16707">
        <ele>916.3</ele>
        <time>2026-03-15T09:31:11Z</time>
      </trkpt>
      <trkpt lat="48.51447" lon="7.16707">
        <ele>916.3</ele>
        <time>2026-03-15T09:31:16Z</time>
      </trkpt>
      <trkpt lat="48.51447" lon="7.16707">
        <ele>916.3</ele>
        <time>2026-03-15T09:31:21Z</time>
      </trkpt>
      <trkpt lat="48.51447" lon="7.16707">
        <ele>916.3</ele>
        <time>2026-03-15T09:31:26Z</time>
      </trkpt>
      <trkpt lat="48.51447" lon="7.16707">
        <ele>916.3</ele>
        <time>2026-03-15T09:31:31Z</time>
      </trkpt>
      <trkpt lat="48.51447" lon="7.16707">
        <ele>916.3</ele>
        <time>2026-03-15T09:31:36Z</time>
      </trkpt>
      <trkpt lat="48.51447" lon="7.16707">
        <ele>916.3</ele>
        <time>2026-03-15T09:31:41Z</time>
      </trkpt>
      <trkpt lat="48.51447" lon="7.16707">
        <ele>916.3</ele>
        <time>2026-03-15T09:31:46Z</time>
      </trkpt>
      <trkpt lat="48.51447" lon="7.16707">
        <ele>916.3</ele>
        <time>2026-03-15T09:31:51Z</time>
      </trkpt>
      <trkpt lat="48.51447" lon="7.16707">
        <ele>916.3</ele>
        <time>2026-03-15T09:31:56Z</time>
      </trkpt>
      <trkpt lat="48.51447" lon="7.16707">
        <ele>916.3</ele>
        <time>2026-03-15T09:32:01Z</time>
      </trkpt>
      <trkpt lat="48.51447" lon="7.16707">
        <ele>916.3</ele>
        <time>2026-03-15T09:32:06Z</time>
      </trkpt>
      <trkpt lat="48.51447" lon="7.16707">
        <ele>916.3</ele>
        <time>2026-03-15T09:32:11Z</time>
      </trkpt>
      <trkpt lat="48.51447" lon="7.16707">
        <ele>916.3</ele>
        <time>2026-03-15T09:32:16Z</time>
      </trkpt>
      <trkpt lat="48.51447" lon="7.16707">
        <ele>916.3</ele>
        <time>2026-03-15T09:32:21Z</time>
      </trkpt>
      <trkpt lat="48.51447" lon="7.16707">
        <ele>916.3</ele>
        <time>2026-03-15T09:32:26Z</time>
      </trkpt>
      <trkpt lat="48.51447" lon="7.16707">
        <ele>916.3</ele>
        <time>2026-03-15T09:32:31Z</time>
      </trkpt>
      <trkpt lat="48.51447" lon="7.16707">
        <ele>916.3</ele>
        <time>2026-03-15T09:32:36Z</time>
      </trkpt>
      <trkpt lat="48.51447" lon="7.16707">
        <ele>916.3</ele>
        <time>2026-03-15T09:32:41Z</time>
      </trkpt>
      <trkpt lat="48.51447" lon="7.16707">
        <ele>916.3</ele>
        <time>2026-03-15T09:32:46Z</time>
      </trkpt>
      <trkpt lat="48.51447" lon="7.16707">
        <ele>916.3</ele>
        <time>2026-03-15T09:32:51Z</time>
      </trkpt>
      <trkpt lat="48.51447" lon="7.16707">
        <ele>916.3</ele>
        <time>2026-03-15T09:32:56Z</time>
      </trkpt>
      <trkpt lat="48.51447" lon="7.16707">
        <ele>916.3</ele>
        <time>2026-03-15T09:33:01Z</time>
      </trkpt>
      <trkpt lat="48.51447" lon="7.16707">
        <ele>916.3</ele>
        <time>2026-03-15T09:33:06Z</time>
      </trkpt>
      <trkpt lat="48.51447" lon="7.16707">
        <ele>916.3</ele>
        <time>2026-03-15T09:33:11Z</time>
      </trkpt>
      <trkpt lat="48.51447" lon="7.16707">
        <ele>916.3</ele>
        <time>2026-03-15T09:33:16Z</time>
      </trkpt>
      <trkpt lat="48.51447" lon="7.16707">
        <ele>916.3</ele>
        <time>2026-03-15T09:33:21Z</time>
      </trkpt>
      <trkpt lat="48.51447" lon="7.16707">
        <ele>916.3</ele>
        <time>2026-03-15T09:33:26Z</time>
      </trkpt>
      <trkpt lat="48.51447" lon="7.16707">
        <ele>916.3</ele>
        <time>2026-03-15T09:33:31Z</time>
      </trkpt>
      <trkpt lat="48.51447" lon="7.16707">
        <ele>916.3</ele>
        <time>2026-03-15T09:33:36Z</time>
      </trkpt>
      <trkpt lat="48.51447" lon="7.16707">
        <ele>916.3</ele>
        <time>2026-03-15T09:33:41Z</time>
      </trkpt>
      <trkpt lat="48.51448" lon="7.16703">
        <ele>917.5</ele>
        <time>2026-03-15T09:33:46Z</time>
      </trkpt>
      <trkpt lat="48.51448" lon="7.16703">
        <ele>917.5</ele>
        <time>2026-03-15T09:33:51Z</time>
      </trkpt>
      <trkpt lat="48.51448" lon="7.16703">
        <ele>917.5</ele>
        <time>2026-03-15T09:33:56Z</time>
      </trkpt>
      <trkpt lat="48.51448" lon="7.16703">
        <ele>917.5</ele>
        <time>2026-03-15T09:34:01Z</time>
      </trkpt>
      <trkpt lat="48.51457" lon="7.16699">
        <ele>916.8</ele>
        <time>2026-03-15T09:34:06Z</time>
      </trkpt>
      <trkpt lat="48.51459" lon="7.16699">
        <ele>916.3</ele>
        <time>2026-03-15T09:34:11Z</time>
      </trkpt>
      <trkpt lat="48.5146" lon="7.16698">
        <ele>916.4</ele>
        <time>2026-03-15T09:34:16Z</time>
      </trkpt>
      <trkpt lat="48.51462" lon="7.16696">
        <ele>916.6</ele>
        <time>2026-03-15T09:34:21Z</time>
      </trkpt>
      <trkpt lat="48.51462" lon="7.16696">
        <ele>916.6</ele>
        <time>2026-03-15T09:34:26Z</time>
      </trkpt>
      <trkpt lat="48.51462" lon="7.16696">
        <ele>916.6</ele>
        <time>2026-03-15T09:34:31Z</time>
      </trkpt>
      <trkpt lat="48.51458" lon="7.16694">
        <ele>918.2</ele>
        <time>2026-03-15T09:34:36Z</time>
      </trkpt>
      <trkpt lat="48.51455" lon="7.1669">
        <ele>920.4</ele>
        <time>2026-03-15T09:34:41Z</time>
      </trkpt>
      <trkpt lat="48.5145" lon="7.1669">
        <ele>921.7</ele>
        <time>2026-03-15T09:34:46Z</time>
      </trkpt>
      <trkpt lat="48.51447" lon="7.16689">
        <ele>922.8</ele>
        <time>2026-03-15T09:34:51Z</time>
      </trkpt>
      <trkpt lat="48.51445" lon="7.16689">
        <ele>923.3</ele>
        <time>2026-03-15T09:34:56Z</time>
      </trkpt>
      <trkpt lat="48.51442" lon="7.16688">
        <ele>924.5</ele>
        <time>2026-03-15T09:35:01Z</time>
      </trkpt>
      <trkpt lat="48.51438" lon="7.16687">
        <ele>925.9</ele>
        <time>2026-03-15T09:35:06Z</time>
      </trkpt>
      <trkpt lat="48.51435" lon="7.16685">
        <ele>927.4</ele>
        <time>2026-03-15T09:35:11Z</time>
      </trkpt>
      <trkpt lat="48.51435" lon="7.16684">
        <ele>927.8</ele>
        <time>2026-03-15T09:35:16Z</time>
      </trkpt>
      <trkpt lat="48.51442" lon="7.16683">
        <ele>926.3</ele>
        <time>2026-03-15T09:35:21Z</time>
      </trkpt>
      <trkpt lat="48.51447" lon="7.16681">
        <ele>925.7</ele>
        <time>2026-03-15T09:35:26Z</time>
      </trkpt>
      <trkpt lat="48.51448" lon="7.1668">
        <ele>925.8</ele>
        <time>2026-03-15T09:35:31Z</time>
      </trkpt>
      <trkpt lat="48.5145" lon="7.1668">
        <ele>925.2</ele>
        <time>2026-03-15T09:35:36Z</time>
      </trkpt>
      <trkpt lat="48.51455" lon="7.16677">
        <ele>924.9</ele>
        <time>2026-03-15T09:35:41Z</time>
      </trkpt>
      <trkpt lat="48.51456" lon="7.16674">
        <ele>925.7</ele>
        <time>2026-03-15T09:35:46Z</time>
      </trkpt>
      <trkpt lat="48.51456" lon="7.16673">
        <ele>926</ele>
        <time>2026-03-15T09:35:51Z</time>
      </trkpt>
      <trkpt lat="48.51457" lon="7.16666">
        <ele>928.1</ele>
        <time>2026-03-15T09:35:56Z</time>
      </trkpt>
      <trkpt lat="48.51458" lon="7.16665">
        <ele>928</ele>
        <time>2026-03-15T09:36:01Z</time>
      </trkpt>
      <trkpt lat="48.51459" lon="7.1666">
        <ele>929</ele>
        <time>2026-03-15T09:36:06Z</time>
      </trkpt>
      <trkpt lat="48.51458" lon="7.16655">
        <ele>930.6</ele>
        <time>2026-03-15T09:36:11Z</time>
      </trkpt>
      <trkpt lat="48.51458" lon="7.16648">
        <ele>932.3</ele>
        <time>2026-03-15T09:36:16Z</time>
      </trkpt>
      <trkpt lat="48.51457" lon="7.16643">
        <ele>933.9</ele>
        <time>2026-03-15T09:36:21Z</time>
      </trkpt>
      <trkpt lat="48.51457" lon="7.16639">
        <ele>935</ele>
        <time>2026-03-15T09:36:26Z</time>
      </trkpt>
      <trkpt lat="48.51457" lon="7.16633">
        <ele>936.5</ele>
        <time>2026-03-15T09:36:31Z</time>
      </trkpt>
      <trkpt lat="48.51457" lon="7.16631">
        <ele>937</ele>
        <time>2026-03-15T09:36:36Z</time>
      </trkpt>
      <trkpt lat="48.51457" lon="7.16631">
        <ele>937</ele>
        <time>2026-03-15T09:36:41Z</time>
      </trkpt>
      <trkpt lat="48.51457" lon="7.16631">
        <ele>937</ele>
        <time>2026-03-15T09:36:46Z</time>
      </trkpt>
      <trkpt lat="48.51456" lon="7.16614">
        <ele>941.8</ele>
        <time>2026-03-15T09:36:51Z</time>
      </trkpt>
      <trkpt lat="48.51456" lon="7.16609">
        <ele>943.1</ele>
        <time>2026-03-15T09:36:56Z</time>
      </trkpt>
      <trkpt lat="48.51456" lon="7.16605">
        <ele>944.1</ele>
        <time>2026-03-15T09:37:01Z</time>
      </trkpt>
      <trkpt lat="48.51456" lon="7.16603">
        <ele>944.6</ele>
        <time>2026-03-15T09:37:06Z</time>
      </trkpt>
      <trkpt lat="48.51456" lon="7.16603">
        <ele>944.6</ele>
        <time>2026-03-15T09:37:11Z</time>
      </trkpt>
      <trkpt lat="48.51456" lon="7.16603">
        <ele>944.6</ele>
        <time>2026-03-15T09:37:16Z</time>
      </trkpt>
      <trkpt lat="48.51456" lon="7.16603">
        <ele>944.6</ele>
        <time>2026-03-15T09:37:21Z</time>
      </trkpt>
      <trkpt lat="48.51456" lon="7.16603">
        <ele>944.6</ele>
        <time>2026-03-15T09:37:26Z</time>
      </trkpt>
      <trkpt lat="48.51456" lon="7.16603">
        <ele>944.6</ele>
        <time>2026-03-15T09:37:31Z</time>
      </trkpt>
      <trkpt lat="48.51456" lon="7.16603">
        <ele>944.6</ele>
        <time>2026-03-15T09:37:36Z</time>
      </trkpt>
      <trkpt lat="48.51456" lon="7.16588">
        <ele>948.5</ele>
        <time>2026-03-15T09:37:41Z</time>
      </trkpt>
      <trkpt lat="48.51456" lon="7.16588">
        <ele>948.5</ele>
        <time>2026-03-15T09:37:46Z</time>
      </trkpt>
      <trkpt lat="48.51456" lon="7.16588">
        <ele>948.5</ele>
        <time>2026-03-15T09:37:51Z</time>
      </trkpt>
      <trkpt lat="48.51453" lon="7.16581">
        <ele>951.3</ele>
        <time>2026-03-15T09:37:56Z</time>
      </trkpt>
      <trkpt lat="48.51454" lon="7.16576">
        <ele>950.9</ele>
        <time>2026-03-15T09:38:01Z</time>
      </trkpt>
      <trkpt lat="48.51454" lon="7.16573">
        <ele>950.9</ele>
        <time>2026-03-15T09:38:06Z</time>
      </trkpt>
      <trkpt lat="48.51452" lon="7.16568">
        <ele>952.1</ele>
        <time>2026-03-15T09:38:11Z</time>
      </trkpt>
      <trkpt lat="48.51452" lon="7.16566">
        <ele>952.1</ele>
        <time>2026-03-15T09:38:16Z</time>
      </trkpt>
      <trkpt lat="48.51452" lon="7.16566">
        <ele>952.1</ele>
        <time>2026-03-15T09:38:21Z</time>
      </trkpt>
      <trkpt lat="48.51452" lon="7.16566">
        <ele>952.1</ele>
        <time>2026-03-15T09:38:26Z</time>
      </trkpt>
      <trkpt lat="48.51452" lon="7.16566">
        <ele>952.1</ele>
        <time>2026-03-15T09:38:31Z</time>
      </trkpt>
      <trkpt lat="48.51452" lon="7.16566">
        <ele>952.1</ele>
        <time>2026-03-15T09:38:36Z</time>
      </trkpt>
      <trkpt lat="48.51445" lon="7.16554">
        <ele>956.1</ele>
        <time>2026-03-15T09:38:41Z</time>
      </trkpt>
      <trkpt lat="48.51445" lon="7.16554">
        <ele>956.1</ele>
        <time>2026-03-15T09:38:46Z</time>
      </trkpt>
      <trkpt lat="48.51443" lon="7.16545">
        <ele>957.4</ele>
        <time>2026-03-15T09:38:51Z</time>
      </trkpt>
      <trkpt lat="48.51444" lon="7.1654">
        <ele>956.9</ele>
        <time>2026-03-15T09:38:56Z</time>
      </trkpt>
      <trkpt lat="48.51445" lon="7.16535">
        <ele>956.5</ele>
        <time>2026-03-15T09:39:01Z</time>
      </trkpt>
      <trkpt lat="48.51443" lon="7.1653">
        <ele>957.7</ele>
        <time>2026-03-15T09:39:06Z</time>
      </trkpt>
      <trkpt lat="48.51443" lon="7.16523">
        <ele>957.9</ele>
        <time>2026-03-15T09:39:11Z</time>
      </trkpt>
      <trkpt lat="48.51445" lon="7.16517">
        <ele>957</ele>
        <time>2026-03-15T09:39:16Z</time>
      </trkpt>
      <trkpt lat="48.51443" lon="7.16515">
        <ele>958.1</ele>
        <time>2026-03-15T09:39:21Z</time>
      </trkpt>
      <trkpt lat="48.51441" lon="7.1651">
        <ele>959.3</ele>
        <time>2026-03-15T09:39:26Z</time>
      </trkpt>
      <trkpt lat="48.51445" lon="7.16504">
        <ele>957.3</ele>
        <time>2026-03-15T09:39:31Z</time>
      </trkpt>
      <trkpt lat="48.51445" lon="7.16504">
        <ele>957.3</ele>
        <time>2026-03-15T09:39:36Z</time>
      </trkpt>
      <trkpt lat="48.51445" lon="7.16504">
        <ele>957.3</ele>
        <time>2026-03-15T09:39:41Z</time>
      </trkpt>
      <trkpt lat="48.51438" lon="7.16505">
        <ele>961.1</ele>
        <time>2026-03-15T09:39:46Z</time>
      </trkpt>
      <trkpt lat="48.51437" lon="7.1651">
        <ele>961.5</ele>
        <time>2026-03-15T09:39:51Z</time>
      </trkpt>
      <trkpt lat="48.51437" lon="7.16515">
        <ele>961.4</ele>
        <time>2026-03-15T09:39:56Z</time>
      </trkpt>
      <trkpt lat="48.51436" lon="7.1652">
        <ele>961.8</ele>
        <time>2026-03-15T09:40:01Z</time>
      </trkpt>
      <trkpt lat="48.51437" lon="7.16525">
        <ele>961.1</ele>
        <time>2026-03-15T09:40:06Z</time>
      </trkpt>
      <trkpt lat="48.51436" lon="7.16529">
        <ele>961.5</ele>
        <time>2026-03-15T09:40:11Z</time>
      </trkpt>
      <trkpt lat="48.51435" lon="7.16534">
        <ele>961.9</ele>
        <time>2026-03-15T09:40:16Z</time>
      </trkpt>
      <trkpt lat="48.51434" lon="7.16538">
        <ele>962.3</ele>
        <time>2026-03-15T09:40:21Z</time>
      </trkpt>
      <trkpt lat="48.51434" lon="7.16541">
        <ele>962.3</ele>
        <time>2026-03-15T09:40:26Z</time>
      </trkpt>
      <trkpt lat="48.51434" lon="7.16542">
        <ele>962.2</ele>
        <time>2026-03-15T09:40:31Z</time>
      </trkpt>
      <trkpt lat="48.51434" lon="7.16542">
        <ele>962.2</ele>
        <time>2026-03-15T09:40:36Z</time>
      </trkpt>
      <trkpt lat="48.51434" lon="7.16542">
        <ele>962.2</ele>
        <time>2026-03-15T09:40:41Z</time>
      </trkpt>
      <trkpt lat="48.51434" lon="7.16542">
        <ele>962.2</ele>
        <time>2026-03-15T09:40:46Z</time>
      </trkpt>
      <trkpt lat="48.51434" lon="7.16542">
        <ele>962.2</ele>
        <time>2026-03-15T09:40:51Z</time>
      </trkpt>
      <trkpt lat="48.51434" lon="7.16542">
        <ele>962.2</ele>
        <time>2026-03-15T09:40:56Z</time>
      </trkpt>
      <trkpt lat="48.51434" lon="7.16542">
        <ele>962.2</ele>
        <time>2026-03-15T09:41:01Z</time>
      </trkpt>
      <trkpt lat="48.51434" lon="7.16542">
        <ele>962.2</ele>
        <time>2026-03-15T09:41:06Z</time>
      </trkpt>
      <trkpt lat="48.51434" lon="7.16542">
        <ele>962.2</ele>
        <time>2026-03-15T09:41:11Z</time>
      </trkpt>
      <trkpt lat="48.51434" lon="7.16542">
        <ele>962.2</ele>
        <time>2026-03-15T09:41:16Z</time>
      </trkpt>
      <trkpt lat="48.51431" lon="7.16543">
        <ele>963.8</ele>
        <time>2026-03-15T09:41:21Z</time>
      </trkpt>
      <trkpt lat="48.5143" lon="7.16544">
        <ele>964.3</ele>
        <time>2026-03-15T09:41:26Z</time>
      </trkpt>
      <trkpt lat="48.51432" lon="7.16549">
        <ele>963.1</ele>
        <time>2026-03-15T09:41:31Z</time>
      </trkpt>
      <trkpt lat="48.51432" lon="7.16551">
        <ele>963</ele>
        <time>2026-03-15T09:41:36Z</time>
      </trkpt>
      <trkpt lat="48.51432" lon="7.16556">
        <ele>962.9</ele>
        <time>2026-03-15T09:41:41Z</time>
      </trkpt>
      <trkpt lat="48.51429" lon="7.16558">
        <ele>964.4</ele>
        <time>2026-03-15T09:41:46Z</time>
      </trkpt>
      <trkpt lat="48.51428" lon="7.16554">
        <ele>965.1</ele>
        <time>2026-03-15T09:41:51Z</time>
      </trkpt>
      <trkpt lat="48.51428" lon="7.16554">
        <ele>965.1</ele>
        <time>2026-03-15T09:41:56Z</time>
      </trkpt>
      <trkpt lat="48.51428" lon="7.16554">
        <ele>965.1</ele>
        <time>2026-03-15T09:42:01Z</time>
      </trkpt>
      <trkpt lat="48.51428" lon="7.16554">
        <ele>965.1</ele>
        <time>2026-03-15T09:42:06Z</time>
      </trkpt>
      <trkpt lat="48.51424" lon="7.16539">
        <ele>967.7</ele>
        <time>2026-03-15T09:42:11Z</time>
      </trkpt>
      <trkpt lat="48.51424" lon="7.16538">
        <ele>967.7</ele>
        <time>2026-03-15T09:42:16Z</time>
      </trkpt>
      <trkpt lat="48.51424" lon="7.16538">
        <ele>967.7</ele>
        <time>2026-03-15T09:42:21Z</time>
      </trkpt>
      <trkpt lat="48.51424" lon="7.16538">
        <ele>967.7</ele>
        <time>2026-03-15T09:42:26Z</time>
      </trkpt>
      <trkpt lat="48.51419" lon="7.16526">
        <ele>970.8</ele>
        <time>2026-03-15T09:42:31Z</time>
      </trkpt>
      <trkpt lat="48.51419" lon="7.1652">
        <ele>971</ele>
        <time>2026-03-15T09:42:36Z</time>
      </trkpt>
      <trkpt lat="48.51419" lon="7.16518">
        <ele>971.1</ele>
        <time>2026-03-15T09:42:41Z</time>
      </trkpt>
      <trkpt lat="48.51418" lon="7.16511">
        <ele>971.9</ele>
        <time>2026-03-15T09:42:46Z</time>
      </trkpt>
      <trkpt lat="48.51418" lon="7.16509">
        <ele>971.9</ele>
        <time>2026-03-15T09:42:51Z</time>
      </trkpt>
      <trkpt lat="48.51418" lon="7.16509">
        <ele>971.9</ele>
        <time>2026-03-15T09:42:56Z</time>
      </trkpt>
      <trkpt lat="48.51418" lon="7.16509">
        <ele>971.9</ele>
        <time>2026-03-15T09:43:01Z</time>
      </trkpt>
      <trkpt lat="48.51418" lon="7.16509">
        <ele>971.9</ele>
        <time>2026-03-15T09:43:06Z</time>
      </trkpt>
      <trkpt lat="48.51418" lon="7.16509">
        <ele>971.9</ele>
        <time>2026-03-15T09:43:11Z</time>
      </trkpt>
      <trkpt lat="48.51414" lon="7.16497">
        <ele>973.2</ele>
        <time>2026-03-15T09:43:16Z</time>
      </trkpt>
      <trkpt lat="48.51415" lon="7.16496">
        <ele>972.8</ele>
        <time>2026-03-15T09:43:21Z</time>
      </trkpt>
      <trkpt lat="48.51415" lon="7.16496">
        <ele>972.8</ele>
        <time>2026-03-15T09:43:26Z</time>
      </trkpt>
      <trkpt lat="48.51415" lon="7.16496">
        <ele>972.8</ele>
        <time>2026-03-15T09:43:31Z</time>
      </trkpt>
      <trkpt lat="48.51411" lon="7.16482">
        <ele>971.8</ele>
        <time>2026-03-15T09:43:36Z</time>
      </trkpt>
      <trkpt lat="48.5141" lon="7.16478">
        <ele>971.5</ele>
        <time>2026-03-15T09:43:41Z</time>
      </trkpt>
      <trkpt lat="48.51409" lon="7.16476">
        <ele>971.5</ele>
        <time>2026-03-15T09:43:46Z</time>
      </trkpt>
      <trkpt lat="48.51409" lon="7.16476">
        <ele>971.5</ele>
        <time>2026-03-15T09:43:51Z</time>
      </trkpt>
      <trkpt lat="48.51409" lon="7.16476">
        <ele>971.5</ele>
        <time>2026-03-15T09:43:56Z</time>
      </trkpt>
      <trkpt lat="48.51406" lon="7.16481">
        <ele>973</ele>
        <time>2026-03-15T09:44:01Z</time>
      </trkpt>
      <trkpt lat="48.51407" lon="7.16486">
        <ele>973.4</ele>
        <time>2026-03-15T09:44:06Z</time>
      </trkpt>
      <trkpt lat="48.51408" lon="7.16488">
        <ele>973.4</ele>
        <time>2026-03-15T09:44:11Z</time>
      </trkpt>
      <trkpt lat="48.51408" lon="7.16488">
        <ele>973.4</ele>
        <time>2026-03-15T09:44:16Z</time>
      </trkpt>
      <trkpt lat="48.51408" lon="7.16494">
        <ele>974.2</ele>
        <time>2026-03-15T09:44:21Z</time>
      </trkpt>
      <trkpt lat="48.51408" lon="7.16497">
        <ele>974.6</ele>
        <time>2026-03-15T09:44:26Z</time>
      </trkpt>
      <trkpt lat="48.51408" lon="7.16498">
        <ele>974.7</ele>
        <time>2026-03-15T09:44:31Z</time>
      </trkpt>
      <trkpt lat="48.51407" lon="7.16505">
        <ele>974.9</ele>
        <time>2026-03-15T09:44:36Z</time>
      </trkpt>
      <trkpt lat="48.51406" lon="7.16506">
        <ele>975.1</ele>
        <time>2026-03-15T09:44:41Z</time>
      </trkpt>
      <trkpt lat="48.51406" lon="7.16506">
        <ele>975.1</ele>
        <time>2026-03-15T09:44:46Z</time>
      </trkpt>
      <trkpt lat="48.51405" lon="7.16515">
        <ele>974.8</ele>
        <time>2026-03-15T09:44:51Z</time>
      </trkpt>
      <trkpt lat="48.51405" lon="7.1652">
        <ele>974.6</ele>
        <time>2026-03-15T09:44:56Z</time>
      </trkpt>
      <trkpt lat="48.51404" lon="7.16525">
        <ele>974.5</ele>
        <time>2026-03-15T09:45:01Z</time>
      </trkpt>
      <trkpt lat="48.51404" lon="7.16531">
        <ele>974.2</ele>
        <time>2026-03-15T09:45:06Z</time>
      </trkpt>
      <trkpt lat="48.51403" lon="7.16536">
        <ele>974</ele>
        <time>2026-03-15T09:45:11Z</time>
      </trkpt>
      <trkpt lat="48.51402" lon="7.16541">
        <ele>973.9</ele>
        <time>2026-03-15T09:45:16Z</time>
      </trkpt>
      <trkpt lat="48.51402" lon="7.16548">
        <ele>973.5</ele>
        <time>2026-03-15T09:45:21Z</time>
      </trkpt>
      <trkpt lat="48.51403" lon="7.1655">
        <ele>973.2</ele>
        <time>2026-03-15T09:45:26Z</time>
      </trkpt>
      <trkpt lat="48.51403" lon="7.16551">
        <ele>973.2</ele>
        <time>2026-03-15T09:45:31Z</time>
      </trkpt>
      <trkpt lat="48.51403" lon="7.16551">
        <ele>973.2</ele>
        <time>2026-03-15T09:45:36Z</time>
      </trkpt>
      <trkpt lat="48.51402" lon="7.16556">
        <ele>973</ele>
        <time>2026-03-15T09:45:41Z</time>
      </trkpt>
      <trkpt lat="48.51401" lon="7.16561">
        <ele>972.9</ele>
        <time>2026-03-15T09:45:46Z</time>
      </trkpt>
      <trkpt lat="48.51398" lon="7.16564">
        <ele>973.1</ele>
        <time>2026-03-15T09:45:51Z</time>
      </trkpt>
      <trkpt lat="48.51397" lon="7.16568">
        <ele>972.9</ele>
        <time>2026-03-15T09:45:56Z</time>
      </trkpt>
      <trkpt lat="48.51396" lon="7.16572">
        <ele>972.8</ele>
        <time>2026-03-15T09:46:01Z</time>
      </trkpt>
      <trkpt lat="48.51394" lon="7.16576">
        <ele>972.7</ele>
        <time>2026-03-15T09:46:06Z</time>
      </trkpt>
      <trkpt lat="48.51392" lon="7.16577">
        <ele>972.8</ele>
        <time>2026-03-15T09:46:11Z</time>
      </trkpt>
      <trkpt lat="48.5139" lon="7.16578">
        <ele>973</ele>
        <time>2026-03-15T09:46:16Z</time>
      </trkpt>
      <trkpt lat="48.5139" lon="7.16578">
        <ele>973</ele>
        <time>2026-03-15T09:46:21Z</time>
      </trkpt>
      <trkpt lat="48.5139" lon="7.16578">
        <ele>973</ele>
        <time>2026-03-15T09:46:26Z</time>
      </trkpt>
      <trkpt lat="48.5139" lon="7.16578">
        <ele>973</ele>
        <time>2026-03-15T09:46:31Z</time>
      </trkpt>
      <trkpt lat="48.5139" lon="7.16578">
        <ele>973</ele>
        <time>2026-03-15T09:46:36Z</time>
      </trkpt>
      <trkpt lat="48.5139" lon="7.16578">
        <ele>973</ele>
        <time>2026-03-15T09:46:41Z</time>
      </trkpt>
      <trkpt lat="48.5139" lon="7.16578">
        <ele>973</ele>
        <time>2026-03-15T09:46:46Z</time>
      </trkpt>
      <trkpt lat="48.5139" lon="7.16578">
        <ele>973</ele>
        <time>2026-03-15T09:46:51Z</time>
      </trkpt>
      <trkpt lat="48.5139" lon="7.16578">
        <ele>973</ele>
        <time>2026-03-15T09:46:56Z</time>
      </trkpt>
      <trkpt lat="48.5139" lon="7.16578">
        <ele>973</ele>
        <time>2026-03-15T09:47:01Z</time>
      </trkpt>
      <trkpt lat="48.5139" lon="7.16578">
        <ele>973</ele>
        <time>2026-03-15T09:47:06Z</time>
      </trkpt>
      <trkpt lat="48.51386" lon="7.16563">
        <ele>974.7</ele>
        <time>2026-03-15T09:47:11Z</time>
      </trkpt>
      <trkpt lat="48.51385" lon="7.16558">
        <ele>975.2</ele>
        <time>2026-03-15T09:47:16Z</time>
      </trkpt>
      <trkpt lat="48.51385" lon="7.16554">
        <ele>975.6</ele>
        <time>2026-03-15T09:47:21Z</time>
      </trkpt>
      <trkpt lat="48.51384" lon="7.16551">
        <ele>976</ele>
        <time>2026-03-15T09:47:26Z</time>
      </trkpt>
      <trkpt lat="48.51382" lon="7.16546">
        <ele>976.7</ele>
        <time>2026-03-15T09:47:31Z</time>
      </trkpt>
      <trkpt lat="48.51381" lon="7.1654">
        <ele>977.4</ele>
        <time>2026-03-15T09:47:36Z</time>
      </trkpt>
      <trkpt lat="48.5138" lon="7.16536">
        <ele>978</ele>
        <time>2026-03-15T09:47:41Z</time>
      </trkpt>
      <trkpt lat="48.5138" lon="7.16531">
        <ele>978.4</ele>
        <time>2026-03-15T09:47:46Z</time>
      </trkpt>
      <trkpt lat="48.51378" lon="7.16527">
        <ele>979.2</ele>
        <time>2026-03-15T09:47:51Z</time>
      </trkpt>
      <trkpt lat="48.51377" lon="7.16524">
        <ele>979.7</ele>
        <time>2026-03-15T09:47:56Z</time>
      </trkpt>
      <trkpt lat="48.51373" lon="7.16519">
        <ele>981</ele>
        <time>2026-03-15T09:48:01Z</time>
      </trkpt>
      <trkpt lat="48.51372" lon="7.16514">
        <ele>981.7</ele>
        <time>2026-03-15T09:48:06Z</time>
      </trkpt>
      <trkpt lat="48.51372" lon="7.1651">
        <ele>982.1</ele>
        <time>2026-03-15T09:48:11Z</time>
      </trkpt>
      <trkpt lat="48.51372" lon="7.16505">
        <ele>982.7</ele>
        <time>2026-03-15T09:48:16Z</time>
      </trkpt>
      <trkpt lat="48.51371" lon="7.165">
        <ele>983.4</ele>
        <time>2026-03-15T09:48:21Z</time>
      </trkpt>
      <trkpt lat="48.51369" lon="7.16496">
        <ele>983.5</ele>
        <time>2026-03-15T09:48:26Z</time>
      </trkpt>
      <trkpt lat="48.51369" lon="7.16496">
        <ele>983.5</ele>
        <time>2026-03-15T09:48:31Z</time>
      </trkpt>
      <trkpt lat="48.51369" lon="7.16496">
        <ele>983.5</ele>
        <time>2026-03-15T09:48:36Z</time>
      </trkpt>
      <trkpt lat="48.51369" lon="7.16496">
        <ele>983.5</ele>
        <time>2026-03-15T09:48:41Z</time>
      </trkpt>
      <trkpt lat="48.51369" lon="7.16496">
        <ele>983.5</ele>
        <time>2026-03-15T09:48:46Z</time>
      </trkpt>
      <trkpt lat="48.51359" lon="7.16497">
        <ele>985.9</ele>
        <time>2026-03-15T09:48:51Z</time>
      </trkpt>
      <trkpt lat="48.51359" lon="7.16497">
        <ele>985.9</ele>
        <time>2026-03-15T09:48:56Z</time>
      </trkpt>
      <trkpt lat="48.51359" lon="7.16497">
        <ele>985.9</ele>
        <time>2026-03-15T09:49:01Z</time>
      </trkpt>
      <trkpt lat="48.51358" lon="7.16504">
        <ele>985.9</ele>
        <time>2026-03-15T09:49:06Z</time>
      </trkpt>
      <trkpt lat="48.51359" lon="7.16509">
        <ele>985</ele>
        <time>2026-03-15T09:49:11Z</time>
      </trkpt>
      <trkpt lat="48.5136" lon="7.16515">
        <ele>984</ele>
        <time>2026-03-15T09:49:16Z</time>
      </trkpt>
      <trkpt lat="48.5136" lon="7.16519">
        <ele>983.5</ele>
        <time>2026-03-15T09:49:21Z</time>
      </trkpt>
      <trkpt lat="48.51359" lon="7.16524">
        <ele>983.1</ele>
        <time>2026-03-15T09:49:26Z</time>
      </trkpt>
      <trkpt lat="48.51359" lon="7.16527">
        <ele>982.7</ele>
        <time>2026-03-15T09:49:31Z</time>
      </trkpt>
      <trkpt lat="48.51358" lon="7.1653">
        <ele>982.5</ele>
        <time>2026-03-15T09:49:36Z</time>
      </trkpt>
      <trkpt lat="48.51359" lon="7.16534">
        <ele>981.8</ele>
        <time>2026-03-15T09:49:41Z</time>
      </trkpt>
      <trkpt lat="48.51359" lon="7.16541">
        <ele>980.9</ele>
        <time>2026-03-15T09:49:46Z</time>
      </trkpt>
      <trkpt lat="48.51359" lon="7.16546">
        <ele>980.3</ele>
        <time>2026-03-15T09:49:51Z</time>
      </trkpt>
      <trkpt lat="48.51359" lon="7.1655">
        <ele>979.8</ele>
        <time>2026-03-15T09:49:56Z</time>
      </trkpt>
      <trkpt lat="48.51357" lon="7.16556">
        <ele>979.3</ele>
        <time>2026-03-15T09:50:01Z</time>
      </trkpt>
      <trkpt lat="48.51356" lon="7.16562">
        <ele>978.6</ele>
        <time>2026-03-15T09:50:06Z</time>
      </trkpt>
      <trkpt lat="48.51354" lon="7.16568">
        <ele>978.1</ele>
        <time>2026-03-15T09:50:11Z</time>
      </trkpt>
      <trkpt lat="48.51353" lon="7.16573">
        <ele>977.5</ele>
        <time>2026-03-15T09:50:16Z</time>
      </trkpt>
      <trkpt lat="48.51351" lon="7.16578">
        <ele>977.1</ele>
        <time>2026-03-15T09:50:21Z</time>
      </trkpt>
      <trkpt lat="48.51349" lon="7.16582">
        <ele>976.7</ele>
        <time>2026-03-15T09:50:26Z</time>
      </trkpt>
      <trkpt lat="48.51346" lon="7.16583">
        <ele>976.8</ele>
        <time>2026-03-15T09:50:31Z</time>
      </trkpt>
      <trkpt lat="48.51344" lon="7.16586">
        <ele>976.1</ele>
        <time>2026-03-15T09:50:36Z</time>
      </trkpt>
      <trkpt lat="48.51342" lon="7.16586">
        <ele>976.3</ele>
        <time>2026-03-15T09:50:41Z</time>
      </trkpt>
      <trkpt lat="48.51342" lon="7.16586">
        <ele>976.3</ele>
        <time>2026-03-15T09:50:46Z</time>
      </trkpt>
      <trkpt lat="48.51342" lon="7.16586">
        <ele>976.3</ele>
        <time>2026-03-15T09:50:51Z</time>
      </trkpt>
      <trkpt lat="48.51342" lon="7.16586">
        <ele>976.3</ele>
        <time>2026-03-15T09:50:56Z</time>
      </trkpt>
      <trkpt lat="48.51342" lon="7.16586">
        <ele>976.3</ele>
        <time>2026-03-15T09:51:01Z</time>
      </trkpt>
      <trkpt lat="48.51342" lon="7.16586">
        <ele>976.3</ele>
        <time>2026-03-15T09:51:06Z</time>
      </trkpt>
      <trkpt lat="48.51334" lon="7.16594">
        <ele>974.6</ele>
        <time>2026-03-15T09:51:11Z</time>
      </trkpt>
      <trkpt lat="48.51332" lon="7.16594">
        <ele>974.1</ele>
        <time>2026-03-15T09:51:16Z</time>
      </trkpt>
      <trkpt lat="48.51327" lon="7.16593">
        <ele>972.2</ele>
        <time>2026-03-15T09:51:21Z</time>
      </trkpt>
      <trkpt lat="48.51324" lon="7.16594">
        <ele>970.6</ele>
        <time>2026-03-15T09:51:26Z</time>
      </trkpt>
      <trkpt lat="48.51321" lon="7.16595">
        <ele>969</ele>
        <time>2026-03-15T09:51:31Z</time>
      </trkpt>
      <trkpt lat="48.51319" lon="7.16599">
        <ele>967</ele>
        <time>2026-03-15T09:51:36Z</time>
      </trkpt>
      <trkpt lat="48.51315" lon="7.166">
        <ele>965</ele>
        <time>2026-03-15T09:51:41Z</time>
      </trkpt>
      <trkpt lat="48.51312" lon="7.16599">
        <ele>964</ele>
        <time>2026-03-15T09:51:46Z</time>
      </trkpt>
      <trkpt lat="48.5131" lon="7.166">
        <ele>962.8</ele>
        <time>2026-03-15T09:51:51Z</time>
      </trkpt>
      <trkpt lat="48.5131" lon="7.166">
        <ele>962.8</ele>
        <time>2026-03-15T09:51:56Z</time>
      </trkpt>
      <trkpt lat="48.5131" lon="7.166">
        <ele>962.8</ele>
        <time>2026-03-15T09:52:01Z</time>
      </trkpt>
      <trkpt lat="48.5131" lon="7.166">
        <ele>962.8</ele>
        <time>2026-03-15T09:52:06Z</time>
      </trkpt>
      <trkpt lat="48.51307" lon="7.16607">
        <ele>959.6</ele>
        <time>2026-03-15T09:52:11Z</time>
      </trkpt>
      <trkpt lat="48.51305" lon="7.16611">
        <ele>957.6</ele>
        <time>2026-03-15T09:52:16Z</time>
      </trkpt>
      <trkpt lat="48.51301" lon="7.16611">
        <ele>955.9</ele>
        <time>2026-03-15T09:52:21Z</time>
      </trkpt>
      <trkpt lat="48.51299" lon="7.16611">
        <ele>955.1</ele>
        <time>2026-03-15T09:52:26Z</time>
      </trkpt>
      <trkpt lat="48.51296" lon="7.16613">
        <ele>953.3</ele>
        <time>2026-03-15T09:52:31Z</time>
      </trkpt>
      <trkpt lat="48.51294" lon="7.16617">
        <ele>951.4</ele>
        <time>2026-03-15T09:52:36Z</time>
      </trkpt>
      <trkpt lat="48.51291" lon="7.16619">
        <ele>949.6</ele>
        <time>2026-03-15T09:52:41Z</time>
      </trkpt>
      <trkpt lat="48.51287" lon="7.16621">
        <ele>947.4</ele>
        <time>2026-03-15T09:52:46Z</time>
      </trkpt>
      <trkpt lat="48.51285" lon="7.16621">
        <ele>946.6</ele>
        <time>2026-03-15T09:52:51Z</time>
      </trkpt>
      <trkpt lat="48.51285" lon="7.16621">
        <ele>946.6</ele>
        <time>2026-03-15T09:52:56Z</time>
      </trkpt>
      <trkpt lat="48.51285" lon="7.16621">
        <ele>946.6</ele>
        <time>2026-03-15T09:53:01Z</time>
      </trkpt>
      <trkpt lat="48.51285" lon="7.16621">
        <ele>946.6</ele>
        <time>2026-03-15T09:53:06Z</time>
      </trkpt>
      <trkpt lat="48.51285" lon="7.16621">
        <ele>946.6</ele>
        <time>2026-03-15T09:53:11Z</time>
      </trkpt>
      <trkpt lat="48.51285" lon="7.16621">
        <ele>946.6</ele>
        <time>2026-03-15T09:53:16Z</time>
      </trkpt>
      <trkpt lat="48.51285" lon="7.16621">
        <ele>946.6</ele>
        <time>2026-03-15T09:53:21Z</time>
      </trkpt>
      <trkpt lat="48.51285" lon="7.16621">
        <ele>946.6</ele>
        <time>2026-03-15T09:53:26Z</time>
      </trkpt>
      <trkpt lat="48.51285" lon="7.16621">
        <ele>946.6</ele>
        <time>2026-03-15T09:53:31Z</time>
      </trkpt>
      <trkpt lat="48.51285" lon="7.16621">
        <ele>946.6</ele>
        <time>2026-03-15T09:53:36Z</time>
      </trkpt>
      <trkpt lat="48.51285" lon="7.16621">
        <ele>946.6</ele>
        <time>2026-03-15T09:53:41Z</time>
      </trkpt>
      <trkpt lat="48.51285" lon="7.16621">
        <ele>946.6</ele>
        <time>2026-03-15T09:53:46Z</time>
      </trkpt>
      <trkpt lat="48.51285" lon="7.16621">
        <ele>946.6</ele>
        <time>2026-03-15T09:53:51Z</time>
      </trkpt>
      <trkpt lat="48.51285" lon="7.16621">
        <ele>946.6</ele>
        <time>2026-03-15T09:53:56Z</time>
      </trkpt>
      <trkpt lat="48.51285" lon="7.16621">
        <ele>946.6</ele>
        <time>2026-03-15T09:54:01Z</time>
      </trkpt>
      <trkpt lat="48.51285" lon="7.16621">
        <ele>946.6</ele>
        <time>2026-03-15T09:54:06Z</time>
      </trkpt>
      <trkpt lat="48.51277" lon="7.16628">
        <ele>941.6</ele>
        <time>2026-03-15T09:54:11Z</time>
      </trkpt>
      <trkpt lat="48.51277" lon="7.16628">
        <ele>941.6</ele>
        <time>2026-03-15T09:54:16Z</time>
      </trkpt>
      <trkpt lat="48.51277" lon="7.16628">
        <ele>941.6</ele>
        <time>2026-03-15T09:54:21Z</time>
      </trkpt>
      <trkpt lat="48.51277" lon="7.16628">
        <ele>941.6</ele>
        <time>2026-03-15T09:54:26Z</time>
      </trkpt>
      <trkpt lat="48.51277" lon="7.16628">
        <ele>941.6</ele>
        <time>2026-03-15T09:54:31Z</time>
      </trkpt>
      <trkpt lat="48.51277" lon="7.16628">
        <ele>941.6</ele>
        <time>2026-03-15T09:54:36Z</time>
      </trkpt>
      <trkpt lat="48.51277" lon="7.16628">
        <ele>941.6</ele>
        <time>2026-03-15T09:54:41Z</time>
      </trkpt>
      <trkpt lat="48.51277" lon="7.16628">
        <ele>941.6</ele>
        <time>2026-03-15T09:54:46Z</time>
      </trkpt>
      <trkpt lat="48.51272" lon="7.16615">
        <ele>942.8</ele>
        <time>2026-03-15T09:54:51Z</time>
      </trkpt>
      <trkpt lat="48.51272" lon="7.16615">
        <ele>942.8</ele>
        <time>2026-03-15T09:54:56Z</time>
      </trkpt>
      <trkpt lat="48.51272" lon="7.16615">
        <ele>942.8</ele>
        <time>2026-03-15T09:55:01Z</time>
      </trkpt>
      <trkpt lat="48.51272" lon="7.16615">
        <ele>942.8</ele>
        <time>2026-03-15T09:55:06Z</time>
      </trkpt>
      <trkpt lat="48.51272" lon="7.16615">
        <ele>942.8</ele>
        <time>2026-03-15T09:55:11Z</time>
      </trkpt>
      <trkpt lat="48.51272" lon="7.16615">
        <ele>942.8</ele>
        <time>2026-03-15T09:55:16Z</time>
      </trkpt>
      <trkpt lat="48.51272" lon="7.16615">
        <ele>942.8</ele>
        <time>2026-03-15T09:55:21Z</time>
      </trkpt>
      <trkpt lat="48.51272" lon="7.16615">
        <ele>942.8</ele>
        <time>2026-03-15T09:55:26Z</time>
      </trkpt>
      <trkpt lat="48.51272" lon="7.16615">
        <ele>942.8</ele>
        <time>2026-03-15T09:55:31Z</time>
      </trkpt>
      <trkpt lat="48.51272" lon="7.16615">
        <ele>942.8</ele>
        <time>2026-03-15T09:55:36Z</time>
      </trkpt>
      <trkpt lat="48.51272" lon="7.16615">
        <ele>942.8</ele>
        <time>2026-03-15T09:55:41Z</time>
      </trkpt>
      <trkpt lat="48.51272" lon="7.16615">
        <ele>942.8</ele>
        <time>2026-03-15T09:55:46Z</time>
      </trkpt>
      <trkpt lat="48.51272" lon="7.16615">
        <ele>942.8</ele>
        <time>2026-03-15T09:55:51Z</time>
      </trkpt>
      <trkpt lat="48.51272" lon="7.16615">
        <ele>942.8</ele>
        <time>2026-03-15T09:55:56Z</time>
      </trkpt>
      <trkpt lat="48.51272" lon="7.16615">
        <ele>942.8</ele>
        <time>2026-03-15T09:56:01Z</time>
      </trkpt>
      <trkpt lat="48.51265" lon="7.16627">
        <ele>937</ele>
        <time>2026-03-15T09:56:06Z</time>
      </trkpt>
      <trkpt lat="48.51261" lon="7.16624">
        <ele>936.2</ele>
        <time>2026-03-15T09:56:11Z</time>
      </trkpt>
      <trkpt lat="48.5126" lon="7.16625">
        <ele>935.5</ele>
        <time>2026-03-15T09:56:16Z</time>
      </trkpt>
      <trkpt lat="48.51265" lon="7.16631">
        <ele>936.1</ele>
        <time>2026-03-15T09:56:21Z</time>
      </trkpt>
      <trkpt lat="48.51268" lon="7.16631">
        <ele>937.3</ele>
        <time>2026-03-15T09:56:26Z</time>
      </trkpt>
      <trkpt lat="48.51273" lon="7.16631">
        <ele>939.2</ele>
        <time>2026-03-15T09:56:31Z</time>
      </trkpt>
      <trkpt lat="48.51277" lon="7.16635">
        <ele>939.8</ele>
        <time>2026-03-15T09:56:36Z</time>
      </trkpt>
      <trkpt lat="48.51281" lon="7.16628">
        <ele>943.2</ele>
        <time>2026-03-15T09:56:41Z</time>
      </trkpt>
      <trkpt lat="48.51284" lon="7.16622">
        <ele>946</ele>
        <time>2026-03-15T09:56:46Z</time>
      </trkpt>
      <trkpt lat="48.51286" lon="7.16618">
        <ele>947.8</ele>
        <time>2026-03-15T09:56:51Z</time>
      </trkpt>
      <trkpt lat="48.51287" lon="7.16615">
        <ele>949</ele>
        <time>2026-03-15T09:56:56Z</time>
      </trkpt>
      <trkpt lat="48.51289" lon="7.16613">
        <ele>950.4</ele>
        <time>2026-03-15T09:57:01Z</time>
      </trkpt>
      <trkpt lat="48.51292" lon="7.1661">
        <ele>952.4</ele>
        <time>2026-03-15T09:57:06Z</time>
      </trkpt>
      <trkpt lat="48.51293" lon="7.16607">
        <ele>953.7</ele>
        <time>2026-03-15T09:57:11Z</time>
      </trkpt>
      <trkpt lat="48.51295" lon="7.16604">
        <ele>955.3</ele>
        <time>2026-03-15T09:57:16Z</time>
      </trkpt>
      <trkpt lat="48.51299" lon="7.16602">
        <ele>957.6</ele>
        <time>2026-03-15T09:57:21Z</time>
      </trkpt>
      <trkpt lat="48.51301" lon="7.16599">
        <ele>959.3</ele>
        <time>2026-03-15T09:57:26Z</time>
      </trkpt>
      <trkpt lat="48.51303" lon="7.16596">
        <ele>961</ele>
        <time>2026-03-15T09:57:31Z</time>
      </trkpt>
      <trkpt lat="48.51306" lon="7.16591">
        <ele>963.7</ele>
        <time>2026-03-15T09:57:36Z</time>
      </trkpt>
      <trkpt lat="48.51308" lon="7.16588">
        <ele>965.4</ele>
        <time>2026-03-15T09:57:41Z</time>
      </trkpt>
      <trkpt lat="48.5131" lon="7.16584">
        <ele>967.4</ele>
        <time>2026-03-15T09:57:46Z</time>
      </trkpt>
      <trkpt lat="48.51311" lon="7.1658">
        <ele>968.7</ele>
        <time>2026-03-15T09:57:51Z</time>
      </trkpt>
      <trkpt lat="48.51312" lon="7.1658">
        <ele>969.1</ele>
        <time>2026-03-15T09:57:56Z</time>
      </trkpt>
      <trkpt lat="48.51312" lon="7.1658">
        <ele>969.1</ele>
        <time>2026-03-15T09:58:01Z</time>
      </trkpt>
      <trkpt lat="48.51315" lon="7.16572">
        <ele>971.8</ele>
        <time>2026-03-15T09:58:06Z</time>
      </trkpt>
      <trkpt lat="48.51312" lon="7.16571">
        <ele>970.6</ele>
        <time>2026-03-15T09:58:11Z</time>
      </trkpt>
      <trkpt lat="48.51309" lon="7.16576">
        <ele>968.5</ele>
        <time>2026-03-15T09:58:16Z</time>
      </trkpt>
      <trkpt lat="48.51306" lon="7.16579">
        <ele>966.6</ele>
        <time>2026-03-15T09:58:21Z</time>
      </trkpt>
      <trkpt lat="48.51301" lon="7.16581">
        <ele>964</ele>
        <time>2026-03-15T09:58:26Z</time>
      </trkpt>
      <trkpt lat="48.51298" lon="7.16583">
        <ele>962.4</ele>
        <time>2026-03-15T09:58:31Z</time>
      </trkpt>
      <trkpt lat="48.51295" lon="7.16587">
        <ele>960</ele>
        <time>2026-03-15T09:58:36Z</time>
      </trkpt>
      <trkpt lat="48.51294" lon="7.16587">
        <ele>959.5</ele>
        <time>2026-03-15T09:58:41Z</time>
      </trkpt>
      <trkpt lat="48.51291" lon="7.16586">
        <ele>958.5</ele>
        <time>2026-03-15T09:58:46Z</time>
      </trkpt>
      <trkpt lat="48.51289" lon="7.16587">
        <ele>957.3</ele>
        <time>2026-03-15T09:58:51Z</time>
      </trkpt>
      <trkpt lat="48.51285" lon="7.16585">
        <ele>956.1</ele>
        <time>2026-03-15T09:58:56Z</time>
      </trkpt>
      <trkpt lat="48.51283" lon="7.16582">
        <ele>955.9</ele>
        <time>2026-03-15T09:59:01Z</time>
      </trkpt>
      <trkpt lat="48.51283" lon="7.1658">
        <ele>956.2</ele>
        <time>2026-03-15T09:59:06Z</time>
      </trkpt>
      <trkpt lat="48.51285" lon="7.16577">
        <ele>957.6</ele>
        <time>2026-03-15T09:59:11Z</time>
      </trkpt>
      <trkpt lat="48.51285" lon="7.16577">
        <ele>957.6</ele>
        <time>2026-03-15T09:59:16Z</time>
      </trkpt>
      <trkpt lat="48.51285" lon="7.16577">
        <ele>957.6</ele>
        <time>2026-03-15T09:59:21Z</time>
      </trkpt>
      <trkpt lat="48.51285" lon="7.16577">
        <ele>957.6</ele>
        <time>2026-03-15T09:59:26Z</time>
      </trkpt>
      <trkpt lat="48.51285" lon="7.16577">
        <ele>957.6</ele>
        <time>2026-03-15T09:59:31Z</time>
      </trkpt>
      <trkpt lat="48.51285" lon="7.1657">
        <ele>958.9</ele>
        <time>2026-03-15T09:59:36Z</time>
      </trkpt>
      <trkpt lat="48.51285" lon="7.16571">
        <ele>958.7</ele>
        <time>2026-03-15T09:59:41Z</time>
      </trkpt>
      <trkpt lat="48.51285" lon="7.16571">
        <ele>958.7</ele>
        <time>2026-03-15T09:59:46Z</time>
      </trkpt>
      <trkpt lat="48.51285" lon="7.16571">
        <ele>958.7</ele>
        <time>2026-03-15T09:59:51Z</time>
      </trkpt>
      <trkpt lat="48.5129" lon="7.16564">
        <ele>962.1</ele>
        <time>2026-03-15T09:59:56Z</time>
      </trkpt>
      <trkpt lat="48.5129" lon="7.1656">
        <ele>962.8</ele>
        <time>2026-03-15T10:00:01Z</time>
      </trkpt>
      <trkpt lat="48.51289" lon="7.16558">
        <ele>962.7</ele>
        <time>2026-03-15T10:00:06Z</time>
      </trkpt>
      <trkpt lat="48.51286" lon="7.16555">
        <ele>961.9</ele>
        <time>2026-03-15T10:00:11Z</time>
      </trkpt>
      <trkpt lat="48.51285" lon="7.16555">
        <ele>961.5</ele>
        <time>2026-03-15T10:00:16Z</time>
      </trkpt>
      <trkpt lat="48.51283" lon="7.16553">
        <ele>961</ele>
        <time>2026-03-15T10:00:21Z</time>
      </trkpt>
      <trkpt lat="48.51282" lon="7.16548">
        <ele>961.4</ele>
        <time>2026-03-15T10:00:26Z</time>
      </trkpt>
      <trkpt lat="48.51282" lon="7.16544">
        <ele>962.1</ele>
        <time>2026-03-15T10:00:31Z</time>
      </trkpt>
      <trkpt lat="48.51282" lon="7.16542">
        <ele>962.5</ele>
        <time>2026-03-15T10:00:36Z</time>
      </trkpt>
      <trkpt lat="48.51282" lon="7.16542">
        <ele>962.5</ele>
        <time>2026-03-15T10:00:41Z</time>
      </trkpt>
      <trkpt lat="48.51277" lon="7.16539">
        <ele>960.8</ele>
        <time>2026-03-15T10:00:46Z</time>
      </trkpt>
      <trkpt lat="48.51277" lon="7.16539">
        <ele>960.8</ele>
        <time>2026-03-15T10:00:51Z</time>
      </trkpt>
      <trkpt lat="48.51277" lon="7.16539">
        <ele>960.8</ele>
        <time>2026-03-15T10:00:56Z</time>
      </trkpt>
      <trkpt lat="48.51277" lon="7.16539">
        <ele>960.8</ele>
        <time>2026-03-15T10:01:01Z</time>
      </trkpt>
      <trkpt lat="48.51277" lon="7.16539">
        <ele>960.8</ele>
        <time>2026-03-15T10:01:06Z</time>
      </trkpt>
      <trkpt lat="48.51277" lon="7.16539">
        <ele>960.8</ele>
        <time>2026-03-15T10:01:11Z</time>
      </trkpt>
      <trkpt lat="48.51277" lon="7.16532">
        <ele>962</ele>
        <time>2026-03-15T10:01:16Z</time>
      </trkpt>
      <trkpt lat="48.51276" lon="7.16527">
        <ele>962.5</ele>
        <time>2026-03-15T10:01:21Z</time>
      </trkpt>
      <trkpt lat="48.51275" lon="7.16518">
        <ele>963.6</ele>
        <time>2026-03-15T10:01:26Z</time>
      </trkpt>
      <trkpt lat="48.51274" lon="7.1651">
        <ele>964.6</ele>
        <time>2026-03-15T10:01:31Z</time>
      </trkpt>
      <trkpt lat="48.51273" lon="7.16503">
        <ele>965.4</ele>
        <time>2026-03-15T10:01:36Z</time>
      </trkpt>
      <trkpt lat="48.51272" lon="7.16496">
        <ele>965.8</ele>
        <time>2026-03-15T10:01:41Z</time>
      </trkpt>
      <trkpt lat="48.5127" lon="7.16489">
        <ele>965.5</ele>
        <time>2026-03-15T10:01:46Z</time>
      </trkpt>
      <trkpt lat="48.51268" lon="7.16485">
        <ele>965.1</ele>
        <time>2026-03-15T10:01:51Z</time>
      </trkpt>
      <trkpt lat="48.51267" lon="7.16479">
        <ele>965.2</ele>
        <time>2026-03-15T10:01:56Z</time>
      </trkpt>
      <trkpt lat="48.51266" lon="7.16476">
        <ele>965.1</ele>
        <time>2026-03-15T10:02:01Z</time>
      </trkpt>
      <trkpt lat="48.51265" lon="7.16474">
        <ele>964.9</ele>
        <time>2026-03-15T10:02:06Z</time>
      </trkpt>
      <trkpt lat="48.51264" lon="7.16473">
        <ele>964.6</ele>
        <time>2026-03-15T10:02:11Z</time>
      </trkpt>
      <trkpt lat="48.51262" lon="7.16468">
        <ele>964.3</ele>
        <time>2026-03-15T10:02:16Z</time>
      </trkpt>
      <trkpt lat="48.5126" lon="7.16463">
        <ele>964.1</ele>
        <time>2026-03-15T10:02:21Z</time>
      </trkpt>
      <trkpt lat="48.51258" lon="7.16458">
        <ele>963.9</ele>
        <time>2026-03-15T10:02:26Z</time>
      </trkpt>
      <trkpt lat="48.51258" lon="7.16454">
        <ele>964.3</ele>
        <time>2026-03-15T10:02:31Z</time>
      </trkpt>
      <trkpt lat="48.51255" lon="7.1645">
        <ele>963.7</ele>
        <time>2026-03-15T10:02:36Z</time>
      </trkpt>
      <trkpt lat="48.51254" lon="7.16447">
        <ele>963.7</ele>
        <time>2026-03-15T10:02:41Z</time>
      </trkpt>
      <trkpt lat="48.51254" lon="7.16447">
        <ele>963.7</ele>
        <time>2026-03-15T10:02:46Z</time>
      </trkpt>
      <trkpt lat="48.51255" lon="7.16446">
        <ele>964.1</ele>
        <time>2026-03-15T10:02:51Z</time>
      </trkpt>
      <trkpt lat="48.51255" lon="7.16446">
        <ele>964.1</ele>
        <time>2026-03-15T10:02:56Z</time>
      </trkpt>
      <trkpt lat="48.51255" lon="7.16446">
        <ele>964.1</ele>
        <time>2026-03-15T10:03:01Z</time>
      </trkpt>
      <trkpt lat="48.51255" lon="7.16446">
        <ele>964.1</ele>
        <time>2026-03-15T10:03:06Z</time>
      </trkpt>
      <trkpt lat="48.51255" lon="7.16446">
        <ele>964.1</ele>
        <time>2026-03-15T10:03:11Z</time>
      </trkpt>
      <trkpt lat="48.51255" lon="7.16446">
        <ele>964.1</ele>
        <time>2026-03-15T10:03:16Z</time>
      </trkpt>
      <trkpt lat="48.51255" lon="7.16446">
        <ele>964.1</ele>
        <time>2026-03-15T10:03:21Z</time>
      </trkpt>
      <trkpt lat="48.51252" lon="7.16435">
        <ele>964.4</ele>
        <time>2026-03-15T10:03:26Z</time>
      </trkpt>
      <trkpt lat="48.51251" lon="7.16432">
        <ele>964.5</ele>
        <time>2026-03-15T10:03:31Z</time>
      </trkpt>
      <trkpt lat="48.5125" lon="7.1643">
        <ele>964.4</ele>
        <time>2026-03-15T10:03:36Z</time>
      </trkpt>
      <trkpt lat="48.51247" lon="7.16424">
        <ele>963.7</ele>
        <time>2026-03-15T10:03:41Z</time>
      </trkpt>
      <trkpt lat="48.51246" lon="7.16421">
        <ele>963.6</ele>
        <time>2026-03-15T10:03:46Z</time>
      </trkpt>
      <trkpt lat="48.51246" lon="7.16418">
        <ele>964</ele>
        <time>2026-03-15T10:03:51Z</time>
      </trkpt>
      <trkpt lat="48.51246" lon="7.16418">
        <ele>964</ele>
        <time>2026-03-15T10:03:56Z</time>
      </trkpt>
      <trkpt lat="48.51246" lon="7.16418">
        <ele>964</ele>
        <time>2026-03-15T10:04:01Z</time>
      </trkpt>
      <trkpt lat="48.51246" lon="7.16418">
        <ele>964</ele>
        <time>2026-03-15T10:04:06Z</time>
      </trkpt>
      <trkpt lat="48.51246" lon="7.16418">
        <ele>964</ele>
        <time>2026-03-15T10:04:11Z</time>
      </trkpt>
      <trkpt lat="48.51246" lon="7.16418">
        <ele>964</ele>
        <time>2026-03-15T10:04:16Z</time>
      </trkpt>
      <trkpt lat="48.51246" lon="7.16418">
        <ele>964</ele>
        <time>2026-03-15T10:04:21Z</time>
      </trkpt>
      <trkpt lat="48.51246" lon="7.16418">
        <ele>964</ele>
        <time>2026-03-15T10:04:26Z</time>
      </trkpt>
      <trkpt lat="48.51246" lon="7.16418">
        <ele>964</ele>
        <time>2026-03-15T10:04:31Z</time>
      </trkpt>
      <trkpt lat="48.51253" lon="7.16426">
        <ele>965.8</ele>
        <time>2026-03-15T10:04:36Z</time>
      </trkpt>
      <trkpt lat="48.51254" lon="7.1643">
        <ele>965.6</ele>
        <time>2026-03-15T10:04:41Z</time>
      </trkpt>
      <trkpt lat="48.51257" lon="7.16434">
        <ele>966.1</ele>
        <time>2026-03-15T10:04:46Z</time>
      </trkpt>
      <trkpt lat="48.51256" lon="7.16439">
        <ele>965.2</ele>
        <time>2026-03-15T10:04:51Z</time>
      </trkpt>
      <trkpt lat="48.51256" lon="7.16442">
        <ele>964.9</ele>
        <time>2026-03-15T10:04:56Z</time>
      </trkpt>
      <trkpt lat="48.51257" lon="7.16446">
        <ele>964.8</ele>
        <time>2026-03-15T10:05:01Z</time>
      </trkpt>
      <trkpt lat="48.51257" lon="7.1645">
        <ele>964.4</ele>
        <time>2026-03-15T10:05:06Z</time>
      </trkpt>
      <trkpt lat="48.51257" lon="7.16453">
        <ele>964</ele>
        <time>2026-03-15T10:05:11Z</time>
      </trkpt>
      <trkpt lat="48.51258" lon="7.16456">
        <ele>964.1</ele>
        <time>2026-03-15T10:05:16Z</time>
      </trkpt>
      <trkpt lat="48.51259" lon="7.16462">
        <ele>963.8</ele>
        <time>2026-03-15T10:05:21Z</time>
      </trkpt>
      <trkpt lat="48.51261" lon="7.16465">
        <ele>964.2</ele>
        <time>2026-03-15T10:05:26Z</time>
      </trkpt>
      <trkpt lat="48.51262" lon="7.16466">
        <ele>964.5</ele>
        <time>2026-03-15T10:05:31Z</time>
      </trkpt>
      <trkpt lat="48.51263" lon="7.16464">
        <ele>965.1</ele>
        <time>2026-03-15T10:05:36Z</time>
      </trkpt>
      <trkpt lat="48.51263" lon="7.16464">
        <ele>965.1</ele>
        <time>2026-03-15T10:05:41Z</time>
      </trkpt>
      <trkpt lat="48.51263" lon="7.16464">
        <ele>965.1</ele>
        <time>2026-03-15T10:05:46Z</time>
      </trkpt>
      <trkpt lat="48.51263" lon="7.16464">
        <ele>965.1</ele>
        <time>2026-03-15T10:05:51Z</time>
      </trkpt>
      <trkpt lat="48.51263" lon="7.16464">
        <ele>965.1</ele>
        <time>2026-03-15T10:05:56Z</time>
      </trkpt>
      <trkpt lat="48.51263" lon="7.16464">
        <ele>965.1</ele>
        <time>2026-03-15T10:06:01Z</time>
      </trkpt>
      <trkpt lat="48.51264" lon="7.16466">
        <ele>965.2</ele>
        <time>2026-03-15T10:06:06Z</time>
      </trkpt>
      <trkpt lat="48.51264" lon="7.16467">
        <ele>965.1</ele>
        <time>2026-03-15T10:06:11Z</time>
      </trkpt>
      <trkpt lat="48.51264" lon="7.16467">
        <ele>965.1</ele>
        <time>2026-03-15T10:06:16Z</time>
      </trkpt>
      <trkpt lat="48.51264" lon="7.16467">
        <ele>965.1</ele>
        <time>2026-03-15T10:06:21Z</time>
      </trkpt>
      <trkpt lat="48.51264" lon="7.16467">
        <ele>965.1</ele>
        <time>2026-03-15T10:06:26Z</time>
      </trkpt>
      <trkpt lat="48.51264" lon="7.16467">
        <ele>965.1</ele>
        <time>2026-03-15T10:06:31Z</time>
      </trkpt>
      <trkpt lat="48.51264" lon="7.16467">
        <ele>965.1</ele>
        <time>2026-03-15T10:06:36Z</time>
      </trkpt>
      <trkpt lat="48.51264" lon="7.16467">
        <ele>965.1</ele>
        <time>2026-03-15T10:06:41Z</time>
      </trkpt>
      <trkpt lat="48.51264" lon="7.16468">
        <ele>965</ele>
        <time>2026-03-15T10:06:46Z</time>
      </trkpt>
      <trkpt lat="48.51265" lon="7.16475">
        <ele>964.8</ele>
        <time>2026-03-15T10:06:51Z</time>
      </trkpt>
      <trkpt lat="48.51265" lon="7.1648">
        <ele>964.3</ele>
        <time>2026-03-15T10:06:56Z</time>
      </trkpt>
      <trkpt lat="48.51265" lon="7.16484">
        <ele>964</ele>
        <time>2026-03-15T10:07:01Z</time>
      </trkpt>
      <trkpt lat="48.51265" lon="7.16484">
        <ele>964</ele>
        <time>2026-03-15T10:07:06Z</time>
      </trkpt>
      <trkpt lat="48.51265" lon="7.16484">
        <ele>964</ele>
        <time>2026-03-15T10:07:11Z</time>
      </trkpt>
      <trkpt lat="48.51265" lon="7.16484">
        <ele>964</ele>
        <time>2026-03-15T10:07:16Z</time>
      </trkpt>
      <trkpt lat="48.51267" lon="7.16482">
        <ele>964.9</ele>
        <time>2026-03-15T10:07:21Z</time>
      </trkpt>
      <trkpt lat="48.51265" lon="7.16476">
        <ele>964.7</ele>
        <time>2026-03-15T10:07:26Z</time>
      </trkpt>
      <trkpt lat="48.51263" lon="7.16471">
        <ele>964.4</ele>
        <time>2026-03-15T10:07:31Z</time>
      </trkpt>
      <trkpt lat="48.51263" lon="7.16468">
        <ele>964.7</ele>
        <time>2026-03-15T10:07:36Z</time>
      </trkpt>
      <trkpt lat="48.51263" lon="7.16468">
        <ele>964.7</ele>
        <time>2026-03-15T10:07:41Z</time>
      </trkpt>
      <trkpt lat="48.51263" lon="7.16468">
        <ele>964.7</ele>
        <time>2026-03-15T10:07:46Z</time>
      </trkpt>
      <trkpt lat="48.51263" lon="7.16468">
        <ele>964.7</ele>
        <time>2026-03-15T10:07:51Z</time>
      </trkpt>
      <trkpt lat="48.51263" lon="7.16468">
        <ele>964.7</ele>
        <time>2026-03-15T10:07:56Z</time>
      </trkpt>
      <trkpt lat="48.51263" lon="7.16468">
        <ele>964.7</ele>
        <time>2026-03-15T10:08:01Z</time>
      </trkpt>
      <trkpt lat="48.51263" lon="7.16468">
        <ele>964.7</ele>
        <time>2026-03-15T10:08:06Z</time>
      </trkpt>
      <trkpt lat="48.51263" lon="7.16468">
        <ele>964.7</ele>
        <time>2026-03-15T10:08:11Z</time>
      </trkpt>
      <trkpt lat="48.51263" lon="7.16468">
        <ele>964.7</ele>
        <time>2026-03-15T10:08:16Z</time>
      </trkpt>
      <trkpt lat="48.51263" lon="7.16468">
        <ele>964.7</ele>
        <time>2026-03-15T10:08:21Z</time>
      </trkpt>
      <trkpt lat="48.51263" lon="7.16468">
        <ele>964.7</ele>
        <time>2026-03-15T10:08:26Z</time>
      </trkpt>
      <trkpt lat="48.51263" lon="7.16468">
        <ele>964.7</ele>
        <time>2026-03-15T10:08:31Z</time>
      </trkpt>
      <trkpt lat="48.51263" lon="7.16468">
        <ele>964.7</ele>
        <time>2026-03-15T10:08:36Z</time>
      </trkpt>
      <trkpt lat="48.51263" lon="7.16468">
        <ele>964.7</ele>
        <time>2026-03-15T10:08:41Z</time>
      </trkpt>
      <trkpt lat="48.51261" lon="7.16463">
        <ele>964.4</ele>
        <time>2026-03-15T10:08:46Z</time>
      </trkpt>
      <trkpt lat="48.51258" lon="7.16462">
        <ele>963.4</ele>
        <time>2026-03-15T10:08:51Z</time>
      </trkpt>
      <trkpt lat="48.51257" lon="7.16456">
        <ele>963.7</ele>
        <time>2026-03-15T10:08:56Z</time>
      </trkpt>
      <trkpt lat="48.51255" lon="7.16453">
        <ele>963.4</ele>
        <time>2026-03-15T10:09:01Z</time>
      </trkpt>
      <trkpt lat="48.51253" lon="7.16448">
        <ele>963.2</ele>
        <time>2026-03-15T10:09:06Z</time>
      </trkpt>
      <trkpt lat="48.51253" lon="7.16445">
        <ele>963.6</ele>
        <time>2026-03-15T10:09:11Z</time>
      </trkpt>
      <trkpt lat="48.51254" lon="7.16442">
        <ele>964.3</ele>
        <time>2026-03-15T10:09:16Z</time>
      </trkpt>
      <trkpt lat="48.51254" lon="7.16439">
        <ele>964.6</ele>
        <time>2026-03-15T10:09:21Z</time>
      </trkpt>
      <trkpt lat="48.51251" lon="7.16435">
        <ele>964.1</ele>
        <time>2026-03-15T10:09:26Z</time>
      </trkpt>
      <trkpt lat="48.51251" lon="7.16435">
        <ele>964.1</ele>
        <time>2026-03-15T10:09:31Z</time>
      </trkpt>
      <trkpt lat="48.51251" lon="7.16435">
        <ele>964.1</ele>
        <time>2026-03-15T10:09:36Z</time>
      </trkpt>
      <trkpt lat="48.51251" lon="7.16435">
        <ele>964.1</ele>
        <time>2026-03-15T10:09:41Z</time>
      </trkpt>
      <trkpt lat="48.51251" lon="7.16435">
        <ele>964.1</ele>
        <time>2026-03-15T10:09:46Z</time>
      </trkpt>
      <trkpt lat="48.51251" lon="7.16435">
        <ele>964.1</ele>
        <time>2026-03-15T10:09:51Z</time>
      </trkpt>
      <trkpt lat="48.51251" lon="7.16435">
        <ele>964.1</ele>
        <time>2026-03-15T10:09:56Z</time>
      </trkpt>
      <trkpt lat="48.51251" lon="7.16435">
        <ele>964.1</ele>
        <time>2026-03-15T10:10:01Z</time>
      </trkpt>
      <trkpt lat="48.51251" lon="7.16435">
        <ele>964.1</ele>
        <time>2026-03-15T10:10:06Z</time>
      </trkpt>
      <trkpt lat="48.51251" lon="7.16435">
        <ele>964.1</ele>
        <time>2026-03-15T10:10:11Z</time>
      </trkpt>
      <trkpt lat="48.51251" lon="7.16435">
        <ele>964.1</ele>
        <time>2026-03-15T10:10:16Z</time>
      </trkpt>
      <trkpt lat="48.51251" lon="7.16435">
        <ele>964.1</ele>
        <time>2026-03-15T10:10:21Z</time>
      </trkpt>
      <trkpt lat="48.51251" lon="7.16435">
        <ele>964.1</ele>
        <time>2026-03-15T10:10:26Z</time>
      </trkpt>
      <trkpt lat="48.51251" lon="7.16435">
        <ele>964.1</ele>
        <time>2026-03-15T10:10:31Z</time>
      </trkpt>
      <trkpt lat="48.51251" lon="7.16435">
        <ele>964.1</ele>
        <time>2026-03-15T10:10:36Z</time>
      </trkpt>
      <trkpt lat="48.51251" lon="7.16435">
        <ele>964.1</ele>
        <time>2026-03-15T10:10:41Z</time>
      </trkpt>
      <trkpt lat="48.51251" lon="7.16435">
        <ele>964.1</ele>
        <time>2026-03-15T10:10:46Z</time>
      </trkpt>
      <trkpt lat="48.51251" lon="7.16435">
        <ele>964.1</ele>
        <time>2026-03-15T10:10:51Z</time>
      </trkpt>
      <trkpt lat="48.51251" lon="7.16435">
        <ele>964.1</ele>
        <time>2026-03-15T10:10:56Z</time>
      </trkpt>
      <trkpt lat="48.51251" lon="7.16435">
        <ele>964.1</ele>
        <time>2026-03-15T10:11:01Z</time>
      </trkpt>
      <trkpt lat="48.51251" lon="7.16435">
        <ele>964.1</ele>
        <time>2026-03-15T10:11:06Z</time>
      </trkpt>
      <trkpt lat="48.51251" lon="7.16435">
        <ele>964.1</ele>
        <time>2026-03-15T10:11:11Z</time>
      </trkpt>
      <trkpt lat="48.51251" lon="7.16435">
        <ele>964.1</ele>
        <time>2026-03-15T10:11:16Z</time>
      </trkpt>
      <trkpt lat="48.51246" lon="7.1643">
        <ele>962.5</ele>
        <time>2026-03-15T10:11:21Z</time>
      </trkpt>
      <trkpt lat="48.51246" lon="7.16428">
        <ele>962.7</ele>
        <time>2026-03-15T10:11:26Z</time>
      </trkpt>
      <trkpt lat="48.51246" lon="7.16425">
        <ele>963.1</ele>
        <time>2026-03-15T10:11:31Z</time>
      </trkpt>
      <trkpt lat="48.51246" lon="7.16425">
        <ele>963.1</ele>
        <time>2026-03-15T10:11:36Z</time>
      </trkpt>
      <trkpt lat="48.51246" lon="7.16425">
        <ele>963.1</ele>
        <time>2026-03-15T10:11:41Z</time>
      </trkpt>
      <trkpt lat="48.51242" lon="7.16418">
        <ele>962.1</ele>
        <time>2026-03-15T10:11:46Z</time>
      </trkpt>
      <trkpt lat="48.51241" lon="7.16417">
        <ele>961.7</ele>
        <time>2026-03-15T10:11:51Z</time>
      </trkpt>
      <trkpt lat="48.51241" lon="7.16417">
        <ele>961.7</ele>
        <time>2026-03-15T10:11:56Z</time>
      </trkpt>
      <trkpt lat="48.51241" lon="7.16417">
        <ele>961.7</ele>
        <time>2026-03-15T10:12:01Z</time>
      </trkpt>
      <trkpt lat="48.51241" lon="7.16417">
        <ele>961.7</ele>
        <time>2026-03-15T10:12:06Z</time>
      </trkpt>
      <trkpt lat="48.51241" lon="7.16417">
        <ele>961.7</ele>
        <time>2026-03-15T10:12:11Z</time>
      </trkpt>
      <trkpt lat="48.51241" lon="7.16417">
        <ele>961.7</ele>
        <time>2026-03-15T10:12:16Z</time>
      </trkpt>
      <trkpt lat="48.51241" lon="7.16417">
        <ele>961.7</ele>
        <time>2026-03-15T10:12:21Z</time>
      </trkpt>
      <trkpt lat="48.51241" lon="7.16417">
        <ele>961.7</ele>
        <time>2026-03-15T10:12:26Z</time>
      </trkpt>
      <trkpt lat="48.51241" lon="7.16417">
        <ele>961.7</ele>
        <time>2026-03-15T10:12:31Z</time>
      </trkpt>
      <trkpt lat="48.51241" lon="7.16417">
        <ele>961.7</ele>
        <time>2026-03-15T10:12:36Z</time>
      </trkpt>
      <trkpt lat="48.51253" lon="7.16406">
        <ele>967.3</ele>
        <time>2026-03-15T10:12:41Z</time>
      </trkpt>
      <trkpt lat="48.51253" lon="7.16403">
        <ele>967.4</ele>
        <time>2026-03-15T10:12:46Z</time>
      </trkpt>
      <trkpt lat="48.51253" lon="7.16403">
        <ele>967.4</ele>
        <time>2026-03-15T10:12:51Z</time>
      </trkpt>
      <trkpt lat="48.51253" lon="7.16403">
        <ele>967.4</ele>
        <time>2026-03-15T10:12:56Z</time>
      </trkpt>
      <trkpt lat="48.51253" lon="7.16403">
        <ele>967.4</ele>
        <time>2026-03-15T10:13:01Z</time>
      </trkpt>
      <trkpt lat="48.51253" lon="7.16403">
        <ele>967.4</ele>
        <time>2026-03-15T10:13:06Z</time>
      </trkpt>
      <trkpt lat="48.51253" lon="7.16403">
        <ele>967.4</ele>
        <time>2026-03-15T10:13:11Z</time>
      </trkpt>
      <trkpt lat="48.51253" lon="7.16403">
        <ele>967.4</ele>
        <time>2026-03-15T10:13:16Z</time>
      </trkpt>
      <trkpt lat="48.51253" lon="7.16403">
        <ele>967.4</ele>
        <time>2026-03-15T10:13:21Z</time>
      </trkpt>
      <trkpt lat="48.51253" lon="7.16403">
        <ele>967.4</ele>
        <time>2026-03-15T10:13:26Z</time>
      </trkpt>
      <trkpt lat="48.51253" lon="7.16403">
        <ele>967.4</ele>
        <time>2026-03-15T10:13:31Z</time>
      </trkpt>
      <trkpt lat="48.51253" lon="7.16403">
        <ele>967.4</ele>
        <time>2026-03-15T10:13:36Z</time>
      </trkpt>
      <trkpt lat="48.51253" lon="7.16403">
        <ele>967.4</ele>
        <time>2026-03-15T10:13:41Z</time>
      </trkpt>
      <trkpt lat="48.51247" lon="7.16397">
        <ele>965.7</ele>
        <time>2026-03-15T10:13:46Z</time>
      </trkpt>
      <trkpt lat="48.51245" lon="7.16394">
        <ele>965</ele>
        <time>2026-03-15T10:13:51Z</time>
      </trkpt>
      <trkpt lat="48.51244" lon="7.16391">
        <ele>964.7</ele>
        <time>2026-03-15T10:13:56Z</time>
      </trkpt>
      <trkpt lat="48.51241" lon="7.16391">
        <ele>963.5</ele>
        <time>2026-03-15T10:14:01Z</time>
      </trkpt>
      <trkpt lat="48.51238" lon="7.16388">
        <ele>962.4</ele>
        <time>2026-03-15T10:14:06Z</time>
      </trkpt>
      <trkpt lat="48.51236" lon="7.16388">
        <ele>961.6</ele>
        <time>2026-03-15T10:14:11Z</time>
      </trkpt>
      <trkpt lat="48.51232" lon="7.16384">
        <ele>960.2</ele>
        <time>2026-03-15T10:14:16Z</time>
      </trkpt>
      <trkpt lat="48.51229" lon="7.16383">
        <ele>959.1</ele>
        <time>2026-03-15T10:14:21Z</time>
      </trkpt>
      <trkpt lat="48.51224" lon="7.16384">
        <ele>957</ele>
        <time>2026-03-15T10:14:26Z</time>
      </trkpt>
      <trkpt lat="48.51223" lon="7.16384">
        <ele>956.6</ele>
        <time>2026-03-15T10:14:31Z</time>
      </trkpt>
      <trkpt lat="48.51222" lon="7.16383">
        <ele>956.3</ele>
        <time>2026-03-15T10:14:36Z</time>
      </trkpt>
      <trkpt lat="48.51219" lon="7.16379">
        <ele>955.5</ele>
        <time>2026-03-15T10:14:41Z</time>
      </trkpt>
      <trkpt lat="48.51217" lon="7.16376">
        <ele>955</ele>
        <time>2026-03-15T10:14:46Z</time>
      </trkpt>
      <trkpt lat="48.51215" lon="7.16372">
        <ele>954.7</ele>
        <time>2026-03-15T10:14:51Z</time>
      </trkpt>
      <trkpt lat="48.51211" lon="7.16366">
        <ele>953.9</ele>
        <time>2026-03-15T10:14:56Z</time>
      </trkpt>
      <trkpt lat="48.51209" lon="7.16363">
        <ele>953.5</ele>
        <time>2026-03-15T10:15:01Z</time>
      </trkpt>
      <trkpt lat="48.51207" lon="7.16359">
        <ele>953.3</ele>
        <time>2026-03-15T10:15:06Z</time>
      </trkpt>
      <trkpt lat="48.51205" lon="7.16356">
        <ele>953</ele>
        <time>2026-03-15T10:15:11Z</time>
      </trkpt>
      <trkpt lat="48.512" lon="7.16353">
        <ele>951.6</ele>
        <time>2026-03-15T10:15:16Z</time>
      </trkpt>
      <trkpt lat="48.51196" lon="7.16352">
        <ele>950.4</ele>
        <time>2026-03-15T10:15:21Z</time>
      </trkpt>
      <trkpt lat="48.51193" lon="7.16348">
        <ele>949.9</ele>
        <time>2026-03-15T10:15:26Z</time>
      </trkpt>
      <trkpt lat="48.51194" lon="7.16346">
        <ele>950.6</ele>
        <time>2026-03-15T10:15:31Z</time>
      </trkpt>
      <trkpt lat="48.51195" lon="7.16345">
        <ele>951.1</ele>
        <time>2026-03-15T10:15:36Z</time>
      </trkpt>
      <trkpt lat="48.51194" lon="7.16339">
        <ele>951.7</ele>
        <time>2026-03-15T10:15:41Z</time>
      </trkpt>
      <trkpt lat="48.51192" lon="7.16334">
        <ele>951.8</ele>
        <time>2026-03-15T10:15:46Z</time>
      </trkpt>
      <trkpt lat="48.51189" lon="7.16331">
        <ele>951.2</ele>
        <time>2026-03-15T10:15:51Z</time>
      </trkpt>
      <trkpt lat="48.51185" lon="7.16326">
        <ele>950.5</ele>
        <time>2026-03-15T10:15:56Z</time>
      </trkpt>
      <trkpt lat="48.51181" lon="7.16324">
        <ele>949.6</ele>
        <time>2026-03-15T10:16:01Z</time>
      </trkpt>
      <trkpt lat="48.51179" lon="7.16321">
        <ele>949.4</ele>
        <time>2026-03-15T10:16:06Z</time>
      </trkpt>
      <trkpt lat="48.51175" lon="7.16317">
        <ele>948.9</ele>
        <time>2026-03-15T10:16:11Z</time>
      </trkpt>
      <trkpt lat="48.51171" lon="7.16314">
        <ele>948.3</ele>
        <time>2026-03-15T10:16:16Z</time>
      </trkpt>
      <trkpt lat="48.51167" lon="7.16312">
        <ele>947.7</ele>
        <time>2026-03-15T10:16:21Z</time>
      </trkpt>
      <trkpt lat="48.51164" lon="7.16307">
        <ele>947.8</ele>
        <time>2026-03-15T10:16:26Z</time>
      </trkpt>
      <trkpt lat="48.5116" lon="7.16303">
        <ele>947.6</ele>
        <time>2026-03-15T10:16:31Z</time>
      </trkpt>
      <trkpt lat="48.51155" lon="7.163">
        <ele>947</ele>
        <time>2026-03-15T10:16:36Z</time>
      </trkpt>
      <trkpt lat="48.51152" lon="7.16297">
        <ele>946.8</ele>
        <time>2026-03-15T10:16:41Z</time>
      </trkpt>
      <trkpt lat="48.51149" lon="7.16292">
        <ele>947.1</ele>
        <time>2026-03-15T10:16:46Z</time>
      </trkpt>
      <trkpt lat="48.51144" lon="7.16288">
        <ele>946.8</ele>
        <time>2026-03-15T10:16:51Z</time>
      </trkpt>
      <trkpt lat="48.51139" lon="7.16286">
        <ele>946.2</ele>
        <time>2026-03-15T10:16:56Z</time>
      </trkpt>
      <trkpt lat="48.51136" lon="7.16284">
        <ele>945.9</ele>
        <time>2026-03-15T10:17:01Z</time>
      </trkpt>
      <trkpt lat="48.51133" lon="7.16282">
        <ele>945.7</ele>
        <time>2026-03-15T10:17:06Z</time>
      </trkpt>
      <trkpt lat="48.51133" lon="7.16282">
        <ele>945.7</ele>
        <time>2026-03-15T10:17:11Z</time>
      </trkpt>
      <trkpt lat="48.51133" lon="7.16282">
        <ele>945.7</ele>
        <time>2026-03-15T10:17:16Z</time>
      </trkpt>
      <trkpt lat="48.51133" lon="7.16282">
        <ele>945.7</ele>
        <time>2026-03-15T10:17:21Z</time>
      </trkpt>
      <trkpt lat="48.51133" lon="7.16282">
        <ele>945.7</ele>
        <time>2026-03-15T10:17:26Z</time>
      </trkpt>
      <trkpt lat="48.51123" lon="7.1627">
        <ele>946.3</ele>
        <time>2026-03-15T10:17:31Z</time>
      </trkpt>
      <trkpt lat="48.51119" lon="7.16266">
        <ele>946.4</ele>
        <time>2026-03-15T10:17:36Z</time>
      </trkpt>
      <trkpt lat="48.51115" lon="7.16263">
        <ele>946.4</ele>
        <time>2026-03-15T10:17:41Z</time>
      </trkpt>
      <trkpt lat="48.51111" lon="7.16259">
        <ele>946.6</ele>
        <time>2026-03-15T10:17:46Z</time>
      </trkpt>
      <trkpt lat="48.51103" lon="7.16254">
        <ele>946.3</ele>
        <time>2026-03-15T10:17:51Z</time>
      </trkpt>
      <trkpt lat="48.51097" lon="7.16248">
        <ele>946.6</ele>
        <time>2026-03-15T10:17:56Z</time>
      </trkpt>
      <trkpt lat="48.51091" lon="7.16241">
        <ele>947</ele>
        <time>2026-03-15T10:18:01Z</time>
      </trkpt>
      <trkpt lat="48.51087" lon="7.16234">
        <ele>947.9</ele>
        <time>2026-03-15T10:18:06Z</time>
      </trkpt>
      <trkpt lat="48.51083" lon="7.16229">
        <ele>948.4</ele>
        <time>2026-03-15T10:18:11Z</time>
      </trkpt>
      <trkpt lat="48.51082" lon="7.16227">
        <ele>948.3</ele>
        <time>2026-03-15T10:18:16Z</time>
      </trkpt>
      <trkpt lat="48.51079" lon="7.16224">
        <ele>947.5</ele>
        <time>2026-03-15T10:18:21Z</time>
      </trkpt>
      <trkpt lat="48.51075" lon="7.1622">
        <ele>946.4</ele>
        <time>2026-03-15T10:18:26Z</time>
      </trkpt>
      <trkpt lat="48.51075" lon="7.16217">
        <ele>947</ele>
        <time>2026-03-15T10:18:31Z</time>
      </trkpt>
      <trkpt lat="48.51073" lon="7.16215">
        <ele>946.4</ele>
        <time>2026-03-15T10:18:36Z</time>
      </trkpt>
      <trkpt lat="48.5107" lon="7.16215">
        <ele>944.9</ele>
        <time>2026-03-15T10:18:41Z</time>
      </trkpt>
      <trkpt lat="48.51066" lon="7.16216">
        <ele>942.7</ele>
        <time>2026-03-15T10:18:46Z</time>
      </trkpt>
      <trkpt lat="48.51066" lon="7.16216">
        <ele>942.7</ele>
        <time>2026-03-15T10:18:51Z</time>
      </trkpt>
      <trkpt lat="48.51066" lon="7.16216">
        <ele>942.7</ele>
        <time>2026-03-15T10:18:56Z</time>
      </trkpt>
      <trkpt lat="48.51066" lon="7.16216">
        <ele>942.7</ele>
        <time>2026-03-15T10:19:01Z</time>
      </trkpt>
      <trkpt lat="48.51062" lon="7.16209">
        <ele>942.1</ele>
        <time>2026-03-15T10:19:06Z</time>
      </trkpt>
      <trkpt lat="48.51062" lon="7.16204">
        <ele>943.1</ele>
        <time>2026-03-15T10:19:11Z</time>
      </trkpt>
      <trkpt lat="48.51061" lon="7.162">
        <ele>943.4</ele>
        <time>2026-03-15T10:19:16Z</time>
      </trkpt>
      <trkpt lat="48.51062" lon="7.16194">
        <ele>945.1</ele>
        <time>2026-03-15T10:19:21Z</time>
      </trkpt>
      <trkpt lat="48.51061" lon="7.16193">
        <ele>944.8</ele>
        <time>2026-03-15T10:19:26Z</time>
      </trkpt>
      <trkpt lat="48.51061" lon="7.16192">
        <ele>945</ele>
        <time>2026-03-15T10:19:31Z</time>
      </trkpt>
      <trkpt lat="48.51061" lon="7.16192">
        <ele>945</ele>
        <time>2026-03-15T10:19:36Z</time>
      </trkpt>
      <trkpt lat="48.51061" lon="7.16192">
        <ele>945</ele>
        <time>2026-03-15T10:19:41Z</time>
      </trkpt>
      <trkpt lat="48.51061" lon="7.16192">
        <ele>945</ele>
        <time>2026-03-15T10:19:46Z</time>
      </trkpt>
      <trkpt lat="48.51063" lon="7.16204">
        <ele>943.6</ele>
        <time>2026-03-15T10:19:51Z</time>
      </trkpt>
      <trkpt lat="48.51062" lon="7.16206">
        <ele>942.7</ele>
        <time>2026-03-15T10:19:56Z</time>
      </trkpt>
      <trkpt lat="48.51061" lon="7.1621">
        <ele>941.4</ele>
        <time>2026-03-15T10:20:01Z</time>
      </trkpt>
      <trkpt lat="48.51057" lon="7.16211">
        <ele>939.2</ele>
        <time>2026-03-15T10:20:06Z</time>
      </trkpt>
      <trkpt lat="48.5105" lon="7.16208">
        <ele>936.3</ele>
        <time>2026-03-15T10:20:11Z</time>
      </trkpt>
      <trkpt lat="48.51043" lon="7.16204">
        <ele>933.5</ele>
        <time>2026-03-15T10:20:16Z</time>
      </trkpt>
      <trkpt lat="48.5104" lon="7.16198">
        <ele>933</ele>
        <time>2026-03-15T10:20:21Z</time>
      </trkpt>
      <trkpt lat="48.51034" lon="7.16197">
        <ele>930.1</ele>
        <time>2026-03-15T10:20:26Z</time>
      </trkpt>
      <trkpt lat="48.5103" lon="7.16202">
        <ele>927.2</ele>
        <time>2026-03-15T10:20:31Z</time>
      </trkpt>
      <trkpt lat="48.51029" lon="7.1621">
        <ele>925.3</ele>
        <time>2026-03-15T10:20:36Z</time>
      </trkpt>
      <trkpt lat="48.51029" lon="7.16216">
        <ele>924.3</ele>
        <time>2026-03-15T10:20:41Z</time>
      </trkpt>
      <trkpt lat="48.51031" lon="7.16223">
        <ele>924.1</ele>
        <time>2026-03-15T10:20:46Z</time>
      </trkpt>
      <trkpt lat="48.51034" lon="7.16228">
        <ele>924.7</ele>
        <time>2026-03-15T10:20:51Z</time>
      </trkpt>
      <trkpt lat="48.51037" lon="7.16229">
        <ele>926</ele>
        <time>2026-03-15T10:20:56Z</time>
      </trkpt>
      <trkpt lat="48.51038" lon="7.16231">
        <ele>926.1</ele>
        <time>2026-03-15T10:21:01Z</time>
      </trkpt>
      <trkpt lat="48.5104" lon="7.16234">
        <ele>926.6</ele>
        <time>2026-03-15T10:21:06Z</time>
      </trkpt>
      <trkpt lat="48.51041" lon="7.16237">
        <ele>926.5</ele>
        <time>2026-03-15T10:21:11Z</time>
      </trkpt>
      <trkpt lat="48.51042" lon="7.16245">
        <ele>925.6</ele>
        <time>2026-03-15T10:21:16Z</time>
      </trkpt>
      <trkpt lat="48.51044" lon="7.16251">
        <ele>925.4</ele>
        <time>2026-03-15T10:21:21Z</time>
      </trkpt>
      <trkpt lat="48.51046" lon="7.16257">
        <ele>924.9</ele>
        <time>2026-03-15T10:21:26Z</time>
      </trkpt>
      <trkpt lat="48.51048" lon="7.16263">
        <ele>924.4</ele>
        <time>2026-03-15T10:21:31Z</time>
      </trkpt>
      <trkpt lat="48.51051" lon="7.16268">
        <ele>924.5</ele>
        <time>2026-03-15T10:21:36Z</time>
      </trkpt>
      <trkpt lat="48.51054" lon="7.16272">
        <ele>924.9</ele>
        <time>2026-03-15T10:21:41Z</time>
      </trkpt>
      <trkpt lat="48.51055" lon="7.16271">
        <ele>925.6</ele>
        <time>2026-03-15T10:21:46Z</time>
      </trkpt>
      <trkpt lat="48.51057" lon="7.1627">
        <ele>926.8</ele>
        <time>2026-03-15T10:21:51Z</time>
      </trkpt>
      <trkpt lat="48.51061" lon="7.16278">
        <ele>926.6</ele>
        <time>2026-03-15T10:21:56Z</time>
      </trkpt>
      <trkpt lat="48.51064" lon="7.16282">
        <ele>926.9</ele>
        <time>2026-03-15T10:22:01Z</time>
      </trkpt>
      <trkpt lat="48.51068" lon="7.16287">
        <ele>927.5</ele>
        <time>2026-03-15T10:22:06Z</time>
      </trkpt>
      <trkpt lat="48.51071" lon="7.16293">
        <ele>927.3</ele>
        <time>2026-03-15T10:22:11Z</time>
      </trkpt>
      <trkpt lat="48.51074" lon="7.16299">
        <ele>927</ele>
        <time>2026-03-15T10:22:16Z</time>
      </trkpt>
      <trkpt lat="48.51076" lon="7.16306">
        <ele>926.1</ele>
        <time>2026-03-15T10:22:21Z</time>
      </trkpt>
      <trkpt lat="48.51077" lon="7.16314">
        <ele>924.4</ele>
        <time>2026-03-15T10:22:26Z</time>
      </trkpt>
      <trkpt lat="48.51081" lon="7.16321">
        <ele>924.3</ele>
        <time>2026-03-15T10:22:31Z</time>
      </trkpt>
      <trkpt lat="48.51084" lon="7.16328">
        <ele>923.6</ele>
        <time>2026-03-15T10:22:36Z</time>
      </trkpt>
      <trkpt lat="48.51088" lon="7.16334">
        <ele>923</ele>
        <time>2026-03-15T10:22:41Z</time>
      </trkpt>
      <trkpt lat="48.5109" lon="7.1634">
        <ele>921.9</ele>
        <time>2026-03-15T10:22:46Z</time>
      </trkpt>
      <trkpt lat="48.5109" lon="7.16344">
        <ele>920.8</ele>
        <time>2026-03-15T10:22:51Z</time>
      </trkpt>
      <trkpt lat="48.51089" lon="7.16346">
        <ele>919.9</ele>
        <time>2026-03-15T10:22:56Z</time>
      </trkpt>
      <trkpt lat="48.51089" lon="7.16346">
        <ele>919.9</ele>
        <time>2026-03-15T10:23:01Z</time>
      </trkpt>
      <trkpt lat="48.51089" lon="7.16352">
        <ele>918.2</ele>
        <time>2026-03-15T10:23:06Z</time>
      </trkpt>
      <trkpt lat="48.5109" lon="7.16356">
        <ele>917.4</ele>
        <time>2026-03-15T10:23:11Z</time>
      </trkpt>
      <trkpt lat="48.5109" lon="7.16361">
        <ele>916</ele>
        <time>2026-03-15T10:23:16Z</time>
      </trkpt>
      <trkpt lat="48.51091" lon="7.16368">
        <ele>914.3</ele>
        <time>2026-03-15T10:23:21Z</time>
      </trkpt>
      <trkpt lat="48.51091" lon="7.16372">
        <ele>913.2</ele>
        <time>2026-03-15T10:23:26Z</time>
      </trkpt>
      <trkpt lat="48.51091" lon="7.16377">
        <ele>911.8</ele>
        <time>2026-03-15T10:23:31Z</time>
      </trkpt>
      <trkpt lat="48.51094" lon="7.16382">
        <ele>911.3</ele>
        <time>2026-03-15T10:23:36Z</time>
      </trkpt>
      <trkpt lat="48.51098" lon="7.16379">
        <ele>913.4</ele>
        <time>2026-03-15T10:23:41Z</time>
      </trkpt>
      <trkpt lat="48.51097" lon="7.16377">
        <ele>913.6</ele>
        <time>2026-03-15T10:23:46Z</time>
      </trkpt>
      <trkpt lat="48.51096" lon="7.16372">
        <ele>914.7</ele>
        <time>2026-03-15T10:23:51Z</time>
      </trkpt>
      <trkpt lat="48.51095" lon="7.1636">
        <ele>917.7</ele>
        <time>2026-03-15T10:23:56Z</time>
      </trkpt>
      <trkpt lat="48.51089" lon="7.16357">
        <ele>916.8</ele>
        <time>2026-03-15T10:24:01Z</time>
      </trkpt>
      <trkpt lat="48.51085" lon="7.16356">
        <ele>916</ele>
        <time>2026-03-15T10:24:06Z</time>
      </trkpt>
      <trkpt lat="48.51082" lon="7.16355">
        <ele>915.2</ele>
        <time>2026-03-15T10:24:11Z</time>
      </trkpt>
      <trkpt lat="48.51077" lon="7.16353">
        <ele>913.9</ele>
        <time>2026-03-15T10:24:16Z</time>
      </trkpt>
      <trkpt lat="48.51073" lon="7.16351">
        <ele>912.9</ele>
        <time>2026-03-15T10:24:21Z</time>
      </trkpt>
      <trkpt lat="48.51064" lon="7.16346">
        <ele>910.7</ele>
        <time>2026-03-15T10:24:26Z</time>
      </trkpt>
      <trkpt lat="48.51058" lon="7.16343">
        <ele>909.1</ele>
        <time>2026-03-15T10:24:31Z</time>
      </trkpt>
      <trkpt lat="48.51055" lon="7.16347">
        <ele>906.9</ele>
        <time>2026-03-15T10:24:36Z</time>
      </trkpt>
      <trkpt lat="48.51054" lon="7.1635">
        <ele>905.7</ele>
        <time>2026-03-15T10:24:41Z</time>
      </trkpt>
      <trkpt lat="48.5105" lon="7.16352">
        <ele>903.7</ele>
        <time>2026-03-15T10:24:46Z</time>
      </trkpt>
      <trkpt lat="48.51052" lon="7.16358">
        <ele>902.9</ele>
        <time>2026-03-15T10:24:51Z</time>
      </trkpt>
      <trkpt lat="48.51057" lon="7.16365">
        <ele>903</ele>
        <time>2026-03-15T10:24:56Z</time>
      </trkpt>
      <trkpt lat="48.51059" lon="7.16374">
        <ele>901.4</ele>
        <time>2026-03-15T10:25:01Z</time>
      </trkpt>
      <trkpt lat="48.51057" lon="7.16381">
        <ele>898.8</ele>
        <time>2026-03-15T10:25:06Z</time>
      </trkpt>
      <trkpt lat="48.51055" lon="7.1638">
        <ele>898.3</ele>
        <time>2026-03-15T10:25:11Z</time>
      </trkpt>
      <trkpt lat="48.51052" lon="7.16371">
        <ele>899.6</ele>
        <time>2026-03-15T10:25:16Z</time>
      </trkpt>
      <trkpt lat="48.51049" lon="7.16366">
        <ele>899.7</ele>
        <time>2026-03-15T10:25:21Z</time>
      </trkpt>
      <trkpt lat="48.51045" lon="7.16361">
        <ele>899.5</ele>
        <time>2026-03-15T10:25:26Z</time>
      </trkpt>
      <trkpt lat="48.51041" lon="7.16361">
        <ele>897.9</ele>
        <time>2026-03-15T10:25:31Z</time>
      </trkpt>
      <trkpt lat="48.51037" lon="7.16359">
        <ele>896.9</ele>
        <time>2026-03-15T10:25:36Z</time>
      </trkpt>
      <trkpt lat="48.51033" lon="7.16356">
        <ele>896.1</ele>
        <time>2026-03-15T10:25:41Z</time>
      </trkpt>
      <trkpt lat="48.51028" lon="7.1635">
        <ele>895.6</ele>
        <time>2026-03-15T10:25:46Z</time>
      </trkpt>
      <trkpt lat="48.51023" lon="7.16347">
        <ele>894.3</ele>
        <time>2026-03-15T10:25:51Z</time>
      </trkpt>
      <trkpt lat="48.51018" lon="7.16346">
        <ele>892.5</ele>
        <time>2026-03-15T10:25:56Z</time>
      </trkpt>
      <trkpt lat="48.51015" lon="7.16342">
        <ele>892.2</ele>
        <time>2026-03-15T10:26:01Z</time>
      </trkpt>
      <trkpt lat="48.51011" lon="7.16339">
        <ele>891.3</ele>
        <time>2026-03-15T10:26:06Z</time>
      </trkpt>
      <trkpt lat="48.51009" lon="7.16337">
        <ele>890.9</ele>
        <time>2026-03-15T10:26:11Z</time>
      </trkpt>
      <trkpt lat="48.51005" lon="7.16337">
        <ele>889.3</ele>
        <time>2026-03-15T10:26:16Z</time>
      </trkpt>
      <trkpt lat="48.51002" lon="7.16336">
        <ele>888.3</ele>
        <time>2026-03-15T10:26:21Z</time>
      </trkpt>
      <trkpt lat="48.51002" lon="7.16336">
        <ele>888.3</ele>
        <time>2026-03-15T10:26:26Z</time>
      </trkpt>
      <trkpt lat="48.51" lon="7.16343">
        <ele>886</ele>
        <time>2026-03-15T10:26:31Z</time>
      </trkpt>
      <trkpt lat="48.50999" lon="7.16342">
        <ele>885.9</ele>
        <time>2026-03-15T10:26:36Z</time>
      </trkpt>
      <trkpt lat="48.50999" lon="7.16342">
        <ele>885.9</ele>
        <time>2026-03-15T10:26:41Z</time>
      </trkpt>
      <trkpt lat="48.50999" lon="7.16342">
        <ele>885.9</ele>
        <time>2026-03-15T10:26:46Z</time>
      </trkpt>
      <trkpt lat="48.50988" lon="7.16334">
        <ele>883.8</ele>
        <time>2026-03-15T10:26:51Z</time>
      </trkpt>
      <trkpt lat="48.50988" lon="7.16334">
        <ele>883.8</ele>
        <time>2026-03-15T10:26:56Z</time>
      </trkpt>
      <trkpt lat="48.50988" lon="7.16334">
        <ele>883.8</ele>
        <time>2026-03-15T10:27:01Z</time>
      </trkpt>
      <trkpt lat="48.50988" lon="7.16334">
        <ele>883.8</ele>
        <time>2026-03-15T10:27:06Z</time>
      </trkpt>
      <trkpt lat="48.50979" lon="7.1633">
        <ele>881.5</ele>
        <time>2026-03-15T10:27:11Z</time>
      </trkpt>
      <trkpt lat="48.50977" lon="7.16331">
        <ele>880.7</ele>
        <time>2026-03-15T10:27:16Z</time>
      </trkpt>
      <trkpt lat="48.50977" lon="7.16331">
        <ele>880.7</ele>
        <time>2026-03-15T10:27:21Z</time>
      </trkpt>
      <trkpt lat="48.50968" lon="7.16326">
        <ele>878.5</ele>
        <time>2026-03-15T10:27:26Z</time>
      </trkpt>
      <trkpt lat="48.50963" lon="7.16322">
        <ele>877.4</ele>
        <time>2026-03-15T10:27:31Z</time>
      </trkpt>
      <trkpt lat="48.50959" lon="7.16317">
        <ele>876.8</ele>
        <time>2026-03-15T10:27:36Z</time>
      </trkpt>
      <trkpt lat="48.50955" lon="7.16314">
        <ele>875.8</ele>
        <time>2026-03-15T10:27:41Z</time>
      </trkpt>
      <trkpt lat="48.5095" lon="7.16305">
        <ele>875.3</ele>
        <time>2026-03-15T10:27:46Z</time>
      </trkpt>
      <trkpt lat="48.50945" lon="7.16298">
        <ele>874.5</ele>
        <time>2026-03-15T10:27:51Z</time>
      </trkpt>
      <trkpt lat="48.50941" lon="7.16292">
        <ele>873.8</ele>
        <time>2026-03-15T10:27:56Z</time>
      </trkpt>
      <trkpt lat="48.50938" lon="7.16287">
        <ele>873.3</ele>
        <time>2026-03-15T10:28:01Z</time>
      </trkpt>
      <trkpt lat="48.50934" lon="7.16281">
        <ele>872.5</ele>
        <time>2026-03-15T10:28:06Z</time>
      </trkpt>
      <trkpt lat="48.5093" lon="7.16277">
        <ele>871.4</ele>
        <time>2026-03-15T10:28:11Z</time>
      </trkpt>
      <trkpt lat="48.50929" lon="7.16276">
        <ele>871.2</ele>
        <time>2026-03-15T10:28:16Z</time>
      </trkpt>
      <trkpt lat="48.50925" lon="7.16273">
        <ele>869.9</ele>
        <time>2026-03-15T10:28:21Z</time>
      </trkpt>
      <trkpt lat="48.50919" lon="7.16269">
        <ele>867.9</ele>
        <time>2026-03-15T10:28:26Z</time>
      </trkpt>
      <trkpt lat="48.50914" lon="7.16267">
        <ele>866.4</ele>
        <time>2026-03-15T10:28:31Z</time>
      </trkpt>
      <trkpt lat="48.50911" lon="7.16264">
        <ele>865.8</ele>
        <time>2026-03-15T10:28:36Z</time>
      </trkpt>
      <trkpt lat="48.50909" lon="7.1626">
        <ele>865.7</ele>
        <time>2026-03-15T10:28:41Z</time>
      </trkpt>
      <trkpt lat="48.50908" lon="7.16255">
        <ele>865.9</ele>
        <time>2026-03-15T10:28:46Z</time>
      </trkpt>
      <trkpt lat="48.50906" lon="7.1625">
        <ele>865.8</ele>
        <time>2026-03-15T10:28:51Z</time>
      </trkpt>
      <trkpt lat="48.50903" lon="7.16247">
        <ele>865.1</ele>
        <time>2026-03-15T10:28:56Z</time>
      </trkpt>
      <trkpt lat="48.50902" lon="7.16242">
        <ele>865.1</ele>
        <time>2026-03-15T10:29:01Z</time>
      </trkpt>
      <trkpt lat="48.50899" lon="7.16238">
        <ele>864.4</ele>
        <time>2026-03-15T10:29:06Z</time>
      </trkpt>
      <trkpt lat="48.50896" lon="7.16234">
        <ele>863.7</ele>
        <time>2026-03-15T10:29:11Z</time>
      </trkpt>
      <trkpt lat="48.50896" lon="7.16232">
        <ele>863.8</ele>
        <time>2026-03-15T10:29:16Z</time>
      </trkpt>
      <trkpt lat="48.50893" lon="7.16219">
        <ele>863.5</ele>
        <time>2026-03-15T10:29:21Z</time>
      </trkpt>
      <trkpt lat="48.50889" lon="7.16214">
        <ele>862.4</ele>
        <time>2026-03-15T10:29:26Z</time>
      </trkpt>
      <trkpt lat="48.50887" lon="7.16206">
        <ele>862.1</ele>
        <time>2026-03-15T10:29:31Z</time>
      </trkpt>
      <trkpt lat="48.50885" lon="7.16198">
        <ele>861.8</ele>
        <time>2026-03-15T10:29:36Z</time>
      </trkpt>
      <trkpt lat="48.50884" lon="7.16192">
        <ele>861.7</ele>
        <time>2026-03-15T10:29:41Z</time>
      </trkpt>
      <trkpt lat="48.50882" lon="7.16184">
        <ele>861.4</ele>
        <time>2026-03-15T10:29:46Z</time>
      </trkpt>
      <trkpt lat="48.50879" lon="7.1618">
        <ele>860.5</ele>
        <time>2026-03-15T10:29:51Z</time>
      </trkpt>
      <trkpt lat="48.50877" lon="7.16178">
        <ele>859.8</ele>
        <time>2026-03-15T10:29:56Z</time>
      </trkpt>
      <trkpt lat="48.50877" lon="7.16178">
        <ele>859.8</ele>
        <time>2026-03-15T10:30:01Z</time>
      </trkpt>
      <trkpt lat="48.50877" lon="7.16178">
        <ele>859.8</ele>
        <time>2026-03-15T10:30:06Z</time>
      </trkpt>
      <trkpt lat="48.50877" lon="7.16178">
        <ele>859.8</ele>
        <time>2026-03-15T10:30:11Z</time>
      </trkpt>
      <trkpt lat="48.50877" lon="7.16178">
        <ele>859.8</ele>
        <time>2026-03-15T10:30:16Z</time>
      </trkpt>
      <trkpt lat="48.50874" lon="7.16165">
        <ele>859.1</ele>
        <time>2026-03-15T10:30:21Z</time>
      </trkpt>
      <trkpt lat="48.50872" lon="7.16162">
        <ele>858.4</ele>
        <time>2026-03-15T10:30:26Z</time>
      </trkpt>
      <trkpt lat="48.50869" lon="7.16157">
        <ele>857.3</ele>
        <time>2026-03-15T10:30:31Z</time>
      </trkpt>
      <trkpt lat="48.50867" lon="7.16151">
        <ele>856.6</ele>
        <time>2026-03-15T10:30:36Z</time>
      </trkpt>
      <trkpt lat="48.50865" lon="7.16147">
        <ele>855.9</ele>
        <time>2026-03-15T10:30:41Z</time>
      </trkpt>
      <trkpt lat="48.50864" lon="7.16142">
        <ele>855.6</ele>
        <time>2026-03-15T10:30:46Z</time>
      </trkpt>
      <trkpt lat="48.50861" lon="7.16135">
        <ele>854.5</ele>
        <time>2026-03-15T10:30:51Z</time>
      </trkpt>
      <trkpt lat="48.50858" lon="7.16129">
        <ele>853.5</ele>
        <time>2026-03-15T10:30:56Z</time>
      </trkpt>
      <trkpt lat="48.50857" lon="7.16123">
        <ele>853.2</ele>
        <time>2026-03-15T10:31:01Z</time>
      </trkpt>
      <trkpt lat="48.50856" lon="7.16117">
        <ele>852.9</ele>
        <time>2026-03-15T10:31:06Z</time>
      </trkpt>
      <trkpt lat="48.50853" lon="7.16107">
        <ele>851.9</ele>
        <time>2026-03-15T10:31:11Z</time>
      </trkpt>
      <trkpt lat="48.50851" lon="7.16102">
        <ele>851.2</ele>
        <time>2026-03-15T10:31:16Z</time>
      </trkpt>
      <trkpt lat="48.50845" lon="7.16101">
        <ele>849</ele>
        <time>2026-03-15T10:31:21Z</time>
      </trkpt>
      <trkpt lat="48.50842" lon="7.16096">
        <ele>848</ele>
        <time>2026-03-15T10:31:26Z</time>
      </trkpt>
      <trkpt lat="48.50841" lon="7.16096">
        <ele>847.6</ele>
        <time>2026-03-15T10:31:31Z</time>
      </trkpt>
      <trkpt lat="48.50841" lon="7.16096">
        <ele>847.6</ele>
        <time>2026-03-15T10:31:36Z</time>
      </trkpt>
      <trkpt lat="48.50847" lon="7.16092">
        <ele>849.8</ele>
        <time>2026-03-15T10:31:41Z</time>
      </trkpt>
      <trkpt lat="48.50849" lon="7.16084">
        <ele>850.6</ele>
        <time>2026-03-15T10:31:46Z</time>
      </trkpt>
      <trkpt lat="48.50852" lon="7.16078">
        <ele>851.8</ele>
        <time>2026-03-15T10:31:51Z</time>
      </trkpt>
      <trkpt lat="48.50853" lon="7.1607">
        <ele>852.3</ele>
        <time>2026-03-15T10:31:56Z</time>
      </trkpt>
      <trkpt lat="48.50855" lon="7.16061">
        <ele>853.2</ele>
        <time>2026-03-15T10:32:01Z</time>
      </trkpt>
      <trkpt lat="48.50856" lon="7.16052">
        <ele>853.7</ele>
        <time>2026-03-15T10:32:06Z</time>
      </trkpt>
      <trkpt lat="48.50857" lon="7.16045">
        <ele>854.1</ele>
        <time>2026-03-15T10:32:11Z</time>
      </trkpt>
      <trkpt lat="48.50862" lon="7.16043">
        <ele>855.8</ele>
        <time>2026-03-15T10:32:16Z</time>
      </trkpt>
      <trkpt lat="48.50862" lon="7.16033">
        <ele>855.9</ele>
        <time>2026-03-15T10:32:21Z</time>
      </trkpt>
      <trkpt lat="48.50864" lon="7.16031">
        <ele>856.5</ele>
        <time>2026-03-15T10:32:26Z</time>
      </trkpt>
      <trkpt lat="48.50861" lon="7.16025">
        <ele>855.7</ele>
        <time>2026-03-15T10:32:31Z</time>
      </trkpt>
      <trkpt lat="48.50855" lon="7.16019">
        <ele>853.9</ele>
        <time>2026-03-15T10:32:36Z</time>
      </trkpt>
      <trkpt lat="48.50856" lon="7.16013">
        <ele>854.3</ele>
        <time>2026-03-15T10:32:41Z</time>
      </trkpt>
      <trkpt lat="48.50855" lon="7.16009">
        <ele>854.1</ele>
        <time>2026-03-15T10:32:46Z</time>
      </trkpt>
      <trkpt lat="48.50853" lon="7.16004">
        <ele>853.6</ele>
        <time>2026-03-15T10:32:51Z</time>
      </trkpt>
      <trkpt lat="48.50853" lon="7.15998">
        <ele>853.5</ele>
        <time>2026-03-15T10:32:56Z</time>
      </trkpt>
      <trkpt lat="48.50853" lon="7.15993">
        <ele>853.2</ele>
        <time>2026-03-15T10:33:01Z</time>
      </trkpt>
      <trkpt lat="48.50851" lon="7.15985">
        <ele>852.2</ele>
        <time>2026-03-15T10:33:06Z</time>
      </trkpt>
      <trkpt lat="48.50851" lon="7.15978">
        <ele>851.8</ele>
        <time>2026-03-15T10:33:11Z</time>
      </trkpt>
      <trkpt lat="48.50853" lon="7.15973">
        <ele>852</ele>
        <time>2026-03-15T10:33:16Z</time>
      </trkpt>
      <trkpt lat="48.50853" lon="7.15965">
        <ele>851.5</ele>
        <time>2026-03-15T10:33:21Z</time>
      </trkpt>
      <trkpt lat="48.50857" lon="7.15959">
        <ele>852.1</ele>
        <time>2026-03-15T10:33:26Z</time>
      </trkpt>
      <trkpt lat="48.50857" lon="7.15952">
        <ele>851.7</ele>
        <time>2026-03-15T10:33:31Z</time>
      </trkpt>
      <trkpt lat="48.50859" lon="7.15944">
        <ele>851.7</ele>
        <time>2026-03-15T10:33:36Z</time>
      </trkpt>
      <trkpt lat="48.50859" lon="7.15943">
        <ele>851.6</ele>
        <time>2026-03-15T10:33:41Z</time>
      </trkpt>
      <trkpt lat="48.50859" lon="7.15943">
        <ele>851.6</ele>
        <time>2026-03-15T10:33:46Z</time>
      </trkpt>
      <trkpt lat="48.50859" lon="7.15943">
        <ele>851.6</ele>
        <time>2026-03-15T10:33:51Z</time>
      </trkpt>
      <trkpt lat="48.50862" lon="7.15935">
        <ele>851.8</ele>
        <time>2026-03-15T10:33:56Z</time>
      </trkpt>
      <trkpt lat="48.50863" lon="7.15929">
        <ele>851.6</ele>
        <time>2026-03-15T10:34:01Z</time>
      </trkpt>
      <trkpt lat="48.50863" lon="7.15923">
        <ele>851.2</ele>
        <time>2026-03-15T10:34:06Z</time>
      </trkpt>
      <trkpt lat="48.50864" lon="7.15917">
        <ele>851</ele>
        <time>2026-03-15T10:34:11Z</time>
      </trkpt>
      <trkpt lat="48.50866" lon="7.15911">
        <ele>850.9</ele>
        <time>2026-03-15T10:34:16Z</time>
      </trkpt>
      <trkpt lat="48.50869" lon="7.15904">
        <ele>850.9</ele>
        <time>2026-03-15T10:34:21Z</time>
      </trkpt>
      <trkpt lat="48.50873" lon="7.159">
        <ele>851.3</ele>
        <time>2026-03-15T10:34:26Z</time>
      </trkpt>
      <trkpt lat="48.50875" lon="7.15893">
        <ele>851.1</ele>
        <time>2026-03-15T10:34:31Z</time>
      </trkpt>
      <trkpt lat="48.50877" lon="7.15887">
        <ele>850.9</ele>
        <time>2026-03-15T10:34:36Z</time>
      </trkpt>
      <trkpt lat="48.50881" lon="7.15881">
        <ele>851.2</ele>
        <time>2026-03-15T10:34:41Z</time>
      </trkpt>
      <trkpt lat="48.50885" lon="7.15873">
        <ele>851.3</ele>
        <time>2026-03-15T10:34:46Z</time>
      </trkpt>
      <trkpt lat="48.50886" lon="7.15865">
        <ele>850.7</ele>
        <time>2026-03-15T10:34:51Z</time>
      </trkpt>
      <trkpt lat="48.50886" lon="7.15859">
        <ele>850</ele>
        <time>2026-03-15T10:34:56Z</time>
      </trkpt>
      <trkpt lat="48.50885" lon="7.15856">
        <ele>849.5</ele>
        <time>2026-03-15T10:35:01Z</time>
      </trkpt>
      <trkpt lat="48.50887" lon="7.15851">
        <ele>849.4</ele>
        <time>2026-03-15T10:35:06Z</time>
      </trkpt>
      <trkpt lat="48.50891" lon="7.15848">
        <ele>850</ele>
        <time>2026-03-15T10:35:11Z</time>
      </trkpt>
      <trkpt lat="48.50894" lon="7.15844">
        <ele>850.2</ele>
        <time>2026-03-15T10:35:16Z</time>
      </trkpt>
      <trkpt lat="48.50898" lon="7.15841">
        <ele>850.8</ele>
        <time>2026-03-15T10:35:21Z</time>
      </trkpt>
      <trkpt lat="48.50902" lon="7.15839">
        <ele>851.4</ele>
        <time>2026-03-15T10:35:26Z</time>
      </trkpt>
      <trkpt lat="48.50904" lon="7.15833">
        <ele>851.2</ele>
        <time>2026-03-15T10:35:31Z</time>
      </trkpt>
      <trkpt lat="48.50902" lon="7.15824">
        <ele>849.8</ele>
        <time>2026-03-15T10:35:36Z</time>
      </trkpt>
      <trkpt lat="48.50901" lon="7.15821">
        <ele>849.2</ele>
        <time>2026-03-15T10:35:41Z</time>
      </trkpt>
      <trkpt lat="48.50905" lon="7.15819">
        <ele>849.8</ele>
        <time>2026-03-15T10:35:46Z</time>
      </trkpt>
      <trkpt lat="48.50909" lon="7.15816">
        <ele>850.3</ele>
        <time>2026-03-15T10:35:51Z</time>
      </trkpt>
      <trkpt lat="48.50912" lon="7.1581">
        <ele>850.2</ele>
        <time>2026-03-15T10:35:56Z</time>
      </trkpt>
      <trkpt lat="48.50916" lon="7.15809">
        <ele>850.9</ele>
        <time>2026-03-15T10:36:01Z</time>
      </trkpt>
      <trkpt lat="48.50922" lon="7.15805">
        <ele>850.9</ele>
        <time>2026-03-15T10:36:06Z</time>
      </trkpt>
      <trkpt lat="48.50926" lon="7.158">
        <ele>850.4</ele>
        <time>2026-03-15T10:36:11Z</time>
      </trkpt>
      <trkpt lat="48.5093" lon="7.15799">
        <ele>850.5</ele>
        <time>2026-03-15T10:36:16Z</time>
      </trkpt>
      <trkpt lat="48.50933" lon="7.15798">
        <ele>850.5</ele>
        <time>2026-03-15T10:36:21Z</time>
      </trkpt>
      <trkpt lat="48.50938" lon="7.15795">
        <ele>850.3</ele>
        <time>2026-03-15T10:36:26Z</time>
      </trkpt>
      <trkpt lat="48.50944" lon="7.15793">
        <ele>850.3</ele>
        <time>2026-03-15T10:36:31Z</time>
      </trkpt>
      <trkpt lat="48.50948" lon="7.15789">
        <ele>849.9</ele>
        <time>2026-03-15T10:36:36Z</time>
      </trkpt>
      <trkpt lat="48.50952" lon="7.15786">
        <ele>849.7</ele>
        <time>2026-03-15T10:36:41Z</time>
      </trkpt>
      <trkpt lat="48.50956" lon="7.15785">
        <ele>849.7</ele>
        <time>2026-03-15T10:36:46Z</time>
      </trkpt>
      <trkpt lat="48.50961" lon="7.15785">
        <ele>849.8</ele>
        <time>2026-03-15T10:36:51Z</time>
      </trkpt>
      <trkpt lat="48.50965" lon="7.15786">
        <ele>850.2</ele>
        <time>2026-03-15T10:36:56Z</time>
      </trkpt>
      <trkpt lat="48.50969" lon="7.15786">
        <ele>850.3</ele>
        <time>2026-03-15T10:37:01Z</time>
      </trkpt>
      <trkpt lat="48.50973" lon="7.15782">
        <ele>849.8</ele>
        <time>2026-03-15T10:37:06Z</time>
      </trkpt>
      <trkpt lat="48.50976" lon="7.15778">
        <ele>849.3</ele>
        <time>2026-03-15T10:37:11Z</time>
      </trkpt>
      <trkpt lat="48.50978" lon="7.15774">
        <ele>848.7</ele>
        <time>2026-03-15T10:37:16Z</time>
      </trkpt>
      <trkpt lat="48.50974" lon="7.15766">
        <ele>847.3</ele>
        <time>2026-03-15T10:37:21Z</time>
      </trkpt>
      <trkpt lat="48.50969" lon="7.15762">
        <ele>846.5</ele>
        <time>2026-03-15T10:37:26Z</time>
      </trkpt>
      <trkpt lat="48.50965" lon="7.15758">
        <ele>845.8</ele>
        <time>2026-03-15T10:37:31Z</time>
      </trkpt>
      <trkpt lat="48.5096" lon="7.15755">
        <ele>845.3</ele>
        <time>2026-03-15T10:37:36Z</time>
      </trkpt>
      <trkpt lat="48.50955" lon="7.1575">
        <ele>844.5</ele>
        <time>2026-03-15T10:37:41Z</time>
      </trkpt>
      <trkpt lat="48.50952" lon="7.15745">
        <ele>843.6</ele>
        <time>2026-03-15T10:37:46Z</time>
      </trkpt>
      <trkpt lat="48.50949" lon="7.15741">
        <ele>842.9</ele>
        <time>2026-03-15T10:37:51Z</time>
      </trkpt>
      <trkpt lat="48.50948" lon="7.15733">
        <ele>841.5</ele>
        <time>2026-03-15T10:37:56Z</time>
      </trkpt>
      <trkpt lat="48.50944" lon="7.15727">
        <ele>840.5</ele>
        <time>2026-03-15T10:38:01Z</time>
      </trkpt>
      <trkpt lat="48.50936" lon="7.15724">
        <ele>839.9</ele>
        <time>2026-03-15T10:38:06Z</time>
      </trkpt>
      <trkpt lat="48.50928" lon="7.15719">
        <ele>838.9</ele>
        <time>2026-03-15T10:38:11Z</time>
      </trkpt>
      <trkpt lat="48.50924" lon="7.15714">
        <ele>838</ele>
        <time>2026-03-15T10:38:16Z</time>
      </trkpt>
      <trkpt lat="48.50921" lon="7.15708">
        <ele>837</ele>
        <time>2026-03-15T10:38:21Z</time>
      </trkpt>
      <trkpt lat="48.50917" lon="7.15703">
        <ele>836.1</ele>
        <time>2026-03-15T10:38:26Z</time>
      </trkpt>
      <trkpt lat="48.50913" lon="7.15698">
        <ele>834.7</ele>
        <time>2026-03-15T10:38:31Z</time>
      </trkpt>
      <trkpt lat="48.50911" lon="7.15697">
        <ele>834.2</ele>
        <time>2026-03-15T10:38:36Z</time>
      </trkpt>
      <trkpt lat="48.50905" lon="7.15693">
        <ele>832.7</ele>
        <time>2026-03-15T10:38:41Z</time>
      </trkpt>
      <trkpt lat="48.50901" lon="7.15683">
        <ele>830.5</ele>
        <time>2026-03-15T10:38:46Z</time>
      </trkpt>
      <trkpt lat="48.50897" lon="7.15678">
        <ele>829.1</ele>
        <time>2026-03-15T10:38:51Z</time>
      </trkpt>
      <trkpt lat="48.50892" lon="7.15672">
        <ele>827.5</ele>
        <time>2026-03-15T10:38:56Z</time>
      </trkpt>
      <trkpt lat="48.50887" lon="7.15662">
        <ele>825.5</ele>
        <time>2026-03-15T10:39:01Z</time>
      </trkpt>
      <trkpt lat="48.50882" lon="7.15653">
        <ele>823.7</ele>
        <time>2026-03-15T10:39:06Z</time>
      </trkpt>
      <trkpt lat="48.50878" lon="7.1565">
        <ele>822.9</ele>
        <time>2026-03-15T10:39:11Z</time>
      </trkpt>
      <trkpt lat="48.50874" lon="7.15647">
        <ele>822.2</ele>
        <time>2026-03-15T10:39:16Z</time>
      </trkpt>
      <trkpt lat="48.50872" lon="7.15641">
        <ele>821.3</ele>
        <time>2026-03-15T10:39:21Z</time>
      </trkpt>
      <trkpt lat="48.50866" lon="7.15636">
        <ele>820.2</ele>
        <time>2026-03-15T10:39:26Z</time>
      </trkpt>
      <trkpt lat="48.50861" lon="7.15629">
        <ele>819</ele>
        <time>2026-03-15T10:39:31Z</time>
      </trkpt>
      <trkpt lat="48.50857" lon="7.15621">
        <ele>818</ele>
        <time>2026-03-15T10:39:36Z</time>
      </trkpt>
      <trkpt lat="48.50856" lon="7.15616">
        <ele>817.5</ele>
        <time>2026-03-15T10:39:41Z</time>
      </trkpt>
      <trkpt lat="48.50857" lon="7.15613">
        <ele>817.3</ele>
        <time>2026-03-15T10:39:46Z</time>
      </trkpt>
      <trkpt lat="48.50858" lon="7.15612">
        <ele>817.2</ele>
        <time>2026-03-15T10:39:51Z</time>
      </trkpt>
      <trkpt lat="48.50856" lon="7.15607">
        <ele>816.7</ele>
        <time>2026-03-15T10:39:56Z</time>
      </trkpt>
      <trkpt lat="48.50852" lon="7.15602">
        <ele>816</ele>
        <time>2026-03-15T10:40:01Z</time>
      </trkpt>
      <trkpt lat="48.50848" lon="7.15597">
        <ele>815.4</ele>
        <time>2026-03-15T10:40:06Z</time>
      </trkpt>
      <trkpt lat="48.50843" lon="7.15592">
        <ele>814.9</ele>
        <time>2026-03-15T10:40:11Z</time>
      </trkpt>
      <trkpt lat="48.5084" lon="7.15586">
        <ele>814.3</ele>
        <time>2026-03-15T10:40:16Z</time>
      </trkpt>
      <trkpt lat="48.50836" lon="7.15579">
        <ele>813.6</ele>
        <time>2026-03-15T10:40:21Z</time>
      </trkpt>
      <trkpt lat="48.50832" lon="7.15572">
        <ele>812.7</ele>
        <time>2026-03-15T10:40:26Z</time>
      </trkpt>
      <trkpt lat="48.5083" lon="7.15566">
        <ele>811.8</ele>
        <time>2026-03-15T10:40:31Z</time>
      </trkpt>
      <trkpt lat="48.50825" lon="7.15557">
        <ele>810.2</ele>
        <time>2026-03-15T10:40:36Z</time>
      </trkpt>
      <trkpt lat="48.50821" lon="7.15552">
        <ele>809.1</ele>
        <time>2026-03-15T10:40:41Z</time>
      </trkpt>
      <trkpt lat="48.50817" lon="7.15546">
        <ele>808</ele>
        <time>2026-03-15T10:40:46Z</time>
      </trkpt>
      <trkpt lat="48.50813" lon="7.15537">
        <ele>806.7</ele>
        <time>2026-03-15T10:40:51Z</time>
      </trkpt>
      <trkpt lat="48.50809" lon="7.15529">
        <ele>805.5</ele>
        <time>2026-03-15T10:40:56Z</time>
      </trkpt>
      <trkpt lat="48.50807" lon="7.15526">
        <ele>804.9</ele>
        <time>2026-03-15T10:41:01Z</time>
      </trkpt>
      <trkpt lat="48.50802" lon="7.15518">
        <ele>803.6</ele>
        <time>2026-03-15T10:41:06Z</time>
      </trkpt>
      <trkpt lat="48.50797" lon="7.15509">
        <ele>802.3</ele>
        <time>2026-03-15T10:41:11Z</time>
      </trkpt>
      <trkpt lat="48.50793" lon="7.155">
        <ele>801.2</ele>
        <time>2026-03-15T10:41:16Z</time>
      </trkpt>
      <trkpt lat="48.50791" lon="7.15496">
        <ele>800.6</ele>
        <time>2026-03-15T10:41:21Z</time>
      </trkpt>
      <trkpt lat="48.50787" lon="7.15488">
        <ele>799.4</ele>
        <time>2026-03-15T10:41:26Z</time>
      </trkpt>
      <trkpt lat="48.50782" lon="7.15481">
        <ele>798.1</ele>
        <time>2026-03-15T10:41:31Z</time>
      </trkpt>
      <trkpt lat="48.50777" lon="7.15469">
        <ele>796.4</ele>
        <time>2026-03-15T10:41:36Z</time>
      </trkpt>
      <trkpt lat="48.50772" lon="7.15459">
        <ele>794.8</ele>
        <time>2026-03-15T10:41:41Z</time>
      </trkpt>
      <trkpt lat="48.50767" lon="7.15456">
        <ele>793.9</ele>
        <time>2026-03-15T10:41:46Z</time>
      </trkpt>
      <trkpt lat="48.50761" lon="7.15452">
        <ele>792.8</ele>
        <time>2026-03-15T10:41:51Z</time>
      </trkpt>
      <trkpt lat="48.50755" lon="7.15446">
        <ele>791.5</ele>
        <time>2026-03-15T10:41:56Z</time>
      </trkpt>
      <trkpt lat="48.50751" lon="7.15442">
        <ele>790.6</ele>
        <time>2026-03-15T10:42:01Z</time>
      </trkpt>
      <trkpt lat="48.50746" lon="7.15438">
        <ele>788.8</ele>
        <time>2026-03-15T10:42:06Z</time>
      </trkpt>
      <trkpt lat="48.5074" lon="7.15434">
        <ele>786.6</ele>
        <time>2026-03-15T10:42:11Z</time>
      </trkpt>
      <trkpt lat="48.50736" lon="7.15431">
        <ele>785.1</ele>
        <time>2026-03-15T10:42:16Z</time>
      </trkpt>
      <trkpt lat="48.50731" lon="7.15431">
        <ele>783.6</ele>
        <time>2026-03-15T10:42:21Z</time>
      </trkpt>
      <trkpt lat="48.50725" lon="7.15432">
        <ele>781.9</ele>
        <time>2026-03-15T10:42:26Z</time>
      </trkpt>
      <trkpt lat="48.50718" lon="7.15429">
        <ele>779.6</ele>
        <time>2026-03-15T10:42:31Z</time>
      </trkpt>
      <trkpt lat="48.5071" lon="7.15425">
        <ele>776.9</ele>
        <time>2026-03-15T10:42:36Z</time>
      </trkpt>
      <trkpt lat="48.50704" lon="7.15424">
        <ele>775.1</ele>
        <time>2026-03-15T10:42:41Z</time>
      </trkpt>
      <trkpt lat="48.50699" lon="7.15423">
        <ele>773.6</ele>
        <time>2026-03-15T10:42:46Z</time>
      </trkpt>
      <trkpt lat="48.50693" lon="7.15422">
        <ele>771.8</ele>
        <time>2026-03-15T10:42:51Z</time>
      </trkpt>
      <trkpt lat="48.50685" lon="7.15416">
        <ele>769.3</ele>
        <time>2026-03-15T10:42:56Z</time>
      </trkpt>
      <trkpt lat="48.50678" lon="7.15411">
        <ele>767.1</ele>
        <time>2026-03-15T10:43:01Z</time>
      </trkpt>
      <trkpt lat="48.50672" lon="7.15403">
        <ele>765.2</ele>
        <time>2026-03-15T10:43:06Z</time>
      </trkpt>
      <trkpt lat="48.50669" lon="7.15395">
        <ele>764.1</ele>
        <time>2026-03-15T10:43:11Z</time>
      </trkpt>
      <trkpt lat="48.50666" lon="7.15387">
        <ele>763.1</ele>
        <time>2026-03-15T10:43:16Z</time>
      </trkpt>
      <trkpt lat="48.50662" lon="7.15379">
        <ele>761.5</ele>
        <time>2026-03-15T10:43:21Z</time>
      </trkpt>
      <trkpt lat="48.50659" lon="7.15373">
        <ele>760.3</ele>
        <time>2026-03-15T10:43:26Z</time>
      </trkpt>
      <trkpt lat="48.50658" lon="7.15369">
        <ele>759.9</ele>
        <time>2026-03-15T10:43:31Z</time>
      </trkpt>
      <trkpt lat="48.50652" lon="7.15359">
        <ele>757.6</ele>
        <time>2026-03-15T10:43:36Z</time>
      </trkpt>
      <trkpt lat="48.50649" lon="7.15348">
        <ele>756.3</ele>
        <time>2026-03-15T10:43:41Z</time>
      </trkpt>
      <trkpt lat="48.50646" lon="7.15339">
        <ele>755.2</ele>
        <time>2026-03-15T10:43:46Z</time>
      </trkpt>
      <trkpt lat="48.50644" lon="7.15331">
        <ele>754.3</ele>
        <time>2026-03-15T10:43:51Z</time>
      </trkpt>
      <trkpt lat="48.50642" lon="7.15321">
        <ele>753.5</ele>
        <time>2026-03-15T10:43:56Z</time>
      </trkpt>
      <trkpt lat="48.50642" lon="7.15309">
        <ele>753.2</ele>
        <time>2026-03-15T10:44:01Z</time>
      </trkpt>
      <trkpt lat="48.50644" lon="7.15298">
        <ele>753.7</ele>
        <time>2026-03-15T10:44:06Z</time>
      </trkpt>
      <trkpt lat="48.50644" lon="7.15286">
        <ele>753.4</ele>
        <time>2026-03-15T10:44:11Z</time>
      </trkpt>
      <trkpt lat="48.50644" lon="7.1528">
        <ele>753.3</ele>
        <time>2026-03-15T10:44:16Z</time>
      </trkpt>
      <trkpt lat="48.50644" lon="7.15275">
        <ele>753.2</ele>
        <time>2026-03-15T10:44:21Z</time>
      </trkpt>
      <trkpt lat="48.50644" lon="7.15264">
        <ele>752.9</ele>
        <time>2026-03-15T10:44:26Z</time>
      </trkpt>
      <trkpt lat="48.50641" lon="7.15253">
        <ele>751.7</ele>
        <time>2026-03-15T10:44:31Z</time>
      </trkpt>
      <trkpt lat="48.5064" lon="7.15244">
        <ele>751.2</ele>
        <time>2026-03-15T10:44:36Z</time>
      </trkpt>
      <trkpt lat="48.50642" lon="7.15236">
        <ele>751.6</ele>
        <time>2026-03-15T10:44:41Z</time>
      </trkpt>
      <trkpt lat="48.50642" lon="7.15229">
        <ele>751.3</ele>
        <time>2026-03-15T10:44:46Z</time>
      </trkpt>
      <trkpt lat="48.50641" lon="7.15217">
        <ele>750.6</ele>
        <time>2026-03-15T10:44:51Z</time>
      </trkpt>
      <trkpt lat="48.5064" lon="7.15204">
        <ele>749.9</ele>
        <time>2026-03-15T10:44:56Z</time>
      </trkpt>
      <trkpt lat="48.50645" lon="7.1519">
        <ele>751</ele>
        <time>2026-03-15T10:45:01Z</time>
      </trkpt>
      <trkpt lat="48.50646" lon="7.1518">
        <ele>751</ele>
        <time>2026-03-15T10:45:06Z</time>
      </trkpt>
      <trkpt lat="48.50647" lon="7.15173">
        <ele>751.1</ele>
        <time>2026-03-15T10:45:11Z</time>
      </trkpt>
      <trkpt lat="48.50645" lon="7.15166">
        <ele>750.2</ele>
        <time>2026-03-15T10:45:16Z</time>
      </trkpt>
      <trkpt lat="48.50644" lon="7.15158">
        <ele>749.1</ele>
        <time>2026-03-15T10:45:21Z</time>
      </trkpt>
      <trkpt lat="48.50641" lon="7.15147">
        <ele>747.2</ele>
        <time>2026-03-15T10:45:26Z</time>
      </trkpt>
      <trkpt lat="48.50638" lon="7.15134">
        <ele>745.1</ele>
        <time>2026-03-15T10:45:31Z</time>
      </trkpt>
      <trkpt lat="48.50636" lon="7.15125">
        <ele>743.7</ele>
        <time>2026-03-15T10:45:36Z</time>
      </trkpt>
      <trkpt lat="48.50635" lon="7.15114">
        <ele>742.4</ele>
        <time>2026-03-15T10:45:41Z</time>
      </trkpt>
      <trkpt lat="48.50634" lon="7.15105">
        <ele>741.3</ele>
        <time>2026-03-15T10:45:46Z</time>
      </trkpt>
      <trkpt lat="48.50633" lon="7.15098">
        <ele>740.4</ele>
        <time>2026-03-15T10:45:51Z</time>
      </trkpt>
      <trkpt lat="48.50634" lon="7.15091">
        <ele>740.1</ele>
        <time>2026-03-15T10:45:56Z</time>
      </trkpt>
      <trkpt lat="48.50635" lon="7.15083">
        <ele>739.6</ele>
        <time>2026-03-15T10:46:01Z</time>
      </trkpt>
      <trkpt lat="48.50633" lon="7.15072">
        <ele>738.2</ele>
        <time>2026-03-15T10:46:06Z</time>
      </trkpt>
      <trkpt lat="48.50633" lon="7.15065">
        <ele>737.6</ele>
        <time>2026-03-15T10:46:11Z</time>
      </trkpt>
      <trkpt lat="48.50632" lon="7.15055">
        <ele>736.5</ele>
        <time>2026-03-15T10:46:16Z</time>
      </trkpt>
      <trkpt lat="48.50632" lon="7.15045">
        <ele>735.7</ele>
        <time>2026-03-15T10:46:21Z</time>
      </trkpt>
      <trkpt lat="48.50631" lon="7.15037">
        <ele>734.8</ele>
        <time>2026-03-15T10:46:26Z</time>
      </trkpt>
      <trkpt lat="48.5063" lon="7.1503">
        <ele>734</ele>
        <time>2026-03-15T10:46:31Z</time>
      </trkpt>
      <trkpt lat="48.5063" lon="7.15021">
        <ele>733.2</ele>
        <time>2026-03-15T10:46:36Z</time>
      </trkpt>
      <trkpt lat="48.50632" lon="7.15013">
        <ele>733</ele>
        <time>2026-03-15T10:46:41Z</time>
      </trkpt>
      <trkpt lat="48.50634" lon="7.15003">
        <ele>732.6</ele>
        <time>2026-03-15T10:46:46Z</time>
      </trkpt>
      <trkpt lat="48.50633" lon="7.14996">
        <ele>731.8</ele>
        <time>2026-03-15T10:46:51Z</time>
      </trkpt>
      <trkpt lat="48.50631" lon="7.14986">
        <ele>730.6</ele>
        <time>2026-03-15T10:46:56Z</time>
      </trkpt>
      <trkpt lat="48.50628" lon="7.14976">
        <ele>729.2</ele>
        <time>2026-03-15T10:47:01Z</time>
      </trkpt>
      <trkpt lat="48.50628" lon="7.14967">
        <ele>728.5</ele>
        <time>2026-03-15T10:47:06Z</time>
      </trkpt>
      <trkpt lat="48.50628" lon="7.14959">
        <ele>727.8</ele>
        <time>2026-03-15T10:47:11Z</time>
      </trkpt>
      <trkpt lat="48.50631" lon="7.14953">
        <ele>727.9</ele>
        <time>2026-03-15T10:47:16Z</time>
      </trkpt>
      <trkpt lat="48.50631" lon="7.14946">
        <ele>727.3</ele>
        <time>2026-03-15T10:47:21Z</time>
      </trkpt>
      <trkpt lat="48.50627" lon="7.14938">
        <ele>726</ele>
        <time>2026-03-15T10:47:26Z</time>
      </trkpt>
      <trkpt lat="48.5062" lon="7.14931">
        <ele>724.3</ele>
        <time>2026-03-15T10:47:31Z</time>
      </trkpt>
      <trkpt lat="48.50613" lon="7.14932">
        <ele>723.3</ele>
        <time>2026-03-15T10:47:36Z</time>
      </trkpt>
      <trkpt lat="48.50608" lon="7.1494">
        <ele>723.1</ele>
        <time>2026-03-15T10:47:41Z</time>
      </trkpt>
      <trkpt lat="48.50604" lon="7.14946">
        <ele>722.8</ele>
        <time>2026-03-15T10:47:46Z</time>
      </trkpt>
      <trkpt lat="48.50597" lon="7.14952">
        <ele>722</ele>
        <time>2026-03-15T10:47:51Z</time>
      </trkpt>
      <trkpt lat="48.50591" lon="7.14959">
        <ele>721.4</ele>
        <time>2026-03-15T10:47:56Z</time>
      </trkpt>
      <trkpt lat="48.5059" lon="7.14969">
        <ele>721.7</ele>
        <time>2026-03-15T10:48:01Z</time>
      </trkpt>
      <trkpt lat="48.50586" lon="7.14977">
        <ele>721.4</ele>
        <time>2026-03-15T10:48:06Z</time>
      </trkpt>
      <trkpt lat="48.50581" lon="7.14984">
        <ele>720.6</ele>
        <time>2026-03-15T10:48:11Z</time>
      </trkpt>
      <trkpt lat="48.50574" lon="7.14992">
        <ele>718.9</ele>
        <time>2026-03-15T10:48:16Z</time>
      </trkpt>
      <trkpt lat="48.50569" lon="7.15001">
        <ele>717.9</ele>
        <time>2026-03-15T10:48:21Z</time>
      </trkpt>
      <trkpt lat="48.50566" lon="7.15009">
        <ele>717.4</ele>
        <time>2026-03-15T10:48:26Z</time>
      </trkpt>
      <trkpt lat="48.50561" lon="7.15013">
        <ele>716</ele>
        <time>2026-03-15T10:48:31Z</time>
      </trkpt>
      <trkpt lat="48.50556" lon="7.1502">
        <ele>714.8</ele>
        <time>2026-03-15T10:48:36Z</time>
      </trkpt>
      <trkpt lat="48.50552" lon="7.15028">
        <ele>713.8</ele>
        <time>2026-03-15T10:48:41Z</time>
      </trkpt>
      <trkpt lat="48.50547" lon="7.15039">
        <ele>712.6</ele>
        <time>2026-03-15T10:48:46Z</time>
      </trkpt>
      <trkpt lat="48.50543" lon="7.15047">
        <ele>711.5</ele>
        <time>2026-03-15T10:48:51Z</time>
      </trkpt>
      <trkpt lat="48.50538" lon="7.15055">
        <ele>710.1</ele>
        <time>2026-03-15T10:48:56Z</time>
      </trkpt>
      <trkpt lat="48.50536" lon="7.15065">
        <ele>709.7</ele>
        <time>2026-03-15T10:49:01Z</time>
      </trkpt>
      <trkpt lat="48.50535" lon="7.15075">
        <ele>709.6</ele>
        <time>2026-03-15T10:49:06Z</time>
      </trkpt>
      <trkpt lat="48.50533" lon="7.15086">
        <ele>709.2</ele>
        <time>2026-03-15T10:49:11Z</time>
      </trkpt>
      <trkpt lat="48.50531" lon="7.15097">
        <ele>709.2</ele>
        <time>2026-03-15T10:49:16Z</time>
      </trkpt>
      <trkpt lat="48.50528" lon="7.15108">
        <ele>708.9</ele>
        <time>2026-03-15T10:49:21Z</time>
      </trkpt>
      <trkpt lat="48.50527" lon="7.15119">
        <ele>709.2</ele>
        <time>2026-03-15T10:49:26Z</time>
      </trkpt>
      <trkpt lat="48.50527" lon="7.15127">
        <ele>709.7</ele>
        <time>2026-03-15T10:49:31Z</time>
      </trkpt>
      <trkpt lat="48.50525" lon="7.15141">
        <ele>709.9</ele>
        <time>2026-03-15T10:49:36Z</time>
      </trkpt>
      <trkpt lat="48.50525" lon="7.15155">
        <ele>710.7</ele>
        <time>2026-03-15T10:49:41Z</time>
      </trkpt>
      <trkpt lat="48.50524" lon="7.15164">
        <ele>710.9</ele>
        <time>2026-03-15T10:49:46Z</time>
      </trkpt>
      <trkpt lat="48.50524" lon="7.15174">
        <ele>711.4</ele>
        <time>2026-03-15T10:49:51Z</time>
      </trkpt>
      <trkpt lat="48.50524" lon="7.15183">
        <ele>711.7</ele>
        <time>2026-03-15T10:49:56Z</time>
      </trkpt>
      <trkpt lat="48.50524" lon="7.15194">
        <ele>712.2</ele>
        <time>2026-03-15T10:50:01Z</time>
      </trkpt>
      <trkpt lat="48.50524" lon="7.15203">
        <ele>712.6</ele>
        <time>2026-03-15T10:50:06Z</time>
      </trkpt>
      <trkpt lat="48.50524" lon="7.15215">
        <ele>713</ele>
        <time>2026-03-15T10:50:11Z</time>
      </trkpt>
      <trkpt lat="48.50522" lon="7.15228">
        <ele>712.9</ele>
        <time>2026-03-15T10:50:16Z</time>
      </trkpt>
      <trkpt lat="48.50521" lon="7.15239">
        <ele>713.1</ele>
        <time>2026-03-15T10:50:21Z</time>
      </trkpt>
      <trkpt lat="48.50522" lon="7.1525">
        <ele>713.9</ele>
        <time>2026-03-15T10:50:26Z</time>
      </trkpt>
      <trkpt lat="48.5052" lon="7.15262">
        <ele>713.5</ele>
        <time>2026-03-15T10:50:31Z</time>
      </trkpt>
      <trkpt lat="48.50516" lon="7.15275">
        <ele>712.5</ele>
        <time>2026-03-15T10:50:36Z</time>
      </trkpt>
      <trkpt lat="48.50513" lon="7.15289">
        <ele>711.9</ele>
        <time>2026-03-15T10:50:41Z</time>
      </trkpt>
      <trkpt lat="48.50512" lon="7.153">
        <ele>711.9</ele>
        <time>2026-03-15T10:50:46Z</time>
      </trkpt>
      <trkpt lat="48.5051" lon="7.1531">
        <ele>711.5</ele>
        <time>2026-03-15T10:50:51Z</time>
      </trkpt>
      <trkpt lat="48.50508" lon="7.15317">
        <ele>711</ele>
        <time>2026-03-15T10:50:56Z</time>
      </trkpt>
      <trkpt lat="48.50509" lon="7.15328">
        <ele>711.6</ele>
        <time>2026-03-15T10:51:01Z</time>
      </trkpt>
      <trkpt lat="48.50508" lon="7.15338">
        <ele>711.1</ele>
        <time>2026-03-15T10:51:06Z</time>
      </trkpt>
      <trkpt lat="48.50506" lon="7.15345">
        <ele>710.2</ele>
        <time>2026-03-15T10:51:11Z</time>
      </trkpt>
      <trkpt lat="48.50505" lon="7.15355">
        <ele>709.3</ele>
        <time>2026-03-15T10:51:16Z</time>
      </trkpt>
      <trkpt lat="48.50504" lon="7.15366">
        <ele>708.3</ele>
        <time>2026-03-15T10:51:21Z</time>
      </trkpt>
      <trkpt lat="48.50505" lon="7.1538">
        <ele>707.9</ele>
        <time>2026-03-15T10:51:26Z</time>
      </trkpt>
      <trkpt lat="48.50506" lon="7.15389">
        <ele>707.7</ele>
        <time>2026-03-15T10:51:31Z</time>
      </trkpt>
      <trkpt lat="48.50507" lon="7.15401">
        <ele>707.4</ele>
        <time>2026-03-15T10:51:36Z</time>
      </trkpt>
      <trkpt lat="48.50508" lon="7.15413">
        <ele>707.1</ele>
        <time>2026-03-15T10:51:41Z</time>
      </trkpt>
      <trkpt lat="48.50508" lon="7.15426">
        <ele>706.3</ele>
        <time>2026-03-15T10:51:46Z</time>
      </trkpt>
      <trkpt lat="48.50509" lon="7.15438">
        <ele>705.8</ele>
        <time>2026-03-15T10:51:51Z</time>
      </trkpt>
      <trkpt lat="48.50512" lon="7.15448">
        <ele>706.3</ele>
        <time>2026-03-15T10:51:56Z</time>
      </trkpt>
      <trkpt lat="48.50514" lon="7.15457">
        <ele>706.5</ele>
        <time>2026-03-15T10:52:01Z</time>
      </trkpt>
      <trkpt lat="48.50515" lon="7.15468">
        <ele>706.1</ele>
        <time>2026-03-15T10:52:06Z</time>
      </trkpt>
      <trkpt lat="48.50516" lon="7.1548">
        <ele>705.8</ele>
        <time>2026-03-15T10:52:11Z</time>
      </trkpt>
      <trkpt lat="48.50517" lon="7.15492">
        <ele>705.4</ele>
        <time>2026-03-15T10:52:16Z</time>
      </trkpt>
      <trkpt lat="48.50516" lon="7.15502">
        <ele>704.4</ele>
        <time>2026-03-15T10:52:21Z</time>
      </trkpt>
      <trkpt lat="48.50518" lon="7.15513">
        <ele>704.8</ele>
        <time>2026-03-15T10:52:26Z</time>
      </trkpt>
      <trkpt lat="48.50518" lon="7.15522">
        <ele>704.3</ele>
        <time>2026-03-15T10:52:31Z</time>
      </trkpt>
      <trkpt lat="48.50519" lon="7.15531">
        <ele>704.3</ele>
        <time>2026-03-15T10:52:36Z</time>
      </trkpt>
      <trkpt lat="48.5052" lon="7.15542">
        <ele>704.3</ele>
        <time>2026-03-15T10:52:41Z</time>
      </trkpt>
      <trkpt lat="48.5052" lon="7.15554">
        <ele>703.7</ele>
        <time>2026-03-15T10:52:46Z</time>
      </trkpt>
      <trkpt lat="48.50523" lon="7.15563">
        <ele>704.6</ele>
        <time>2026-03-15T10:52:51Z</time>
      </trkpt>
      <trkpt lat="48.50525" lon="7.15569">
        <ele>705.1</ele>
        <time>2026-03-15T10:52:56Z</time>
      </trkpt>
      <trkpt lat="48.50525" lon="7.15578">
        <ele>704.7</ele>
        <time>2026-03-15T10:53:01Z</time>
      </trkpt>
      <trkpt lat="48.50526" lon="7.1559">
        <ele>704.8</ele>
        <time>2026-03-15T10:53:06Z</time>
      </trkpt>
      <trkpt lat="48.50528" lon="7.15602">
        <ele>705.4</ele>
        <time>2026-03-15T10:53:11Z</time>
      </trkpt>
      <trkpt lat="48.50528" lon="7.15612">
        <ele>705.2</ele>
        <time>2026-03-15T10:53:16Z</time>
      </trkpt>
      <trkpt lat="48.50525" lon="7.15625">
        <ele>703.6</ele>
        <time>2026-03-15T10:53:21Z</time>
      </trkpt>
      <trkpt lat="48.50522" lon="7.1564">
        <ele>702.1</ele>
        <time>2026-03-15T10:53:26Z</time>
      </trkpt>
      <trkpt lat="48.50521" lon="7.1565">
        <ele>701.4</ele>
        <time>2026-03-15T10:53:31Z</time>
      </trkpt>
      <trkpt lat="48.5052" lon="7.15662">
        <ele>700.7</ele>
        <time>2026-03-15T10:53:36Z</time>
      </trkpt>
      <trkpt lat="48.50519" lon="7.15669">
        <ele>700.4</ele>
        <time>2026-03-15T10:53:41Z</time>
      </trkpt>
      <trkpt lat="48.5052" lon="7.15682">
        <ele>701.6</ele>
        <time>2026-03-15T10:53:46Z</time>
      </trkpt>
      <trkpt lat="48.5052" lon="7.15694">
        <ele>702.4</ele>
        <time>2026-03-15T10:53:51Z</time>
      </trkpt>
      <trkpt lat="48.5052" lon="7.15704">
        <ele>703</ele>
        <time>2026-03-15T10:53:56Z</time>
      </trkpt>
      <trkpt lat="48.50519" lon="7.15716">
        <ele>703.4</ele>
        <time>2026-03-15T10:54:01Z</time>
      </trkpt>
      <trkpt lat="48.5052" lon="7.15725">
        <ele>704.4</ele>
        <time>2026-03-15T10:54:06Z</time>
      </trkpt>
      <trkpt lat="48.50521" lon="7.15737">
        <ele>705.5</ele>
        <time>2026-03-15T10:54:11Z</time>
      </trkpt>
      <trkpt lat="48.50521" lon="7.15746">
        <ele>706.1</ele>
        <time>2026-03-15T10:54:16Z</time>
      </trkpt>
      <trkpt lat="48.50521" lon="7.15756">
        <ele>707.4</ele>
        <time>2026-03-15T10:54:21Z</time>
      </trkpt>
      <trkpt lat="48.50521" lon="7.15769">
        <ele>709.7</ele>
        <time>2026-03-15T10:54:26Z</time>
      </trkpt>
      <trkpt lat="48.50521" lon="7.15777">
        <ele>711.1</ele>
        <time>2026-03-15T10:54:31Z</time>
      </trkpt>
      <trkpt lat="48.50521" lon="7.15787">
        <ele>712.8</ele>
        <time>2026-03-15T10:54:36Z</time>
      </trkpt>
      <trkpt lat="48.50523" lon="7.15794">
        <ele>714.6</ele>
        <time>2026-03-15T10:54:41Z</time>
      </trkpt>
      <trkpt lat="48.50526" lon="7.15804">
        <ele>716.9</ele>
        <time>2026-03-15T10:54:46Z</time>
      </trkpt>
      <trkpt lat="48.50526" lon="7.1582">
        <ele>719.6</ele>
        <time>2026-03-15T10:54:51Z</time>
      </trkpt>
      <trkpt lat="48.50522" lon="7.15834">
        <ele>721.3</ele>
        <time>2026-03-15T10:54:56Z</time>
      </trkpt>
      <trkpt lat="48.50519" lon="7.15842">
        <ele>722.4</ele>
        <time>2026-03-15T10:55:01Z</time>
      </trkpt>
      <trkpt lat="48.50518" lon="7.15848">
        <ele>723.5</ele>
        <time>2026-03-15T10:55:06Z</time>
      </trkpt>
      <trkpt lat="48.50515" lon="7.15855">
        <ele>724.4</ele>
        <time>2026-03-15T10:55:11Z</time>
      </trkpt>
      <trkpt lat="48.50506" lon="7.15864">
        <ele>725</ele>
        <time>2026-03-15T10:55:16Z</time>
      </trkpt>
      <trkpt lat="48.50501" lon="7.1587">
        <ele>725.6</ele>
        <time>2026-03-15T10:55:21Z</time>
      </trkpt>
      <trkpt lat="48.50495" lon="7.15878">
        <ele>726.5</ele>
        <time>2026-03-15T10:55:26Z</time>
      </trkpt>
      <trkpt lat="48.5049" lon="7.15886">
        <ele>727.4</ele>
        <time>2026-03-15T10:55:31Z</time>
      </trkpt>
      <trkpt lat="48.50484" lon="7.15893">
        <ele>728</ele>
        <time>2026-03-15T10:55:36Z</time>
      </trkpt>
      <trkpt lat="48.5048" lon="7.15899">
        <ele>728.6</ele>
        <time>2026-03-15T10:55:41Z</time>
      </trkpt>
      <trkpt lat="48.50473" lon="7.15901">
        <ele>728</ele>
        <time>2026-03-15T10:55:46Z</time>
      </trkpt>
      <trkpt lat="48.50463" lon="7.15903">
        <ele>726.9</ele>
        <time>2026-03-15T10:55:51Z</time>
      </trkpt>
      <trkpt lat="48.50457" lon="7.15907">
        <ele>726.7</ele>
        <time>2026-03-15T10:55:56Z</time>
      </trkpt>
      <trkpt lat="48.5045" lon="7.15906">
        <ele>725.5</ele>
        <time>2026-03-15T10:56:01Z</time>
      </trkpt>
      <trkpt lat="48.50444" lon="7.15905">
        <ele>724.4</ele>
        <time>2026-03-15T10:56:06Z</time>
      </trkpt>
      <trkpt lat="48.50437" lon="7.15904">
        <ele>723.3</ele>
        <time>2026-03-15T10:56:11Z</time>
      </trkpt>
      <trkpt lat="48.5043" lon="7.15904">
        <ele>722.3</ele>
        <time>2026-03-15T10:56:16Z</time>
      </trkpt>
      <trkpt lat="48.50425" lon="7.15905">
        <ele>721.7</ele>
        <time>2026-03-15T10:56:21Z</time>
      </trkpt>
      <trkpt lat="48.50416" lon="7.15904">
        <ele>720.1</ele>
        <time>2026-03-15T10:56:26Z</time>
      </trkpt>
      <trkpt lat="48.50405" lon="7.15904">
        <ele>716</ele>
        <time>2026-03-15T10:56:31Z</time>
      </trkpt>
      <trkpt lat="48.50399" lon="7.15907">
        <ele>714.2</ele>
        <time>2026-03-15T10:56:36Z</time>
      </trkpt>
      <trkpt lat="48.50392" lon="7.15907">
        <ele>711.6</ele>
        <time>2026-03-15T10:56:41Z</time>
      </trkpt>
      <trkpt lat="48.50386" lon="7.15912">
        <ele>710</ele>
        <time>2026-03-15T10:56:46Z</time>
      </trkpt>
      <trkpt lat="48.50381" lon="7.1592">
        <ele>708.8</ele>
        <time>2026-03-15T10:56:51Z</time>
      </trkpt>
      <trkpt lat="48.50379" lon="7.15932">
        <ele>708.2</ele>
        <time>2026-03-15T10:56:56Z</time>
      </trkpt>
      <trkpt lat="48.50382" lon="7.15944">
        <ele>709.4</ele>
        <time>2026-03-15T10:57:01Z</time>
      </trkpt>
      <trkpt lat="48.50385" lon="7.15955">
        <ele>710.7</ele>
        <time>2026-03-15T10:57:06Z</time>
      </trkpt>
      <trkpt lat="48.50386" lon="7.15965">
        <ele>711.2</ele>
        <time>2026-03-15T10:57:11Z</time>
      </trkpt>
      <trkpt lat="48.50387" lon="7.15975">
        <ele>711.7</ele>
        <time>2026-03-15T10:57:16Z</time>
      </trkpt>
      <trkpt lat="48.50386" lon="7.15988">
        <ele>711.4</ele>
        <time>2026-03-15T10:57:21Z</time>
      </trkpt>
      <trkpt lat="48.50386" lon="7.16">
        <ele>711.6</ele>
        <time>2026-03-15T10:57:26Z</time>
      </trkpt>
      <trkpt lat="48.50388" lon="7.16008">
        <ele>711.3</ele>
        <time>2026-03-15T10:57:31Z</time>
      </trkpt>
      <trkpt lat="48.5039" lon="7.16021">
        <ele>710.3</ele>
        <time>2026-03-15T10:57:36Z</time>
      </trkpt>
      <trkpt lat="48.50392" lon="7.16031">
        <ele>709.7</ele>
        <time>2026-03-15T10:57:41Z</time>
      </trkpt>
      <trkpt lat="48.50394" lon="7.16042">
        <ele>709</ele>
        <time>2026-03-15T10:57:46Z</time>
      </trkpt>
      <trkpt lat="48.50396" lon="7.16052">
        <ele>708.4</ele>
        <time>2026-03-15T10:57:51Z</time>
      </trkpt>
      <trkpt lat="48.50398" lon="7.16064">
        <ele>707.6</ele>
        <time>2026-03-15T10:57:56Z</time>
      </trkpt>
      <trkpt lat="48.50404" lon="7.16072">
        <ele>708.8</ele>
        <time>2026-03-15T10:58:01Z</time>
      </trkpt>
      <trkpt lat="48.50408" lon="7.16081">
        <ele>709.1</ele>
        <time>2026-03-15T10:58:06Z</time>
      </trkpt>
      <trkpt lat="48.50412" lon="7.16088">
        <ele>709.3</ele>
        <time>2026-03-15T10:58:11Z</time>
      </trkpt>
      <trkpt lat="48.50417" lon="7.16095">
        <ele>709.7</ele>
        <time>2026-03-15T10:58:16Z</time>
      </trkpt>
      <trkpt lat="48.50423" lon="7.161">
        <ele>710.6</ele>
        <time>2026-03-15T10:58:21Z</time>
      </trkpt>
      <trkpt lat="48.50427" lon="7.16108">
        <ele>710.3</ele>
        <time>2026-03-15T10:58:26Z</time>
      </trkpt>
      <trkpt lat="48.50433" lon="7.16112">
        <ele>711.4</ele>
        <time>2026-03-15T10:58:31Z</time>
      </trkpt>
      <trkpt lat="48.50442" lon="7.16115">
        <ele>713.7</ele>
        <time>2026-03-15T10:58:36Z</time>
      </trkpt>
      <trkpt lat="48.50443" lon="7.16126">
        <ele>712</ele>
        <time>2026-03-15T10:58:41Z</time>
      </trkpt>
      <trkpt lat="48.50449" lon="7.16133">
        <ele>712.7</ele>
        <time>2026-03-15T10:58:46Z</time>
      </trkpt>
      <trkpt lat="48.50454" lon="7.16143">
        <ele>712.6</ele>
        <time>2026-03-15T10:58:51Z</time>
      </trkpt>
      <trkpt lat="48.5046" lon="7.16153">
        <ele>713</ele>
        <time>2026-03-15T10:58:56Z</time>
      </trkpt>
      <trkpt lat="48.50464" lon="7.16163">
        <ele>712.7</ele>
        <time>2026-03-15T10:59:01Z</time>
      </trkpt>
      <trkpt lat="48.50467" lon="7.16172">
        <ele>713.2</ele>
        <time>2026-03-15T10:59:06Z</time>
      </trkpt>
      <trkpt lat="48.50471" lon="7.16182">
        <ele>714.7</ele>
        <time>2026-03-15T10:59:11Z</time>
      </trkpt>
      <trkpt lat="48.50473" lon="7.16186">
        <ele>715.4</ele>
        <time>2026-03-15T10:59:16Z</time>
      </trkpt>
      <trkpt lat="48.50473" lon="7.16193">
        <ele>715.5</ele>
        <time>2026-03-15T10:59:21Z</time>
      </trkpt>
      <trkpt lat="48.50475" lon="7.16201">
        <ele>716.2</ele>
        <time>2026-03-15T10:59:26Z</time>
      </trkpt>
      <trkpt lat="48.50474" lon="7.16209">
        <ele>716</ele>
        <time>2026-03-15T10:59:31Z</time>
      </trkpt>
      <trkpt lat="48.50473" lon="7.16218">
        <ele>715.7</ele>
        <time>2026-03-15T10:59:36Z</time>
      </trkpt>
      <trkpt lat="48.50472" lon="7.16233">
        <ele>715.5</ele>
        <time>2026-03-15T10:59:41Z</time>
      </trkpt>
      <trkpt lat="48.50466" lon="7.16245">
        <ele>713.5</ele>
        <time>2026-03-15T10:59:46Z</time>
      </trkpt>
      <trkpt lat="48.50467" lon="7.16261">
        <ele>716.4</ele>
        <time>2026-03-15T10:59:51Z</time>
      </trkpt>
      <trkpt lat="48.50464" lon="7.1627">
        <ele>717.5</ele>
        <time>2026-03-15T10:59:56Z</time>
      </trkpt>
      <trkpt lat="48.50458" lon="7.16279">
        <ele>717.9</ele>
        <time>2026-03-15T11:00:01Z</time>
      </trkpt>
      <trkpt lat="48.50452" lon="7.16279">
        <ele>716.1</ele>
        <time>2026-03-15T11:00:06Z</time>
      </trkpt>
      <trkpt lat="48.50449" lon="7.16281">
        <ele>715.7</ele>
        <time>2026-03-15T11:00:11Z</time>
      </trkpt>
      <trkpt lat="48.50445" lon="7.16281">
        <ele>714.6</ele>
        <time>2026-03-15T11:00:16Z</time>
      </trkpt>
      <trkpt lat="48.50438" lon="7.16275">
        <ele>710.9</ele>
        <time>2026-03-15T11:00:21Z</time>
      </trkpt>
      <trkpt lat="48.50431" lon="7.16276">
        <ele>709.1</ele>
        <time>2026-03-15T11:00:26Z</time>
      </trkpt>
      <trkpt lat="48.50426" lon="7.16275">
        <ele>707.3</ele>
        <time>2026-03-15T11:00:31Z</time>
      </trkpt>
      <trkpt lat="48.50423" lon="7.16277">
        <ele>707</ele>
        <time>2026-03-15T11:00:36Z</time>
      </trkpt>
      <trkpt lat="48.50418" lon="7.16279">
        <ele>706.1</ele>
        <time>2026-03-15T11:00:41Z</time>
      </trkpt>
      <trkpt lat="48.50414" lon="7.1628">
        <ele>705.3</ele>
        <time>2026-03-15T11:00:46Z</time>
      </trkpt>
      <trkpt lat="48.50409" lon="7.16281">
        <ele>704.4</ele>
        <time>2026-03-15T11:00:51Z</time>
      </trkpt>
      <trkpt lat="48.50403" lon="7.16285">
        <ele>704.2</ele>
        <time>2026-03-15T11:00:56Z</time>
      </trkpt>
      <trkpt lat="48.50397" lon="7.16286">
        <ele>703.1</ele>
        <time>2026-03-15T11:01:01Z</time>
      </trkpt>
      <trkpt lat="48.50393" lon="7.16291">
        <ele>703.7</ele>
        <time>2026-03-15T11:01:06Z</time>
      </trkpt>
      <trkpt lat="48.50387" lon="7.16292">
        <ele>702.7</ele>
        <time>2026-03-15T11:01:11Z</time>
      </trkpt>
      <trkpt lat="48.50382" lon="7.16293">
        <ele>701.8</ele>
        <time>2026-03-15T11:01:16Z</time>
      </trkpt>
      <trkpt lat="48.50377" lon="7.16293">
        <ele>700.7</ele>
        <time>2026-03-15T11:01:21Z</time>
      </trkpt>
      <trkpt lat="48.50373" lon="7.16292">
        <ele>699.4</ele>
        <time>2026-03-15T11:01:26Z</time>
      </trkpt>
      <trkpt lat="48.50368" lon="7.16292">
        <ele>698.2</ele>
        <time>2026-03-15T11:01:31Z</time>
      </trkpt>
      <trkpt lat="48.50362" lon="7.16294">
        <ele>697.5</ele>
        <time>2026-03-15T11:01:36Z</time>
      </trkpt>
      <trkpt lat="48.50358" lon="7.16297">
        <ele>697.7</ele>
        <time>2026-03-15T11:01:41Z</time>
      </trkpt>
      <trkpt lat="48.50351" lon="7.163">
        <ele>697.2</ele>
        <time>2026-03-15T11:01:46Z</time>
      </trkpt>
      <trkpt lat="48.50346" lon="7.16304">
        <ele>697.5</ele>
        <time>2026-03-15T11:01:51Z</time>
      </trkpt>
      <trkpt lat="48.50342" lon="7.16309">
        <ele>698.5</ele>
        <time>2026-03-15T11:01:56Z</time>
      </trkpt>
      <trkpt lat="48.50338" lon="7.16308">
        <ele>697.3</ele>
        <time>2026-03-15T11:02:01Z</time>
      </trkpt>
      <trkpt lat="48.50332" lon="7.1631">
        <ele>697</ele>
        <time>2026-03-15T11:02:06Z</time>
      </trkpt>
      <trkpt lat="48.50325" lon="7.16312">
        <ele>697.6</ele>
        <time>2026-03-15T11:02:11Z</time>
      </trkpt>
      <trkpt lat="48.5032" lon="7.16315">
        <ele>698.7</ele>
        <time>2026-03-15T11:02:16Z</time>
      </trkpt>
      <trkpt lat="48.50313" lon="7.16314">
        <ele>698.2</ele>
        <time>2026-03-15T11:02:21Z</time>
      </trkpt>
      <trkpt lat="48.50308" lon="7.16316">
        <ele>698.9</ele>
        <time>2026-03-15T11:02:26Z</time>
      </trkpt>
      <trkpt lat="48.50303" lon="7.16319">
        <ele>700.1</ele>
        <time>2026-03-15T11:02:31Z</time>
      </trkpt>
      <trkpt lat="48.50296" lon="7.16321">
        <ele>700.8</ele>
        <time>2026-03-15T11:02:36Z</time>
      </trkpt>
      <trkpt lat="48.5029" lon="7.16329">
        <ele>704.1</ele>
        <time>2026-03-15T11:02:41Z</time>
      </trkpt>
      <trkpt lat="48.50283" lon="7.16333">
        <ele>705.9</ele>
        <time>2026-03-15T11:02:46Z</time>
      </trkpt>
      <trkpt lat="48.50276" lon="7.16336">
        <ele>707.1</ele>
        <time>2026-03-15T11:02:51Z</time>
      </trkpt>
      <trkpt lat="48.50271" lon="7.16337">
        <ele>707.5</ele>
        <time>2026-03-15T11:02:56Z</time>
      </trkpt>
      <trkpt lat="48.50265" lon="7.16333">
        <ele>705.8</ele>
        <time>2026-03-15T11:03:01Z</time>
      </trkpt>
      <trkpt lat="48.50265" lon="7.16333">
        <ele>705.8</ele>
        <time>2026-03-15T11:03:06Z</time>
      </trkpt>
      <trkpt lat="48.50265" lon="7.16333">
        <ele>705.8</ele>
        <time>2026-03-15T11:03:11Z</time>
      </trkpt>
      <trkpt lat="48.50263" lon="7.16328">
        <ele>703.6</ele>
        <time>2026-03-15T11:03:16Z</time>
      </trkpt>
      <trkpt lat="48.5026" lon="7.16326">
        <ele>702.6</ele>
        <time>2026-03-15T11:03:21Z</time>
      </trkpt>
      <trkpt lat="48.50258" lon="7.16323">
        <ele>701.2</ele>
        <time>2026-03-15T11:03:26Z</time>
      </trkpt>
      <trkpt lat="48.50257" lon="7.1632">
        <ele>699.9</ele>
        <time>2026-03-15T11:03:31Z</time>
      </trkpt>
      <trkpt lat="48.50253" lon="7.16319">
        <ele>699.3</ele>
        <time>2026-03-15T11:03:36Z</time>
      </trkpt>
      <trkpt lat="48.50248" lon="7.16315">
        <ele>697.7</ele>
        <time>2026-03-15T11:03:41Z</time>
      </trkpt>
      <trkpt lat="48.50242" lon="7.16314">
        <ele>697.9</ele>
        <time>2026-03-15T11:03:46Z</time>
      </trkpt>
      <trkpt lat="48.50236" lon="7.16312">
        <ele>697.7</ele>
        <time>2026-03-15T11:03:51Z</time>
      </trkpt>
      <trkpt lat="48.5023" lon="7.1631">
        <ele>697.5</ele>
        <time>2026-03-15T11:03:56Z</time>
      </trkpt>
      <trkpt lat="48.50224" lon="7.16309">
        <ele>697.7</ele>
        <time>2026-03-15T11:04:01Z</time>
      </trkpt>
      <trkpt lat="48.5022" lon="7.16306">
        <ele>696.8</ele>
        <time>2026-03-15T11:04:06Z</time>
      </trkpt>
      <trkpt lat="48.50214" lon="7.16306">
        <ele>697.5</ele>
        <time>2026-03-15T11:04:11Z</time>
      </trkpt>
      <trkpt lat="48.50208" lon="7.16304">
        <ele>697.3</ele>
        <time>2026-03-15T11:04:16Z</time>
      </trkpt>
      <trkpt lat="48.50203" lon="7.16306">
        <ele>698.8</ele>
        <time>2026-03-15T11:04:21Z</time>
      </trkpt>
      <trkpt lat="48.50196" lon="7.16307">
        <ele>700.2</ele>
        <time>2026-03-15T11:04:26Z</time>
      </trkpt>
      <trkpt lat="48.50188" lon="7.16305">
        <ele>700.2</ele>
        <time>2026-03-15T11:04:31Z</time>
      </trkpt>
      <trkpt lat="48.5018" lon="7.16299">
        <ele>698.3</ele>
        <time>2026-03-15T11:04:36Z</time>
      </trkpt>
      <trkpt lat="48.50177" lon="7.16294">
        <ele>696.4</ele>
        <time>2026-03-15T11:04:41Z</time>
      </trkpt>
      <trkpt lat="48.50172" lon="7.16289">
        <ele>694.6</ele>
        <time>2026-03-15T11:04:46Z</time>
      </trkpt>
      <trkpt lat="48.50167" lon="7.16285">
        <ele>693.3</ele>
        <time>2026-03-15T11:04:51Z</time>
      </trkpt>
      <trkpt lat="48.50162" lon="7.1628">
        <ele>691.5</ele>
        <time>2026-03-15T11:04:56Z</time>
      </trkpt>
      <trkpt lat="48.5016" lon="7.16277">
        <ele>690.3</ele>
        <time>2026-03-15T11:05:01Z</time>
      </trkpt>
      <trkpt lat="48.50157" lon="7.16279">
        <ele>691.5</ele>
        <time>2026-03-15T11:05:06Z</time>
      </trkpt>
      <trkpt lat="48.50151" lon="7.16278">
        <ele>691.6</ele>
        <time>2026-03-15T11:05:11Z</time>
      </trkpt>
      <trkpt lat="48.50145" lon="7.16278">
        <ele>692.2</ele>
        <time>2026-03-15T11:05:16Z</time>
      </trkpt>
      <trkpt lat="48.50141" lon="7.16276">
        <ele>691.7</ele>
        <time>2026-03-15T11:05:21Z</time>
      </trkpt>
      <trkpt lat="48.50136" lon="7.16273">
        <ele>690.9</ele>
        <time>2026-03-15T11:05:26Z</time>
      </trkpt>
      <trkpt lat="48.50131" lon="7.16272">
        <ele>691</ele>
        <time>2026-03-15T11:05:31Z</time>
      </trkpt>
      <trkpt lat="48.50125" lon="7.1627">
        <ele>690.8</ele>
        <time>2026-03-15T11:05:36Z</time>
      </trkpt>
      <trkpt lat="48.5012" lon="7.16266">
        <ele>689.7</ele>
        <time>2026-03-15T11:05:41Z</time>
      </trkpt>
      <trkpt lat="48.50114" lon="7.16259">
        <ele>687.5</ele>
        <time>2026-03-15T11:05:46Z</time>
      </trkpt>
      <trkpt lat="48.50109" lon="7.16252">
        <ele>685.4</ele>
        <time>2026-03-15T11:05:51Z</time>
      </trkpt>
      <trkpt lat="48.50104" lon="7.16248">
        <ele>684.5</ele>
        <time>2026-03-15T11:05:56Z</time>
      </trkpt>
      <trkpt lat="48.50097" lon="7.16247">
        <ele>685</ele>
        <time>2026-03-15T11:06:01Z</time>
      </trkpt>
      <trkpt lat="48.50092" lon="7.16245">
        <ele>684.9</ele>
        <time>2026-03-15T11:06:06Z</time>
      </trkpt>
      <trkpt lat="48.50086" lon="7.16239">
        <ele>683.4</ele>
        <time>2026-03-15T11:06:11Z</time>
      </trkpt>
      <trkpt lat="48.50081" lon="7.16234">
        <ele>681.5</ele>
        <time>2026-03-15T11:06:16Z</time>
      </trkpt>
      <trkpt lat="48.50074" lon="7.1623">
        <ele>679.1</ele>
        <time>2026-03-15T11:06:21Z</time>
      </trkpt>
      <trkpt lat="48.50068" lon="7.16224">
        <ele>676</ele>
        <time>2026-03-15T11:06:26Z</time>
      </trkpt>
      <trkpt lat="48.50065" lon="7.16219">
        <ele>673.8</ele>
        <time>2026-03-15T11:06:31Z</time>
      </trkpt>
      <trkpt lat="48.50061" lon="7.16212">
        <ele>670.8</ele>
        <time>2026-03-15T11:06:36Z</time>
      </trkpt>
      <trkpt lat="48.50056" lon="7.16207">
        <ele>668.4</ele>
        <time>2026-03-15T11:06:41Z</time>
      </trkpt>
      <trkpt lat="48.50049" lon="7.16201">
        <ele>665.5</ele>
        <time>2026-03-15T11:06:46Z</time>
      </trkpt>
      <trkpt lat="48.50045" lon="7.16196">
        <ele>663.4</ele>
        <time>2026-03-15T11:06:51Z</time>
      </trkpt>
      <trkpt lat="48.50039" lon="7.1619">
        <ele>660.7</ele>
        <time>2026-03-15T11:06:56Z</time>
      </trkpt>
      <trkpt lat="48.50035" lon="7.16186">
        <ele>659</ele>
        <time>2026-03-15T11:07:01Z</time>
      </trkpt>
      <trkpt lat="48.50029" lon="7.16182">
        <ele>657.1</ele>
        <time>2026-03-15T11:07:06Z</time>
      </trkpt>
      <trkpt lat="48.50025" lon="7.16176">
        <ele>654.8</ele>
        <time>2026-03-15T11:07:11Z</time>
      </trkpt>
      <trkpt lat="48.50019" lon="7.16171">
        <ele>652.8</ele>
        <time>2026-03-15T11:07:16Z</time>
      </trkpt>
      <trkpt lat="48.50013" lon="7.16165">
        <ele>650.5</ele>
        <time>2026-03-15T11:07:21Z</time>
      </trkpt>
      <trkpt lat="48.50006" lon="7.16158">
        <ele>648.4</ele>
        <time>2026-03-15T11:07:26Z</time>
      </trkpt>
      <trkpt lat="48.50002" lon="7.16153">
        <ele>647</ele>
        <time>2026-03-15T11:07:31Z</time>
      </trkpt>
      <trkpt lat="48.49994" lon="7.1615">
        <ele>645.5</ele>
        <time>2026-03-15T11:07:36Z</time>
      </trkpt>
      <trkpt lat="48.4999" lon="7.16145">
        <ele>643.8</ele>
        <time>2026-03-15T11:07:41Z</time>
      </trkpt>
      <trkpt lat="48.49982" lon="7.16144">
        <ele>642.6</ele>
        <time>2026-03-15T11:07:46Z</time>
      </trkpt>
      <trkpt lat="48.49975" lon="7.16145">
        <ele>642</ele>
        <time>2026-03-15T11:07:51Z</time>
      </trkpt>
      <trkpt lat="48.4997" lon="7.16146">
        <ele>641.6</ele>
        <time>2026-03-15T11:07:56Z</time>
      </trkpt>
      <trkpt lat="48.49963" lon="7.16144">
        <ele>640.3</ele>
        <time>2026-03-15T11:08:01Z</time>
      </trkpt>
      <trkpt lat="48.49955" lon="7.16141">
        <ele>638.7</ele>
        <time>2026-03-15T11:08:06Z</time>
      </trkpt>
      <trkpt lat="48.49948" lon="7.16143">
        <ele>638.3</ele>
        <time>2026-03-15T11:08:11Z</time>
      </trkpt>
      <trkpt lat="48.49941" lon="7.16144">
        <ele>637.6</ele>
        <time>2026-03-15T11:08:16Z</time>
      </trkpt>
      <trkpt lat="48.49935" lon="7.16143">
        <ele>636.7</ele>
        <time>2026-03-15T11:08:21Z</time>
      </trkpt>
      <trkpt lat="48.49929" lon="7.16142">
        <ele>635.8</ele>
        <time>2026-03-15T11:08:26Z</time>
      </trkpt>
      <trkpt lat="48.49923" lon="7.16145">
        <ele>635.6</ele>
        <time>2026-03-15T11:08:31Z</time>
      </trkpt>
      <trkpt lat="48.49914" lon="7.1615">
        <ele>635.2</ele>
        <time>2026-03-15T11:08:36Z</time>
      </trkpt>
      <trkpt lat="48.49908" lon="7.16152">
        <ele>634.1</ele>
        <time>2026-03-15T11:08:41Z</time>
      </trkpt>
      <trkpt lat="48.49901" lon="7.16152">
        <ele>632.4</ele>
        <time>2026-03-15T11:08:46Z</time>
      </trkpt>
      <trkpt lat="48.49892" lon="7.16152">
        <ele>630.2</ele>
        <time>2026-03-15T11:08:51Z</time>
      </trkpt>
      <trkpt lat="48.49886" lon="7.16157">
        <ele>629.6</ele>
        <time>2026-03-15T11:08:56Z</time>
      </trkpt>
      <trkpt lat="48.49881" lon="7.16158">
        <ele>628.5</ele>
        <time>2026-03-15T11:09:01Z</time>
      </trkpt>
      <trkpt lat="48.49873" lon="7.16157">
        <ele>626.4</ele>
        <time>2026-03-15T11:09:06Z</time>
      </trkpt>
      <trkpt lat="48.49865" lon="7.16157">
        <ele>624.4</ele>
        <time>2026-03-15T11:09:11Z</time>
      </trkpt>
      <trkpt lat="48.49859" lon="7.16158">
        <ele>623.1</ele>
        <time>2026-03-15T11:09:16Z</time>
      </trkpt>
      <trkpt lat="48.49853" lon="7.16159">
        <ele>621.8</ele>
        <time>2026-03-15T11:09:21Z</time>
      </trkpt>
      <trkpt lat="48.49847" lon="7.16162">
        <ele>620.7</ele>
        <time>2026-03-15T11:09:26Z</time>
      </trkpt>
      <trkpt lat="48.4984" lon="7.16166">
        <ele>619.6</ele>
        <time>2026-03-15T11:09:31Z</time>
      </trkpt>
      <trkpt lat="48.49832" lon="7.16166">
        <ele>617.5</ele>
        <time>2026-03-15T11:09:36Z</time>
      </trkpt>
      <trkpt lat="48.49827" lon="7.16166">
        <ele>616</ele>
        <time>2026-03-15T11:09:41Z</time>
      </trkpt>
      <trkpt lat="48.49822" lon="7.16167">
        <ele>614.6</ele>
        <time>2026-03-15T11:09:46Z</time>
      </trkpt>
      <trkpt lat="48.49816" lon="7.16166">
        <ele>612.7</ele>
        <time>2026-03-15T11:09:51Z</time>
      </trkpt>
      <trkpt lat="48.49811" lon="7.16162">
        <ele>610.6</ele>
        <time>2026-03-15T11:09:56Z</time>
      </trkpt>
      <trkpt lat="48.49804" lon="7.16161">
        <ele>608.4</ele>
        <time>2026-03-15T11:10:01Z</time>
      </trkpt>
      <trkpt lat="48.49799" lon="7.1616">
        <ele>606.8</ele>
        <time>2026-03-15T11:10:06Z</time>
      </trkpt>
      <trkpt lat="48.49795" lon="7.16164">
        <ele>606.1</ele>
        <time>2026-03-15T11:10:11Z</time>
      </trkpt>
      <trkpt lat="48.49789" lon="7.16166">
        <ele>604.6</ele>
        <time>2026-03-15T11:10:16Z</time>
      </trkpt>
      <trkpt lat="48.49782" lon="7.16165">
        <ele>602.4</ele>
        <time>2026-03-15T11:10:21Z</time>
      </trkpt>
      <trkpt lat="48.49775" lon="7.16159">
        <ele>599.5</ele>
        <time>2026-03-15T11:10:26Z</time>
      </trkpt>
      <trkpt lat="48.49769" lon="7.16155">
        <ele>597.1</ele>
        <time>2026-03-15T11:10:31Z</time>
      </trkpt>
      <trkpt lat="48.49763" lon="7.16152">
        <ele>594.9</ele>
        <time>2026-03-15T11:10:36Z</time>
      </trkpt>
      <trkpt lat="48.49756" lon="7.16151">
        <ele>592.7</ele>
        <time>2026-03-15T11:10:41Z</time>
      </trkpt>
      <trkpt lat="48.49748" lon="7.16153">
        <ele>590.5</ele>
        <time>2026-03-15T11:10:46Z</time>
      </trkpt>
      <trkpt lat="48.49742" lon="7.16156">
        <ele>588.6</ele>
        <time>2026-03-15T11:10:51Z</time>
      </trkpt>
      <trkpt lat="48.49736" lon="7.16161">
        <ele>587.1</ele>
        <time>2026-03-15T11:10:56Z</time>
      </trkpt>
      <trkpt lat="48.49732" lon="7.16165">
        <ele>586.1</ele>
        <time>2026-03-15T11:11:01Z</time>
      </trkpt>
      <trkpt lat="48.49726" lon="7.1617">
        <ele>584.4</ele>
        <time>2026-03-15T11:11:06Z</time>
      </trkpt>
      <trkpt lat="48.4972" lon="7.16176">
        <ele>582.8</ele>
        <time>2026-03-15T11:11:11Z</time>
      </trkpt>
      <trkpt lat="48.49713" lon="7.16179">
        <ele>580.4</ele>
        <time>2026-03-15T11:11:16Z</time>
      </trkpt>
      <trkpt lat="48.49707" lon="7.16184">
        <ele>578.7</ele>
        <time>2026-03-15T11:11:21Z</time>
      </trkpt>
      <trkpt lat="48.49702" lon="7.16189">
        <ele>577.2</ele>
        <time>2026-03-15T11:11:26Z</time>
      </trkpt>
      <trkpt lat="48.49699" lon="7.16195">
        <ele>576.7</ele>
        <time>2026-03-15T11:11:31Z</time>
      </trkpt>
      <trkpt lat="48.49694" lon="7.16201">
        <ele>575.3</ele>
        <time>2026-03-15T11:11:36Z</time>
      </trkpt>
      <trkpt lat="48.49689" lon="7.16206">
        <ele>573.9</ele>
        <time>2026-03-15T11:11:41Z</time>
      </trkpt>
      <trkpt lat="48.49685" lon="7.16213">
        <ele>573</ele>
        <time>2026-03-15T11:11:46Z</time>
      </trkpt>
      <trkpt lat="48.49683" lon="7.16218">
        <ele>572.6</ele>
        <time>2026-03-15T11:11:51Z</time>
      </trkpt>
      <trkpt lat="48.49679" lon="7.16218">
        <ele>571.1</ele>
        <time>2026-03-15T11:11:56Z</time>
      </trkpt>
      <trkpt lat="48.49679" lon="7.1622">
        <ele>571.3</ele>
        <time>2026-03-15T11:12:01Z</time>
      </trkpt>
      <trkpt lat="48.49677" lon="7.16226">
        <ele>571</ele>
        <time>2026-03-15T11:12:06Z</time>
      </trkpt>
      <trkpt lat="48.49673" lon="7.16233">
        <ele>570</ele>
        <time>2026-03-15T11:12:11Z</time>
      </trkpt>
      <trkpt lat="48.49673" lon="7.16239">
        <ele>570.6</ele>
        <time>2026-03-15T11:12:16Z</time>
      </trkpt>
      <trkpt lat="48.49681" lon="7.16238">
        <ele>573.6</ele>
        <time>2026-03-15T11:12:21Z</time>
      </trkpt>
      <trkpt lat="48.49687" lon="7.16235">
        <ele>575.7</ele>
        <time>2026-03-15T11:12:26Z</time>
      </trkpt>
      <trkpt lat="48.49688" lon="7.16232">
        <ele>575.8</ele>
        <time>2026-03-15T11:12:31Z</time>
      </trkpt>
      <trkpt lat="48.49688" lon="7.16232">
        <ele>575.8</ele>
        <time>2026-03-15T11:12:36Z</time>
      </trkpt>
      <trkpt lat="48.49679" lon="7.16233">
        <ele>572.4</ele>
        <time>2026-03-15T11:12:41Z</time>
      </trkpt>
      <trkpt lat="48.49674" lon="7.16235">
        <ele>570.6</ele>
        <time>2026-03-15T11:12:46Z</time>
      </trkpt>
      <trkpt lat="48.49674" lon="7.16235">
        <ele>570.6</ele>
        <time>2026-03-15T11:12:51Z</time>
      </trkpt>
      <trkpt lat="48.49674" lon="7.16235">
        <ele>570.6</ele>
        <time>2026-03-15T11:12:56Z</time>
      </trkpt>
      <trkpt lat="48.49674" lon="7.16235">
        <ele>570.6</ele>
        <time>2026-03-15T11:13:01Z</time>
      </trkpt>
      <trkpt lat="48.49674" lon="7.16235">
        <ele>570.6</ele>
        <time>2026-03-15T11:13:06Z</time>
      </trkpt>
      <trkpt lat="48.49674" lon="7.16235">
        <ele>570.6</ele>
        <time>2026-03-15T11:13:11Z</time>
      </trkpt>
      <trkpt lat="48.49676" lon="7.16249">
        <ele>572.6</ele>
        <time>2026-03-15T11:13:16Z</time>
      </trkpt>
      <trkpt lat="48.49676" lon="7.16249">
        <ele>572.6</ele>
        <time>2026-03-15T11:13:21Z</time>
      </trkpt>
      <trkpt lat="48.49676" lon="7.16249">
        <ele>572.6</ele>
        <time>2026-03-15T11:13:26Z</time>
      </trkpt>
      <trkpt lat="48.49676" lon="7.16249">
        <ele>572.6</ele>
        <time>2026-03-15T11:13:31Z</time>
      </trkpt>
      <trkpt lat="48.49676" lon="7.16249">
        <ele>572.6</ele>
        <time>2026-03-15T11:13:36Z</time>
      </trkpt>
      <trkpt lat="48.49676" lon="7.16249">
        <ele>572.6</ele>
        <time>2026-03-15T11:13:41Z</time>
      </trkpt>
      <trkpt lat="48.49676" lon="7.16249">
        <ele>572.6</ele>
        <time>2026-03-15T11:13:46Z</time>
      </trkpt>
      <trkpt lat="48.49676" lon="7.16249">
        <ele>572.6</ele>
        <time>2026-03-15T11:13:51Z</time>
      </trkpt>
      <trkpt lat="48.49676" lon="7.16249">
        <ele>572.6</ele>
        <time>2026-03-15T11:13:56Z</time>
      </trkpt>
      <trkpt lat="48.49676" lon="7.16249">
        <ele>572.6</ele>
        <time>2026-03-15T11:14:01Z</time>
      </trkpt>
      <trkpt lat="48.49676" lon="7.16249">
        <ele>572.6</ele>
        <time>2026-03-15T11:14:06Z</time>
      </trkpt>
      <trkpt lat="48.49676" lon="7.16249">
        <ele>572.6</ele>
        <time>2026-03-15T11:14:11Z</time>
      </trkpt>
      <trkpt lat="48.49676" lon="7.16249">
        <ele>572.6</ele>
        <time>2026-03-15T11:14:16Z</time>
      </trkpt>
      <trkpt lat="48.49676" lon="7.16249">
        <ele>572.6</ele>
        <time>2026-03-15T11:14:21Z</time>
      </trkpt>
      <trkpt lat="48.49676" lon="7.16249">
        <ele>572.6</ele>
        <time>2026-03-15T11:14:26Z</time>
      </trkpt>
      <trkpt lat="48.49676" lon="7.16249">
        <ele>572.6</ele>
        <time>2026-03-15T11:14:31Z</time>
      </trkpt>
      <trkpt lat="48.49676" lon="7.16249">
        <ele>572.6</ele>
        <time>2026-03-15T11:14:36Z</time>
      </trkpt>
      <trkpt lat="48.49676" lon="7.16249">
        <ele>572.6</ele>
        <time>2026-03-15T11:14:41Z</time>
      </trkpt>
      <trkpt lat="48.49676" lon="7.16249">
        <ele>572.6</ele>
        <time>2026-03-15T11:14:46Z</time>
      </trkpt>
      <trkpt lat="48.49676" lon="7.16249">
        <ele>572.6</ele>
        <time>2026-03-15T11:14:51Z</time>
      </trkpt>
      <trkpt lat="48.49676" lon="7.16249">
        <ele>572.6</ele>
        <time>2026-03-15T11:14:56Z</time>
      </trkpt>
      <trkpt lat="48.49676" lon="7.16249">
        <ele>572.6</ele>
        <time>2026-03-15T11:15:01Z</time>
      </trkpt>
      <trkpt lat="48.49676" lon="7.16249">
        <ele>572.6</ele>
        <time>2026-03-15T11:15:06Z</time>
      </trkpt>
      <trkpt lat="48.49676" lon="7.16249">
        <ele>572.6</ele>
        <time>2026-03-15T11:15:11Z</time>
      </trkpt>
      <trkpt lat="48.49676" lon="7.16249">
        <ele>572.6</ele>
        <time>2026-03-15T11:15:16Z</time>
      </trkpt>
      <trkpt lat="48.49676" lon="7.16249">
        <ele>572.6</ele>
        <time>2026-03-15T11:15:21Z</time>
      </trkpt>
      <trkpt lat="48.49676" lon="7.16249">
        <ele>572.6</ele>
        <time>2026-03-15T11:15:26Z</time>
      </trkpt>
      <trkpt lat="48.49676" lon="7.16249">
        <ele>572.6</ele>
        <time>2026-03-15T11:15:31Z</time>
      </trkpt>
      <trkpt lat="48.49676" lon="7.16249">
        <ele>572.6</ele>
        <time>2026-03-15T11:15:36Z</time>
      </trkpt>
      <trkpt lat="48.49676" lon="7.16249">
        <ele>572.6</ele>
        <time>2026-03-15T11:15:41Z</time>
      </trkpt>
      <trkpt lat="48.49676" lon="7.16249">
        <ele>572.6</ele>
        <time>2026-03-15T11:15:46Z</time>
      </trkpt>
      <trkpt lat="48.49676" lon="7.16249">
        <ele>572.6</ele>
        <time>2026-03-15T11:15:51Z</time>
      </trkpt>
      <trkpt lat="48.49676" lon="7.16249">
        <ele>572.6</ele>
        <time>2026-03-15T11:15:56Z</time>
      </trkpt>
      <trkpt lat="48.49676" lon="7.16249">
        <ele>572.6</ele>
        <time>2026-03-15T11:16:01Z</time>
      </trkpt>
      <trkpt lat="48.49676" lon="7.16249">
        <ele>572.6</ele>
        <time>2026-03-15T11:16:06Z</time>
      </trkpt>
      <trkpt lat="48.49676" lon="7.16249">
        <ele>572.6</ele>
        <time>2026-03-15T11:16:11Z</time>
      </trkpt>
      <trkpt lat="48.49676" lon="7.16249">
        <ele>572.6</ele>
        <time>2026-03-15T11:16:16Z</time>
      </trkpt>
      <trkpt lat="48.49676" lon="7.16249">
        <ele>572.6</ele>
        <time>2026-03-15T11:16:21Z</time>
      </trkpt>
      <trkpt lat="48.49676" lon="7.16249">
        <ele>572.6</ele>
        <time>2026-03-15T11:16:26Z</time>
      </trkpt>
      <trkpt lat="48.49676" lon="7.16249">
        <ele>572.6</ele>
        <time>2026-03-15T11:16:31Z</time>
      </trkpt>
      <trkpt lat="48.49676" lon="7.16249">
        <ele>572.6</ele>
        <time>2026-03-15T11:16:36Z</time>
      </trkpt>
      <trkpt lat="48.49676" lon="7.16249">
        <ele>572.6</ele>
        <time>2026-03-15T11:16:41Z</time>
      </trkpt>
      <trkpt lat="48.49676" lon="7.16249">
        <ele>572.6</ele>
        <time>2026-03-15T11:16:46Z</time>
      </trkpt>
      <trkpt lat="48.49676" lon="7.16249">
        <ele>572.6</ele>
        <time>2026-03-15T11:16:51Z</time>
      </trkpt>
      <trkpt lat="48.49676" lon="7.16249">
        <ele>572.6</ele>
        <time>2026-03-15T11:16:56Z</time>
      </trkpt>
      <trkpt lat="48.49676" lon="7.16249">
        <ele>572.6</ele>
        <time>2026-03-15T11:17:01Z</time>
      </trkpt>
      <trkpt lat="48.49676" lon="7.16249">
        <ele>572.6</ele>
        <time>2026-03-15T11:17:06Z</time>
      </trkpt>
      <trkpt lat="48.49676" lon="7.16249">
        <ele>572.6</ele>
        <time>2026-03-15T11:17:11Z</time>
      </trkpt>
      <trkpt lat="48.49676" lon="7.16249">
        <ele>572.6</ele>
        <time>2026-03-15T11:17:16Z</time>
      </trkpt>
      <trkpt lat="48.49676" lon="7.16249">
        <ele>572.6</ele>
        <time>2026-03-15T11:17:21Z</time>
      </trkpt>
      <trkpt lat="48.49676" lon="7.16249">
        <ele>572.6</ele>
        <time>2026-03-15T11:17:26Z</time>
      </trkpt>
      <trkpt lat="48.49677" lon="7.16253">
        <ele>573.3</ele>
        <time>2026-03-15T11:17:31Z</time>
      </trkpt>
      <trkpt lat="48.49675" lon="7.16265">
        <ele>573.4</ele>
        <time>2026-03-15T11:17:36Z</time>
      </trkpt>
      <trkpt lat="48.49675" lon="7.16269">
        <ele>573.7</ele>
        <time>2026-03-15T11:17:41Z</time>
      </trkpt>
      <trkpt lat="48.49675" lon="7.16272">
        <ele>573.9</ele>
        <time>2026-03-15T11:17:46Z</time>
      </trkpt>
      <trkpt lat="48.49674" lon="7.1628">
        <ele>574.1</ele>
        <time>2026-03-15T11:17:51Z</time>
      </trkpt>
      <trkpt lat="48.49675" lon="7.16291">
        <ele>575.3</ele>
        <time>2026-03-15T11:17:56Z</time>
      </trkpt>
      <trkpt lat="48.49673" lon="7.16302">
        <ele>575.3</ele>
        <time>2026-03-15T11:18:01Z</time>
      </trkpt>
      <trkpt lat="48.49672" lon="7.16307">
        <ele>575.3</ele>
        <time>2026-03-15T11:18:06Z</time>
      </trkpt>
      <trkpt lat="48.49671" lon="7.16314">
        <ele>575.4</ele>
        <time>2026-03-15T11:18:11Z</time>
      </trkpt>
      <trkpt lat="48.49671" lon="7.16319">
        <ele>575.7</ele>
        <time>2026-03-15T11:18:16Z</time>
      </trkpt>
      <trkpt lat="48.49669" lon="7.16328">
        <ele>575.6</ele>
        <time>2026-03-15T11:18:21Z</time>
      </trkpt>
      <trkpt lat="48.49667" lon="7.16333">
        <ele>575.1</ele>
        <time>2026-03-15T11:18:24Z</time>
      </trkpt>
      <trkpt lat="48.49666" lon="7.16341">
        <ele>574.7</ele>
        <time>2026-03-15T11:18:29Z</time>
      </trkpt>
      <trkpt lat="48.49666" lon="7.16349">
        <ele>574.7</ele>
        <time>2026-03-15T11:18:34Z</time>
      </trkpt>
      <trkpt lat="48.49669" lon="7.16356">
        <ele>576</ele>
        <time>2026-03-15T11:18:39Z</time>
      </trkpt>
      <trkpt lat="48.49669" lon="7.1636">
        <ele>576</ele>
        <time>2026-03-15T11:18:44Z</time>
      </trkpt>
      <trkpt lat="48.49668" lon="7.16363">
        <ele>575.6</ele>
        <time>2026-03-15T11:18:49Z</time>
      </trkpt>
      <trkpt lat="48.49668" lon="7.16363">
        <ele>575.6</ele>
        <time>2026-03-15T11:18:54Z</time>
      </trkpt>
      <trkpt lat="48.49668" lon="7.16363">
        <ele>575.6</ele>
        <time>2026-03-15T11:18:59Z</time>
      </trkpt>
      <trkpt lat="48.49668" lon="7.16363">
        <ele>575.6</ele>
        <time>2026-03-15T11:19:04Z</time>
      </trkpt>
      <trkpt lat="48.49668" lon="7.16363">
        <ele>575.6</ele>
        <time>2026-03-15T11:19:09Z</time>
      </trkpt>
      <trkpt lat="48.49668" lon="7.16363">
        <ele>575.6</ele>
        <time>2026-03-15T11:19:14Z</time>
      </trkpt>
      <trkpt lat="48.49668" lon="7.16363">
        <ele>575.6</ele>
        <time>2026-03-15T11:19:19Z</time>
      </trkpt>
      <trkpt lat="48.49668" lon="7.16363">
        <ele>575.6</ele>
        <time>2026-03-15T11:19:24Z</time>
      </trkpt>
      <trkpt lat="48.49668" lon="7.16363">
        <ele>575.6</ele>
        <time>2026-03-15T11:19:29Z</time>
      </trkpt>
      <trkpt lat="48.49668" lon="7.16364">
        <ele>575.6</ele>
        <time>2026-03-15T11:19:34Z</time>
      </trkpt>
      <trkpt lat="48.49668" lon="7.16364">
        <ele>575.6</ele>
        <time>2026-03-15T11:19:39Z</time>
      </trkpt>
      <trkpt lat="48.49668" lon="7.16364">
        <ele>575.6</ele>
        <time>2026-03-15T11:19:44Z</time>
      </trkpt>
      <trkpt lat="48.49668" lon="7.16364">
        <ele>575.6</ele>
        <time>2026-03-15T11:19:49Z</time>
      </trkpt>
      <trkpt lat="48.49668" lon="7.16364">
        <ele>575.6</ele>
        <time>2026-03-15T11:19:54Z</time>
      </trkpt>
      <trkpt lat="48.49668" lon="7.16369">
        <ele>575.6</ele>
        <time>2026-03-15T11:19:59Z</time>
      </trkpt>
      <trkpt lat="48.49667" lon="7.16373">
        <ele>575.1</ele>
        <time>2026-03-15T11:20:04Z</time>
      </trkpt>
      <trkpt lat="48.49666" lon="7.16377">
        <ele>574.7</ele>
        <time>2026-03-15T11:20:09Z</time>
      </trkpt>
      <trkpt lat="48.49667" lon="7.16381">
        <ele>575.1</ele>
        <time>2026-03-15T11:20:14Z</time>
      </trkpt>
      <trkpt lat="48.49667" lon="7.16381">
        <ele>575.1</ele>
        <time>2026-03-15T11:20:19Z</time>
      </trkpt>
      <trkpt lat="48.49667" lon="7.16381">
        <ele>575.1</ele>
        <time>2026-03-15T11:20:24Z</time>
      </trkpt>
      <trkpt lat="48.49667" lon="7.16381">
        <ele>575.1</ele>
        <time>2026-03-15T11:20:29Z</time>
      </trkpt>
      <trkpt lat="48.49667" lon="7.16381">
        <ele>575.1</ele>
        <time>2026-03-15T11:20:34Z</time>
      </trkpt>
      <trkpt lat="48.49667" lon="7.16381">
        <ele>575.1</ele>
        <time>2026-03-15T11:20:39Z</time>
      </trkpt>
      <trkpt lat="48.49667" lon="7.16381">
        <ele>575.1</ele>
        <time>2026-03-15T11:20:44Z</time>
      </trkpt>
      <trkpt lat="48.49667" lon="7.16389">
        <ele>575.1</ele>
        <time>2026-03-15T11:20:49Z</time>
      </trkpt>
      <trkpt lat="48.49665" lon="7.16394">
        <ele>574.3</ele>
        <time>2026-03-15T11:20:54Z</time>
      </trkpt>
      <trkpt lat="48.49666" lon="7.164">
        <ele>574.7</ele>
        <time>2026-03-15T11:20:59Z</time>
      </trkpt>
      <trkpt lat="48.49666" lon="7.16409">
        <ele>574.7</ele>
        <time>2026-03-15T11:21:04Z</time>
      </trkpt>
      <trkpt lat="48.49666" lon="7.16414">
        <ele>574.7</ele>
        <time>2026-03-15T11:21:09Z</time>
      </trkpt>
      <trkpt lat="48.49666" lon="7.16414">
        <ele>574.7</ele>
        <time>2026-03-15T11:21:14Z</time>
      </trkpt>
      <trkpt lat="48.49666" lon="7.16414">
        <ele>574.7</ele>
        <time>2026-03-15T11:21:19Z</time>
      </trkpt>
      <trkpt lat="48.49666" lon="7.16414">
        <ele>574.7</ele>
        <time>2026-03-15T11:21:24Z</time>
      </trkpt>
      <trkpt lat="48.49666" lon="7.16414">
        <ele>574.7</ele>
        <time>2026-03-15T11:21:29Z</time>
      </trkpt>
      <trkpt lat="48.49666" lon="7.16418">
        <ele>574.6</ele>
        <time>2026-03-15T11:21:34Z</time>
      </trkpt>
      <trkpt lat="48.49666" lon="7.1642">
        <ele>574.5</ele>
        <time>2026-03-15T11:21:39Z</time>
      </trkpt>
      <trkpt lat="48.49666" lon="7.1642">
        <ele>574.5</ele>
        <time>2026-03-15T11:21:44Z</time>
      </trkpt>
      <trkpt lat="48.49668" lon="7.16427">
        <ele>575.1</ele>
        <time>2026-03-15T11:21:49Z</time>
      </trkpt>
      <trkpt lat="48.49668" lon="7.16432">
        <ele>574.9</ele>
        <time>2026-03-15T11:21:54Z</time>
      </trkpt>
      <trkpt lat="48.49666" lon="7.16437">
        <ele>573.7</ele>
        <time>2026-03-15T11:21:59Z</time>
      </trkpt>
      <trkpt lat="48.49666" lon="7.16446">
        <ele>573.3</ele>
        <time>2026-03-15T11:22:04Z</time>
      </trkpt>
      <trkpt lat="48.49667" lon="7.16453">
        <ele>573.4</ele>
        <time>2026-03-15T11:22:09Z</time>
      </trkpt>
      <trkpt lat="48.49669" lon="7.16459">
        <ele>574.1</ele>
        <time>2026-03-15T11:22:14Z</time>
      </trkpt>
      <trkpt lat="48.4967" lon="7.16466">
        <ele>574.2</ele>
        <time>2026-03-15T11:22:19Z</time>
      </trkpt>
      <trkpt lat="48.49673" lon="7.16474">
        <ele>575.2</ele>
        <time>2026-03-15T11:22:24Z</time>
      </trkpt>
      <trkpt lat="48.49674" lon="7.16477">
        <ele>575.6</ele>
        <time>2026-03-15T11:22:29Z</time>
      </trkpt>
      <trkpt lat="48.49675" lon="7.16483">
        <ele>575.8</ele>
        <time>2026-03-15T11:22:34Z</time>
      </trkpt>
      <trkpt lat="48.49677" lon="7.16494">
        <ele>576.2</ele>
        <time>2026-03-15T11:22:39Z</time>
      </trkpt>
      <trkpt lat="48.49678" lon="7.16506">
        <ele>576</ele>
        <time>2026-03-15T11:22:44Z</time>
      </trkpt>
      <trkpt lat="48.4968" lon="7.16517">
        <ele>576.3</ele>
        <time>2026-03-15T11:22:49Z</time>
      </trkpt>
      <trkpt lat="48.49683" lon="7.16525">
        <ele>577.2</ele>
        <time>2026-03-15T11:22:54Z</time>
      </trkpt>
      <trkpt lat="48.49684" lon="7.16532">
        <ele>577.3</ele>
        <time>2026-03-15T11:22:59Z</time>
      </trkpt>
      <trkpt lat="48.49685" lon="7.16541">
        <ele>577.2</ele>
        <time>2026-03-15T11:23:04Z</time>
      </trkpt>
      <trkpt lat="48.49686" lon="7.16547">
        <ele>577.3</ele>
        <time>2026-03-15T11:23:09Z</time>
      </trkpt>
      <trkpt lat="48.49687" lon="7.16555">
        <ele>577.3</ele>
        <time>2026-03-15T11:23:14Z</time>
      </trkpt>
      <trkpt lat="48.4969" lon="7.16561">
        <ele>578.4</ele>
        <time>2026-03-15T11:23:19Z</time>
      </trkpt>
      <trkpt lat="48.49689" lon="7.16568">
        <ele>577.5</ele>
        <time>2026-03-15T11:23:24Z</time>
      </trkpt>
      <trkpt lat="48.49689" lon="7.16572">
        <ele>577.2</ele>
        <time>2026-03-15T11:23:29Z</time>
      </trkpt>
      <trkpt lat="48.49688" lon="7.16578">
        <ele>576.3</ele>
        <time>2026-03-15T11:23:34Z</time>
      </trkpt>
      <trkpt lat="48.49688" lon="7.16583">
        <ele>576</ele>
        <time>2026-03-15T11:23:39Z</time>
      </trkpt>
      <trkpt lat="48.4969" lon="7.16592">
        <ele>576.3</ele>
        <time>2026-03-15T11:23:44Z</time>
      </trkpt>
      <trkpt lat="48.49691" lon="7.16597">
        <ele>576.4</ele>
        <time>2026-03-15T11:23:49Z</time>
      </trkpt>
      <trkpt lat="48.49692" lon="7.16605">
        <ele>576.3</ele>
        <time>2026-03-15T11:23:54Z</time>
      </trkpt>
      <trkpt lat="48.49692" lon="7.16612">
        <ele>575.7</ele>
        <time>2026-03-15T11:23:59Z</time>
      </trkpt>
      <trkpt lat="48.49693" lon="7.16619">
        <ele>575.6</ele>
        <time>2026-03-15T11:24:04Z</time>
      </trkpt>
      <trkpt lat="48.49693" lon="7.16626">
        <ele>575</ele>
        <time>2026-03-15T11:24:09Z</time>
      </trkpt>
      <trkpt lat="48.49695" lon="7.16635">
        <ele>575.3</ele>
        <time>2026-03-15T11:24:14Z</time>
      </trkpt>
      <trkpt lat="48.49696" lon="7.16642">
        <ele>575.2</ele>
        <time>2026-03-15T11:24:19Z</time>
      </trkpt>
      <trkpt lat="48.49698" lon="7.16658">
        <ele>574.9</ele>
        <time>2026-03-15T11:24:24Z</time>
      </trkpt>
      <trkpt lat="48.49699" lon="7.16678">
        <ele>573.4</ele>
        <time>2026-03-15T11:24:29Z</time>
      </trkpt>
      <trkpt lat="48.49698" lon="7.16691">
        <ele>571.4</ele>
        <time>2026-03-15T11:24:34Z</time>
      </trkpt>
      <trkpt lat="48.49698" lon="7.16691">
        <ele>571.4</ele>
        <time>2026-03-15T11:24:39Z</time>
      </trkpt>
      <trkpt lat="48.49695" lon="7.16701">
        <ele>568.6</ele>
        <time>2026-03-15T11:24:44Z</time>
      </trkpt>
      <trkpt lat="48.49696" lon="7.16713">
        <ele>567.8</ele>
        <time>2026-03-15T11:24:49Z</time>
      </trkpt>
      <trkpt lat="48.49699" lon="7.16718">
        <ele>568.8</ele>
        <time>2026-03-15T11:24:54Z</time>
      </trkpt>
      <trkpt lat="48.49703" lon="7.16722">
        <ele>570.4</ele>
        <time>2026-03-15T11:24:59Z</time>
      </trkpt>
      <trkpt lat="48.49707" lon="7.16728">
        <ele>571.8</ele>
        <time>2026-03-15T11:25:04Z</time>
      </trkpt>
      <trkpt lat="48.49711" lon="7.16734">
        <ele>573.2</ele>
        <time>2026-03-15T11:25:09Z</time>
      </trkpt>
      <trkpt lat="48.49717" lon="7.16743">
        <ele>575.4</ele>
        <time>2026-03-15T11:25:14Z</time>
      </trkpt>
      <trkpt lat="48.4972" lon="7.16751">
        <ele>576.1</ele>
        <time>2026-03-15T11:25:19Z</time>
      </trkpt>
      <trkpt lat="48.49723" lon="7.16759">
        <ele>576.8</ele>
        <time>2026-03-15T11:25:24Z</time>
      </trkpt>
      <trkpt lat="48.49726" lon="7.16771">
        <ele>577</ele>
        <time>2026-03-15T11:25:29Z</time>
      </trkpt>
      <trkpt lat="48.49727" lon="7.16781">
        <ele>576.4</ele>
        <time>2026-03-15T11:25:34Z</time>
      </trkpt>
      <trkpt lat="48.49729" lon="7.16788">
        <ele>576.6</ele>
        <time>2026-03-15T11:25:39Z</time>
      </trkpt>
      <trkpt lat="48.49732" lon="7.16796">
        <ele>577.1</ele>
        <time>2026-03-15T11:25:44Z</time>
      </trkpt>
      <trkpt lat="48.49734" lon="7.16805">
        <ele>577.1</ele>
        <time>2026-03-15T11:25:49Z</time>
      </trkpt>
      <trkpt lat="48.49737" lon="7.16814">
        <ele>577.4</ele>
        <time>2026-03-15T11:25:54Z</time>
      </trkpt>
      <trkpt lat="48.49741" lon="7.16823">
        <ele>578.2</ele>
        <time>2026-03-15T11:25:59Z</time>
      </trkpt>
      <trkpt lat="48.49744" lon="7.1683">
        <ele>578.7</ele>
        <time>2026-03-15T11:26:04Z</time>
      </trkpt>
      <trkpt lat="48.49746" lon="7.1684">
        <ele>577.7</ele>
        <time>2026-03-15T11:26:09Z</time>
      </trkpt>
      <trkpt lat="48.4975" lon="7.1685">
        <ele>577.2</ele>
        <time>2026-03-15T11:26:14Z</time>
      </trkpt>
      <trkpt lat="48.49753" lon="7.16856">
        <ele>577.1</ele>
        <time>2026-03-15T11:26:19Z</time>
      </trkpt>
      <trkpt lat="48.49754" lon="7.16866">
        <ele>575.3</ele>
        <time>2026-03-15T11:26:24Z</time>
      </trkpt>
      <trkpt lat="48.49756" lon="7.16875">
        <ele>574.1</ele>
        <time>2026-03-15T11:26:29Z</time>
      </trkpt>
      <trkpt lat="48.49757" lon="7.16882">
        <ele>572.9</ele>
        <time>2026-03-15T11:26:34Z</time>
      </trkpt>
      <trkpt lat="48.49759" lon="7.16893">
        <ele>571.3</ele>
        <time>2026-03-15T11:26:39Z</time>
      </trkpt>
      <trkpt lat="48.49763" lon="7.16903">
        <ele>570.8</ele>
        <time>2026-03-15T11:26:44Z</time>
      </trkpt>
      <trkpt lat="48.49766" lon="7.16914">
        <ele>569.7</ele>
        <time>2026-03-15T11:26:49Z</time>
      </trkpt>
      <trkpt lat="48.49769" lon="7.16921">
        <ele>569.2</ele>
        <time>2026-03-15T11:26:54Z</time>
      </trkpt>
      <trkpt lat="48.49772" lon="7.16929">
        <ele>568.3</ele>
        <time>2026-03-15T11:26:59Z</time>
      </trkpt>
      <trkpt lat="48.49777" lon="7.16935">
        <ele>568.7</ele>
        <time>2026-03-15T11:27:04Z</time>
      </trkpt>
      <trkpt lat="48.49781" lon="7.1694">
        <ele>569</ele>
        <time>2026-03-15T11:27:09Z</time>
      </trkpt>
      <trkpt lat="48.49784" lon="7.16947">
        <ele>568.2</ele>
        <time>2026-03-15T11:27:14Z</time>
      </trkpt>
      <trkpt lat="48.49789" lon="7.1695">
        <ele>569.4</ele>
        <time>2026-03-15T11:27:19Z</time>
      </trkpt>
      <trkpt lat="48.49793" lon="7.16955">
        <ele>569.5</ele>
        <time>2026-03-15T11:27:24Z</time>
      </trkpt>
      <trkpt lat="48.49797" lon="7.16959">
        <ele>570</ele>
        <time>2026-03-15T11:27:29Z</time>
      </trkpt>
      <trkpt lat="48.49799" lon="7.16966">
        <ele>568.6</ele>
        <time>2026-03-15T11:27:34Z</time>
      </trkpt>
      <trkpt lat="48.498" lon="7.16974">
        <ele>566.6</ele>
        <time>2026-03-15T11:27:39Z</time>
      </trkpt>
      <trkpt lat="48.49802" lon="7.16982">
        <ele>564.9</ele>
        <time>2026-03-15T11:27:44Z</time>
      </trkpt>
      <trkpt lat="48.49803" lon="7.16989">
        <ele>563.1</ele>
        <time>2026-03-15T11:27:49Z</time>
      </trkpt>
      <trkpt lat="48.49806" lon="7.16996">
        <ele>562.1</ele>
        <time>2026-03-15T11:27:54Z</time>
      </trkpt>
      <trkpt lat="48.49808" lon="7.17">
        <ele>561.6</ele>
        <time>2026-03-15T11:27:59Z</time>
      </trkpt>
      <trkpt lat="48.49811" lon="7.17004">
        <ele>562</ele>
        <time>2026-03-15T11:28:04Z</time>
      </trkpt>
      <trkpt lat="48.49816" lon="7.17009">
        <ele>562.8</ele>
        <time>2026-03-15T11:28:09Z</time>
      </trkpt>
      <trkpt lat="48.49822" lon="7.17014">
        <ele>563.8</ele>
        <time>2026-03-15T11:28:14Z</time>
      </trkpt>
      <trkpt lat="48.49827" lon="7.17018">
        <ele>564.5</ele>
        <time>2026-03-15T11:28:19Z</time>
      </trkpt>
      <trkpt lat="48.49831" lon="7.17023">
        <ele>564.5</ele>
        <time>2026-03-15T11:28:24Z</time>
      </trkpt>
      <trkpt lat="48.49837" lon="7.17028">
        <ele>565.2</ele>
        <time>2026-03-15T11:28:29Z</time>
      </trkpt>
      <trkpt lat="48.49843" lon="7.17033">
        <ele>566.1</ele>
        <time>2026-03-15T11:28:34Z</time>
      </trkpt>
      <trkpt lat="48.49848" lon="7.17041">
        <ele>565.7</ele>
        <time>2026-03-15T11:28:39Z</time>
      </trkpt>
      <trkpt lat="48.49852" lon="7.1705">
        <ele>564.7</ele>
        <time>2026-03-15T11:28:44Z</time>
      </trkpt>
      <trkpt lat="48.49855" lon="7.17061">
        <ele>562.7</ele>
        <time>2026-03-15T11:28:49Z</time>
      </trkpt>
      <trkpt lat="48.49857" lon="7.17064">
        <ele>562.6</ele>
        <time>2026-03-15T11:28:54Z</time>
      </trkpt>
      <trkpt lat="48.4986" lon="7.17067">
        <ele>562.7</ele>
        <time>2026-03-15T11:28:59Z</time>
      </trkpt>
      <trkpt lat="48.4986" lon="7.17068">
        <ele>562.5</ele>
        <time>2026-03-15T11:29:04Z</time>
      </trkpt>
      <trkpt lat="48.49864" lon="7.17073">
        <ele>562.4</ele>
        <time>2026-03-15T11:29:09Z</time>
      </trkpt>
      <trkpt lat="48.49867" lon="7.17076">
        <ele>562.5</ele>
        <time>2026-03-15T11:29:14Z</time>
      </trkpt>
      <trkpt lat="48.4987" lon="7.17078">
        <ele>562.9</ele>
        <time>2026-03-15T11:29:19Z</time>
      </trkpt>
      <trkpt lat="48.49874" lon="7.17082">
        <ele>563.1</ele>
        <time>2026-03-15T11:29:24Z</time>
      </trkpt>
      <trkpt lat="48.49881" lon="7.17088">
        <ele>564.4</ele>
        <time>2026-03-15T11:29:29Z</time>
      </trkpt>
      <trkpt lat="48.49885" lon="7.17094">
        <ele>564.8</ele>
        <time>2026-03-15T11:29:34Z</time>
      </trkpt>
      <trkpt lat="48.4989" lon="7.17101">
        <ele>565.3</ele>
        <time>2026-03-15T11:29:39Z</time>
      </trkpt>
      <trkpt lat="48.49894" lon="7.17107">
        <ele>565.4</ele>
        <time>2026-03-15T11:29:44Z</time>
      </trkpt>
      <trkpt lat="48.49897" lon="7.17112">
        <ele>565.4</ele>
        <time>2026-03-15T11:29:49Z</time>
      </trkpt>
      <trkpt lat="48.49901" lon="7.1712">
        <ele>564.9</ele>
        <time>2026-03-15T11:29:54Z</time>
      </trkpt>
      <trkpt lat="48.49905" lon="7.17126">
        <ele>564.6</ele>
        <time>2026-03-15T11:29:59Z</time>
      </trkpt>
      <trkpt lat="48.49907" lon="7.17134">
        <ele>563.5</ele>
        <time>2026-03-15T11:30:04Z</time>
      </trkpt>
      <trkpt lat="48.49912" lon="7.17139">
        <ele>563.3</ele>
        <time>2026-03-15T11:30:09Z</time>
      </trkpt>
      <trkpt lat="48.49918" lon="7.17146">
        <ele>562.9</ele>
        <time>2026-03-15T11:30:14Z</time>
      </trkpt>
      <trkpt lat="48.49922" lon="7.17152">
        <ele>562.7</ele>
        <time>2026-03-15T11:30:19Z</time>
      </trkpt>
      <trkpt lat="48.49925" lon="7.17159">
        <ele>562.1</ele>
        <time>2026-03-15T11:30:24Z</time>
      </trkpt>
      <trkpt lat="48.4993" lon="7.17165">
        <ele>562.2</ele>
        <time>2026-03-15T11:30:29Z</time>
      </trkpt>
      <trkpt lat="48.49935" lon="7.17171">
        <ele>563.5</ele>
        <time>2026-03-15T11:30:34Z</time>
      </trkpt>
      <trkpt lat="48.49939" lon="7.17179">
        <ele>564.7</ele>
        <time>2026-03-15T11:30:39Z</time>
      </trkpt>
      <trkpt lat="48.49944" lon="7.17184">
        <ele>566</ele>
        <time>2026-03-15T11:30:44Z</time>
      </trkpt>
      <trkpt lat="48.49951" lon="7.17188">
        <ele>567.4</ele>
        <time>2026-03-15T11:30:49Z</time>
      </trkpt>
      <trkpt lat="48.49957" lon="7.17195">
        <ele>568.4</ele>
        <time>2026-03-15T11:30:54Z</time>
      </trkpt>
      <trkpt lat="48.49962" lon="7.17202">
        <ele>568.9</ele>
        <time>2026-03-15T11:30:59Z</time>
      </trkpt>
      <trkpt lat="48.49966" lon="7.17211">
        <ele>568.8</ele>
        <time>2026-03-15T11:31:04Z</time>
      </trkpt>
      <trkpt lat="48.4997" lon="7.17217">
        <ele>568.7</ele>
        <time>2026-03-15T11:31:09Z</time>
      </trkpt>
      <trkpt lat="48.49974" lon="7.17224">
        <ele>568.4</ele>
        <time>2026-03-15T11:31:14Z</time>
      </trkpt>
      <trkpt lat="48.49977" lon="7.17227">
        <ele>568.3</ele>
        <time>2026-03-15T11:31:19Z</time>
      </trkpt>
      <trkpt lat="48.49978" lon="7.17234">
        <ele>567.5</ele>
        <time>2026-03-15T11:31:24Z</time>
      </trkpt>
      <trkpt lat="48.49981" lon="7.17241">
        <ele>566.7</ele>
        <time>2026-03-15T11:31:29Z</time>
      </trkpt>
      <trkpt lat="48.49985" lon="7.17247">
        <ele>565.8</ele>
        <time>2026-03-15T11:31:34Z</time>
      </trkpt>
      <trkpt lat="48.49986" lon="7.17255">
        <ele>566.2</ele>
        <time>2026-03-15T11:31:39Z</time>
      </trkpt>
      <trkpt lat="48.49988" lon="7.17261">
        <ele>567.1</ele>
        <time>2026-03-15T11:31:44Z</time>
      </trkpt>
      <trkpt lat="48.49992" lon="7.17262">
        <ele>567.1</ele>
        <time>2026-03-15T11:31:49Z</time>
      </trkpt>
      <trkpt lat="48.49995" lon="7.17267">
        <ele>567.7</ele>
        <time>2026-03-15T11:31:54Z</time>
      </trkpt>
      <trkpt lat="48.49998" lon="7.17273">
        <ele>568.4</ele>
        <time>2026-03-15T11:31:59Z</time>
      </trkpt>
      <trkpt lat="48.50002" lon="7.1728">
        <ele>569.6</ele>
        <time>2026-03-15T11:32:04Z</time>
      </trkpt>
      <trkpt lat="48.50004" lon="7.17289">
        <ele>571.1</ele>
        <time>2026-03-15T11:32:09Z</time>
      </trkpt>
      <trkpt lat="48.50001" lon="7.17291">
        <ele>571</ele>
        <time>2026-03-15T11:32:14Z</time>
      </trkpt>
      <trkpt lat="48.49993" lon="7.17288">
        <ele>571.1</ele>
        <time>2026-03-15T11:32:19Z</time>
      </trkpt>
      <trkpt lat="48.49986" lon="7.17283">
        <ele>570.8</ele>
        <time>2026-03-15T11:32:24Z</time>
      </trkpt>
      <trkpt lat="48.49982" lon="7.17278">
        <ele>570.3</ele>
        <time>2026-03-15T11:32:29Z</time>
      </trkpt>
      <trkpt lat="48.49976" lon="7.17275">
        <ele>570.1</ele>
        <time>2026-03-15T11:32:34Z</time>
      </trkpt>
      <trkpt lat="48.4997" lon="7.17273">
        <ele>570.1</ele>
        <time>2026-03-15T11:32:39Z</time>
      </trkpt>
      <trkpt lat="48.49965" lon="7.17273">
        <ele>570.4</ele>
        <time>2026-03-15T11:32:44Z</time>
      </trkpt>
      <trkpt lat="48.49959" lon="7.17271">
        <ele>570.4</ele>
        <time>2026-03-15T11:32:49Z</time>
      </trkpt>
      <trkpt lat="48.49954" lon="7.1727">
        <ele>570.4</ele>
        <time>2026-03-15T11:32:54Z</time>
      </trkpt>
      <trkpt lat="48.4995" lon="7.17266">
        <ele>569.8</ele>
        <time>2026-03-15T11:32:59Z</time>
      </trkpt>
      <trkpt lat="48.49945" lon="7.17266">
        <ele>570</ele>
        <time>2026-03-15T11:33:04Z</time>
      </trkpt>
      <trkpt lat="48.49942" lon="7.17265">
        <ele>569.9</ele>
        <time>2026-03-15T11:33:09Z</time>
      </trkpt>
      <trkpt lat="48.49939" lon="7.17263">
        <ele>569.6</ele>
        <time>2026-03-15T11:33:14Z</time>
      </trkpt>
      <trkpt lat="48.49939" lon="7.17258">
        <ele>568.4</ele>
        <time>2026-03-15T11:33:19Z</time>
      </trkpt>
      <trkpt lat="48.49935" lon="7.17255">
        <ele>567.8</ele>
        <time>2026-03-15T11:33:24Z</time>
      </trkpt>
      <trkpt lat="48.4993" lon="7.17253">
        <ele>567.4</ele>
        <time>2026-03-15T11:33:29Z</time>
      </trkpt>
      <trkpt lat="48.49925" lon="7.17249">
        <ele>566.7</ele>
        <time>2026-03-15T11:33:34Z</time>
      </trkpt>
      <trkpt lat="48.49923" lon="7.17244">
        <ele>566.3</ele>
        <time>2026-03-15T11:33:39Z</time>
      </trkpt>
      <trkpt lat="48.49919" lon="7.17241">
        <ele>566.1</ele>
        <time>2026-03-15T11:33:44Z</time>
      </trkpt>
      <trkpt lat="48.49914" lon="7.17235">
        <ele>565.7</ele>
        <time>2026-03-15T11:33:49Z</time>
      </trkpt>
      <trkpt lat="48.49907" lon="7.17232">
        <ele>566.2</ele>
        <time>2026-03-15T11:33:54Z</time>
      </trkpt>
      <trkpt lat="48.49902" lon="7.17235">
        <ele>567.2</ele>
        <time>2026-03-15T11:33:59Z</time>
      </trkpt>
      <trkpt lat="48.499" lon="7.17239">
        <ele>568.1</ele>
        <time>2026-03-15T11:34:04Z</time>
      </trkpt>
      <trkpt lat="48.49897" lon="7.17241">
        <ele>568.8</ele>
        <time>2026-03-15T11:34:09Z</time>
      </trkpt>
      <trkpt lat="48.49894" lon="7.17242">
        <ele>569.4</ele>
        <time>2026-03-15T11:34:14Z</time>
      </trkpt>
      <trkpt lat="48.49892" lon="7.1725">
        <ele>571.1</ele>
        <time>2026-03-15T11:34:19Z</time>
      </trkpt>
      <trkpt lat="48.4989" lon="7.17252">
        <ele>572.1</ele>
        <time>2026-03-15T11:34:24Z</time>
      </trkpt>
      <trkpt lat="48.49886" lon="7.1725">
        <ele>572.2</ele>
        <time>2026-03-15T11:34:29Z</time>
      </trkpt>
      <trkpt lat="48.49881" lon="7.17252">
        <ele>573.6</ele>
        <time>2026-03-15T11:34:34Z</time>
      </trkpt>
      <trkpt lat="48.49877" lon="7.1726">
        <ele>576.6</ele>
        <time>2026-03-15T11:34:39Z</time>
      </trkpt>
      <trkpt lat="48.49872" lon="7.17272">
        <ele>581</ele>
        <time>2026-03-15T11:34:44Z</time>
      </trkpt>
      <trkpt lat="48.49868" lon="7.17273">
        <ele>582</ele>
        <time>2026-03-15T11:34:49Z</time>
      </trkpt>
      <trkpt lat="48.49866" lon="7.17267">
        <ele>580.6</ele>
        <time>2026-03-15T11:34:54Z</time>
      </trkpt>
      <trkpt lat="48.49863" lon="7.17262">
        <ele>579.6</ele>
        <time>2026-03-15T11:34:59Z</time>
      </trkpt>
      <trkpt lat="48.4986" lon="7.17258">
        <ele>578.9</ele>
        <time>2026-03-15T11:35:04Z</time>
      </trkpt>
      <trkpt lat="48.49855" lon="7.17258">
        <ele>579.8</ele>
        <time>2026-03-15T11:35:09Z</time>
      </trkpt>
      <trkpt lat="48.49851" lon="7.17253">
        <ele>578.9</ele>
        <time>2026-03-15T11:35:14Z</time>
      </trkpt>
      <trkpt lat="48.49846" lon="7.1725">
        <ele>578.9</ele>
        <time>2026-03-15T11:35:19Z</time>
      </trkpt>
      <trkpt lat="48.4984" lon="7.17252">
        <ele>580.5</ele>
        <time>2026-03-15T11:35:24Z</time>
      </trkpt>
      <trkpt lat="48.49833" lon="7.17249">
        <ele>580.7</ele>
        <time>2026-03-15T11:35:29Z</time>
      </trkpt>
      <trkpt lat="48.49825" lon="7.17245">
        <ele>581</ele>
        <time>2026-03-15T11:35:34Z</time>
      </trkpt>
      <trkpt lat="48.49818" lon="7.1724">
        <ele>580.7</ele>
        <time>2026-03-15T11:35:39Z</time>
      </trkpt>
      <trkpt lat="48.49811" lon="7.17238">
        <ele>581.5</ele>
        <time>2026-03-15T11:35:44Z</time>
      </trkpt>
      <trkpt lat="48.49806" lon="7.17235">
        <ele>581.5</ele>
        <time>2026-03-15T11:35:49Z</time>
      </trkpt>
      <trkpt lat="48.49801" lon="7.17231">
        <ele>581.1</ele>
        <time>2026-03-15T11:35:54Z</time>
      </trkpt>
      <trkpt lat="48.49794" lon="7.17226">
        <ele>580.8</ele>
        <time>2026-03-15T11:35:59Z</time>
      </trkpt>
      <trkpt lat="48.49787" lon="7.17224">
        <ele>581.5</ele>
        <time>2026-03-15T11:36:04Z</time>
      </trkpt>
      <trkpt lat="48.49781" lon="7.17223">
        <ele>582.4</ele>
        <time>2026-03-15T11:36:09Z</time>
      </trkpt>
      <trkpt lat="48.49775" lon="7.1722">
        <ele>582.6</ele>
        <time>2026-03-15T11:36:14Z</time>
      </trkpt>
      <trkpt lat="48.49769" lon="7.17218">
        <ele>583.1</ele>
        <time>2026-03-15T11:36:19Z</time>
      </trkpt>
      <trkpt lat="48.49762" lon="7.17213">
        <ele>582.7</ele>
        <time>2026-03-15T11:36:24Z</time>
      </trkpt>
      <trkpt lat="48.49756" lon="7.1721">
        <ele>582.9</ele>
        <time>2026-03-15T11:36:29Z</time>
      </trkpt>
      <trkpt lat="48.49751" lon="7.17205">
        <ele>582.1</ele>
        <time>2026-03-15T11:36:34Z</time>
      </trkpt>
      <trkpt lat="48.49743" lon="7.17206">
        <ele>584.2</ele>
        <time>2026-03-15T11:36:39Z</time>
      </trkpt>
      <trkpt lat="48.49738" lon="7.17201">
        <ele>583.5</ele>
        <time>2026-03-15T11:36:44Z</time>
      </trkpt>
      <trkpt lat="48.49732" lon="7.17196">
        <ele>583.1</ele>
        <time>2026-03-15T11:36:49Z</time>
      </trkpt>
      <trkpt lat="48.49725" lon="7.1719">
        <ele>582.7</ele>
        <time>2026-03-15T11:36:54Z</time>
      </trkpt>
      <trkpt lat="48.4972" lon="7.17184">
        <ele>581.9</ele>
        <time>2026-03-15T11:36:59Z</time>
      </trkpt>
      <trkpt lat="48.49711" lon="7.17182">
        <ele>583.3</ele>
        <time>2026-03-15T11:37:04Z</time>
      </trkpt>
      <trkpt lat="48.49704" lon="7.17178">
        <ele>583.6</ele>
        <time>2026-03-15T11:37:09Z</time>
      </trkpt>
      <trkpt lat="48.497" lon="7.17178">
        <ele>584.5</ele>
        <time>2026-03-15T11:37:14Z</time>
      </trkpt>
      <trkpt lat="48.49696" lon="7.17173">
        <ele>583.9</ele>
        <time>2026-03-15T11:37:19Z</time>
      </trkpt>
      <trkpt lat="48.49689" lon="7.17164">
        <ele>582.8</ele>
        <time>2026-03-15T11:37:24Z</time>
      </trkpt>
      <trkpt lat="48.49683" lon="7.17159">
        <ele>582.6</ele>
        <time>2026-03-15T11:37:29Z</time>
      </trkpt>
      <trkpt lat="48.49678" lon="7.17155">
        <ele>582.5</ele>
        <time>2026-03-15T11:37:34Z</time>
      </trkpt>
      <trkpt lat="48.49673" lon="7.17148">
        <ele>581.5</ele>
        <time>2026-03-15T11:37:39Z</time>
      </trkpt>
      <trkpt lat="48.49664" lon="7.17144">
        <ele>582.1</ele>
        <time>2026-03-15T11:37:44Z</time>
      </trkpt>
      <trkpt lat="48.49658" lon="7.17142">
        <ele>582.5</ele>
        <time>2026-03-15T11:37:49Z</time>
      </trkpt>
      <trkpt lat="48.49651" lon="7.1714">
        <ele>583.1</ele>
        <time>2026-03-15T11:37:54Z</time>
      </trkpt>
      <trkpt lat="48.49644" lon="7.17136">
        <ele>583.1</ele>
        <time>2026-03-15T11:37:59Z</time>
      </trkpt>
      <trkpt lat="48.49637" lon="7.17129">
        <ele>582.2</ele>
        <time>2026-03-15T11:38:04Z</time>
      </trkpt>
      <trkpt lat="48.49631" lon="7.17123">
        <ele>581.5</ele>
        <time>2026-03-15T11:38:09Z</time>
      </trkpt>
      <trkpt lat="48.49624" lon="7.1712">
        <ele>582</ele>
        <time>2026-03-15T11:38:14Z</time>
      </trkpt>
      <trkpt lat="48.49618" lon="7.17111">
        <ele>580.5</ele>
        <time>2026-03-15T11:38:19Z</time>
      </trkpt>
      <trkpt lat="48.49609" lon="7.17107">
        <ele>581.1</ele>
        <time>2026-03-15T11:38:24Z</time>
      </trkpt>
      <trkpt lat="48.49603" lon="7.17105">
        <ele>581.8</ele>
        <time>2026-03-15T11:38:29Z</time>
      </trkpt>
      <trkpt lat="48.49598" lon="7.17103">
        <ele>582.2</ele>
        <time>2026-03-15T11:38:34Z</time>
      </trkpt>
      <trkpt lat="48.49592" lon="7.17101">
        <ele>582.9</ele>
        <time>2026-03-15T11:38:39Z</time>
      </trkpt>
      <trkpt lat="48.49584" lon="7.17099">
        <ele>584</ele>
        <time>2026-03-15T11:38:44Z</time>
      </trkpt>
      <trkpt lat="48.49576" lon="7.17098">
        <ele>585.1</ele>
        <time>2026-03-15T11:38:49Z</time>
      </trkpt>
      <trkpt lat="48.4957" lon="7.17094">
        <ele>585.1</ele>
        <time>2026-03-15T11:38:54Z</time>
      </trkpt>
      <trkpt lat="48.49562" lon="7.1709">
        <ele>585.5</ele>
        <time>2026-03-15T11:38:59Z</time>
      </trkpt>
      <trkpt lat="48.49558" lon="7.17088">
        <ele>585.7</ele>
        <time>2026-03-15T11:39:04Z</time>
      </trkpt>
      <trkpt lat="48.49551" lon="7.17085">
        <ele>586.2</ele>
        <time>2026-03-15T11:39:09Z</time>
      </trkpt>
      <trkpt lat="48.49546" lon="7.17082">
        <ele>586.3</ele>
        <time>2026-03-15T11:39:14Z</time>
      </trkpt>
      <trkpt lat="48.49539" lon="7.17079">
        <ele>586.8</ele>
        <time>2026-03-15T11:39:19Z</time>
      </trkpt>
      <trkpt lat="48.49533" lon="7.17076">
        <ele>587.1</ele>
        <time>2026-03-15T11:39:24Z</time>
      </trkpt>
      <trkpt lat="48.49528" lon="7.17074">
        <ele>587.5</ele>
        <time>2026-03-15T11:39:29Z</time>
      </trkpt>
      <trkpt lat="48.49522" lon="7.17073">
        <ele>588.4</ele>
        <time>2026-03-15T11:39:34Z</time>
      </trkpt>
      <trkpt lat="48.49517" lon="7.1707">
        <ele>588.6</ele>
        <time>2026-03-15T11:39:39Z</time>
      </trkpt>
      <trkpt lat="48.4951" lon="7.17066">
        <ele>589</ele>
        <time>2026-03-15T11:39:44Z</time>
      </trkpt>
      <trkpt lat="48.49502" lon="7.17067">
        <ele>590.9</ele>
        <time>2026-03-15T11:39:49Z</time>
      </trkpt>
      <trkpt lat="48.49498" lon="7.17064">
        <ele>591</ele>
        <time>2026-03-15T11:39:54Z</time>
      </trkpt>
      <trkpt lat="48.49493" lon="7.17062">
        <ele>591.6</ele>
        <time>2026-03-15T11:39:59Z</time>
      </trkpt>
      <trkpt lat="48.49485" lon="7.17059">
        <ele>592.6</ele>
        <time>2026-03-15T11:40:04Z</time>
      </trkpt>
      <trkpt lat="48.4948" lon="7.17057">
        <ele>593.3</ele>
        <time>2026-03-15T11:40:09Z</time>
      </trkpt>
      <trkpt lat="48.49473" lon="7.17052">
        <ele>593.8</ele>
        <time>2026-03-15T11:40:14Z</time>
      </trkpt>
      <trkpt lat="48.49465" lon="7.17048">
        <ele>594.7</ele>
        <time>2026-03-15T11:40:19Z</time>
      </trkpt>
      <trkpt lat="48.49459" lon="7.17043">
        <ele>595.1</ele>
        <time>2026-03-15T11:40:24Z</time>
      </trkpt>
      <trkpt lat="48.49457" lon="7.17038">
        <ele>594.6</ele>
        <time>2026-03-15T11:40:29Z</time>
      </trkpt>
      <trkpt lat="48.49451" lon="7.17031">
        <ele>594.7</ele>
        <time>2026-03-15T11:40:34Z</time>
      </trkpt>
      <trkpt lat="48.49443" lon="7.17021">
        <ele>594.8</ele>
        <time>2026-03-15T11:40:39Z</time>
      </trkpt>
      <trkpt lat="48.49436" lon="7.17012">
        <ele>595</ele>
        <time>2026-03-15T11:40:44Z</time>
      </trkpt>
      <trkpt lat="48.49429" lon="7.17009">
        <ele>596.2</ele>
        <time>2026-03-15T11:40:49Z</time>
      </trkpt>
      <trkpt lat="48.49423" lon="7.17001">
        <ele>596.5</ele>
        <time>2026-03-15T11:40:54Z</time>
      </trkpt>
      <trkpt lat="48.49417" lon="7.16992">
        <ele>596.2</ele>
        <time>2026-03-15T11:40:59Z</time>
      </trkpt>
      <trkpt lat="48.4941" lon="7.16985">
        <ele>596.3</ele>
        <time>2026-03-15T11:41:04Z</time>
      </trkpt>
      <trkpt lat="48.49406" lon="7.16979">
        <ele>596</ele>
        <time>2026-03-15T11:41:09Z</time>
      </trkpt>
      <trkpt lat="48.494" lon="7.16975">
        <ele>596.6</ele>
        <time>2026-03-15T11:41:14Z</time>
      </trkpt>
      <trkpt lat="48.49394" lon="7.16967">
        <ele>596.5</ele>
        <time>2026-03-15T11:41:19Z</time>
      </trkpt>
      <trkpt lat="48.49389" lon="7.16958">
        <ele>596.1</ele>
        <time>2026-03-15T11:41:24Z</time>
      </trkpt>
      <trkpt lat="48.49385" lon="7.16952">
        <ele>596</ele>
        <time>2026-03-15T11:41:29Z</time>
      </trkpt>
      <trkpt lat="48.4938" lon="7.16947">
        <ele>596.4</ele>
        <time>2026-03-15T11:41:34Z</time>
      </trkpt>
      <trkpt lat="48.49379" lon="7.1694">
        <ele>595.5</ele>
        <time>2026-03-15T11:41:39Z</time>
      </trkpt>
      <trkpt lat="48.49375" lon="7.16935">
        <ele>595.7</ele>
        <time>2026-03-15T11:41:44Z</time>
      </trkpt>
      <trkpt lat="48.4937" lon="7.16931">
        <ele>596.4</ele>
        <time>2026-03-15T11:41:49Z</time>
      </trkpt>
      <trkpt lat="48.49366" lon="7.16926">
        <ele>596.7</ele>
        <time>2026-03-15T11:41:54Z</time>
      </trkpt>
      <trkpt lat="48.49362" lon="7.16921">
        <ele>597.1</ele>
        <time>2026-03-15T11:41:59Z</time>
      </trkpt>
      <trkpt lat="48.49358" lon="7.16917">
        <ele>597.7</ele>
        <time>2026-03-15T11:42:04Z</time>
      </trkpt>
      <trkpt lat="48.49354" lon="7.16909">
        <ele>597.3</ele>
        <time>2026-03-15T11:42:09Z</time>
      </trkpt>
      <trkpt lat="48.49348" lon="7.16902">
        <ele>598</ele>
        <time>2026-03-15T11:42:14Z</time>
      </trkpt>
      <trkpt lat="48.49344" lon="7.16895">
        <ele>598.1</ele>
        <time>2026-03-15T11:42:19Z</time>
      </trkpt>
      <trkpt lat="48.49342" lon="7.16889">
        <ele>597.9</ele>
        <time>2026-03-15T11:42:24Z</time>
      </trkpt>
      <trkpt lat="48.49341" lon="7.16883">
        <ele>597.3</ele>
        <time>2026-03-15T11:42:29Z</time>
      </trkpt>
      <trkpt lat="48.49341" lon="7.16879">
        <ele>596.6</ele>
        <time>2026-03-15T11:42:34Z</time>
      </trkpt>
      <trkpt lat="48.4934" lon="7.16873">
        <ele>596</ele>
        <time>2026-03-15T11:42:39Z</time>
      </trkpt>
      <trkpt lat="48.4934" lon="7.16868">
        <ele>595.2</ele>
        <time>2026-03-15T11:42:44Z</time>
      </trkpt>
      <trkpt lat="48.4934" lon="7.16865">
        <ele>594.8</ele>
        <time>2026-03-15T11:42:49Z</time>
      </trkpt>
      <trkpt lat="48.49339" lon="7.16854">
        <ele>593.5</ele>
        <time>2026-03-15T11:42:54Z</time>
      </trkpt>
      <trkpt lat="48.49337" lon="7.16846">
        <ele>593.1</ele>
        <time>2026-03-15T11:42:59Z</time>
      </trkpt>
      <trkpt lat="48.49335" lon="7.16835">
        <ele>592.4</ele>
        <time>2026-03-15T11:43:04Z</time>
      </trkpt>
      <trkpt lat="48.49333" lon="7.16823">
        <ele>589.2</ele>
        <time>2026-03-15T11:43:09Z</time>
      </trkpt>
      <trkpt lat="48.49332" lon="7.16814">
        <ele>586.1</ele>
        <time>2026-03-15T11:43:14Z</time>
      </trkpt>
      <trkpt lat="48.49331" lon="7.16808">
        <ele>584.1</ele>
        <time>2026-03-15T11:43:19Z</time>
      </trkpt>
      <trkpt lat="48.4933" lon="7.16803">
        <ele>582.6</ele>
        <time>2026-03-15T11:43:24Z</time>
      </trkpt>
      <trkpt lat="48.49329" lon="7.16796">
        <ele>580.3</ele>
        <time>2026-03-15T11:43:29Z</time>
      </trkpt>
      <trkpt lat="48.49331" lon="7.16787">
        <ele>576.4</ele>
        <time>2026-03-15T11:43:34Z</time>
      </trkpt>
      <trkpt lat="48.49332" lon="7.1678">
        <ele>573.5</ele>
        <time>2026-03-15T11:43:39Z</time>
      </trkpt>
      <trkpt lat="48.49332" lon="7.16771">
        <ele>570.2</ele>
        <time>2026-03-15T11:43:44Z</time>
      </trkpt>
      <trkpt lat="48.4933" lon="7.16762">
        <ele>567.5</ele>
        <time>2026-03-15T11:43:49Z</time>
      </trkpt>
      <trkpt lat="48.49328" lon="7.16757">
        <ele>566.3</ele>
        <time>2026-03-15T11:43:54Z</time>
      </trkpt>
      <trkpt lat="48.49327" lon="7.16749">
        <ele>563.9</ele>
        <time>2026-03-15T11:43:59Z</time>
      </trkpt>
      <trkpt lat="48.49325" lon="7.1674">
        <ele>562.3</ele>
        <time>2026-03-15T11:44:04Z</time>
      </trkpt>
      <trkpt lat="48.49324" lon="7.16731">
        <ele>560.4</ele>
        <time>2026-03-15T11:44:09Z</time>
      </trkpt>
      <trkpt lat="48.49321" lon="7.16722">
        <ele>559.1</ele>
        <time>2026-03-15T11:44:14Z</time>
      </trkpt>
      <trkpt lat="48.4932" lon="7.16714">
        <ele>557.5</ele>
        <time>2026-03-15T11:44:19Z</time>
      </trkpt>
      <trkpt lat="48.49318" lon="7.16707">
        <ele>556.4</ele>
        <time>2026-03-15T11:44:24Z</time>
      </trkpt>
      <trkpt lat="48.49314" lon="7.16699">
        <ele>555.8</ele>
        <time>2026-03-15T11:44:29Z</time>
      </trkpt>
      <trkpt lat="48.49309" lon="7.16689">
        <ele>555</ele>
        <time>2026-03-15T11:44:34Z</time>
      </trkpt>
      <trkpt lat="48.49304" lon="7.16679">
        <ele>554.3</ele>
        <time>2026-03-15T11:44:39Z</time>
      </trkpt>
      <trkpt lat="48.49303" lon="7.16672">
        <ele>552.9</ele>
        <time>2026-03-15T11:44:44Z</time>
      </trkpt>
      <trkpt lat="48.49302" lon="7.16662">
        <ele>551.1</ele>
        <time>2026-03-15T11:44:49Z</time>
      </trkpt>
      <trkpt lat="48.493" lon="7.16652">
        <ele>550.1</ele>
        <time>2026-03-15T11:44:54Z</time>
      </trkpt>
      <trkpt lat="48.49297" lon="7.16642">
        <ele>549.4</ele>
        <time>2026-03-15T11:44:59Z</time>
      </trkpt>
      <trkpt lat="48.49295" lon="7.16632">
        <ele>548.4</ele>
        <time>2026-03-15T11:45:04Z</time>
      </trkpt>
      <trkpt lat="48.49292" lon="7.16626">
        <ele>548.3</ele>
        <time>2026-03-15T11:45:09Z</time>
      </trkpt>
      <trkpt lat="48.49287" lon="7.16617">
        <ele>548.4</ele>
        <time>2026-03-15T11:45:14Z</time>
      </trkpt>
      <trkpt lat="48.49282" lon="7.16605">
        <ele>547.9</ele>
        <time>2026-03-15T11:45:19Z</time>
      </trkpt>
      <trkpt lat="48.49278" lon="7.16595">
        <ele>547.4</ele>
        <time>2026-03-15T11:45:24Z</time>
      </trkpt>
      <trkpt lat="48.49275" lon="7.16587">
        <ele>546.9</ele>
        <time>2026-03-15T11:45:29Z</time>
      </trkpt>
      <trkpt lat="48.49275" lon="7.16579">
        <ele>545.3</ele>
        <time>2026-03-15T11:45:34Z</time>
      </trkpt>
      <trkpt lat="48.49274" lon="7.1657">
        <ele>543.8</ele>
        <time>2026-03-15T11:45:39Z</time>
      </trkpt>
      <trkpt lat="48.49272" lon="7.16559">
        <ele>542.1</ele>
        <time>2026-03-15T11:45:44Z</time>
      </trkpt>
      <trkpt lat="48.49272" lon="7.16552">
        <ele>540.6</ele>
        <time>2026-03-15T11:45:49Z</time>
      </trkpt>
      <trkpt lat="48.49271" lon="7.16543">
        <ele>539</ele>
        <time>2026-03-15T11:45:54Z</time>
      </trkpt>
      <trkpt lat="48.49269" lon="7.16535">
        <ele>537.8</ele>
        <time>2026-03-15T11:45:59Z</time>
      </trkpt>
      <trkpt lat="48.49265" lon="7.16524">
        <ele>536.4</ele>
        <time>2026-03-15T11:46:04Z</time>
      </trkpt>
      <trkpt lat="48.4926" lon="7.16511">
        <ele>534.6</ele>
        <time>2026-03-15T11:46:09Z</time>
      </trkpt>
      <trkpt lat="48.49256" lon="7.16502">
        <ele>533.3</ele>
        <time>2026-03-15T11:46:14Z</time>
      </trkpt>
      <trkpt lat="48.49253" lon="7.165">
        <ele>533.4</ele>
        <time>2026-03-15T11:46:19Z</time>
      </trkpt>
      <trkpt lat="48.4925" lon="7.16498">
        <ele>533.4</ele>
        <time>2026-03-15T11:46:24Z</time>
      </trkpt>
      <trkpt lat="48.49246" lon="7.1649">
        <ele>531.4</ele>
        <time>2026-03-15T11:46:29Z</time>
      </trkpt>
      <trkpt lat="48.49242" lon="7.16484">
        <ele>529.9</ele>
        <time>2026-03-15T11:46:34Z</time>
      </trkpt>
      <trkpt lat="48.49242" lon="7.16474">
        <ele>527.1</ele>
        <time>2026-03-15T11:46:39Z</time>
      </trkpt>
      <trkpt lat="48.49239" lon="7.16468">
        <ele>525.5</ele>
        <time>2026-03-15T11:46:44Z</time>
      </trkpt>
      <trkpt lat="48.49235" lon="7.16463">
        <ele>524.1</ele>
        <time>2026-03-15T11:46:49Z</time>
      </trkpt>
      <trkpt lat="48.49231" lon="7.16458">
        <ele>522.7</ele>
        <time>2026-03-15T11:46:54Z</time>
      </trkpt>
      <trkpt lat="48.49227" lon="7.16449">
        <ele>520.1</ele>
        <time>2026-03-15T11:46:59Z</time>
      </trkpt>
      <trkpt lat="48.49223" lon="7.16442">
        <ele>518</ele>
        <time>2026-03-15T11:47:04Z</time>
      </trkpt>
      <trkpt lat="48.49215" lon="7.16431">
        <ele>514.6</ele>
        <time>2026-03-15T11:47:09Z</time>
      </trkpt>
      <trkpt lat="48.4921" lon="7.16419">
        <ele>510.8</ele>
        <time>2026-03-15T11:47:14Z</time>
      </trkpt>
      <trkpt lat="48.49208" lon="7.16408">
        <ele>507.7</ele>
        <time>2026-03-15T11:47:19Z</time>
      </trkpt>
      <trkpt lat="48.49204" lon="7.16402">
        <ele>505.9</ele>
        <time>2026-03-15T11:47:24Z</time>
      </trkpt>
      <trkpt lat="48.49202" lon="7.16397">
        <ele>504.5</ele>
        <time>2026-03-15T11:47:29Z</time>
      </trkpt>
      <trkpt lat="48.49195" lon="7.16394">
        <ele>503.5</ele>
        <time>2026-03-15T11:47:34Z</time>
      </trkpt>
      <trkpt lat="48.49191" lon="7.16391">
        <ele>502.6</ele>
        <time>2026-03-15T11:47:39Z</time>
      </trkpt>
      <trkpt lat="48.49187" lon="7.16388">
        <ele>501.7</ele>
        <time>2026-03-15T11:47:44Z</time>
      </trkpt>
      <trkpt lat="48.49183" lon="7.16386">
        <ele>501</ele>
        <time>2026-03-15T11:47:49Z</time>
      </trkpt>
      <trkpt lat="48.49176" lon="7.16386">
        <ele>500.8</ele>
        <time>2026-03-15T11:47:54Z</time>
      </trkpt>
      <trkpt lat="48.49172" lon="7.16384">
        <ele>500.1</ele>
        <time>2026-03-15T11:47:59Z</time>
      </trkpt>
      <trkpt lat="48.49165" lon="7.16385">
        <ele>500.2</ele>
        <time>2026-03-15T11:48:04Z</time>
      </trkpt>
      <trkpt lat="48.49158" lon="7.16388">
        <ele>501</ele>
        <time>2026-03-15T11:48:09Z</time>
      </trkpt>
      <trkpt lat="48.49152" lon="7.16389">
        <ele>501.2</ele>
        <time>2026-03-15T11:48:14Z</time>
      </trkpt>
      <trkpt lat="48.49143" lon="7.1639">
        <ele>501.5</ele>
        <time>2026-03-15T11:48:19Z</time>
      </trkpt>
      <trkpt lat="48.49136" lon="7.1639">
        <ele>501.4</ele>
        <time>2026-03-15T11:48:24Z</time>
      </trkpt>
      <trkpt lat="48.4913" lon="7.1639">
        <ele>501.4</ele>
        <time>2026-03-15T11:48:29Z</time>
      </trkpt>
      <trkpt lat="48.49124" lon="7.1639">
        <ele>501.4</ele>
        <time>2026-03-15T11:48:34Z</time>
      </trkpt>
      <trkpt lat="48.49117" lon="7.16388">
        <ele>500.6</ele>
        <time>2026-03-15T11:48:39Z</time>
      </trkpt>
      <trkpt lat="48.4911" lon="7.16389">
        <ele>500.9</ele>
        <time>2026-03-15T11:48:44Z</time>
      </trkpt>
      <trkpt lat="48.49103" lon="7.16388">
        <ele>500.5</ele>
        <time>2026-03-15T11:48:49Z</time>
      </trkpt>
      <trkpt lat="48.49094" lon="7.16384">
        <ele>499</ele>
        <time>2026-03-15T11:48:54Z</time>
      </trkpt>
      <trkpt lat="48.49087" lon="7.16379">
        <ele>497.1</ele>
        <time>2026-03-15T11:48:59Z</time>
      </trkpt>
      <trkpt lat="48.49079" lon="7.16378">
        <ele>495.8</ele>
        <time>2026-03-15T11:49:04Z</time>
      </trkpt>
      <trkpt lat="48.49072" lon="7.16375">
        <ele>493.3</ele>
        <time>2026-03-15T11:49:09Z</time>
      </trkpt>
      <trkpt lat="48.49062" lon="7.16375">
        <ele>491.3</ele>
        <time>2026-03-15T11:49:14Z</time>
      </trkpt>
      <trkpt lat="48.49055" lon="7.16374">
        <ele>489.5</ele>
        <time>2026-03-15T11:49:19Z</time>
      </trkpt>
      <trkpt lat="48.49052" lon="7.16371">
        <ele>487.9</ele>
        <time>2026-03-15T11:49:24Z</time>
      </trkpt>
      <trkpt lat="48.49047" lon="7.16373">
        <ele>487.6</ele>
        <time>2026-03-15T11:49:29Z</time>
      </trkpt>
      <trkpt lat="48.49042" lon="7.16373">
        <ele>486.6</ele>
        <time>2026-03-15T11:49:34Z</time>
      </trkpt>
      <trkpt lat="48.49034" lon="7.16372">
        <ele>484.7</ele>
        <time>2026-03-15T11:49:39Z</time>
      </trkpt>
      <trkpt lat="48.49029" lon="7.16371">
        <ele>483.3</ele>
        <time>2026-03-15T11:49:44Z</time>
      </trkpt>
      <trkpt lat="48.49023" lon="7.16371">
        <ele>482.2</ele>
        <time>2026-03-15T11:49:49Z</time>
      </trkpt>
      <trkpt lat="48.49016" lon="7.16373">
        <ele>481.5</ele>
        <time>2026-03-15T11:49:54Z</time>
      </trkpt>
      <trkpt lat="48.4901" lon="7.16375">
        <ele>481</ele>
        <time>2026-03-15T11:49:59Z</time>
      </trkpt>
      <trkpt lat="48.49003" lon="7.16378">
        <ele>480.6</ele>
        <time>2026-03-15T11:50:04Z</time>
      </trkpt>
      <trkpt lat="48.48995" lon="7.16379">
        <ele>478.7</ele>
        <time>2026-03-15T11:50:09Z</time>
      </trkpt>
      <trkpt lat="48.48987" lon="7.16383">
        <ele>477.3</ele>
        <time>2026-03-15T11:50:14Z</time>
      </trkpt>
      <trkpt lat="48.48979" lon="7.16386">
        <ele>475.5</ele>
        <time>2026-03-15T11:50:19Z</time>
      </trkpt>
      <trkpt lat="48.48971" lon="7.16389">
        <ele>473.6</ele>
        <time>2026-03-15T11:50:24Z</time>
      </trkpt>
      <trkpt lat="48.48964" lon="7.16393">
        <ele>472.3</ele>
        <time>2026-03-15T11:50:29Z</time>
      </trkpt>
      <trkpt lat="48.48961" lon="7.16395">
        <ele>471.7</ele>
        <time>2026-03-15T11:50:34Z</time>
      </trkpt>
      <trkpt lat="48.48956" lon="7.16395">
        <ele>469.9</ele>
        <time>2026-03-15T11:50:39Z</time>
      </trkpt>
      <trkpt lat="48.48952" lon="7.16401">
        <ele>470</ele>
        <time>2026-03-15T11:50:44Z</time>
      </trkpt>
      <trkpt lat="48.48947" lon="7.16412">
        <ele>470.9</ele>
        <time>2026-03-15T11:50:49Z</time>
      </trkpt>
      <trkpt lat="48.48938" lon="7.16415">
        <ele>468.1</ele>
        <time>2026-03-15T11:50:54Z</time>
      </trkpt>
      <trkpt lat="48.48928" lon="7.16417">
        <ele>464.6</ele>
        <time>2026-03-15T11:50:59Z</time>
      </trkpt>
      <trkpt lat="48.4892" lon="7.1642">
        <ele>462.3</ele>
        <time>2026-03-15T11:51:04Z</time>
      </trkpt>
      <trkpt lat="48.48914" lon="7.16425">
        <ele>461.9</ele>
        <time>2026-03-15T11:51:09Z</time>
      </trkpt>
      <trkpt lat="48.48907" lon="7.1643">
        <ele>461.7</ele>
        <time>2026-03-15T11:51:14Z</time>
      </trkpt>
      <trkpt lat="48.48902" lon="7.16436">
        <ele>462.2</ele>
        <time>2026-03-15T11:51:19Z</time>
      </trkpt>
      <trkpt lat="48.48898" lon="7.16442">
        <ele>462.9</ele>
        <time>2026-03-15T11:51:24Z</time>
      </trkpt>
      <trkpt lat="48.48893" lon="7.16448">
        <ele>463.4</ele>
        <time>2026-03-15T11:51:29Z</time>
      </trkpt>
      <trkpt lat="48.48888" lon="7.16454">
        <ele>463.7</ele>
        <time>2026-03-15T11:51:34Z</time>
      </trkpt>
      <trkpt lat="48.48882" lon="7.1646">
        <ele>463.8</ele>
        <time>2026-03-15T11:51:39Z</time>
      </trkpt>
      <trkpt lat="48.48879" lon="7.16466">
        <ele>464.6</ele>
        <time>2026-03-15T11:51:44Z</time>
      </trkpt>
      <trkpt lat="48.48874" lon="7.16472">
        <ele>464.8</ele>
        <time>2026-03-15T11:51:49Z</time>
      </trkpt>
      <trkpt lat="48.4887" lon="7.16478">
        <ele>465.3</ele>
        <time>2026-03-15T11:51:54Z</time>
      </trkpt>
      <trkpt lat="48.48866" lon="7.16484">
        <ele>465.7</ele>
        <time>2026-03-15T11:51:59Z</time>
      </trkpt>
      <trkpt lat="48.48863" lon="7.16491">
        <ele>466.6</ele>
        <time>2026-03-15T11:52:04Z</time>
      </trkpt>
      <trkpt lat="48.4886" lon="7.16499">
        <ele>467.7</ele>
        <time>2026-03-15T11:52:09Z</time>
      </trkpt>
      <trkpt lat="48.48855" lon="7.16505">
        <ele>467.4</ele>
        <time>2026-03-15T11:52:14Z</time>
      </trkpt>
      <trkpt lat="48.48851" lon="7.16512">
        <ele>467.4</ele>
        <time>2026-03-15T11:52:19Z</time>
      </trkpt>
      <trkpt lat="48.48846" lon="7.16519">
        <ele>467.2</ele>
        <time>2026-03-15T11:52:24Z</time>
      </trkpt>
      <trkpt lat="48.48841" lon="7.16524">
        <ele>466.6</ele>
        <time>2026-03-15T11:52:29Z</time>
      </trkpt>
      <trkpt lat="48.48833" lon="7.16526">
        <ele>464.6</ele>
        <time>2026-03-15T11:52:34Z</time>
      </trkpt>
      <trkpt lat="48.48827" lon="7.16531">
        <ele>463.4</ele>
        <time>2026-03-15T11:52:39Z</time>
      </trkpt>
      <trkpt lat="48.48819" lon="7.16533">
        <ele>460.9</ele>
        <time>2026-03-15T11:52:44Z</time>
      </trkpt>
      <trkpt lat="48.48813" lon="7.1654">
        <ele>460</ele>
        <time>2026-03-15T11:52:49Z</time>
      </trkpt>
      <trkpt lat="48.48805" lon="7.16549">
        <ele>458.7</ele>
        <time>2026-03-15T11:52:54Z</time>
      </trkpt>
      <trkpt lat="48.48797" lon="7.16551">
        <ele>456.2</ele>
        <time>2026-03-15T11:52:59Z</time>
      </trkpt>
      <trkpt lat="48.48789" lon="7.16556">
        <ele>454.1</ele>
        <time>2026-03-15T11:53:04Z</time>
      </trkpt>
      <trkpt lat="48.48783" lon="7.16563">
        <ele>453.1</ele>
        <time>2026-03-15T11:53:09Z</time>
      </trkpt>
      <trkpt lat="48.48778" lon="7.1657">
        <ele>452.3</ele>
        <time>2026-03-15T11:53:14Z</time>
      </trkpt>
      <trkpt lat="48.48775" lon="7.16576">
        <ele>452.2</ele>
        <time>2026-03-15T11:53:19Z</time>
      </trkpt>
      <trkpt lat="48.48772" lon="7.1658">
        <ele>451.7</ele>
        <time>2026-03-15T11:53:24Z</time>
      </trkpt>
      <trkpt lat="48.48768" lon="7.16585">
        <ele>451.1</ele>
        <time>2026-03-15T11:53:29Z</time>
      </trkpt>
      <trkpt lat="48.48763" lon="7.16595">
        <ele>451.4</ele>
        <time>2026-03-15T11:53:34Z</time>
      </trkpt>
      <trkpt lat="48.48758" lon="7.16598">
        <ele>450.3</ele>
        <time>2026-03-15T11:53:39Z</time>
      </trkpt>
      <trkpt lat="48.48752" lon="7.16604">
        <ele>449.7</ele>
        <time>2026-03-15T11:53:44Z</time>
      </trkpt>
      <trkpt lat="48.48746" lon="7.16609">
        <ele>449.1</ele>
        <time>2026-03-15T11:53:49Z</time>
      </trkpt>
      <trkpt lat="48.48742" lon="7.16617">
        <ele>449.8</ele>
        <time>2026-03-15T11:53:54Z</time>
      </trkpt>
      <trkpt lat="48.48736" lon="7.16623">
        <ele>449.3</ele>
        <time>2026-03-15T11:53:59Z</time>
      </trkpt>
      <trkpt lat="48.48732" lon="7.1663">
        <ele>449.5</ele>
        <time>2026-03-15T11:54:04Z</time>
      </trkpt>
      <trkpt lat="48.48727" lon="7.16638">
        <ele>449.4</ele>
        <time>2026-03-15T11:54:09Z</time>
      </trkpt>
      <trkpt lat="48.48723" lon="7.16644">
        <ele>449.2</ele>
        <time>2026-03-15T11:54:14Z</time>
      </trkpt>
      <trkpt lat="48.4872" lon="7.16652">
        <ele>449.6</ele>
        <time>2026-03-15T11:54:19Z</time>
      </trkpt>
      <trkpt lat="48.48714" lon="7.1666">
        <ele>448.7</ele>
        <time>2026-03-15T11:54:24Z</time>
      </trkpt>
      <trkpt lat="48.4871" lon="7.16665">
        <ele>447.9</ele>
        <time>2026-03-15T11:54:29Z</time>
      </trkpt>
      <trkpt lat="48.48704" lon="7.16671">
        <ele>446.3</ele>
        <time>2026-03-15T11:54:34Z</time>
      </trkpt>
      <trkpt lat="48.48698" lon="7.16674">
        <ele>444.2</ele>
        <time>2026-03-15T11:54:39Z</time>
      </trkpt>
      <trkpt lat="48.48691" lon="7.16681">
        <ele>442</ele>
        <time>2026-03-15T11:54:44Z</time>
      </trkpt>
      <trkpt lat="48.48688" lon="7.16686">
        <ele>441.3</ele>
        <time>2026-03-15T11:54:49Z</time>
      </trkpt>
      <trkpt lat="48.48685" lon="7.16693">
        <ele>440.6</ele>
        <time>2026-03-15T11:54:54Z</time>
      </trkpt>
      <trkpt lat="48.48681" lon="7.16695">
        <ele>439.1</ele>
        <time>2026-03-15T11:54:59Z</time>
      </trkpt>
      <trkpt lat="48.48681" lon="7.16695">
        <ele>439.1</ele>
        <time>2026-03-15T11:55:04Z</time>
      </trkpt>
      <trkpt lat="48.48681" lon="7.16695">
        <ele>439.1</ele>
        <time>2026-03-15T11:55:09Z</time>
      </trkpt>
      <trkpt lat="48.48681" lon="7.16695">
        <ele>439.1</ele>
        <time>2026-03-15T11:55:14Z</time>
      </trkpt>
      <trkpt lat="48.48675" lon="7.16699">
        <ele>436.9</ele>
        <time>2026-03-15T11:55:19Z</time>
      </trkpt>
      <trkpt lat="48.48671" lon="7.16708">
        <ele>435.9</ele>
        <time>2026-03-15T11:55:24Z</time>
      </trkpt>
      <trkpt lat="48.48671" lon="7.16715">
        <ele>436.4</ele>
        <time>2026-03-15T11:55:29Z</time>
      </trkpt>
      <trkpt lat="48.48668" lon="7.16723">
        <ele>435.7</ele>
        <time>2026-03-15T11:55:34Z</time>
      </trkpt>
      <trkpt lat="48.48665" lon="7.16737">
        <ele>435.7</ele>
        <time>2026-03-15T11:55:39Z</time>
      </trkpt>
      <trkpt lat="48.48665" lon="7.16743">
        <ele>436.1</ele>
        <time>2026-03-15T11:55:44Z</time>
      </trkpt>
      <trkpt lat="48.48667" lon="7.16748">
        <ele>437</ele>
        <time>2026-03-15T11:55:49Z</time>
      </trkpt>
      <trkpt lat="48.4867" lon="7.16754">
        <ele>439</ele>
        <time>2026-03-15T11:55:54Z</time>
      </trkpt>
      <trkpt lat="48.48669" lon="7.16761">
        <ele>439.3</ele>
        <time>2026-03-15T11:55:59Z</time>
      </trkpt>
      <trkpt lat="48.48665" lon="7.16767">
        <ele>438.4</ele>
        <time>2026-03-15T11:56:04Z</time>
      </trkpt>
      <trkpt lat="48.48663" lon="7.16773">
        <ele>438.5</ele>
        <time>2026-03-15T11:56:09Z</time>
      </trkpt>
      <trkpt lat="48.4866" lon="7.1678">
        <ele>438.3</ele>
        <time>2026-03-15T11:56:14Z</time>
      </trkpt>
      <trkpt lat="48.48657" lon="7.1679">
        <ele>438.4</ele>
        <time>2026-03-15T11:56:19Z</time>
      </trkpt>
      <trkpt lat="48.48655" lon="7.16798">
        <ele>438.6</ele>
        <time>2026-03-15T11:56:24Z</time>
      </trkpt>
      <trkpt lat="48.48652" lon="7.16805">
        <ele>438.3</ele>
        <time>2026-03-15T11:56:29Z</time>
      </trkpt>
      <trkpt lat="48.48649" lon="7.16811">
        <ele>437.9</ele>
        <time>2026-03-15T11:56:34Z</time>
      </trkpt>
      <trkpt lat="48.48646" lon="7.16818">
        <ele>437.5</ele>
        <time>2026-03-15T11:56:39Z</time>
      </trkpt>
      <trkpt lat="48.48648" lon="7.16825">
        <ele>438.8</ele>
        <time>2026-03-15T11:56:44Z</time>
      </trkpt>
      <trkpt lat="48.48649" lon="7.1683">
        <ele>439.6</ele>
        <time>2026-03-15T11:56:49Z</time>
      </trkpt>
      <trkpt lat="48.48649" lon="7.16839">
        <ele>440</ele>
        <time>2026-03-15T11:56:54Z</time>
      </trkpt>
      <trkpt lat="48.48648" lon="7.16848">
        <ele>440</ele>
        <time>2026-03-15T11:56:59Z</time>
      </trkpt>
      <trkpt lat="48.48648" lon="7.16857">
        <ele>440.3</ele>
        <time>2026-03-15T11:57:04Z</time>
      </trkpt>
      <trkpt lat="48.48648" lon="7.16866">
        <ele>440.6</ele>
        <time>2026-03-15T11:57:09Z</time>
      </trkpt>
      <trkpt lat="48.48647" lon="7.16874">
        <ele>440.5</ele>
        <time>2026-03-15T11:57:14Z</time>
      </trkpt>
      <trkpt lat="48.48645" lon="7.16882">
        <ele>440.1</ele>
        <time>2026-03-15T11:57:19Z</time>
      </trkpt>
      <trkpt lat="48.48643" lon="7.16891">
        <ele>439.6</ele>
        <time>2026-03-15T11:57:24Z</time>
      </trkpt>
      <trkpt lat="48.48641" lon="7.16899">
        <ele>439.2</ele>
        <time>2026-03-15T11:57:29Z</time>
      </trkpt>
      <trkpt lat="48.4864" lon="7.16907">
        <ele>439.1</ele>
        <time>2026-03-15T11:57:34Z</time>
      </trkpt>
      <trkpt lat="48.48639" lon="7.16915">
        <ele>439</ele>
        <time>2026-03-15T11:57:39Z</time>
      </trkpt>
      <trkpt lat="48.48637" lon="7.16923">
        <ele>438.3</ele>
        <time>2026-03-15T11:57:44Z</time>
      </trkpt>
      <trkpt lat="48.48635" lon="7.16932">
        <ele>437.4</ele>
        <time>2026-03-15T11:57:49Z</time>
      </trkpt>
      <trkpt lat="48.48634" lon="7.16939">
        <ele>437</ele>
        <time>2026-03-15T11:57:54Z</time>
      </trkpt>
      <trkpt lat="48.48632" lon="7.16941">
        <ele>436.2</ele>
        <time>2026-03-15T11:57:59Z</time>
      </trkpt>
      <trkpt lat="48.48634" lon="7.16947">
        <ele>436.9</ele>
        <time>2026-03-15T11:58:04Z</time>
      </trkpt>
      <trkpt lat="48.48634" lon="7.16947">
        <ele>436.9</ele>
        <time>2026-03-15T11:58:09Z</time>
      </trkpt>
      <trkpt lat="48.48634" lon="7.16947">
        <ele>436.9</ele>
        <time>2026-03-15T11:58:14Z</time>
      </trkpt>
      <trkpt lat="48.48631" lon="7.16953">
        <ele>435.7</ele>
        <time>2026-03-15T11:58:19Z</time>
      </trkpt>
      <trkpt lat="48.48631" lon="7.16953">
        <ele>435.7</ele>
        <time>2026-03-15T11:58:24Z</time>
      </trkpt>
      <trkpt lat="48.48631" lon="7.16953">
        <ele>435.7</ele>
        <time>2026-03-15T11:58:29Z</time>
      </trkpt>
      <trkpt lat="48.48626" lon="7.16956">
        <ele>433.7</ele>
        <time>2026-03-15T11:58:34Z</time>
      </trkpt>
      <trkpt lat="48.48622" lon="7.16963">
        <ele>432</ele>
        <time>2026-03-15T11:58:39Z</time>
      </trkpt>
      <trkpt lat="48.48623" lon="7.16982">
        <ele>432</ele>
        <time>2026-03-15T11:58:44Z</time>
      </trkpt>
      <trkpt lat="48.4862" lon="7.16992">
        <ele>430.6</ele>
        <time>2026-03-15T11:58:49Z</time>
      </trkpt>
      <trkpt lat="48.48618" lon="7.16999">
        <ele>429.6</ele>
        <time>2026-03-15T11:58:54Z</time>
      </trkpt>
      <trkpt lat="48.48616" lon="7.17006">
        <ele>428.6</ele>
        <time>2026-03-15T11:58:59Z</time>
      </trkpt>
      <trkpt lat="48.48614" lon="7.17015">
        <ele>427.7</ele>
        <time>2026-03-15T11:59:04Z</time>
      </trkpt>
      <trkpt lat="48.48613" lon="7.17021">
        <ele>427.2</ele>
        <time>2026-03-15T11:59:09Z</time>
      </trkpt>
      <trkpt lat="48.48612" lon="7.17028">
        <ele>426.7</ele>
        <time>2026-03-15T11:59:14Z</time>
      </trkpt>
      <trkpt lat="48.4861" lon="7.17036">
        <ele>425.8</ele>
        <time>2026-03-15T11:59:19Z</time>
      </trkpt>
      <trkpt lat="48.48608" lon="7.17043">
        <ele>424.8</ele>
        <time>2026-03-15T11:59:24Z</time>
      </trkpt>
      <trkpt lat="48.48608" lon="7.17051">
        <ele>424.7</ele>
        <time>2026-03-15T11:59:29Z</time>
      </trkpt>
      <trkpt lat="48.48608" lon="7.17061">
        <ele>424.6</ele>
        <time>2026-03-15T11:59:34Z</time>
      </trkpt>
      <trkpt lat="48.48609" lon="7.17071">
        <ele>424.9</ele>
        <time>2026-03-15T11:59:39Z</time>
      </trkpt>
      <trkpt lat="48.48608" lon="7.1708">
        <ele>424.4</ele>
        <time>2026-03-15T11:59:44Z</time>
      </trkpt>
      <trkpt lat="48.48606" lon="7.17087">
        <ele>423.6</ele>
        <time>2026-03-15T11:59:49Z</time>
      </trkpt>
      <trkpt lat="48.48606" lon="7.17094">
        <ele>423.9</ele>
        <time>2026-03-15T11:59:54Z</time>
      </trkpt>
      <trkpt lat="48.48606" lon="7.17101">
        <ele>424.1</ele>
        <time>2026-03-15T11:59:59Z</time>
      </trkpt>
      <trkpt lat="48.48608" lon="7.1711">
        <ele>425.3</ele>
        <time>2026-03-15T12:00:04Z</time>
      </trkpt>
      <trkpt lat="48.48607" lon="7.17119">
        <ele>425.2</ele>
        <time>2026-03-15T12:00:09Z</time>
      </trkpt>
      <trkpt lat="48.48607" lon="7.17128">
        <ele>425.5</ele>
        <time>2026-03-15T12:00:14Z</time>
      </trkpt>
      <trkpt lat="48.48608" lon="7.17137">
        <ele>426.2</ele>
        <time>2026-03-15T12:00:19Z</time>
      </trkpt>
      <trkpt lat="48.48606" lon="7.17145">
        <ele>425.6</ele>
        <time>2026-03-15T12:00:24Z</time>
      </trkpt>
      <trkpt lat="48.48604" lon="7.1715">
        <ele>424.9</ele>
        <time>2026-03-15T12:00:29Z</time>
      </trkpt>
      <trkpt lat="48.48602" lon="7.17158">
        <ele>424.2</ele>
        <time>2026-03-15T12:00:34Z</time>
      </trkpt>
      <trkpt lat="48.486" lon="7.17166">
        <ele>423.6</ele>
        <time>2026-03-15T12:00:39Z</time>
      </trkpt>
      <trkpt lat="48.48597" lon="7.17174">
        <ele>423.2</ele>
        <time>2026-03-15T12:00:44Z</time>
      </trkpt>
      <trkpt lat="48.48596" lon="7.17181">
        <ele>423.7</ele>
        <time>2026-03-15T12:00:49Z</time>
      </trkpt>
      <trkpt lat="48.48592" lon="7.1719">
        <ele>423.1</ele>
        <time>2026-03-15T12:00:54Z</time>
      </trkpt>
      <trkpt lat="48.48589" lon="7.17198">
        <ele>422.8</ele>
        <time>2026-03-15T12:00:59Z</time>
      </trkpt>
      <trkpt lat="48.48587" lon="7.17206">
        <ele>422.9</ele>
        <time>2026-03-15T12:01:04Z</time>
      </trkpt>
      <trkpt lat="48.48585" lon="7.17212">
        <ele>422.8</ele>
        <time>2026-03-15T12:01:09Z</time>
      </trkpt>
      <trkpt lat="48.48584" lon="7.17222">
        <ele>423.6</ele>
        <time>2026-03-15T12:01:14Z</time>
      </trkpt>
      <trkpt lat="48.48582" lon="7.17234">
        <ele>424.6</ele>
        <time>2026-03-15T12:01:19Z</time>
      </trkpt>
      <trkpt lat="48.4858" lon="7.17243">
        <ele>425.2</ele>
        <time>2026-03-15T12:01:24Z</time>
      </trkpt>
      <trkpt lat="48.48576" lon="7.17252">
        <ele>425.4</ele>
        <time>2026-03-15T12:01:29Z</time>
      </trkpt>
      <trkpt lat="48.48571" lon="7.17258">
        <ele>425.2</ele>
        <time>2026-03-15T12:01:34Z</time>
      </trkpt>
      <trkpt lat="48.48571" lon="7.17267">
        <ele>426.9</ele>
        <time>2026-03-15T12:01:39Z</time>
      </trkpt>
      <trkpt lat="48.48566" lon="7.17272">
        <ele>426.4</ele>
        <time>2026-03-15T12:01:44Z</time>
      </trkpt>
      <trkpt lat="48.48563" lon="7.17278">
        <ele>426.5</ele>
        <time>2026-03-15T12:01:49Z</time>
      </trkpt>
      <trkpt lat="48.48559" lon="7.17284">
        <ele>426.3</ele>
        <time>2026-03-15T12:01:54Z</time>
      </trkpt>
      <trkpt lat="48.48554" lon="7.17291">
        <ele>425.9</ele>
        <time>2026-03-15T12:01:59Z</time>
      </trkpt>
      <trkpt lat="48.4855" lon="7.17301">
        <ele>426.1</ele>
        <time>2026-03-15T12:02:04Z</time>
      </trkpt>
      <trkpt lat="48.48546" lon="7.17306">
        <ele>425.5</ele>
        <time>2026-03-15T12:02:09Z</time>
      </trkpt>
      <trkpt lat="48.48541" lon="7.17312">
        <ele>424.6</ele>
        <time>2026-03-15T12:02:14Z</time>
      </trkpt>
      <trkpt lat="48.48537" lon="7.17319">
        <ele>424.1</ele>
        <time>2026-03-15T12:02:19Z</time>
      </trkpt>
      <trkpt lat="48.48532" lon="7.17323">
        <ele>422.7</ele>
        <time>2026-03-15T12:02:24Z</time>
      </trkpt>
      <trkpt lat="48.48525" lon="7.17327">
        <ele>420.4</ele>
        <time>2026-03-15T12:02:29Z</time>
      </trkpt>
      <trkpt lat="48.48521" lon="7.17329">
        <ele>419.1</ele>
        <time>2026-03-15T12:02:34Z</time>
      </trkpt>
      <trkpt lat="48.48515" lon="7.17332">
        <ele>417</ele>
        <time>2026-03-15T12:02:39Z</time>
      </trkpt>
      <trkpt lat="48.4851" lon="7.17338">
        <ele>415.7</ele>
        <time>2026-03-15T12:02:44Z</time>
      </trkpt>
      <trkpt lat="48.48507" lon="7.17339">
        <ele>414.6</ele>
        <time>2026-03-15T12:02:49Z</time>
      </trkpt>
      <trkpt lat="48.48505" lon="7.17342">
        <ele>414.2</ele>
        <time>2026-03-15T12:02:54Z</time>
      </trkpt>
      <trkpt lat="48.485" lon="7.17342">
        <ele>412.1</ele>
        <time>2026-03-15T12:02:59Z</time>
      </trkpt>
      <trkpt lat="48.48496" lon="7.17345">
        <ele>411.9</ele>
        <time>2026-03-15T12:03:04Z</time>
      </trkpt>
      <trkpt lat="48.48491" lon="7.17349">
        <ele>411.5</ele>
        <time>2026-03-15T12:03:09Z</time>
      </trkpt>
      <trkpt lat="48.48484" lon="7.17352">
        <ele>410.6</ele>
        <time>2026-03-15T12:03:14Z</time>
      </trkpt>
      <trkpt lat="48.48481" lon="7.17357">
        <ele>410.5</ele>
        <time>2026-03-15T12:03:19Z</time>
      </trkpt>
      <trkpt lat="48.48477" lon="7.17366">
        <ele>410.4</ele>
        <time>2026-03-15T12:03:24Z</time>
      </trkpt>
      <trkpt lat="48.48474" lon="7.17371">
        <ele>410.1</ele>
        <time>2026-03-15T12:03:29Z</time>
      </trkpt>
      <trkpt lat="48.48472" lon="7.17373">
        <ele>409.8</ele>
        <time>2026-03-15T12:03:34Z</time>
      </trkpt>
      <trkpt lat="48.48471" lon="7.17378">
        <ele>409.9</ele>
        <time>2026-03-15T12:03:39Z</time>
      </trkpt>
      <trkpt lat="48.48467" lon="7.17387">
        <ele>409.4</ele>
        <time>2026-03-15T12:03:44Z</time>
      </trkpt>
      <trkpt lat="48.48462" lon="7.17395">
        <ele>408.4</ele>
        <time>2026-03-15T12:03:49Z</time>
      </trkpt>
      <trkpt lat="48.48459" lon="7.17405">
        <ele>407.9</ele>
        <time>2026-03-15T12:03:54Z</time>
      </trkpt>
      <trkpt lat="48.48456" lon="7.17414">
        <ele>407.2</ele>
        <time>2026-03-15T12:03:59Z</time>
      </trkpt>
      <trkpt lat="48.48454" lon="7.17421">
        <ele>406.7</ele>
        <time>2026-03-15T12:04:04Z</time>
      </trkpt>
      <trkpt lat="48.48452" lon="7.17427">
        <ele>406.2</ele>
        <time>2026-03-15T12:04:09Z</time>
      </trkpt>
      <trkpt lat="48.4845" lon="7.17436">
        <ele>405.8</ele>
        <time>2026-03-15T12:04:14Z</time>
      </trkpt>
      <trkpt lat="48.48448" lon="7.17443">
        <ele>405.4</ele>
        <time>2026-03-15T12:04:19Z</time>
      </trkpt>
      <trkpt lat="48.48447" lon="7.1745">
        <ele>405.2</ele>
        <time>2026-03-15T12:04:24Z</time>
      </trkpt>
      <trkpt lat="48.48443" lon="7.17457">
        <ele>403.9</ele>
        <time>2026-03-15T12:04:29Z</time>
      </trkpt>
      <trkpt lat="48.48442" lon="7.17465">
        <ele>403.7</ele>
        <time>2026-03-15T12:04:34Z</time>
      </trkpt>
      <trkpt lat="48.48439" lon="7.17475">
        <ele>402.8</ele>
        <time>2026-03-15T12:04:39Z</time>
      </trkpt>
      <trkpt lat="48.48437" lon="7.17481">
        <ele>402.2</ele>
        <time>2026-03-15T12:04:44Z</time>
      </trkpt>
      <trkpt lat="48.48435" lon="7.17485">
        <ele>401.4</ele>
        <time>2026-03-15T12:04:49Z</time>
      </trkpt>
      <trkpt lat="48.48434" lon="7.17493">
        <ele>401.2</ele>
        <time>2026-03-15T12:04:54Z</time>
      </trkpt>
      <trkpt lat="48.48434" lon="7.17502">
        <ele>401.2</ele>
        <time>2026-03-15T12:04:59Z</time>
      </trkpt>
      <trkpt lat="48.48434" lon="7.17511">
        <ele>400.7</ele>
        <time>2026-03-15T12:05:04Z</time>
      </trkpt>
      <trkpt lat="48.48435" lon="7.17521">
        <ele>400.6</ele>
        <time>2026-03-15T12:05:09Z</time>
      </trkpt>
      <trkpt lat="48.48435" lon="7.17528">
        <ele>400.2</ele>
        <time>2026-03-15T12:05:14Z</time>
      </trkpt>
      <trkpt lat="48.48436" lon="7.17535">
        <ele>400.2</ele>
        <time>2026-03-15T12:05:19Z</time>
      </trkpt>
      <trkpt lat="48.48435" lon="7.17542">
        <ele>399.4</ele>
        <time>2026-03-15T12:05:24Z</time>
      </trkpt>
      <trkpt lat="48.48437" lon="7.17545">
        <ele>400</ele>
        <time>2026-03-15T12:05:29Z</time>
      </trkpt>
      <trkpt lat="48.48439" lon="7.17544">
        <ele>400.8</ele>
        <time>2026-03-15T12:05:34Z</time>
      </trkpt>
      <trkpt lat="48.4844" lon="7.17543">
        <ele>401.2</ele>
        <time>2026-03-15T12:05:39Z</time>
      </trkpt>
      <trkpt lat="48.48441" lon="7.17546">
        <ele>401.4</ele>
        <time>2026-03-15T12:05:44Z</time>
      </trkpt>
      <trkpt lat="48.48442" lon="7.17551">
        <ele>401.5</ele>
        <time>2026-03-15T12:05:49Z</time>
      </trkpt>
      <trkpt lat="48.48444" lon="7.17558">
        <ele>401.8</ele>
        <time>2026-03-15T12:05:54Z</time>
      </trkpt>
      <trkpt lat="48.48444" lon="7.17569">
        <ele>401.1</ele>
        <time>2026-03-15T12:05:59Z</time>
      </trkpt>
      <trkpt lat="48.48445" lon="7.17578">
        <ele>400.9</ele>
        <time>2026-03-15T12:06:04Z</time>
      </trkpt>
      <trkpt lat="48.48447" lon="7.17585">
        <ele>401</ele>
        <time>2026-03-15T12:06:09Z</time>
      </trkpt>
      <trkpt lat="48.48449" lon="7.1759">
        <ele>400.9</ele>
        <time>2026-03-15T12:06:14Z</time>
      </trkpt>
      <trkpt lat="48.48452" lon="7.17594">
        <ele>401.3</ele>
        <time>2026-03-15T12:06:19Z</time>
      </trkpt>
      <trkpt lat="48.48455" lon="7.176">
        <ele>401.2</ele>
        <time>2026-03-15T12:06:24Z</time>
      </trkpt>
      <trkpt lat="48.48459" lon="7.17602">
        <ele>402.1</ele>
        <time>2026-03-15T12:06:29Z</time>
      </trkpt>
      <trkpt lat="48.48463" lon="7.17606">
        <ele>402.5</ele>
        <time>2026-03-15T12:06:34Z</time>
      </trkpt>
      <trkpt lat="48.48468" lon="7.17612">
        <ele>402.7</ele>
        <time>2026-03-15T12:06:39Z</time>
      </trkpt>
      <trkpt lat="48.48471" lon="7.17616">
        <ele>402.7</ele>
        <time>2026-03-15T12:06:44Z</time>
      </trkpt>
      <trkpt lat="48.48472" lon="7.17622">
        <ele>401.7</ele>
        <time>2026-03-15T12:06:49Z</time>
      </trkpt>
      <trkpt lat="48.48477" lon="7.17626">
        <ele>402</ele>
        <time>2026-03-15T12:06:54Z</time>
      </trkpt>
      <trkpt lat="48.48482" lon="7.1763">
        <ele>402.2</ele>
        <time>2026-03-15T12:06:59Z</time>
      </trkpt>
      <trkpt lat="48.48485" lon="7.17634">
        <ele>401.9</ele>
        <time>2026-03-15T12:07:04Z</time>
      </trkpt>
      <trkpt lat="48.48489" lon="7.17638">
        <ele>401.8</ele>
        <time>2026-03-15T12:07:09Z</time>
      </trkpt>
      <trkpt lat="48.48494" lon="7.17642">
        <ele>401.7</ele>
        <time>2026-03-15T12:07:14Z</time>
      </trkpt>
      <trkpt lat="48.48497" lon="7.17647">
        <ele>400.9</ele>
        <time>2026-03-15T12:07:19Z</time>
      </trkpt>
      <trkpt lat="48.48499" lon="7.17656">
        <ele>398.8</ele>
        <time>2026-03-15T12:07:24Z</time>
      </trkpt>
      <trkpt lat="48.48504" lon="7.17662">
        <ele>399.3</ele>
        <time>2026-03-15T12:07:29Z</time>
      </trkpt>
      <trkpt lat="48.48506" lon="7.17671">
        <ele>398.3</ele>
        <time>2026-03-15T12:07:34Z</time>
      </trkpt>
      <trkpt lat="48.48508" lon="7.17682">
        <ele>397.6</ele>
        <time>2026-03-15T12:07:39Z</time>
      </trkpt>
      <trkpt lat="48.4851" lon="7.17692">
        <ele>397.1</ele>
        <time>2026-03-15T12:07:44Z</time>
      </trkpt>
      <trkpt lat="48.48507" lon="7.17699">
        <ele>394.6</ele>
        <time>2026-03-15T12:07:49Z</time>
      </trkpt>
      <trkpt lat="48.48505" lon="7.17709">
        <ele>392.2</ele>
        <time>2026-03-15T12:07:54Z</time>
      </trkpt>
      <trkpt lat="48.48501" lon="7.17713">
        <ele>389.8</ele>
        <time>2026-03-15T12:07:59Z</time>
      </trkpt>
      <trkpt lat="48.48498" lon="7.17713">
        <ele>389.2</ele>
        <time>2026-03-15T12:08:04Z</time>
      </trkpt>
      <trkpt lat="48.48498" lon="7.17713">
        <ele>389.2</ele>
        <time>2026-03-15T12:08:09Z</time>
      </trkpt>
      <trkpt lat="48.48498" lon="7.17713">
        <ele>389.2</ele>
        <time>2026-03-15T12:08:14Z</time>
      </trkpt>
      <trkpt lat="48.48498" lon="7.17713">
        <ele>389.2</ele>
        <time>2026-03-15T12:08:19Z</time>
      </trkpt>
      <trkpt lat="48.48498" lon="7.17713">
        <ele>389.2</ele>
        <time>2026-03-15T12:08:24Z</time>
      </trkpt>
      <trkpt lat="48.48498" lon="7.17713">
        <ele>389.2</ele>
        <time>2026-03-15T12:08:29Z</time>
      </trkpt>
      <trkpt lat="48.48498" lon="7.17713">
        <ele>389.2</ele>
        <time>2026-03-15T12:08:34Z</time>
      </trkpt>
      <trkpt lat="48.48498" lon="7.17713">
        <ele>389.2</ele>
        <time>2026-03-15T12:08:39Z</time>
      </trkpt>
      <trkpt lat="48.48498" lon="7.17713">
        <ele>389.2</ele>
        <time>2026-03-15T12:08:44Z</time>
      </trkpt>
      <trkpt lat="48.48498" lon="7.17713">
        <ele>389.2</ele>
        <time>2026-03-15T12:08:49Z</time>
      </trkpt>
      <trkpt lat="48.48498" lon="7.17713">
        <ele>389.2</ele>
        <time>2026-03-15T12:08:54Z</time>
      </trkpt>
      <trkpt lat="48.48498" lon="7.17713">
        <ele>389.2</ele>
        <time>2026-03-15T12:08:59Z</time>
      </trkpt>
      <trkpt lat="48.48498" lon="7.17713">
        <ele>389.2</ele>
        <time>2026-03-15T12:09:04Z</time>
      </trkpt>
      <trkpt lat="48.48502" lon="7.17726">
        <ele>388.4</ele>
        <time>2026-03-15T12:09:09Z</time>
      </trkpt>
      <trkpt lat="48.48506" lon="7.17735">
        <ele>388.8</ele>
        <time>2026-03-15T12:09:14Z</time>
      </trkpt>
      <trkpt lat="48.48509" lon="7.17743">
        <ele>388.9</ele>
        <time>2026-03-15T12:09:19Z</time>
      </trkpt>
      <trkpt lat="48.4851" lon="7.17751">
        <ele>388.3</ele>
        <time>2026-03-15T12:09:24Z</time>
      </trkpt>
      <trkpt lat="48.4851" lon="7.17763">
        <ele>387.7</ele>
        <time>2026-03-15T12:09:29Z</time>
      </trkpt>
      <trkpt lat="48.4851" lon="7.17771">
        <ele>387.3</ele>
        <time>2026-03-15T12:09:34Z</time>
      </trkpt>
      <trkpt lat="48.4851" lon="7.17778">
        <ele>386.9</ele>
        <time>2026-03-15T12:09:39Z</time>
      </trkpt>
      <trkpt lat="48.48512" lon="7.17786">
        <ele>387.4</ele>
        <time>2026-03-15T12:09:44Z</time>
      </trkpt>
      <trkpt lat="48.48513" lon="7.17795">
        <ele>387.4</ele>
        <time>2026-03-15T12:09:49Z</time>
      </trkpt>
      <trkpt lat="48.48513" lon="7.17804">
        <ele>386.9</ele>
        <time>2026-03-15T12:09:54Z</time>
      </trkpt>
      <trkpt lat="48.48515" lon="7.17813">
        <ele>387.3</ele>
        <time>2026-03-15T12:09:59Z</time>
      </trkpt>
      <trkpt lat="48.48514" lon="7.17822">
        <ele>386.4</ele>
        <time>2026-03-15T12:10:04Z</time>
      </trkpt>
      <trkpt lat="48.48515" lon="7.17831">
        <ele>386.4</ele>
        <time>2026-03-15T12:10:09Z</time>
      </trkpt>
      <trkpt lat="48.48514" lon="7.17842">
        <ele>385.7</ele>
        <time>2026-03-15T12:10:14Z</time>
      </trkpt>
      <trkpt lat="48.48514" lon="7.17852">
        <ele>385.5</ele>
        <time>2026-03-15T12:10:19Z</time>
      </trkpt>
      <trkpt lat="48.48513" lon="7.17861">
        <ele>384.9</ele>
        <time>2026-03-15T12:10:24Z</time>
      </trkpt>
      <trkpt lat="48.48512" lon="7.17872">
        <ele>384.3</ele>
        <time>2026-03-15T12:10:29Z</time>
      </trkpt>
      <trkpt lat="48.48511" lon="7.17879">
        <ele>383.8</ele>
        <time>2026-03-15T12:10:34Z</time>
      </trkpt>
      <trkpt lat="48.4851" lon="7.17885">
        <ele>383.3</ele>
        <time>2026-03-15T12:10:39Z</time>
      </trkpt>
      <trkpt lat="48.48511" lon="7.1789">
        <ele>383.6</ele>
        <time>2026-03-15T12:10:44Z</time>
      </trkpt>
      <trkpt lat="48.48512" lon="7.17897">
        <ele>383.8</ele>
        <time>2026-03-15T12:10:49Z</time>
      </trkpt>
      <trkpt lat="48.48512" lon="7.17904">
        <ele>383.7</ele>
        <time>2026-03-15T12:10:54Z</time>
      </trkpt>
      <trkpt lat="48.48514" lon="7.17913">
        <ele>384.3</ele>
        <time>2026-03-15T12:10:59Z</time>
      </trkpt>
      <trkpt lat="48.48513" lon="7.17924">
        <ele>383.8</ele>
        <time>2026-03-15T12:11:04Z</time>
      </trkpt>
      <trkpt lat="48.48514" lon="7.17933">
        <ele>384.2</ele>
        <time>2026-03-15T12:11:09Z</time>
      </trkpt>
      <trkpt lat="48.48512" lon="7.17944">
        <ele>383.5</ele>
        <time>2026-03-15T12:11:14Z</time>
      </trkpt>
      <trkpt lat="48.48509" lon="7.17954">
        <ele>382.4</ele>
        <time>2026-03-15T12:11:19Z</time>
      </trkpt>
      <trkpt lat="48.48507" lon="7.17964">
        <ele>381.7</ele>
        <time>2026-03-15T12:11:24Z</time>
      </trkpt>
      <trkpt lat="48.48505" lon="7.17972">
        <ele>380.9</ele>
        <time>2026-03-15T12:11:29Z</time>
      </trkpt>
      <trkpt lat="48.48504" lon="7.17982">
        <ele>380.5</ele>
        <time>2026-03-15T12:11:34Z</time>
      </trkpt>
      <trkpt lat="48.48503" lon="7.17994">
        <ele>380.1</ele>
        <time>2026-03-15T12:11:39Z</time>
      </trkpt>
      <trkpt lat="48.48503" lon="7.18005">
        <ele>380.1</ele>
        <time>2026-03-15T12:11:44Z</time>
      </trkpt>
      <trkpt lat="48.48505" lon="7.18013">
        <ele>380.7</ele>
        <time>2026-03-15T12:11:49Z</time>
      </trkpt>
      <trkpt lat="48.48505" lon="7.18022">
        <ele>380.6</ele>
        <time>2026-03-15T12:11:54Z</time>
      </trkpt>
      <trkpt lat="48.48504" lon="7.18031">
        <ele>380.1</ele>
        <time>2026-03-15T12:11:59Z</time>
      </trkpt>
      <trkpt lat="48.48506" lon="7.18041">
        <ele>380.7</ele>
        <time>2026-03-15T12:12:04Z</time>
      </trkpt>
      <trkpt lat="48.48507" lon="7.1805">
        <ele>381</ele>
        <time>2026-03-15T12:12:09Z</time>
      </trkpt>
      <trkpt lat="48.48509" lon="7.18059">
        <ele>381.6</ele>
        <time>2026-03-15T12:12:14Z</time>
      </trkpt>
      <trkpt lat="48.48509" lon="7.18059">
        <ele>381.6</ele>
        <time>2026-03-15T12:12:19Z</time>
      </trkpt>
      <trkpt lat="48.48509" lon="7.18059">
        <ele>381.6</ele>
        <time>2026-03-15T12:12:24Z</time>
      </trkpt>
      <trkpt lat="48.4851" lon="7.18065">
        <ele>381.9</ele>
        <time>2026-03-15T12:12:29Z</time>
      </trkpt>
      <trkpt lat="48.4851" lon="7.18072">
        <ele>381.8</ele>
        <time>2026-03-15T12:12:34Z</time>
      </trkpt>
      <trkpt lat="48.48509" lon="7.18076">
        <ele>381.3</ele>
        <time>2026-03-15T12:12:39Z</time>
      </trkpt>
      <trkpt lat="48.48508" lon="7.18084">
        <ele>380.9</ele>
        <time>2026-03-15T12:12:44Z</time>
      </trkpt>
      <trkpt lat="48.48509" lon="7.18088">
        <ele>381.1</ele>
        <time>2026-03-15T12:12:49Z</time>
      </trkpt>
      <trkpt lat="48.48508" lon="7.18092">
        <ele>380.5</ele>
        <time>2026-03-15T12:12:54Z</time>
      </trkpt>
      <trkpt lat="48.48507" lon="7.18098">
        <ele>379.9</ele>
        <time>2026-03-15T12:12:59Z</time>
      </trkpt>
      <trkpt lat="48.48507" lon="7.18102">
        <ele>379.8</ele>
        <time>2026-03-15T12:13:04Z</time>
      </trkpt>
      <trkpt lat="48.48508" lon="7.18101">
        <ele>380.2</ele>
        <time>2026-03-15T12:13:09Z</time>
      </trkpt>
      <trkpt lat="48.4851" lon="7.18094">
        <ele>381.2</ele>
        <time>2026-03-15T12:13:14Z</time>
      </trkpt>
      <trkpt lat="48.48509" lon="7.18087">
        <ele>381.1</ele>
        <time>2026-03-15T12:13:19Z</time>
      </trkpt>
      <trkpt lat="48.48509" lon="7.18081">
        <ele>381.3</ele>
        <time>2026-03-15T12:13:24Z</time>
      </trkpt>
      <trkpt lat="48.48509" lon="7.18071">
        <ele>381.4</ele>
        <time>2026-03-15T12:13:29Z</time>
      </trkpt>
      <trkpt lat="48.4851" lon="7.18062">
        <ele>381.9</ele>
        <time>2026-03-15T12:13:34Z</time>
      </trkpt>
      <trkpt lat="48.4851" lon="7.18054">
        <ele>382</ele>
        <time>2026-03-15T12:13:39Z</time>
      </trkpt>
      <trkpt lat="48.48508" lon="7.18044">
        <ele>381.4</ele>
        <time>2026-03-15T12:13:44Z</time>
      </trkpt>
      <trkpt lat="48.48506" lon="7.18039">
        <ele>380.8</ele>
        <time>2026-03-15T12:13:49Z</time>
      </trkpt>
      <trkpt lat="48.48504" lon="7.18039">
        <ele>380</ele>
        <time>2026-03-15T12:13:54Z</time>
      </trkpt>
      <trkpt lat="48.48504" lon="7.18039">
        <ele>380</ele>
        <time>2026-03-15T12:13:59Z</time>
      </trkpt>
      <trkpt lat="48.48504" lon="7.18039">
        <ele>380</ele>
        <time>2026-03-15T12:14:04Z</time>
      </trkpt>
      <trkpt lat="48.48509" lon="7.18047">
        <ele>381.8</ele>
        <time>2026-03-15T12:14:09Z</time>
      </trkpt>
      <trkpt lat="48.48512" lon="7.18051">
        <ele>382.8</ele>
        <time>2026-03-15T12:14:14Z</time>
      </trkpt>
      <trkpt lat="48.48515" lon="7.18056">
        <ele>383.8</ele>
        <time>2026-03-15T12:14:19Z</time>
      </trkpt>
      <trkpt lat="48.48519" lon="7.1806">
        <ele>385.2</ele>
        <time>2026-03-15T12:14:24Z</time>
      </trkpt>
      <trkpt lat="48.4852" lon="7.18068">
        <ele>385.5</ele>
        <time>2026-03-15T12:14:29Z</time>
      </trkpt>
      <trkpt lat="48.48524" lon="7.18077">
        <ele>386.8</ele>
        <time>2026-03-15T12:14:34Z</time>
      </trkpt>
      <trkpt lat="48.48527" lon="7.18083">
        <ele>387.7</ele>
        <time>2026-03-15T12:14:39Z</time>
      </trkpt>
      <trkpt lat="48.48531" lon="7.18088">
        <ele>388.9</ele>
        <time>2026-03-15T12:14:44Z</time>
      </trkpt>
      <trkpt lat="48.48534" lon="7.1809">
        <ele>389.9</ele>
        <time>2026-03-15T12:14:49Z</time>
      </trkpt>
      <trkpt lat="48.48536" lon="7.18093">
        <ele>390.5</ele>
        <time>2026-03-15T12:14:54Z</time>
      </trkpt>
      <trkpt lat="48.48539" lon="7.18095">
        <ele>391.4</ele>
        <time>2026-03-15T12:14:59Z</time>
      </trkpt>
      <trkpt lat="48.48543" lon="7.18096">
        <ele>392.8</ele>
        <time>2026-03-15T12:15:04Z</time>
      </trkpt>
      <trkpt lat="48.48549" lon="7.18096">
        <ele>394.9</ele>
        <time>2026-03-15T12:15:09Z</time>
      </trkpt>
      <trkpt lat="48.48553" lon="7.18089">
        <ele>396.7</ele>
        <time>2026-03-15T12:15:14Z</time>
      </trkpt>
      <trkpt lat="48.48553" lon="7.18089">
        <ele>396.7</ele>
        <time>2026-03-15T12:15:19Z</time>
      </trkpt>
      <trkpt lat="48.48553" lon="7.18089">
        <ele>396.7</ele>
        <time>2026-03-15T12:15:24Z</time>
      </trkpt>
      <trkpt lat="48.48553" lon="7.18089">
        <ele>396.7</ele>
        <time>2026-03-15T12:15:29Z</time>
      </trkpt>
      <trkpt lat="48.48553" lon="7.18089">
        <ele>396.7</ele>
        <time>2026-03-15T12:15:34Z</time>
      </trkpt>
      <trkpt lat="48.48552" lon="7.18101">
        <ele>395.7</ele>
        <time>2026-03-15T12:15:39Z</time>
      </trkpt>
      <trkpt lat="48.48554" lon="7.18104">
        <ele>396.2</ele>
        <time>2026-03-15T12:15:44Z</time>
      </trkpt>
      <trkpt lat="48.48555" lon="7.18104">
        <ele>396.6</ele>
        <time>2026-03-15T12:15:49Z</time>
      </trkpt>
      <trkpt lat="48.48557" lon="7.18103">
        <ele>397.3</ele>
        <time>2026-03-15T12:15:54Z</time>
      </trkpt>
      <trkpt lat="48.48562" lon="7.18102">
        <ele>399.1</ele>
        <time>2026-03-15T12:15:59Z</time>
      </trkpt>
      <trkpt lat="48.48567" lon="7.18099">
        <ele>401.1</ele>
        <time>2026-03-15T12:16:04Z</time>
      </trkpt>
      <trkpt lat="48.48571" lon="7.18098">
        <ele>402.6</ele>
        <time>2026-03-15T12:16:09Z</time>
      </trkpt>
      <trkpt lat="48.48573" lon="7.18097">
        <ele>403.4</ele>
        <time>2026-03-15T12:16:14Z</time>
      </trkpt>
      <trkpt lat="48.48576" lon="7.18096">
        <ele>404.5</ele>
        <time>2026-03-15T12:16:19Z</time>
      </trkpt>
      <trkpt lat="48.48577" lon="7.18099">
        <ele>404.6</ele>
        <time>2026-03-15T12:16:24Z</time>
      </trkpt>
      <trkpt lat="48.48576" lon="7.181">
        <ele>404.2</ele>
        <time>2026-03-15T12:16:29Z</time>
      </trkpt>
      <trkpt lat="48.48573" lon="7.18102">
        <ele>403</ele>
        <time>2026-03-15T12:16:34Z</time>
      </trkpt>
      <trkpt lat="48.48566" lon="7.18103">
        <ele>400.5</ele>
        <time>2026-03-15T12:16:39Z</time>
      </trkpt>
      <trkpt lat="48.48561" lon="7.18104">
        <ele>398.7</ele>
        <time>2026-03-15T12:16:44Z</time>
      </trkpt>
      <trkpt lat="48.48553" lon="7.18103">
        <ele>395.9</ele>
        <time>2026-03-15T12:16:49Z</time>
      </trkpt>
      <trkpt lat="48.48548" lon="7.18097">
        <ele>394.5</ele>
        <time>2026-03-15T12:16:54Z</time>
      </trkpt>
      <trkpt lat="48.48542" lon="7.18093">
        <ele>392.6</ele>
        <time>2026-03-15T12:16:59Z</time>
      </trkpt>
      <trkpt lat="48.48539" lon="7.18091">
        <ele>391.6</ele>
        <time>2026-03-15T12:17:04Z</time>
      </trkpt>
      <trkpt lat="48.48537" lon="7.1809">
        <ele>391</ele>
        <time>2026-03-15T12:17:09Z</time>
      </trkpt>
      <trkpt lat="48.48533" lon="7.18082">
        <ele>389.9</ele>
        <time>2026-03-15T12:17:14Z</time>
      </trkpt>
      <trkpt lat="48.48528" lon="7.18072">
        <ele>388.3</ele>
        <time>2026-03-15T12:17:19Z</time>
      </trkpt>
      <trkpt lat="48.48524" lon="7.18063">
        <ele>387</ele>
        <time>2026-03-15T12:17:24Z</time>
      </trkpt>
      <trkpt lat="48.48523" lon="7.18058">
        <ele>386.8</ele>
        <time>2026-03-15T12:17:29Z</time>
      </trkpt>
      <trkpt lat="48.48523" lon="7.18058">
        <ele>386.8</ele>
        <time>2026-03-15T12:17:34Z</time>
      </trkpt>
      <trkpt lat="48.48523" lon="7.18059">
        <ele>386.7</ele>
        <time>2026-03-15T12:17:39Z</time>
      </trkpt>
      <trkpt lat="48.48519" lon="7.18059">
        <ele>385.3</ele>
        <time>2026-03-15T12:17:44Z</time>
      </trkpt>
      <trkpt lat="48.48518" lon="7.18059">
        <ele>384.9</ele>
        <time>2026-03-15T12:17:49Z</time>
      </trkpt>
      <trkpt lat="48.48518" lon="7.18059">
        <ele>384.9</ele>
        <time>2026-03-15T12:17:54Z</time>
      </trkpt>
      <trkpt lat="48.48518" lon="7.18059">
        <ele>384.9</ele>
        <time>2026-03-15T12:17:59Z</time>
      </trkpt>
      <trkpt lat="48.48513" lon="7.18051">
        <ele>383.2</ele>
        <time>2026-03-15T12:18:04Z</time>
      </trkpt>
      <trkpt lat="48.48511" lon="7.18042">
        <ele>382.6</ele>
        <time>2026-03-15T12:18:09Z</time>
      </trkpt>
      <trkpt lat="48.48506" lon="7.18032">
        <ele>380.9</ele>
        <time>2026-03-15T12:18:14Z</time>
      </trkpt>
      <trkpt lat="48.48503" lon="7.18031">
        <ele>379.8</ele>
        <time>2026-03-15T12:18:19Z</time>
      </trkpt>
      <trkpt lat="48.485" lon="7.18045">
        <ele>378.5</ele>
        <time>2026-03-15T12:18:24Z</time>
      </trkpt>
      <trkpt lat="48.48501" lon="7.18055">
        <ele>378.7</ele>
        <time>2026-03-15T12:18:29Z</time>
      </trkpt>
      <trkpt lat="48.48504" lon="7.18066">
        <ele>379.7</ele>
        <time>2026-03-15T12:18:34Z</time>
      </trkpt>
      <trkpt lat="48.48506" lon="7.18078">
        <ele>380.2</ele>
        <time>2026-03-15T12:18:39Z</time>
      </trkpt>
      <trkpt lat="48.48506" lon="7.18089">
        <ele>379.9</ele>
        <time>2026-03-15T12:18:44Z</time>
      </trkpt>
      <trkpt lat="48.48508" lon="7.18099">
        <ele>380.3</ele>
        <time>2026-03-15T12:18:49Z</time>
      </trkpt>
      <trkpt lat="48.48508" lon="7.1811">
        <ele>379.8</ele>
        <time>2026-03-15T12:18:54Z</time>
      </trkpt>
      <trkpt lat="48.48509" lon="7.18119">
        <ele>379.8</ele>
        <time>2026-03-15T12:18:59Z</time>
      </trkpt>
      <trkpt lat="48.4851" lon="7.18129">
        <ele>379.8</ele>
        <time>2026-03-15T12:19:04Z</time>
      </trkpt>
      <trkpt lat="48.48509" lon="7.18141">
        <ele>378.9</ele>
        <time>2026-03-15T12:19:09Z</time>
      </trkpt>
      <trkpt lat="48.48508" lon="7.18151">
        <ele>378.2</ele>
        <time>2026-03-15T12:19:14Z</time>
      </trkpt>
      <trkpt lat="48.48507" lon="7.18162">
        <ele>377.5</ele>
        <time>2026-03-15T12:19:19Z</time>
      </trkpt>
      <trkpt lat="48.48508" lon="7.18169">
        <ele>377.5</ele>
        <time>2026-03-15T12:19:24Z</time>
      </trkpt>
      <trkpt lat="48.48512" lon="7.18176">
        <ele>378.4</ele>
        <time>2026-03-15T12:19:29Z</time>
      </trkpt>
      <trkpt lat="48.48517" lon="7.18181">
        <ele>379.6</ele>
        <time>2026-03-15T12:19:34Z</time>
      </trkpt>
      <trkpt lat="48.48524" lon="7.1818">
        <ele>381.8</ele>
        <time>2026-03-15T12:19:39Z</time>
      </trkpt>
      <trkpt lat="48.48532" lon="7.18179">
        <ele>384.4</ele>
        <time>2026-03-15T12:19:44Z</time>
      </trkpt>
      <trkpt lat="48.48539" lon="7.18177">
        <ele>386.7</ele>
        <time>2026-03-15T12:19:49Z</time>
      </trkpt>
      <trkpt lat="48.48548" lon="7.18175">
        <ele>389.7</ele>
        <time>2026-03-15T12:19:54Z</time>
      </trkpt>
      <trkpt lat="48.48552" lon="7.18173">
        <ele>391.1</ele>
        <time>2026-03-15T12:19:59Z</time>
      </trkpt>
      <trkpt lat="48.48552" lon="7.18171">
        <ele>391.4</ele>
        <time>2026-03-15T12:20:04Z</time>
      </trkpt>
      <trkpt lat="48.48553" lon="7.1817">
        <ele>391.8</ele>
        <time>2026-03-15T12:20:09Z</time>
      </trkpt>
      <trkpt lat="48.48553" lon="7.1817">
        <ele>391.8</ele>
        <time>2026-03-15T12:20:14Z</time>
      </trkpt>
      <trkpt lat="48.48553" lon="7.1817">
        <ele>391.8</ele>
        <time>2026-03-15T12:20:19Z</time>
      </trkpt>
      <trkpt lat="48.48553" lon="7.1817">
        <ele>391.8</ele>
        <time>2026-03-15T12:20:24Z</time>
      </trkpt>
      <trkpt lat="48.48553" lon="7.1817">
        <ele>391.8</ele>
        <time>2026-03-15T12:20:29Z</time>
      </trkpt>
      <trkpt lat="48.48553" lon="7.1817">
        <ele>391.8</ele>
        <time>2026-03-15T12:20:34Z</time>
      </trkpt>
      <trkpt lat="48.48553" lon="7.1817">
        <ele>391.8</ele>
        <time>2026-03-15T12:20:39Z</time>
      </trkpt>
      <trkpt lat="48.48553" lon="7.1817">
        <ele>391.8</ele>
        <time>2026-03-15T12:20:44Z</time>
      </trkpt>
      <trkpt lat="48.48553" lon="7.1817">
        <ele>391.8</ele>
        <time>2026-03-15T12:20:49Z</time>
      </trkpt>
      <trkpt lat="48.48553" lon="7.1817">
        <ele>391.8</ele>
        <time>2026-03-15T12:20:54Z</time>
      </trkpt>
      <trkpt lat="48.48553" lon="7.1817">
        <ele>391.8</ele>
        <time>2026-03-15T12:20:59Z</time>
      </trkpt>
      <trkpt lat="48.48556" lon="7.18174">
        <ele>392.3</ele>
        <time>2026-03-15T12:21:04Z</time>
      </trkpt>
      <trkpt lat="48.48566" lon="7.18179">
        <ele>394.8</ele>
        <time>2026-03-15T12:21:09Z</time>
      </trkpt>
      <trkpt lat="48.48573" lon="7.18183">
        <ele>396.3</ele>
        <time>2026-03-15T12:21:14Z</time>
      </trkpt>
      <trkpt lat="48.48579" lon="7.18182">
        <ele>398.3</ele>
        <time>2026-03-15T12:21:19Z</time>
      </trkpt>
      <trkpt lat="48.48585" lon="7.18182">
        <ele>399.7</ele>
        <time>2026-03-15T12:21:24Z</time>
      </trkpt>
      <trkpt lat="48.48592" lon="7.18182">
        <ele>400.2</ele>
        <time>2026-03-15T12:21:29Z</time>
      </trkpt>
      <trkpt lat="48.48599" lon="7.1818">
        <ele>401</ele>
        <time>2026-03-15T12:21:34Z</time>
      </trkpt>
      <trkpt lat="48.48606" lon="7.18182">
        <ele>401.1</ele>
        <time>2026-03-15T12:21:39Z</time>
      </trkpt>
      <trkpt lat="48.48613" lon="7.18186">
        <ele>400.8</ele>
        <time>2026-03-15T12:21:44Z</time>
      </trkpt>
      <trkpt lat="48.4862" lon="7.18186">
        <ele>401.2</ele>
        <time>2026-03-15T12:21:49Z</time>
      </trkpt>
      <trkpt lat="48.48625" lon="7.18189">
        <ele>400.9</ele>
        <time>2026-03-15T12:21:54Z</time>
      </trkpt>
      <trkpt lat="48.48632" lon="7.18188">
        <ele>401.6</ele>
        <time>2026-03-15T12:21:59Z</time>
      </trkpt>
      <trkpt lat="48.48637" lon="7.18186">
        <ele>402.3</ele>
        <time>2026-03-15T12:22:04Z</time>
      </trkpt>
      <trkpt lat="48.48638" lon="7.18182">
        <ele>403.2</ele>
        <time>2026-03-15T12:22:09Z</time>
      </trkpt>
      <trkpt lat="48.48638" lon="7.18182">
        <ele>403.2</ele>
        <time>2026-03-15T12:22:14Z</time>
      </trkpt>
      <trkpt lat="48.48638" lon="7.18182">
        <ele>403.2</ele>
        <time>2026-03-15T12:22:19Z</time>
      </trkpt>
      <trkpt lat="48.48638" lon="7.18182">
        <ele>403.2</ele>
        <time>2026-03-15T12:22:24Z</time>
      </trkpt>
      <trkpt lat="48.48638" lon="7.18182">
        <ele>403.2</ele>
        <time>2026-03-15T12:22:29Z</time>
      </trkpt>
      <trkpt lat="48.48638" lon="7.18182">
        <ele>403.2</ele>
        <time>2026-03-15T12:22:34Z</time>
      </trkpt>
      <trkpt lat="48.48641" lon="7.18191">
        <ele>401.4</ele>
        <time>2026-03-15T12:22:39Z</time>
      </trkpt>
      <trkpt lat="48.48647" lon="7.18195">
        <ele>400.8</ele>
        <time>2026-03-15T12:22:44Z</time>
      </trkpt>
      <trkpt lat="48.48657" lon="7.18194">
        <ele>401.6</ele>
        <time>2026-03-15T12:22:49Z</time>
      </trkpt>
      <trkpt lat="48.48666" lon="7.18194">
        <ele>402.1</ele>
        <time>2026-03-15T12:22:54Z</time>
      </trkpt>
      <trkpt lat="48.48664" lon="7.182">
        <ele>400.5</ele>
        <time>2026-03-15T12:22:59Z</time>
      </trkpt>
      <trkpt lat="48.48661" lon="7.182">
        <ele>400.3</ele>
        <time>2026-03-15T12:23:04Z</time>
      </trkpt>
      <trkpt lat="48.48659" lon="7.18205">
        <ele>399</ele>
        <time>2026-03-15T12:23:09Z</time>
      </trkpt>
      <trkpt lat="48.48659" lon="7.18214">
        <ele>396.8</ele>
        <time>2026-03-15T12:23:14Z</time>
      </trkpt>
      <trkpt lat="48.48659" lon="7.18222">
        <ele>394.9</ele>
        <time>2026-03-15T12:23:19Z</time>
      </trkpt>
      <trkpt lat="48.48659" lon="7.18231">
        <ele>392.7</ele>
        <time>2026-03-15T12:23:24Z</time>
      </trkpt>
      <trkpt lat="48.4866" lon="7.18242">
        <ele>390</ele>
        <time>2026-03-15T12:23:29Z</time>
      </trkpt>
      <trkpt lat="48.48662" lon="7.1826">
        <ele>388.1</ele>
        <time>2026-03-15T12:23:34Z</time>
      </trkpt>
      <trkpt lat="48.48665" lon="7.18266">
        <ele>388.2</ele>
        <time>2026-03-15T12:23:39Z</time>
      </trkpt>
      <trkpt lat="48.4867" lon="7.18262">
        <ele>388.5</ele>
        <time>2026-03-15T12:23:44Z</time>
      </trkpt>
      <trkpt lat="48.48675" lon="7.1826">
        <ele>389</ele>
        <time>2026-03-15T12:23:49Z</time>
      </trkpt>
      <trkpt lat="48.48685" lon="7.18257">
        <ele>389.9</ele>
        <time>2026-03-15T12:23:54Z</time>
      </trkpt>
      <trkpt lat="48.48692" lon="7.18256">
        <ele>390.6</ele>
        <time>2026-03-15T12:23:59Z</time>
      </trkpt>
      <trkpt lat="48.48697" lon="7.18256">
        <ele>391</ele>
        <time>2026-03-15T12:24:04Z</time>
      </trkpt>
      <trkpt lat="48.48704" lon="7.18255">
        <ele>391.6</ele>
        <time>2026-03-15T12:24:09Z</time>
      </trkpt>
      <trkpt lat="48.48709" lon="7.18253">
        <ele>391.9</ele>
        <time>2026-03-15T12:24:14Z</time>
      </trkpt>
      <trkpt lat="48.48716" lon="7.18251">
        <ele>392.3</ele>
        <time>2026-03-15T12:24:19Z</time>
      </trkpt>
      <trkpt lat="48.48723" lon="7.18249">
        <ele>392.9</ele>
        <time>2026-03-15T12:24:24Z</time>
      </trkpt>
      <trkpt lat="48.48729" lon="7.18247">
        <ele>393.8</ele>
        <time>2026-03-15T12:24:29Z</time>
      </trkpt>
      <trkpt lat="48.48735" lon="7.18246">
        <ele>394.4</ele>
        <time>2026-03-15T12:24:34Z</time>
      </trkpt>
      <trkpt lat="48.48741" lon="7.18246">
        <ele>394.9</ele>
        <time>2026-03-15T12:24:39Z</time>
      </trkpt>
      <trkpt lat="48.48748" lon="7.18245">
        <ele>395.6</ele>
        <time>2026-03-15T12:24:44Z</time>
      </trkpt>
      <trkpt lat="48.48753" lon="7.18246">
        <ele>395.9</ele>
        <time>2026-03-15T12:24:49Z</time>
      </trkpt>
      <trkpt lat="48.48758" lon="7.18249">
        <ele>396</ele>
        <time>2026-03-15T12:24:54Z</time>
      </trkpt>
      <trkpt lat="48.4876" lon="7.18258">
        <ele>397.9</ele>
        <time>2026-03-15T12:24:59Z</time>
      </trkpt>
      <trkpt lat="48.48757" lon="7.18259">
        <ele>397.7</ele>
        <time>2026-03-15T12:25:04Z</time>
      </trkpt>
      <trkpt lat="48.48757" lon="7.18259">
        <ele>397.7</ele>
        <time>2026-03-15T12:25:09Z</time>
      </trkpt>
      <trkpt lat="48.48755" lon="7.18257">
        <ele>397.1</ele>
        <time>2026-03-15T12:25:14Z</time>
      </trkpt>
      <trkpt lat="48.48749" lon="7.18255">
        <ele>395.9</ele>
        <time>2026-03-15T12:25:19Z</time>
      </trkpt>
      <trkpt lat="48.48741" lon="7.18258">
        <ele>395.7</ele>
        <time>2026-03-15T12:25:24Z</time>
      </trkpt>
      <trkpt lat="48.48735" lon="7.18257">
        <ele>394.9</ele>
        <time>2026-03-15T12:25:29Z</time>
      </trkpt>
      <trkpt lat="48.48727" lon="7.1826">
        <ele>394.6</ele>
        <time>2026-03-15T12:25:34Z</time>
      </trkpt>
      <trkpt lat="48.48724" lon="7.18263">
        <ele>394.7</ele>
        <time>2026-03-15T12:25:39Z</time>
      </trkpt>
      <trkpt lat="48.48718" lon="7.1826">
        <ele>393.6</ele>
        <time>2026-03-15T12:25:44Z</time>
      </trkpt>
      <trkpt lat="48.48714" lon="7.18262">
        <ele>393.4</ele>
        <time>2026-03-15T12:25:49Z</time>
      </trkpt>
      <trkpt lat="48.48709" lon="7.18272">
        <ele>394</ele>
        <time>2026-03-15T12:25:54Z</time>
      </trkpt>
      <trkpt lat="48.48703" lon="7.18275">
        <ele>393.4</ele>
        <time>2026-03-15T12:25:59Z</time>
      </trkpt>
      <trkpt lat="48.48697" lon="7.18279">
        <ele>392.9</ele>
        <time>2026-03-15T12:26:04Z</time>
      </trkpt>
      <trkpt lat="48.48692" lon="7.18282">
        <ele>392.4</ele>
        <time>2026-03-15T12:26:09Z</time>
      </trkpt>
      <trkpt lat="48.48685" lon="7.18286">
        <ele>391.5</ele>
        <time>2026-03-15T12:26:14Z</time>
      </trkpt>
      <trkpt lat="48.4868" lon="7.18287">
        <ele>390.7</ele>
        <time>2026-03-15T12:26:19Z</time>
      </trkpt>
      <trkpt lat="48.48676" lon="7.18294">
        <ele>390.3</ele>
        <time>2026-03-15T12:26:24Z</time>
      </trkpt>
      <trkpt lat="48.48669" lon="7.18298">
        <ele>389</ele>
        <time>2026-03-15T12:26:29Z</time>
      </trkpt>
      <trkpt lat="48.48664" lon="7.18303">
        <ele>388.4</ele>
        <time>2026-03-15T12:26:34Z</time>
      </trkpt>
      <trkpt lat="48.48659" lon="7.18307">
        <ele>387.9</ele>
        <time>2026-03-15T12:26:39Z</time>
      </trkpt>
      <trkpt lat="48.48653" lon="7.18313">
        <ele>387.2</ele>
        <time>2026-03-15T12:26:44Z</time>
      </trkpt>
      <trkpt lat="48.48647" lon="7.18315">
        <ele>386.4</ele>
        <time>2026-03-15T12:26:49Z</time>
      </trkpt>
      <trkpt lat="48.48641" lon="7.18317">
        <ele>385.6</ele>
        <time>2026-03-15T12:26:54Z</time>
      </trkpt>
      <trkpt lat="48.48637" lon="7.18323">
        <ele>384.9</ele>
        <time>2026-03-15T12:26:59Z</time>
      </trkpt>
      <trkpt lat="48.48631" lon="7.18327">
        <ele>383.8</ele>
        <time>2026-03-15T12:27:04Z</time>
      </trkpt>
      <trkpt lat="48.48626" lon="7.18334">
        <ele>382.7</ele>
        <time>2026-03-15T12:27:09Z</time>
      </trkpt>
      <trkpt lat="48.48623" lon="7.18339">
        <ele>382.7</ele>
        <time>2026-03-15T12:27:14Z</time>
      </trkpt>
      <trkpt lat="48.48619" lon="7.18343">
        <ele>382.3</ele>
        <time>2026-03-15T12:27:19Z</time>
      </trkpt>
      <trkpt lat="48.48613" lon="7.18348">
        <ele>381.7</ele>
        <time>2026-03-15T12:27:24Z</time>
      </trkpt>
      <trkpt lat="48.4861" lon="7.18352">
        <ele>381.4</ele>
        <time>2026-03-15T12:27:29Z</time>
      </trkpt>
      <trkpt lat="48.48605" lon="7.18358">
        <ele>380.8</ele>
        <time>2026-03-15T12:27:34Z</time>
      </trkpt>
      <trkpt lat="48.48601" lon="7.18365">
        <ele>380.4</ele>
        <time>2026-03-15T12:27:39Z</time>
      </trkpt>
      <trkpt lat="48.48598" lon="7.1837">
        <ele>380</ele>
        <time>2026-03-15T12:27:44Z</time>
      </trkpt>
      <trkpt lat="48.48594" lon="7.1838">
        <ele>379.6</ele>
        <time>2026-03-15T12:27:49Z</time>
      </trkpt>
      <trkpt lat="48.4859" lon="7.18388">
        <ele>378.9</ele>
        <time>2026-03-15T12:27:54Z</time>
      </trkpt>
      <trkpt lat="48.48587" lon="7.18396">
        <ele>378.4</ele>
        <time>2026-03-15T12:27:59Z</time>
      </trkpt>
      <trkpt lat="48.48582" lon="7.18404">
        <ele>377.5</ele>
        <time>2026-03-15T12:28:04Z</time>
      </trkpt>
      <trkpt lat="48.48581" lon="7.18415">
        <ele>377.6</ele>
        <time>2026-03-15T12:28:09Z</time>
      </trkpt>
      <trkpt lat="48.48572" lon="7.18421">
        <ele>376.6</ele>
        <time>2026-03-15T12:28:14Z</time>
      </trkpt>
      <trkpt lat="48.48571" lon="7.18431">
        <ele>377.1</ele>
        <time>2026-03-15T12:28:19Z</time>
      </trkpt>
      <trkpt lat="48.48566" lon="7.18437">
        <ele>376.7</ele>
        <time>2026-03-15T12:28:24Z</time>
      </trkpt>
      <trkpt lat="48.48562" lon="7.18436">
        <ele>376</ele>
        <time>2026-03-15T12:28:29Z</time>
      </trkpt>
      <trkpt lat="48.48558" lon="7.18437">
        <ele>375.4</ele>
        <time>2026-03-15T12:28:34Z</time>
      </trkpt>
      <trkpt lat="48.48557" lon="7.18437">
        <ele>375.2</ele>
        <time>2026-03-15T12:28:39Z</time>
      </trkpt>
      <trkpt lat="48.48557" lon="7.18438">
        <ele>375.3</ele>
        <time>2026-03-15T12:28:44Z</time>
      </trkpt>
      <trkpt lat="48.48557" lon="7.18438">
        <ele>375.3</ele>
        <time>2026-03-15T12:28:49Z</time>
      </trkpt>
      <trkpt lat="48.48557" lon="7.18438">
        <ele>375.3</ele>
        <time>2026-03-15T12:28:54Z</time>
      </trkpt>
      <trkpt lat="48.48557" lon="7.18438">
        <ele>375.3</ele>
        <time>2026-03-15T12:28:59Z</time>
      </trkpt>
      <trkpt lat="48.48557" lon="7.18438">
        <ele>375.3</ele>
        <time>2026-03-15T12:29:04Z</time>
      </trkpt>
      <trkpt lat="48.48557" lon="7.18438">
        <ele>375.3</ele>
        <time>2026-03-15T12:29:09Z</time>
      </trkpt>
      <trkpt lat="48.48561" lon="7.18445">
        <ele>376.3</ele>
        <time>2026-03-15T12:29:14Z</time>
      </trkpt>
      <trkpt lat="48.48564" lon="7.18454">
        <ele>377.3</ele>
        <time>2026-03-15T12:29:19Z</time>
      </trkpt>
      <trkpt lat="48.48564" lon="7.18464">
        <ele>377.8</ele>
        <time>2026-03-15T12:29:24Z</time>
      </trkpt>
      <trkpt lat="48.48566" lon="7.18472">
        <ele>378.7</ele>
        <time>2026-03-15T12:29:29Z</time>
      </trkpt>
      <trkpt lat="48.48568" lon="7.18479">
        <ele>379.5</ele>
        <time>2026-03-15T12:29:34Z</time>
      </trkpt>
      <trkpt lat="48.48568" lon="7.18487">
        <ele>379.9</ele>
        <time>2026-03-15T12:29:39Z</time>
      </trkpt>
      <trkpt lat="48.48568" lon="7.18497">
        <ele>380.5</ele>
        <time>2026-03-15T12:29:44Z</time>
      </trkpt>
      <trkpt lat="48.48568" lon="7.18507">
        <ele>380.3</ele>
        <time>2026-03-15T12:29:49Z</time>
      </trkpt>
      <trkpt lat="48.48567" lon="7.18519">
        <ele>379.5</ele>
        <time>2026-03-15T12:29:54Z</time>
      </trkpt>
      <trkpt lat="48.48566" lon="7.18529">
        <ele>378.8</ele>
        <time>2026-03-15T12:29:59Z</time>
      </trkpt>
      <trkpt lat="48.48568" lon="7.18543">
        <ele>378.5</ele>
        <time>2026-03-15T12:30:04Z</time>
      </trkpt>
      <trkpt lat="48.4857" lon="7.18553">
        <ele>378.3</ele>
        <time>2026-03-15T12:30:09Z</time>
      </trkpt>
      <trkpt lat="48.48574" lon="7.18562">
        <ele>378.6</ele>
        <time>2026-03-15T12:30:14Z</time>
      </trkpt>
      <trkpt lat="48.4858" lon="7.18569">
        <ele>379.3</ele>
        <time>2026-03-15T12:30:19Z</time>
      </trkpt>
      <trkpt lat="48.48587" lon="7.1858">
        <ele>380.1</ele>
        <time>2026-03-15T12:30:24Z</time>
      </trkpt>
      <trkpt lat="48.48592" lon="7.1859">
        <ele>381.1</ele>
        <time>2026-03-15T12:30:29Z</time>
      </trkpt>
      <trkpt lat="48.48599" lon="7.18592">
        <ele>382.9</ele>
        <time>2026-03-15T12:30:34Z</time>
      </trkpt>
      <trkpt lat="48.48608" lon="7.18596">
        <ele>385</ele>
        <time>2026-03-15T12:30:39Z</time>
      </trkpt>
      <trkpt lat="48.48614" lon="7.186">
        <ele>386.4</ele>
        <time>2026-03-15T12:30:44Z</time>
      </trkpt>
      <trkpt lat="48.48622" lon="7.18601">
        <ele>388.3</ele>
        <time>2026-03-15T12:30:49Z</time>
      </trkpt>
      <trkpt lat="48.48628" lon="7.18606">
        <ele>389.5</ele>
        <time>2026-03-15T12:30:54Z</time>
      </trkpt>
      <trkpt lat="48.48633" lon="7.18612">
        <ele>390.5</ele>
        <time>2026-03-15T12:30:59Z</time>
      </trkpt>
      <trkpt lat="48.48636" lon="7.18619">
        <ele>390.9</ele>
        <time>2026-03-15T12:31:04Z</time>
      </trkpt>
      <trkpt lat="48.48637" lon="7.18628">
        <ele>390.8</ele>
        <time>2026-03-15T12:31:09Z</time>
      </trkpt>
      <trkpt lat="48.48633" lon="7.18639">
        <ele>389.5</ele>
        <time>2026-03-15T12:31:14Z</time>
      </trkpt>
      <trkpt lat="48.48628" lon="7.18648">
        <ele>388.2</ele>
        <time>2026-03-15T12:31:19Z</time>
      </trkpt>
      <trkpt lat="48.48623" lon="7.18655">
        <ele>386.9</ele>
        <time>2026-03-15T12:31:24Z</time>
      </trkpt>
      <trkpt lat="48.48619" lon="7.18664">
        <ele>385.9</ele>
        <time>2026-03-15T12:31:29Z</time>
      </trkpt>
      <trkpt lat="48.48616" lon="7.1867">
        <ele>385.7</ele>
        <time>2026-03-15T12:31:34Z</time>
      </trkpt>
      <trkpt lat="48.48613" lon="7.18678">
        <ele>386.1</ele>
        <time>2026-03-15T12:31:39Z</time>
      </trkpt>
      <trkpt lat="48.48608" lon="7.18685">
        <ele>386</ele>
        <time>2026-03-15T12:31:44Z</time>
      </trkpt>
      <trkpt lat="48.48602" lon="7.1869">
        <ele>385.4</ele>
        <time>2026-03-15T12:31:49Z</time>
      </trkpt>
      <trkpt lat="48.48598" lon="7.187">
        <ele>385.7</ele>
        <time>2026-03-15T12:31:54Z</time>
      </trkpt>
      <trkpt lat="48.48592" lon="7.18705">
        <ele>385</ele>
        <time>2026-03-15T12:31:59Z</time>
      </trkpt>
      <trkpt lat="48.48587" lon="7.18711">
        <ele>384.6</ele>
        <time>2026-03-15T12:32:04Z</time>
      </trkpt>
      <trkpt lat="48.48583" lon="7.18717">
        <ele>384.4</ele>
        <time>2026-03-15T12:32:09Z</time>
      </trkpt>
      <trkpt lat="48.4858" lon="7.18726">
        <ele>384.8</ele>
        <time>2026-03-15T12:32:14Z</time>
      </trkpt>
      <trkpt lat="48.48575" lon="7.18735">
        <ele>384.8</ele>
        <time>2026-03-15T12:32:19Z</time>
      </trkpt>
      <trkpt lat="48.4857" lon="7.18744">
        <ele>384.7</ele>
        <time>2026-03-15T12:32:24Z</time>
      </trkpt>
      <trkpt lat="48.48565" lon="7.18752">
        <ele>384.6</ele>
        <time>2026-03-15T12:32:29Z</time>
      </trkpt>
      <trkpt lat="48.48559" lon="7.18759">
        <ele>384.4</ele>
        <time>2026-03-15T12:32:34Z</time>
      </trkpt>
      <trkpt lat="48.48556" lon="7.18767">
        <ele>384.9</ele>
        <time>2026-03-15T12:32:39Z</time>
      </trkpt>
      <trkpt lat="48.48552" lon="7.18775">
        <ele>385.1</ele>
        <time>2026-03-15T12:32:44Z</time>
      </trkpt>
      <trkpt lat="48.48548" lon="7.18782">
        <ele>385.1</ele>
        <time>2026-03-15T12:32:49Z</time>
      </trkpt>
      <trkpt lat="48.48543" lon="7.18789">
        <ele>384.8</ele>
        <time>2026-03-15T12:32:54Z</time>
      </trkpt>
      <trkpt lat="48.48538" lon="7.18797">
        <ele>384.5</ele>
        <time>2026-03-15T12:32:59Z</time>
      </trkpt>
      <trkpt lat="48.48534" lon="7.18806">
        <ele>384.4</ele>
        <time>2026-03-15T12:33:04Z</time>
      </trkpt>
      <trkpt lat="48.4853" lon="7.18814">
        <ele>384.2</ele>
        <time>2026-03-15T12:33:09Z</time>
      </trkpt>
      <trkpt lat="48.48525" lon="7.18821">
        <ele>383.5</ele>
        <time>2026-03-15T12:33:14Z</time>
      </trkpt>
      <trkpt lat="48.4852" lon="7.18828">
        <ele>382.7</ele>
        <time>2026-03-15T12:33:19Z</time>
      </trkpt>
      <trkpt lat="48.48518" lon="7.18837">
        <ele>382.9</ele>
        <time>2026-03-15T12:33:24Z</time>
      </trkpt>
      <trkpt lat="48.48515" lon="7.18845">
        <ele>382.5</ele>
        <time>2026-03-15T12:33:29Z</time>
      </trkpt>
      <trkpt lat="48.4851" lon="7.18851">
        <ele>381.3</ele>
        <time>2026-03-15T12:33:34Z</time>
      </trkpt>
      <trkpt lat="48.48504" lon="7.18863">
        <ele>380.1</ele>
        <time>2026-03-15T12:33:39Z</time>
      </trkpt>
      <trkpt lat="48.48498" lon="7.1887">
        <ele>379.2</ele>
        <time>2026-03-15T12:33:44Z</time>
      </trkpt>
      <trkpt lat="48.48489" lon="7.18875">
        <ele>379.3</ele>
        <time>2026-03-15T12:33:49Z</time>
      </trkpt>
      <trkpt lat="48.48482" lon="7.18885">
        <ele>379.5</ele>
        <time>2026-03-15T12:33:54Z</time>
      </trkpt>
      <trkpt lat="48.48478" lon="7.18894">
        <ele>379.7</ele>
        <time>2026-03-15T12:33:59Z</time>
      </trkpt>
      <trkpt lat="48.4848" lon="7.18901">
        <ele>380</ele>
        <time>2026-03-15T12:34:04Z</time>
      </trkpt>
      <trkpt lat="48.48479" lon="7.18907">
        <ele>380.2</ele>
        <time>2026-03-15T12:34:09Z</time>
      </trkpt>
      <trkpt lat="48.48479" lon="7.18912">
        <ele>380.3</ele>
        <time>2026-03-15T12:34:14Z</time>
      </trkpt>
      <trkpt lat="48.48478" lon="7.1892">
        <ele>380.4</ele>
        <time>2026-03-15T12:34:19Z</time>
      </trkpt>
      <trkpt lat="48.48478" lon="7.1893">
        <ele>380.5</ele>
        <time>2026-03-15T12:34:24Z</time>
      </trkpt>
      <trkpt lat="48.48475" lon="7.18938">
        <ele>380.3</ele>
        <time>2026-03-15T12:34:29Z</time>
      </trkpt>
      <trkpt lat="48.48474" lon="7.18946">
        <ele>380.2</ele>
        <time>2026-03-15T12:34:34Z</time>
      </trkpt>
      <trkpt lat="48.48472" lon="7.18955">
        <ele>380</ele>
        <time>2026-03-15T12:34:39Z</time>
      </trkpt>
      <trkpt lat="48.48468" lon="7.18959">
        <ele>379.5</ele>
        <time>2026-03-15T12:34:44Z</time>
      </trkpt>
      <trkpt lat="48.48465" lon="7.18965">
        <ele>379</ele>
        <time>2026-03-15T12:34:49Z</time>
      </trkpt>
      <trkpt lat="48.48463" lon="7.18977">
        <ele>378.6</ele>
        <time>2026-03-15T12:34:54Z</time>
      </trkpt>
      <trkpt lat="48.48461" lon="7.18988">
        <ele>378.2</ele>
        <time>2026-03-15T12:34:59Z</time>
      </trkpt>
      <trkpt lat="48.4846" lon="7.18997">
        <ele>377.8</ele>
        <time>2026-03-15T12:35:04Z</time>
      </trkpt>
      <trkpt lat="48.48459" lon="7.19008">
        <ele>377.9</ele>
        <time>2026-03-15T12:35:09Z</time>
      </trkpt>
      <trkpt lat="48.4846" lon="7.19014">
        <ele>378.3</ele>
        <time>2026-03-15T12:35:14Z</time>
      </trkpt>
      <trkpt lat="48.48458" lon="7.19023">
        <ele>378.3</ele>
        <time>2026-03-15T12:35:19Z</time>
      </trkpt>
      <trkpt lat="48.48455" lon="7.19034">
        <ele>378</ele>
        <time>2026-03-15T12:35:24Z</time>
      </trkpt>
      <trkpt lat="48.48457" lon="7.1904">
        <ele>378.6</ele>
        <time>2026-03-15T12:35:29Z</time>
      </trkpt>
      <trkpt lat="48.48454" lon="7.19049">
        <ele>378.2</ele>
        <time>2026-03-15T12:35:34Z</time>
      </trkpt>
      <trkpt lat="48.48452" lon="7.19058">
        <ele>378</ele>
        <time>2026-03-15T12:35:39Z</time>
      </trkpt>
      <trkpt lat="48.48451" lon="7.19066">
        <ele>378</ele>
        <time>2026-03-15T12:35:44Z</time>
      </trkpt>
      <trkpt lat="48.48449" lon="7.19073">
        <ele>377.7</ele>
        <time>2026-03-15T12:35:49Z</time>
      </trkpt>
      <trkpt lat="48.48446" lon="7.19079">
        <ele>377</ele>
        <time>2026-03-15T12:35:54Z</time>
      </trkpt>
      <trkpt lat="48.48441" lon="7.19089">
        <ele>375.7</ele>
        <time>2026-03-15T12:35:59Z</time>
      </trkpt>
      <trkpt lat="48.48439" lon="7.19097">
        <ele>375.2</ele>
        <time>2026-03-15T12:36:04Z</time>
      </trkpt>
      <trkpt lat="48.48435" lon="7.19104">
        <ele>373.9</ele>
        <time>2026-03-15T12:36:09Z</time>
      </trkpt>
      <trkpt lat="48.48432" lon="7.19113">
        <ele>372.9</ele>
        <time>2026-03-15T12:36:14Z</time>
      </trkpt>
      <trkpt lat="48.4843" lon="7.1912">
        <ele>372.1</ele>
        <time>2026-03-15T12:36:19Z</time>
      </trkpt>
      <trkpt lat="48.48428" lon="7.19126">
        <ele>371.4</ele>
        <time>2026-03-15T12:36:24Z</time>
      </trkpt>
      <trkpt lat="48.48426" lon="7.19133">
        <ele>370.5</ele>
        <time>2026-03-15T12:36:29Z</time>
      </trkpt>
      <trkpt lat="48.48424" lon="7.1914">
        <ele>369.6</ele>
        <time>2026-03-15T12:36:34Z</time>
      </trkpt>
      <trkpt lat="48.48421" lon="7.1915">
        <ele>368.3</ele>
        <time>2026-03-15T12:36:39Z</time>
      </trkpt>
      <trkpt lat="48.48417" lon="7.19159">
        <ele>366.4</ele>
        <time>2026-03-15T12:36:44Z</time>
      </trkpt>
      <trkpt lat="48.48415" lon="7.19169">
        <ele>366.4</ele>
        <time>2026-03-15T12:36:49Z</time>
      </trkpt>
      <trkpt lat="48.48413" lon="7.19179">
        <ele>366.8</ele>
        <time>2026-03-15T12:36:54Z</time>
      </trkpt>
      <trkpt lat="48.48408" lon="7.19189">
        <ele>367.4</ele>
        <time>2026-03-15T12:36:59Z</time>
      </trkpt>
      <trkpt lat="48.48405" lon="7.192">
        <ele>367.5</ele>
        <time>2026-03-15T12:37:04Z</time>
      </trkpt>
      <trkpt lat="48.48403" lon="7.1921">
        <ele>367.4</ele>
        <time>2026-03-15T12:37:09Z</time>
      </trkpt>
      <trkpt lat="48.484" lon="7.19218">
        <ele>367.3</ele>
        <time>2026-03-15T12:37:14Z</time>
      </trkpt>
      <trkpt lat="48.48398" lon="7.19225">
        <ele>367.1</ele>
        <time>2026-03-15T12:37:19Z</time>
      </trkpt>
      <trkpt lat="48.48396" lon="7.19231">
        <ele>366.8</ele>
        <time>2026-03-15T12:37:24Z</time>
      </trkpt>
      <trkpt lat="48.48393" lon="7.19237">
        <ele>366.4</ele>
        <time>2026-03-15T12:37:29Z</time>
      </trkpt>
      <trkpt lat="48.48391" lon="7.19243">
        <ele>365.9</ele>
        <time>2026-03-15T12:37:34Z</time>
      </trkpt>
      <trkpt lat="48.48388" lon="7.19249">
        <ele>365.4</ele>
        <time>2026-03-15T12:37:39Z</time>
      </trkpt>
      <trkpt lat="48.48385" lon="7.19254">
        <ele>365.2</ele>
        <time>2026-03-15T12:37:44Z</time>
      </trkpt>
      <trkpt lat="48.48382" lon="7.19262">
        <ele>365</ele>
        <time>2026-03-15T12:37:49Z</time>
      </trkpt>
      <trkpt lat="48.48383" lon="7.1927">
        <ele>365.2</ele>
        <time>2026-03-15T12:37:54Z</time>
      </trkpt>
      <trkpt lat="48.48382" lon="7.19279">
        <ele>365.2</ele>
        <time>2026-03-15T12:37:59Z</time>
      </trkpt>
      <trkpt lat="48.4838" lon="7.19289">
        <ele>365</ele>
        <time>2026-03-15T12:38:04Z</time>
      </trkpt>
      <trkpt lat="48.48376" lon="7.19297">
        <ele>364.4</ele>
        <time>2026-03-15T12:38:09Z</time>
      </trkpt>
      <trkpt lat="48.48373" lon="7.19304">
        <ele>363.8</ele>
        <time>2026-03-15T12:38:14Z</time>
      </trkpt>
      <trkpt lat="48.48371" lon="7.19312">
        <ele>363.4</ele>
        <time>2026-03-15T12:38:19Z</time>
      </trkpt>
      <trkpt lat="48.48368" lon="7.19318">
        <ele>362.6</ele>
        <time>2026-03-15T12:38:24Z</time>
      </trkpt>
      <trkpt lat="48.48365" lon="7.19326">
        <ele>361.8</ele>
        <time>2026-03-15T12:38:29Z</time>
      </trkpt>
      <trkpt lat="48.48365" lon="7.19335">
        <ele>361.6</ele>
        <time>2026-03-15T12:38:34Z</time>
      </trkpt>
      <trkpt lat="48.48362" lon="7.19343">
        <ele>361.1</ele>
        <time>2026-03-15T12:38:39Z</time>
      </trkpt>
      <trkpt lat="48.48359" lon="7.19351">
        <ele>360.4</ele>
        <time>2026-03-15T12:38:44Z</time>
      </trkpt>
      <trkpt lat="48.48355" lon="7.19359">
        <ele>359.3</ele>
        <time>2026-03-15T12:38:49Z</time>
      </trkpt>
      <trkpt lat="48.48352" lon="7.19368">
        <ele>358.4</ele>
        <time>2026-03-15T12:38:54Z</time>
      </trkpt>
      <trkpt lat="48.48351" lon="7.1937">
        <ele>358.1</ele>
        <time>2026-03-15T12:38:59Z</time>
      </trkpt>
      <trkpt lat="48.48349" lon="7.19371">
        <ele>357.5</ele>
        <time>2026-03-15T12:39:04Z</time>
      </trkpt>
      <trkpt lat="48.48349" lon="7.19371">
        <ele>357.5</ele>
        <time>2026-03-15T12:39:09Z</time>
      </trkpt>
      <trkpt lat="48.48349" lon="7.19371">
        <ele>357.5</ele>
        <time>2026-03-15T12:39:14Z</time>
      </trkpt>
      <trkpt lat="48.48349" lon="7.19371">
        <ele>357.5</ele>
        <time>2026-03-15T12:39:19Z</time>
      </trkpt>
      <trkpt lat="48.48343" lon="7.1938">
        <ele>355.5</ele>
        <time>2026-03-15T12:39:24Z</time>
      </trkpt>
      <trkpt lat="48.48338" lon="7.19387">
        <ele>353.7</ele>
        <time>2026-03-15T12:39:29Z</time>
      </trkpt>
      <trkpt lat="48.48336" lon="7.19397">
        <ele>352.7</ele>
        <time>2026-03-15T12:39:34Z</time>
      </trkpt>
      <trkpt lat="48.48332" lon="7.19405">
        <ele>351.7</ele>
        <time>2026-03-15T12:39:39Z</time>
      </trkpt>
      <trkpt lat="48.48327" lon="7.1941">
        <ele>352.7</ele>
        <time>2026-03-15T12:39:44Z</time>
      </trkpt>
      <trkpt lat="48.48326" lon="7.19417">
        <ele>352.7</ele>
        <time>2026-03-15T12:39:49Z</time>
      </trkpt>
      <trkpt lat="48.48324" lon="7.19424">
        <ele>353.1</ele>
        <time>2026-03-15T12:39:54Z</time>
      </trkpt>
      <trkpt lat="48.48323" lon="7.19433">
        <ele>353.3</ele>
        <time>2026-03-15T12:39:59Z</time>
      </trkpt>
      <trkpt lat="48.48321" lon="7.19441">
        <ele>353.6</ele>
        <time>2026-03-15T12:40:04Z</time>
      </trkpt>
      <trkpt lat="48.48319" lon="7.19448">
        <ele>354</ele>
        <time>2026-03-15T12:40:09Z</time>
      </trkpt>
      <trkpt lat="48.48316" lon="7.19454">
        <ele>354.6</ele>
        <time>2026-03-15T12:40:14Z</time>
      </trkpt>
      <trkpt lat="48.48315" lon="7.19464">
        <ele>354.7</ele>
        <time>2026-03-15T12:40:19Z</time>
      </trkpt>
      <trkpt lat="48.48314" lon="7.19473">
        <ele>354.8</ele>
        <time>2026-03-15T12:40:24Z</time>
      </trkpt>
      <trkpt lat="48.48312" lon="7.19482">
        <ele>355.1</ele>
        <time>2026-03-15T12:40:29Z</time>
      </trkpt>
      <trkpt lat="48.48308" lon="7.1949">
        <ele>355.7</ele>
        <time>2026-03-15T12:40:34Z</time>
      </trkpt>
      <trkpt lat="48.48307" lon="7.19496">
        <ele>355.8</ele>
        <time>2026-03-15T12:40:39Z</time>
      </trkpt>
      <trkpt lat="48.48305" lon="7.19504">
        <ele>356.2</ele>
        <time>2026-03-15T12:40:44Z</time>
      </trkpt>
      <trkpt lat="48.48304" lon="7.19514">
        <ele>356.5</ele>
        <time>2026-03-15T12:40:49Z</time>
      </trkpt>
      <trkpt lat="48.48304" lon="7.19522">
        <ele>356.6</ele>
        <time>2026-03-15T12:40:54Z</time>
      </trkpt>
      <trkpt lat="48.48303" lon="7.19529">
        <ele>356.9</ele>
        <time>2026-03-15T12:40:59Z</time>
      </trkpt>
      <trkpt lat="48.48304" lon="7.19535">
        <ele>356.8</ele>
        <time>2026-03-15T12:41:04Z</time>
      </trkpt>
      <trkpt lat="48.48303" lon="7.19543">
        <ele>357.1</ele>
        <time>2026-03-15T12:41:09Z</time>
      </trkpt>
      <trkpt lat="48.48302" lon="7.19552">
        <ele>357.3</ele>
        <time>2026-03-15T12:41:14Z</time>
      </trkpt>
      <trkpt lat="48.48303" lon="7.19561">
        <ele>357.3</ele>
        <time>2026-03-15T12:41:19Z</time>
      </trkpt>
      <trkpt lat="48.48302" lon="7.1957">
        <ele>357.6</ele>
        <time>2026-03-15T12:41:24Z</time>
      </trkpt>
      <trkpt lat="48.483" lon="7.19579">
        <ele>357.9</ele>
        <time>2026-03-15T12:41:29Z</time>
      </trkpt>
      <trkpt lat="48.48299" lon="7.19587">
        <ele>358</ele>
        <time>2026-03-15T12:41:34Z</time>
      </trkpt>
      <trkpt lat="48.48297" lon="7.19598">
        <ele>357.7</ele>
        <time>2026-03-15T12:41:39Z</time>
      </trkpt>
      <trkpt lat="48.48297" lon="7.19605">
        <ele>357.4</ele>
        <time>2026-03-15T12:41:44Z</time>
      </trkpt>
      <trkpt lat="48.48298" lon="7.19613">
        <ele>357</ele>
        <time>2026-03-15T12:41:49Z</time>
      </trkpt>
      <trkpt lat="48.48299" lon="7.19621">
        <ele>356.5</ele>
        <time>2026-03-15T12:41:54Z</time>
      </trkpt>
      <trkpt lat="48.48301" lon="7.19631">
        <ele>355.8</ele>
        <time>2026-03-15T12:41:59Z</time>
      </trkpt>
      <trkpt lat="48.48301" lon="7.19645">
        <ele>355.2</ele>
        <time>2026-03-15T12:42:04Z</time>
      </trkpt>
      <trkpt lat="48.483" lon="7.19651">
        <ele>355.1</ele>
        <time>2026-03-15T12:42:09Z</time>
      </trkpt>
      <trkpt lat="48.483" lon="7.19659">
        <ele>354.7</ele>
        <time>2026-03-15T12:42:14Z</time>
      </trkpt>
      <trkpt lat="48.483" lon="7.19663">
        <ele>354.6</ele>
        <time>2026-03-15T12:42:19Z</time>
      </trkpt>
      <trkpt lat="48.48298" lon="7.19669">
        <ele>354.5</ele>
        <time>2026-03-15T12:42:24Z</time>
      </trkpt>
      <trkpt lat="48.48299" lon="7.19675">
        <ele>354.1</ele>
        <time>2026-03-15T12:42:29Z</time>
      </trkpt>
      <trkpt lat="48.483" lon="7.19682">
        <ele>353.6</ele>
        <time>2026-03-15T12:42:34Z</time>
      </trkpt>
      <trkpt lat="48.48301" lon="7.19691">
        <ele>353</ele>
        <time>2026-03-15T12:42:39Z</time>
      </trkpt>
      <trkpt lat="48.48301" lon="7.197">
        <ele>352.5</ele>
        <time>2026-03-15T12:42:44Z</time>
      </trkpt>
      <trkpt lat="48.48301" lon="7.19709">
        <ele>352</ele>
        <time>2026-03-15T12:42:49Z</time>
      </trkpt>
      <trkpt lat="48.48299" lon="7.19715">
        <ele>352</ele>
        <time>2026-03-15T12:42:54Z</time>
      </trkpt>
      <trkpt lat="48.48298" lon="7.19721">
        <ele>351.8</ele>
        <time>2026-03-15T12:42:59Z</time>
      </trkpt>
      <trkpt lat="48.48298" lon="7.19726">
        <ele>351.5</ele>
        <time>2026-03-15T12:43:04Z</time>
      </trkpt>
      <trkpt lat="48.48298" lon="7.19733">
        <ele>351.1</ele>
        <time>2026-03-15T12:43:09Z</time>
      </trkpt>
      <trkpt lat="48.483" lon="7.19742">
        <ele>350.4</ele>
        <time>2026-03-15T12:43:14Z</time>
      </trkpt>
      <trkpt lat="48.48299" lon="7.1975">
        <ele>350.1</ele>
        <time>2026-03-15T12:43:19Z</time>
      </trkpt>
      <trkpt lat="48.48299" lon="7.19761">
        <ele>350</ele>
        <time>2026-03-15T12:43:24Z</time>
      </trkpt>
      <trkpt lat="48.48299" lon="7.19771">
        <ele>349.8</ele>
        <time>2026-03-15T12:43:29Z</time>
      </trkpt>
      <trkpt lat="48.48298" lon="7.19778">
        <ele>349.8</ele>
        <time>2026-03-15T12:43:34Z</time>
      </trkpt>
      <trkpt lat="48.48296" lon="7.19788">
        <ele>349.9</ele>
        <time>2026-03-15T12:43:39Z</time>
      </trkpt>
      <trkpt lat="48.48298" lon="7.19798">
        <ele>349.5</ele>
        <time>2026-03-15T12:43:44Z</time>
      </trkpt>
      <trkpt lat="48.483" lon="7.1981">
        <ele>349.1</ele>
        <time>2026-03-15T12:43:49Z</time>
      </trkpt>
      <trkpt lat="48.483" lon="7.1982">
        <ele>349</ele>
        <time>2026-03-15T12:43:54Z</time>
      </trkpt>
      <trkpt lat="48.48301" lon="7.1983">
        <ele>348.8</ele>
        <time>2026-03-15T12:43:59Z</time>
      </trkpt>
      <trkpt lat="48.483" lon="7.19839">
        <ele>348.5</ele>
        <time>2026-03-15T12:44:04Z</time>
      </trkpt>
      <trkpt lat="48.48299" lon="7.19849">
        <ele>348.1</ele>
        <time>2026-03-15T12:44:09Z</time>
      </trkpt>
      <trkpt lat="48.48299" lon="7.19858">
        <ele>347.6</ele>
        <time>2026-03-15T12:44:14Z</time>
      </trkpt>
      <trkpt lat="48.483" lon="7.19867">
        <ele>347.1</ele>
        <time>2026-03-15T12:44:19Z</time>
      </trkpt>
      <trkpt lat="48.48301" lon="7.19876">
        <ele>346.6</ele>
        <time>2026-03-15T12:44:24Z</time>
      </trkpt>
      <trkpt lat="48.483" lon="7.19885">
        <ele>346.2</ele>
        <time>2026-03-15T12:44:29Z</time>
      </trkpt>
      <trkpt lat="48.483" lon="7.19885">
        <ele>346.2</ele>
        <time>2026-03-15T12:44:34Z</time>
      </trkpt>
      <trkpt lat="48.483" lon="7.19885">
        <ele>346.2</ele>
        <time>2026-03-15T12:44:39Z</time>
      </trkpt>
      <trkpt lat="48.48304" lon="7.19891">
        <ele>345.5</ele>
        <time>2026-03-15T12:44:44Z</time>
      </trkpt>
      <trkpt lat="48.48303" lon="7.19898">
        <ele>345.2</ele>
        <time>2026-03-15T12:44:49Z</time>
      </trkpt>
      <trkpt lat="48.48303" lon="7.19905">
        <ele>344.9</ele>
        <time>2026-03-15T12:44:54Z</time>
      </trkpt>
      <trkpt lat="48.48304" lon="7.19909">
        <ele>344.6</ele>
        <time>2026-03-15T12:44:59Z</time>
      </trkpt>
      <trkpt lat="48.48304" lon="7.19912">
        <ele>344.4</ele>
        <time>2026-03-15T12:45:04Z</time>
      </trkpt>
      <trkpt lat="48.48295" lon="7.19929">
        <ele>344.6</ele>
        <time>2026-03-15T12:45:10Z</time>
      </trkpt>
      <trkpt lat="48.48295" lon="7.19939">
        <ele>344.2</ele>
        <time>2026-03-15T12:45:15Z</time>
      </trkpt>
      <trkpt lat="48.48295" lon="7.19954">
        <ele>343.5</ele>
        <time>2026-03-15T12:45:20Z</time>
      </trkpt>
      <trkpt lat="48.48295" lon="7.19969">
        <ele>342.9</ele>
        <time>2026-03-15T12:45:25Z</time>
      </trkpt>
      <trkpt lat="48.48296" lon="7.1998">
        <ele>342.3</ele>
        <time>2026-03-15T12:45:30Z</time>
      </trkpt>
      <trkpt lat="48.48299" lon="7.19989">
        <ele>341.4</ele>
        <time>2026-03-15T12:45:35Z</time>
      </trkpt>
      <trkpt lat="48.48301" lon="7.19996">
        <ele>340.8</ele>
        <time>2026-03-15T12:45:40Z</time>
      </trkpt>
      <trkpt lat="48.48302" lon="7.20004">
        <ele>340.5</ele>
        <time>2026-03-15T12:45:45Z</time>
      </trkpt>
      <trkpt lat="48.483" lon="7.20013">
        <ele>340.7</ele>
        <time>2026-03-15T12:45:50Z</time>
      </trkpt>
      <trkpt lat="48.48299" lon="7.20023">
        <ele>340.7</ele>
        <time>2026-03-15T12:45:55Z</time>
      </trkpt>
      <trkpt lat="48.483" lon="7.20035">
        <ele>340.5</ele>
        <time>2026-03-15T12:46:00Z</time>
      </trkpt>
      <trkpt lat="48.48301" lon="7.20045">
        <ele>340.2</ele>
        <time>2026-03-15T12:46:05Z</time>
      </trkpt>
      <trkpt lat="48.483" lon="7.20054">
        <ele>340.3</ele>
        <time>2026-03-15T12:46:10Z</time>
      </trkpt>
      <trkpt lat="48.483" lon="7.20063">
        <ele>340.2</ele>
        <time>2026-03-15T12:46:15Z</time>
      </trkpt>
      <trkpt lat="48.48303" lon="7.20071">
        <ele>339.7</ele>
        <time>2026-03-15T12:46:20Z</time>
      </trkpt>
      <trkpt lat="48.48309" lon="7.20075">
        <ele>339</ele>
        <time>2026-03-15T12:46:25Z</time>
      </trkpt>
      <trkpt lat="48.48312" lon="7.20075">
        <ele>338.6</ele>
        <time>2026-03-15T12:46:30Z</time>
      </trkpt>
      <trkpt lat="48.48313" lon="7.20076">
        <ele>338.5</ele>
        <time>2026-03-15T12:46:35Z</time>
      </trkpt>
      <trkpt lat="48.48313" lon="7.20076">
        <ele>338.5</ele>
        <time>2026-03-15T12:46:40Z</time>
      </trkpt>
      <trkpt lat="48.48313" lon="7.20076">
        <ele>338.5</ele>
        <time>2026-03-15T12:46:45Z</time>
      </trkpt>
      <trkpt lat="48.48313" lon="7.20076">
        <ele>338.5</ele>
        <time>2026-03-15T12:46:50Z</time>
      </trkpt>
      <trkpt lat="48.48313" lon="7.20076">
        <ele>338.5</ele>
        <time>2026-03-15T12:46:55Z</time>
      </trkpt>
      <trkpt lat="48.48313" lon="7.20076">
        <ele>338.5</ele>
        <time>2026-03-15T12:47:00Z</time>
      </trkpt>
      <trkpt lat="48.48313" lon="7.20076">
        <ele>338.5</ele>
        <time>2026-03-15T12:47:05Z</time>
      </trkpt>
      <trkpt lat="48.48313" lon="7.20076">
        <ele>338.5</ele>
        <time>2026-03-15T12:47:10Z</time>
      </trkpt>
      <trkpt lat="48.48313" lon="7.20076">
        <ele>338.5</ele>
        <time>2026-03-15T12:47:15Z</time>
      </trkpt>
      <trkpt lat="48.48313" lon="7.20083">
        <ele>338.4</ele>
        <time>2026-03-15T12:47:20Z</time>
      </trkpt>
      <trkpt lat="48.48312" lon="7.20092">
        <ele>338.5</ele>
        <time>2026-03-15T12:47:25Z</time>
      </trkpt>
      <trkpt lat="48.48307" lon="7.20099">
        <ele>339</ele>
        <time>2026-03-15T12:47:30Z</time>
      </trkpt>
      <trkpt lat="48.48301" lon="7.20108">
        <ele>339.5</ele>
        <time>2026-03-15T12:47:35Z</time>
      </trkpt>
      <trkpt lat="48.48296" lon="7.20116">
        <ele>340</ele>
        <time>2026-03-15T12:47:40Z</time>
      </trkpt>
      <trkpt lat="48.48293" lon="7.2012">
        <ele>340.2</ele>
        <time>2026-03-15T12:47:45Z</time>
      </trkpt>
      <trkpt lat="48.48294" lon="7.20123">
        <ele>340</ele>
        <time>2026-03-15T12:47:50Z</time>
      </trkpt>
      <trkpt lat="48.48294" lon="7.20124">
        <ele>340</ele>
        <time>2026-03-15T12:47:55Z</time>
      </trkpt>
      <trkpt lat="48.48294" lon="7.20124">
        <ele>340</ele>
        <time>2026-03-15T12:48:00Z</time>
      </trkpt>
      <trkpt lat="48.48294" lon="7.20124">
        <ele>340</ele>
        <time>2026-03-15T12:48:05Z</time>
      </trkpt>
      <trkpt lat="48.48292" lon="7.20129">
        <ele>340.1</ele>
        <time>2026-03-15T12:48:10Z</time>
      </trkpt>
      <trkpt lat="48.48291" lon="7.20139">
        <ele>340.1</ele>
        <time>2026-03-15T12:48:15Z</time>
      </trkpt>
      <trkpt lat="48.4829" lon="7.20148">
        <ele>340</ele>
        <time>2026-03-15T12:48:20Z</time>
      </trkpt>
      <trkpt lat="48.48288" lon="7.20156">
        <ele>340</ele>
        <time>2026-03-15T12:48:25Z</time>
      </trkpt>
      <trkpt lat="48.48285" lon="7.20165">
        <ele>340.1</ele>
        <time>2026-03-15T12:48:30Z</time>
      </trkpt>
      <trkpt lat="48.48284" lon="7.20175">
        <ele>339.8</ele>
        <time>2026-03-15T12:48:35Z</time>
      </trkpt>
      <trkpt lat="48.48284" lon="7.20185">
        <ele>339.4</ele>
        <time>2026-03-15T12:48:40Z</time>
      </trkpt>
      <trkpt lat="48.48282" lon="7.20195">
        <ele>339.2</ele>
        <time>2026-03-15T12:48:45Z</time>
      </trkpt>
      <trkpt lat="48.48282" lon="7.20205">
        <ele>338.8</ele>
        <time>2026-03-15T12:48:50Z</time>
      </trkpt>
      <trkpt lat="48.48281" lon="7.20216">
        <ele>338.4</ele>
        <time>2026-03-15T12:48:55Z</time>
      </trkpt>
      <trkpt lat="48.4828" lon="7.20225">
        <ele>338.1</ele>
        <time>2026-03-15T12:49:00Z</time>
      </trkpt>
      <trkpt lat="48.48278" lon="7.20236">
        <ele>337.9</ele>
        <time>2026-03-15T12:49:05Z</time>
      </trkpt>
      <trkpt lat="48.48276" lon="7.20247">
        <ele>337.6</ele>
        <time>2026-03-15T12:49:10Z</time>
      </trkpt>
      <trkpt lat="48.48274" lon="7.20257">
        <ele>337.4</ele>
        <time>2026-03-15T12:49:15Z</time>
      </trkpt>
      <trkpt lat="48.48269" lon="7.20264">
        <ele>337.4</ele>
        <time>2026-03-15T12:49:20Z</time>
      </trkpt>
      <trkpt lat="48.48264" lon="7.20268">
        <ele>337.6</ele>
        <time>2026-03-15T12:49:25Z</time>
      </trkpt>
      <trkpt lat="48.48263" lon="7.20269">
        <ele>337.6</ele>
        <time>2026-03-15T12:49:30Z</time>
      </trkpt>
      <trkpt lat="48.48262" lon="7.20273">
        <ele>337.5</ele>
        <time>2026-03-15T12:49:35Z</time>
      </trkpt>
      <trkpt lat="48.48262" lon="7.20279">
        <ele>337.1</ele>
        <time>2026-03-15T12:49:40Z</time>
      </trkpt>
      <trkpt lat="48.4826" lon="7.20284">
        <ele>336.9</ele>
        <time>2026-03-15T12:49:45Z</time>
      </trkpt>
      <trkpt lat="48.4826" lon="7.20287">
        <ele>336.7</ele>
        <time>2026-03-15T12:49:50Z</time>
      </trkpt>
      <trkpt lat="48.4826" lon="7.20287">
        <ele>336.7</ele>
        <time>2026-03-15T12:49:55Z</time>
      </trkpt>
      <trkpt lat="48.4826" lon="7.20287">
        <ele>336.7</ele>
        <time>2026-03-15T12:50:00Z</time>
      </trkpt>
      <trkpt lat="48.4826" lon="7.20289">
        <ele>336.6</ele>
        <time>2026-03-15T12:50:05Z</time>
      </trkpt>
      <trkpt lat="48.4826" lon="7.20296">
        <ele>336.2</ele>
        <time>2026-03-15T12:50:10Z</time>
      </trkpt>
      <trkpt lat="48.48259" lon="7.20303">
        <ele>335.8</ele>
        <time>2026-03-15T12:50:15Z</time>
      </trkpt>
      <trkpt lat="48.48258" lon="7.2031">
        <ele>335.4</ele>
        <time>2026-03-15T12:50:20Z</time>
      </trkpt>
      <trkpt lat="48.48257" lon="7.20317">
        <ele>335</ele>
        <time>2026-03-15T12:50:25Z</time>
      </trkpt>
      <trkpt lat="48.48257" lon="7.20317">
        <ele>335</ele>
        <time>2026-03-15T12:50:30Z</time>
      </trkpt>
      <trkpt lat="48.48255" lon="7.20317">
        <ele>335</ele>
        <time>2026-03-15T12:50:35Z</time>
      </trkpt>
      <trkpt lat="48.48255" lon="7.20317">
        <ele>335</ele>
        <time>2026-03-15T12:50:40Z</time>
      </trkpt>
      <trkpt lat="48.48254" lon="7.20326">
        <ele>334.5</ele>
        <time>2026-03-15T12:50:45Z</time>
      </trkpt>
      <trkpt lat="48.48254" lon="7.20334">
        <ele>333.9</ele>
        <time>2026-03-15T12:50:50Z</time>
      </trkpt>
      <trkpt lat="48.48253" lon="7.20343">
        <ele>333.9</ele>
        <time>2026-03-15T12:50:55Z</time>
      </trkpt>
      <trkpt lat="48.48252" lon="7.20352">
        <ele>333.8</ele>
        <time>2026-03-15T12:51:00Z</time>
      </trkpt>
      <trkpt lat="48.48251" lon="7.20361">
        <ele>333.7</ele>
        <time>2026-03-15T12:51:05Z</time>
      </trkpt>
      <trkpt lat="48.48249" lon="7.2037">
        <ele>333.8</ele>
        <time>2026-03-15T12:51:10Z</time>
      </trkpt>
      <trkpt lat="48.48248" lon="7.2038">
        <ele>334</ele>
        <time>2026-03-15T12:51:15Z</time>
      </trkpt>
      <trkpt lat="48.48246" lon="7.20389">
        <ele>334.4</ele>
        <time>2026-03-15T12:51:20Z</time>
      </trkpt>
      <trkpt lat="48.48245" lon="7.20399">
        <ele>334.5</ele>
        <time>2026-03-15T12:51:25Z</time>
      </trkpt>
      <trkpt lat="48.48244" lon="7.20409">
        <ele>334.6</ele>
        <time>2026-03-15T12:51:30Z</time>
      </trkpt>
      <trkpt lat="48.48242" lon="7.20418">
        <ele>334.9</ele>
        <time>2026-03-15T12:51:35Z</time>
      </trkpt>
      <trkpt lat="48.48241" lon="7.20427">
        <ele>334.7</ele>
        <time>2026-03-15T12:51:40Z</time>
      </trkpt>
      <trkpt lat="48.48241" lon="7.20427">
        <ele>334.7</ele>
        <time>2026-03-15T12:51:45Z</time>
      </trkpt>
      <trkpt lat="48.48241" lon="7.20427">
        <ele>334.7</ele>
        <time>2026-03-15T12:51:50Z</time>
      </trkpt>
      <trkpt lat="48.48241" lon="7.20427">
        <ele>334.7</ele>
        <time>2026-03-15T12:51:55Z</time>
      </trkpt>
      <trkpt lat="48.48241" lon="7.20427">
        <ele>334.7</ele>
        <time>2026-03-15T12:52:00Z</time>
      </trkpt>
      <trkpt lat="48.48241" lon="7.20427">
        <ele>334.7</ele>
        <time>2026-03-15T12:52:05Z</time>
      </trkpt>
      <trkpt lat="48.48242" lon="7.20429">
        <ele>334.4</ele>
        <time>2026-03-15T12:52:10Z</time>
      </trkpt>
      <trkpt lat="48.48239" lon="7.20438">
        <ele>334.7</ele>
        <time>2026-03-15T12:52:15Z</time>
      </trkpt>
      <trkpt lat="48.48236" lon="7.20447">
        <ele>335</ele>
        <time>2026-03-15T12:52:20Z</time>
      </trkpt>
      <trkpt lat="48.48235" lon="7.20456">
        <ele>334.8</ele>
        <time>2026-03-15T12:52:25Z</time>
      </trkpt>
      <trkpt lat="48.48234" lon="7.20465">
        <ele>334.5</ele>
        <time>2026-03-15T12:52:30Z</time>
      </trkpt>
      <trkpt lat="48.48232" lon="7.20473">
        <ele>334.6</ele>
        <time>2026-03-15T12:52:35Z</time>
      </trkpt>
      <trkpt lat="48.4823" lon="7.20478">
        <ele>334.7</ele>
        <time>2026-03-15T12:52:40Z</time>
      </trkpt>
      <trkpt lat="48.48229" lon="7.20484">
        <ele>334.6</ele>
        <time>2026-03-15T12:52:45Z</time>
      </trkpt>
      <trkpt lat="48.48228" lon="7.20492">
        <ele>334.4</ele>
        <time>2026-03-15T12:52:50Z</time>
      </trkpt>
      <trkpt lat="48.48226" lon="7.205">
        <ele>334.3</ele>
        <time>2026-03-15T12:52:55Z</time>
      </trkpt>
      <trkpt lat="48.48229" lon="7.20507">
        <ele>333.3</ele>
        <time>2026-03-15T12:53:00Z</time>
      </trkpt>
      <trkpt lat="48.48227" lon="7.20514">
        <ele>333.1</ele>
        <time>2026-03-15T12:53:05Z</time>
      </trkpt>
      <trkpt lat="48.48225" lon="7.20523">
        <ele>332.8</ele>
        <time>2026-03-15T12:53:10Z</time>
      </trkpt>
      <trkpt lat="48.48223" lon="7.2053">
        <ele>332.5</ele>
        <time>2026-03-15T12:53:15Z</time>
      </trkpt>
      <trkpt lat="48.48222" lon="7.2054">
        <ele>331.8</ele>
        <time>2026-03-15T12:53:20Z</time>
      </trkpt>
      <trkpt lat="48.48219" lon="7.20548">
        <ele>331.5</ele>
        <time>2026-03-15T12:53:25Z</time>
      </trkpt>
      <trkpt lat="48.48217" lon="7.20557">
        <ele>330.9</ele>
        <time>2026-03-15T12:53:30Z</time>
      </trkpt>
      <trkpt lat="48.48216" lon="7.20565">
        <ele>330.3</ele>
        <time>2026-03-15T12:53:35Z</time>
      </trkpt>
      <trkpt lat="48.48214" lon="7.20571">
        <ele>329.9</ele>
        <time>2026-03-15T12:53:40Z</time>
      </trkpt>
      <trkpt lat="48.48212" lon="7.20582">
        <ele>329</ele>
        <time>2026-03-15T12:53:45Z</time>
      </trkpt>
      <trkpt lat="48.48211" lon="7.20589">
        <ele>328.7</ele>
        <time>2026-03-15T12:53:50Z</time>
      </trkpt>
      <trkpt lat="48.48209" lon="7.20597">
        <ele>328.5</ele>
        <time>2026-03-15T12:53:55Z</time>
      </trkpt>
      <trkpt lat="48.48208" lon="7.20606">
        <ele>328.2</ele>
        <time>2026-03-15T12:54:00Z</time>
      </trkpt>
      <trkpt lat="48.48206" lon="7.20615">
        <ele>327.9</ele>
        <time>2026-03-15T12:54:05Z</time>
      </trkpt>
      <trkpt lat="48.48203" lon="7.20623">
        <ele>327.6</ele>
        <time>2026-03-15T12:54:10Z</time>
      </trkpt>
      <trkpt lat="48.48201" lon="7.20632">
        <ele>327.3</ele>
        <time>2026-03-15T12:54:15Z</time>
      </trkpt>
      <trkpt lat="48.482" lon="7.20642">
        <ele>326.9</ele>
        <time>2026-03-15T12:54:20Z</time>
      </trkpt>
      <trkpt lat="48.48198" lon="7.2065">
        <ele>326.5</ele>
        <time>2026-03-15T12:54:25Z</time>
      </trkpt>
      <trkpt lat="48.48197" lon="7.20659">
        <ele>326.1</ele>
        <time>2026-03-15T12:54:30Z</time>
      </trkpt>
      <trkpt lat="48.48194" lon="7.20668">
        <ele>325.7</ele>
        <time>2026-03-15T12:54:35Z</time>
      </trkpt>
      <trkpt lat="48.48191" lon="7.20674">
        <ele>325.6</ele>
        <time>2026-03-15T12:54:40Z</time>
      </trkpt>
      <trkpt lat="48.48189" lon="7.20682">
        <ele>325.5</ele>
        <time>2026-03-15T12:54:45Z</time>
      </trkpt>
      <trkpt lat="48.48187" lon="7.2069">
        <ele>325.4</ele>
        <time>2026-03-15T12:54:50Z</time>
      </trkpt>
      <trkpt lat="48.48184" lon="7.20698">
        <ele>325.3</ele>
        <time>2026-03-15T12:54:55Z</time>
      </trkpt>
      <trkpt lat="48.48181" lon="7.20705">
        <ele>325.1</ele>
        <time>2026-03-15T12:55:00Z</time>
      </trkpt>
      <trkpt lat="48.48177" lon="7.20712">
        <ele>324.9</ele>
        <time>2026-03-15T12:55:05Z</time>
      </trkpt>
      <trkpt lat="48.48175" lon="7.20722">
        <ele>324.7</ele>
        <time>2026-03-15T12:55:10Z</time>
      </trkpt>
      <trkpt lat="48.48172" lon="7.20731">
        <ele>324.5</ele>
        <time>2026-03-15T12:55:15Z</time>
      </trkpt>
      <trkpt lat="48.48168" lon="7.20739">
        <ele>324.2</ele>
        <time>2026-03-15T12:55:20Z</time>
      </trkpt>
      <trkpt lat="48.48165" lon="7.20746">
        <ele>324.1</ele>
        <time>2026-03-15T12:55:25Z</time>
      </trkpt>
      <trkpt lat="48.48162" lon="7.20754">
        <ele>324</ele>
        <time>2026-03-15T12:55:30Z</time>
      </trkpt>
      <trkpt lat="48.48158" lon="7.20764">
        <ele>323.8</ele>
        <time>2026-03-15T12:55:35Z</time>
      </trkpt>
      <trkpt lat="48.48155" lon="7.20773">
        <ele>323.8</ele>
        <time>2026-03-15T12:55:40Z</time>
      </trkpt>
      <trkpt lat="48.48151" lon="7.20782">
        <ele>323.7</ele>
        <time>2026-03-15T12:55:45Z</time>
      </trkpt>
      <trkpt lat="48.48149" lon="7.20792">
        <ele>323.6</ele>
        <time>2026-03-15T12:55:50Z</time>
      </trkpt>
      <trkpt lat="48.48146" lon="7.20799">
        <ele>323.6</ele>
        <time>2026-03-15T12:55:55Z</time>
      </trkpt>
      <trkpt lat="48.48145" lon="7.20802">
        <ele>323.5</ele>
        <time>2026-03-15T12:56:00Z</time>
      </trkpt>
      <trkpt lat="48.48143" lon="7.20811">
        <ele>323.5</ele>
        <time>2026-03-15T12:56:05Z</time>
      </trkpt>
      <trkpt lat="48.4814" lon="7.2082">
        <ele>323.4</ele>
        <time>2026-03-15T12:56:10Z</time>
      </trkpt>
      <trkpt lat="48.48137" lon="7.20829">
        <ele>323.4</ele>
        <time>2026-03-15T12:56:15Z</time>
      </trkpt>
      <trkpt lat="48.48133" lon="7.20836">
        <ele>323.4</ele>
        <time>2026-03-15T12:56:20Z</time>
      </trkpt>
      <trkpt lat="48.48131" lon="7.20838">
        <ele>323.4</ele>
        <time>2026-03-15T12:56:25Z</time>
      </trkpt>
      <trkpt lat="48.48129" lon="7.20839">
        <ele>323.4</ele>
        <time>2026-03-15T12:56:30Z</time>
      </trkpt>
      <trkpt lat="48.48125" lon="7.20844">
        <ele>323.4</ele>
        <time>2026-03-15T12:56:35Z</time>
      </trkpt>
      <trkpt lat="48.48123" lon="7.20845">
        <ele>323.4</ele>
        <time>2026-03-15T12:56:40Z</time>
      </trkpt>
      <trkpt lat="48.48123" lon="7.20845">
        <ele>323.4</ele>
        <time>2026-03-15T12:56:45Z</time>
      </trkpt>
      <trkpt lat="48.48123" lon="7.20845">
        <ele>323.4</ele>
        <time>2026-03-15T12:56:50Z</time>
      </trkpt>
      <trkpt lat="48.48123" lon="7.20845">
        <ele>323.4</ele>
        <time>2026-03-15T12:56:55Z</time>
      </trkpt>
      <trkpt lat="48.48123" lon="7.20845">
        <ele>323.4</ele>
        <time>2026-03-15T12:57:00Z</time>
      </trkpt>
      <trkpt lat="48.48123" lon="7.20845">
        <ele>323.4</ele>
        <time>2026-03-15T12:57:05Z</time>
      </trkpt>
      <trkpt lat="48.48123" lon="7.20845">
        <ele>323.4</ele>
        <time>2026-03-15T12:57:10Z</time>
      </trkpt>
      <trkpt lat="48.48123" lon="7.20845">
        <ele>323.4</ele>
        <time>2026-03-15T12:57:15Z</time>
      </trkpt>
      <trkpt lat="48.48123" lon="7.20845">
        <ele>323.4</ele>
        <time>2026-03-15T12:57:20Z</time>
      </trkpt>
      <trkpt lat="48.48123" lon="7.20845">
        <ele>323.4</ele>
        <time>2026-03-15T12:57:25Z</time>
      </trkpt>
      <trkpt lat="48.48123" lon="7.20845">
        <ele>323.4</ele>
        <time>2026-03-15T12:57:30Z</time>
      </trkpt>
      <trkpt lat="48.48123" lon="7.20845">
        <ele>323.4</ele>
        <time>2026-03-15T12:57:35Z</time>
      </trkpt>
      <trkpt lat="48.48123" lon="7.20845">
        <ele>323.4</ele>
        <time>2026-03-15T12:57:40Z</time>
      </trkpt>
      <trkpt lat="48.48112" lon="7.20842">
        <ele>323.6</ele>
        <time>2026-03-15T12:57:45Z</time>
      </trkpt>
      <trkpt lat="48.48109" lon="7.2084">
        <ele>323.6</ele>
        <time>2026-03-15T12:57:50Z</time>
      </trkpt>
      <trkpt lat="48.48106" lon="7.20839">
        <ele>323.7</ele>
        <time>2026-03-15T12:57:55Z</time>
      </trkpt>
      <trkpt lat="48.48105" lon="7.20841">
        <ele>323.6</ele>
        <time>2026-03-15T12:58:00Z</time>
      </trkpt>
      <trkpt lat="48.48105" lon="7.20841">
        <ele>323.6</ele>
        <time>2026-03-15T12:58:05Z</time>
      </trkpt>
      <trkpt lat="48.48105" lon="7.20841">
        <ele>323.6</ele>
        <time>2026-03-15T12:58:10Z</time>
      </trkpt>
      <trkpt lat="48.48105" lon="7.20841">
        <ele>323.6</ele>
        <time>2026-03-15T12:58:15Z</time>
      </trkpt>
      <trkpt lat="48.48105" lon="7.20841">
        <ele>323.6</ele>
        <time>2026-03-15T12:58:20Z</time>
      </trkpt>
      <trkpt lat="48.48105" lon="7.20841">
        <ele>323.6</ele>
        <time>2026-03-15T12:58:25Z</time>
      </trkpt>
      <trkpt lat="48.48105" lon="7.20841">
        <ele>323.6</ele>
        <time>2026-03-15T12:58:30Z</time>
      </trkpt>
      <trkpt lat="48.48105" lon="7.20841">
        <ele>323.6</ele>
        <time>2026-03-15T12:58:35Z</time>
      </trkpt>
      <trkpt lat="48.48107" lon="7.20844">
        <ele>323.6</ele>
        <time>2026-03-15T12:58:40Z</time>
      </trkpt>
      <trkpt lat="48.48112" lon="7.20847">
        <ele>323.5</ele>
        <time>2026-03-15T12:58:45Z</time>
      </trkpt>
      <trkpt lat="48.48117" lon="7.20848">
        <ele>323.4</ele>
        <time>2026-03-15T12:58:50Z</time>
      </trkpt>
      <trkpt lat="48.48122" lon="7.2085">
        <ele>323.3</ele>
        <time>2026-03-15T12:58:55Z</time>
      </trkpt>
      <trkpt lat="48.48126" lon="7.20854">
        <ele>323.2</ele>
        <time>2026-03-15T12:59:00Z</time>
      </trkpt>
      <trkpt lat="48.48128" lon="7.2086">
        <ele>323.1</ele>
        <time>2026-03-15T12:59:05Z</time>
      </trkpt>
      <trkpt lat="48.48128" lon="7.2086">
        <ele>323.1</ele>
        <time>2026-03-15T12:59:10Z</time>
      </trkpt>
      <trkpt lat="48.48128" lon="7.20861">
        <ele>323.1</ele>
        <time>2026-03-15T12:59:15Z</time>
      </trkpt>
      <trkpt lat="48.48126" lon="7.20867">
        <ele>323.1</ele>
        <time>2026-03-15T12:59:20Z</time>
      </trkpt>
      <trkpt lat="48.48124" lon="7.20876">
        <ele>323</ele>
        <time>2026-03-15T12:59:25Z</time>
      </trkpt>
      <trkpt lat="48.48121" lon="7.20883">
        <ele>323</ele>
        <time>2026-03-15T12:59:30Z</time>
      </trkpt>
      <trkpt lat="48.48118" lon="7.2089">
        <ele>322.9</ele>
        <time>2026-03-15T12:59:35Z</time>
      </trkpt>
      <trkpt lat="48.48117" lon="7.20889">
        <ele>322.9</ele>
        <time>2026-03-15T12:59:40Z</time>
      </trkpt>
      <trkpt lat="48.48117" lon="7.20889">
        <ele>322.9</ele>
        <time>2026-03-15T12:59:45Z</time>
      </trkpt>
      <trkpt lat="48.48117" lon="7.20894">
        <ele>322.9</ele>
        <time>2026-03-15T12:59:50Z</time>
      </trkpt>
      <trkpt lat="48.48116" lon="7.20902">
        <ele>322.8</ele>
        <time>2026-03-15T12:59:55Z</time>
      </trkpt>
      <trkpt lat="48.48113" lon="7.20909">
        <ele>322.7</ele>
        <time>2026-03-15T13:00:00Z</time>
      </trkpt>
      <trkpt lat="48.48111" lon="7.20915">
        <ele>322.7</ele>
        <time>2026-03-15T13:00:05Z</time>
      </trkpt>
      <trkpt lat="48.48109" lon="7.20923">
        <ele>322.5</ele>
        <time>2026-03-15T13:00:10Z</time>
      </trkpt>
      <trkpt lat="48.48107" lon="7.20927">
        <ele>322.4</ele>
        <time>2026-03-15T13:00:15Z</time>
      </trkpt>
      <trkpt lat="48.48107" lon="7.20929">
        <ele>322.3</ele>
        <time>2026-03-15T13:00:20Z</time>
      </trkpt>
      <trkpt lat="48.48107" lon="7.2093">
        <ele>322.3</ele>
        <time>2026-03-15T13:00:25Z</time>
      </trkpt>
      <trkpt lat="48.48106" lon="7.20932">
        <ele>322.2</ele>
        <time>2026-03-15T13:00:30Z</time>
      </trkpt>
      <trkpt lat="48.48104" lon="7.20939">
        <ele>322</ele>
        <time>2026-03-15T13:00:35Z</time>
      </trkpt>
      <trkpt lat="48.48102" lon="7.20948">
        <ele>321.7</ele>
        <time>2026-03-15T13:00:40Z</time>
      </trkpt>
      <trkpt lat="48.48099" lon="7.20957">
        <ele>321.5</ele>
        <time>2026-03-15T13:00:45Z</time>
      </trkpt>
      <trkpt lat="48.48098" lon="7.20965">
        <ele>321.2</ele>
        <time>2026-03-15T13:00:50Z</time>
      </trkpt>
      <trkpt lat="48.48096" lon="7.20974">
        <ele>320.9</ele>
        <time>2026-03-15T13:00:55Z</time>
      </trkpt>
      <trkpt lat="48.48092" lon="7.20982">
        <ele>320.6</ele>
        <time>2026-03-15T13:01:00Z</time>
      </trkpt>
      <trkpt lat="48.4809" lon="7.20991">
        <ele>320.3</ele>
        <time>2026-03-15T13:01:05Z</time>
      </trkpt>
      <trkpt lat="48.48089" lon="7.21">
        <ele>320</ele>
        <time>2026-03-15T13:01:10Z</time>
      </trkpt>
      <trkpt lat="48.48086" lon="7.21008">
        <ele>319.9</ele>
        <time>2026-03-15T13:01:15Z</time>
      </trkpt>
      <trkpt lat="48.48084" lon="7.21016">
        <ele>319.8</ele>
        <time>2026-03-15T13:01:20Z</time>
      </trkpt>
      <trkpt lat="48.48082" lon="7.21023">
        <ele>319.8</ele>
        <time>2026-03-15T13:01:25Z</time>
      </trkpt>
      <trkpt lat="48.4808" lon="7.21032">
        <ele>319.7</ele>
        <time>2026-03-15T13:01:30Z</time>
      </trkpt>
      <trkpt lat="48.48076" lon="7.2104">
        <ele>319.7</ele>
        <time>2026-03-15T13:01:35Z</time>
      </trkpt>
      <trkpt lat="48.48071" lon="7.21046">
        <ele>319.8</ele>
        <time>2026-03-15T13:01:40Z</time>
      </trkpt>
      <trkpt lat="48.48066" lon="7.21052">
        <ele>319.9</ele>
        <time>2026-03-15T13:01:45Z</time>
      </trkpt>
      <trkpt lat="48.4806" lon="7.21056">
        <ele>320</ele>
        <time>2026-03-15T13:01:50Z</time>
      </trkpt>
      <trkpt lat="48.48054" lon="7.21059">
        <ele>320.1</ele>
        <time>2026-03-15T13:01:55Z</time>
      </trkpt>
      <trkpt lat="48.48047" lon="7.21058">
        <ele>320.3</ele>
        <time>2026-03-15T13:02:00Z</time>
      </trkpt>
      <trkpt lat="48.4804" lon="7.21057">
        <ele>320.5</ele>
        <time>2026-03-15T13:02:05Z</time>
      </trkpt>
      <trkpt lat="48.48034" lon="7.21057">
        <ele>320.7</ele>
        <time>2026-03-15T13:02:10Z</time>
      </trkpt>
      <trkpt lat="48.48027" lon="7.21059">
        <ele>320.8</ele>
        <time>2026-03-15T13:02:15Z</time>
      </trkpt>
      <trkpt lat="48.4802" lon="7.21061">
        <ele>321</ele>
        <time>2026-03-15T13:02:20Z</time>
      </trkpt>
      <trkpt lat="48.48012" lon="7.21065">
        <ele>321.1</ele>
        <time>2026-03-15T13:02:25Z</time>
      </trkpt>
      <trkpt lat="48.48007" lon="7.21068">
        <ele>321.2</ele>
        <time>2026-03-15T13:02:30Z</time>
      </trkpt>
      <trkpt lat="48.48002" lon="7.2107">
        <ele>321.3</ele>
        <time>2026-03-15T13:02:35Z</time>
      </trkpt>
      <trkpt lat="48.47996" lon="7.21073">
        <ele>321.7</ele>
        <time>2026-03-15T13:02:40Z</time>
      </trkpt>
      <trkpt lat="48.4799" lon="7.2108">
        <ele>322.3</ele>
        <time>2026-03-15T13:02:45Z</time>
      </trkpt>
      <trkpt lat="48.47986" lon="7.21088">
        <ele>322.5</ele>
        <time>2026-03-15T13:02:50Z</time>
      </trkpt>
      <trkpt lat="48.47981" lon="7.21096">
        <ele>322.8</ele>
        <time>2026-03-15T13:02:55Z</time>
      </trkpt>
      <trkpt lat="48.47976" lon="7.21103">
        <ele>323</ele>
        <time>2026-03-15T13:03:00Z</time>
      </trkpt>
      <trkpt lat="48.47974" lon="7.21109">
        <ele>323</ele>
        <time>2026-03-15T13:03:05Z</time>
      </trkpt>
      <trkpt lat="48.47969" lon="7.21115">
        <ele>323.3</ele>
        <time>2026-03-15T13:03:10Z</time>
      </trkpt>
      <trkpt lat="48.47964" lon="7.21122">
        <ele>323.5</ele>
        <time>2026-03-15T13:03:15Z</time>
      </trkpt>
      <trkpt lat="48.47959" lon="7.2113">
        <ele>323.7</ele>
        <time>2026-03-15T13:03:20Z</time>
      </trkpt>
      <trkpt lat="48.47955" lon="7.21137">
        <ele>323.8</ele>
        <time>2026-03-15T13:03:25Z</time>
      </trkpt>
      <trkpt lat="48.4795" lon="7.21144">
        <ele>323.9</ele>
        <time>2026-03-15T13:03:30Z</time>
      </trkpt>
      <trkpt lat="48.47945" lon="7.21151">
        <ele>324.1</ele>
        <time>2026-03-15T13:03:35Z</time>
      </trkpt>
      <trkpt lat="48.4794" lon="7.21159">
        <ele>324.2</ele>
        <time>2026-03-15T13:03:40Z</time>
      </trkpt>
      <trkpt lat="48.47934" lon="7.21165">
        <ele>324.4</ele>
        <time>2026-03-15T13:03:45Z</time>
      </trkpt>
      <trkpt lat="48.47929" lon="7.21171">
        <ele>324.5</ele>
        <time>2026-03-15T13:03:50Z</time>
      </trkpt>
      <trkpt lat="48.47925" lon="7.21176">
        <ele>324.6</ele>
        <time>2026-03-15T13:03:55Z</time>
      </trkpt>
      <trkpt lat="48.47925" lon="7.21176">
        <ele>324.6</ele>
        <time>2026-03-15T13:04:00Z</time>
      </trkpt>
      <trkpt lat="48.47924" lon="7.21178">
        <ele>324.5</ele>
        <time>2026-03-15T13:04:05Z</time>
      </trkpt>
      <trkpt lat="48.4792" lon="7.21184">
        <ele>324.5</ele>
        <time>2026-03-15T13:04:10Z</time>
      </trkpt>
      <trkpt lat="48.47914" lon="7.21187">
        <ele>324.6</ele>
        <time>2026-03-15T13:04:15Z</time>
      </trkpt>
      <trkpt lat="48.47911" lon="7.21192">
        <ele>324.4</ele>
        <time>2026-03-15T13:04:20Z</time>
      </trkpt>
      <trkpt lat="48.47909" lon="7.21194">
        <ele>324.3</ele>
        <time>2026-03-15T13:04:25Z</time>
      </trkpt>
      <trkpt lat="48.47909" lon="7.21195">
        <ele>324.2</ele>
        <time>2026-03-15T13:04:30Z</time>
      </trkpt>
      <trkpt lat="48.47909" lon="7.21195">
        <ele>324.2</ele>
        <time>2026-03-15T13:04:35Z</time>
      </trkpt>
      <trkpt lat="48.47909" lon="7.21195">
        <ele>324.2</ele>
        <time>2026-03-15T13:04:40Z</time>
      </trkpt>
      <trkpt lat="48.47909" lon="7.21195">
        <ele>324.2</ele>
        <time>2026-03-15T13:04:45Z</time>
      </trkpt>
      <trkpt lat="48.47906" lon="7.212">
        <ele>324</ele>
        <time>2026-03-15T13:04:50Z</time>
      </trkpt>
      <trkpt lat="48.47899" lon="7.21205">
        <ele>324</ele>
        <time>2026-03-15T13:04:55Z</time>
      </trkpt>
      <trkpt lat="48.47893" lon="7.21209">
        <ele>324</ele>
        <time>2026-03-15T13:05:00Z</time>
      </trkpt>
      <trkpt lat="48.47887" lon="7.21214">
        <ele>323.9</ele>
        <time>2026-03-15T13:05:05Z</time>
      </trkpt>
      <trkpt lat="48.47879" lon="7.21217">
        <ele>324.1</ele>
        <time>2026-03-15T13:05:10Z</time>
      </trkpt>
      <trkpt lat="48.47872" lon="7.2122">
        <ele>324.3</ele>
        <time>2026-03-15T13:05:15Z</time>
      </trkpt>
      <trkpt lat="48.47866" lon="7.21222">
        <ele>324.4</ele>
        <time>2026-03-15T13:05:20Z</time>
      </trkpt>
      <trkpt lat="48.4786" lon="7.21223">
        <ele>324.7</ele>
        <time>2026-03-15T13:05:25Z</time>
      </trkpt>
      <trkpt lat="48.47851" lon="7.21226">
        <ele>325</ele>
        <time>2026-03-15T13:05:30Z</time>
      </trkpt>
      <trkpt lat="48.47843" lon="7.21229">
        <ele>325.3</ele>
        <time>2026-03-15T13:05:35Z</time>
      </trkpt>
      <trkpt lat="48.47835" lon="7.21232">
        <ele>325.6</ele>
        <time>2026-03-15T13:05:40Z</time>
      </trkpt>
      <trkpt lat="48.4783" lon="7.21236">
        <ele>325.5</ele>
        <time>2026-03-15T13:05:45Z</time>
      </trkpt>
      <trkpt lat="48.47824" lon="7.21237">
        <ele>325.4</ele>
        <time>2026-03-15T13:05:50Z</time>
      </trkpt>
      <trkpt lat="48.47816" lon="7.21238">
        <ele>325.2</ele>
        <time>2026-03-15T13:05:55Z</time>
      </trkpt>
      <trkpt lat="48.4781" lon="7.21239">
        <ele>325.1</ele>
        <time>2026-03-15T13:06:00Z</time>
      </trkpt>
      <trkpt lat="48.47803" lon="7.21243">
        <ele>324.9</ele>
        <time>2026-03-15T13:06:05Z</time>
      </trkpt>
      <trkpt lat="48.47796" lon="7.21248">
        <ele>324.6</ele>
        <time>2026-03-15T13:06:10Z</time>
      </trkpt>
      <trkpt lat="48.47789" lon="7.2125">
        <ele>324.5</ele>
        <time>2026-03-15T13:06:15Z</time>
      </trkpt>
      <trkpt lat="48.47781" lon="7.2125">
        <ele>324.4</ele>
        <time>2026-03-15T13:06:20Z</time>
      </trkpt>
      <trkpt lat="48.47775" lon="7.21249">
        <ele>324.3</ele>
        <time>2026-03-15T13:06:25Z</time>
      </trkpt>
      <trkpt lat="48.47767" lon="7.2125">
        <ele>324.2</ele>
        <time>2026-03-15T13:06:30Z</time>
      </trkpt>
      <trkpt lat="48.4776" lon="7.2125">
        <ele>324.1</ele>
        <time>2026-03-15T13:06:35Z</time>
      </trkpt>
      <trkpt lat="48.47755" lon="7.2125">
        <ele>324.1</ele>
        <time>2026-03-15T13:06:40Z</time>
      </trkpt>
      <trkpt lat="48.47752" lon="7.21255">
        <ele>323.8</ele>
        <time>2026-03-15T13:06:45Z</time>
      </trkpt>
      <trkpt lat="48.47749" lon="7.21266">
        <ele>323.3</ele>
        <time>2026-03-15T13:06:50Z</time>
      </trkpt>
      <trkpt lat="48.47747" lon="7.21269">
        <ele>323.3</ele>
        <time>2026-03-15T13:06:55Z</time>
      </trkpt>
      <trkpt lat="48.4774" lon="7.21267">
        <ele>323.9</ele>
        <time>2026-03-15T13:07:00Z</time>
      </trkpt>
      <trkpt lat="48.47734" lon="7.21266">
        <ele>324.4</ele>
        <time>2026-03-15T13:07:05Z</time>
      </trkpt>
      <trkpt lat="48.47727" lon="7.21264">
        <ele>325</ele>
        <time>2026-03-15T13:07:10Z</time>
      </trkpt>
      <trkpt lat="48.47719" lon="7.21263">
        <ele>325.7</ele>
        <time>2026-03-15T13:07:15Z</time>
      </trkpt>
      <trkpt lat="48.47713" lon="7.21262">
        <ele>326.2</ele>
        <time>2026-03-15T13:07:20Z</time>
      </trkpt>
      <trkpt lat="48.47707" lon="7.2126">
        <ele>326.8</ele>
        <time>2026-03-15T13:07:25Z</time>
      </trkpt>
      <trkpt lat="48.47699" lon="7.2126">
        <ele>327.4</ele>
        <time>2026-03-15T13:07:30Z</time>
      </trkpt>
      <trkpt lat="48.47691" lon="7.21261">
        <ele>328</ele>
        <time>2026-03-15T13:07:35Z</time>
      </trkpt>
      <trkpt lat="48.47683" lon="7.2126">
        <ele>328.7</ele>
        <time>2026-03-15T13:07:40Z</time>
      </trkpt>
      <trkpt lat="48.47675" lon="7.21259">
        <ele>329.4</ele>
        <time>2026-03-15T13:07:45Z</time>
      </trkpt>
      <trkpt lat="48.47668" lon="7.21263">
        <ele>329.5</ele>
        <time>2026-03-15T13:07:50Z</time>
      </trkpt>
      <trkpt lat="48.47665" lon="7.2127">
        <ele>328.8</ele>
        <time>2026-03-15T13:07:55Z</time>
      </trkpt>
      <trkpt lat="48.47659" lon="7.21274">
        <ele>328.1</ele>
        <time>2026-03-15T13:08:00Z</time>
      </trkpt>
      <trkpt lat="48.4765" lon="7.21273">
        <ele>327.8</ele>
        <time>2026-03-15T13:08:05Z</time>
      </trkpt>
      <trkpt lat="48.47643" lon="7.21276">
        <ele>327.2</ele>
        <time>2026-03-15T13:08:10Z</time>
      </trkpt>
      <trkpt lat="48.47637" lon="7.21278">
        <ele>326.8</ele>
        <time>2026-03-15T13:08:15Z</time>
      </trkpt>
      <trkpt lat="48.47633" lon="7.21281">
        <ele>326.3</ele>
        <time>2026-03-15T13:08:20Z</time>
      </trkpt>
      <trkpt lat="48.47627" lon="7.21281">
        <ele>326.1</ele>
        <time>2026-03-15T13:08:25Z</time>
      </trkpt>
      <trkpt lat="48.47619" lon="7.2128">
        <ele>325.9</ele>
        <time>2026-03-15T13:08:30Z</time>
      </trkpt>
      <trkpt lat="48.47612" lon="7.2128">
        <ele>325.6</ele>
        <time>2026-03-15T13:08:35Z</time>
      </trkpt>
      <trkpt lat="48.47606" lon="7.21279">
        <ele>325.5</ele>
        <time>2026-03-15T13:08:40Z</time>
      </trkpt>
      <trkpt lat="48.47601" lon="7.21282">
        <ele>325</ele>
        <time>2026-03-15T13:08:45Z</time>
      </trkpt>
      <trkpt lat="48.47598" lon="7.21286">
        <ele>324.5</ele>
        <time>2026-03-15T13:08:50Z</time>
      </trkpt>
      <trkpt lat="48.47592" lon="7.21281">
        <ele>324.7</ele>
        <time>2026-03-15T13:08:55Z</time>
      </trkpt>
      <trkpt lat="48.47586" lon="7.21279">
        <ele>324.7</ele>
        <time>2026-03-15T13:09:00Z</time>
      </trkpt>
      <trkpt lat="48.4758" lon="7.21278">
        <ele>324.8</ele>
        <time>2026-03-15T13:09:05Z</time>
      </trkpt>
      <trkpt lat="48.47574" lon="7.21276">
        <ele>325.1</ele>
        <time>2026-03-15T13:09:10Z</time>
      </trkpt>
      <trkpt lat="48.47567" lon="7.21276">
        <ele>325.4</ele>
        <time>2026-03-15T13:09:15Z</time>
      </trkpt>
      <trkpt lat="48.4756" lon="7.21275">
        <ele>325.7</ele>
        <time>2026-03-15T13:09:20Z</time>
      </trkpt>
      <trkpt lat="48.47554" lon="7.21275">
        <ele>325.9</ele>
        <time>2026-03-15T13:09:25Z</time>
      </trkpt>
      <trkpt lat="48.47547" lon="7.21276">
        <ele>326</ele>
        <time>2026-03-15T13:09:30Z</time>
      </trkpt>
      <trkpt lat="48.47541" lon="7.21276">
        <ele>326.2</ele>
        <time>2026-03-15T13:09:35Z</time>
      </trkpt>
      <trkpt lat="48.47535" lon="7.21278">
        <ele>326.2</ele>
        <time>2026-03-15T13:09:40Z</time>
      </trkpt>
      <trkpt lat="48.47527" lon="7.21277">
        <ele>326.6</ele>
        <time>2026-03-15T13:09:45Z</time>
      </trkpt>
      <trkpt lat="48.47521" lon="7.21276">
        <ele>326.9</ele>
        <time>2026-03-15T13:09:50Z</time>
      </trkpt>
      <trkpt lat="48.47512" lon="7.21278">
        <ele>326.9</ele>
        <time>2026-03-15T13:09:55Z</time>
      </trkpt>
      <trkpt lat="48.47505" lon="7.21279">
        <ele>327</ele>
        <time>2026-03-15T13:10:00Z</time>
      </trkpt>
      <trkpt lat="48.47499" lon="7.21278">
        <ele>327.3</ele>
        <time>2026-03-15T13:10:05Z</time>
      </trkpt>
      <trkpt lat="48.4749" lon="7.21278">
        <ele>327.3</ele>
        <time>2026-03-15T13:10:10Z</time>
      </trkpt>
      <trkpt lat="48.47482" lon="7.21278">
        <ele>327.2</ele>
        <time>2026-03-15T13:10:15Z</time>
      </trkpt>
      <trkpt lat="48.47476" lon="7.21276">
        <ele>327.5</ele>
        <time>2026-03-15T13:10:20Z</time>
      </trkpt>
      <trkpt lat="48.47469" lon="7.21275">
        <ele>327.6</ele>
        <time>2026-03-15T13:10:25Z</time>
      </trkpt>
      <trkpt lat="48.47463" lon="7.21279">
        <ele>327</ele>
        <time>2026-03-15T13:10:30Z</time>
      </trkpt>
      <trkpt lat="48.47456" lon="7.21279">
        <ele>327</ele>
        <time>2026-03-15T13:10:35Z</time>
      </trkpt>
      <trkpt lat="48.47449" lon="7.21282">
        <ele>326.6</ele>
        <time>2026-03-15T13:10:40Z</time>
      </trkpt>
      <trkpt lat="48.47444" lon="7.21284">
        <ele>326.4</ele>
        <time>2026-03-15T13:10:45Z</time>
      </trkpt>
      <trkpt lat="48.47436" lon="7.21285">
        <ele>326.3</ele>
        <time>2026-03-15T13:10:50Z</time>
      </trkpt>
      <trkpt lat="48.4743" lon="7.21284">
        <ele>326.4</ele>
        <time>2026-03-15T13:10:55Z</time>
      </trkpt>
      <trkpt lat="48.47423" lon="7.21283">
        <ele>326.5</ele>
        <time>2026-03-15T13:11:00Z</time>
      </trkpt>
      <trkpt lat="48.47415" lon="7.21283">
        <ele>326.4</ele>
        <time>2026-03-15T13:11:05Z</time>
      </trkpt>
      <trkpt lat="48.47407" lon="7.21282">
        <ele>326.1</ele>
        <time>2026-03-15T13:11:10Z</time>
      </trkpt>
      <trkpt lat="48.47399" lon="7.21283">
        <ele>325.7</ele>
        <time>2026-03-15T13:11:15Z</time>
      </trkpt>
      <trkpt lat="48.47393" lon="7.21282">
        <ele>325.6</ele>
        <time>2026-03-15T13:11:20Z</time>
      </trkpt>
      <trkpt lat="48.47386" lon="7.21281">
        <ele>325.4</ele>
        <time>2026-03-15T13:11:25Z</time>
      </trkpt>
      <trkpt lat="48.47378" lon="7.21281">
        <ele>325</ele>
        <time>2026-03-15T13:11:30Z</time>
      </trkpt>
      <trkpt lat="48.47372" lon="7.21281">
        <ele>324.8</ele>
        <time>2026-03-15T13:11:35Z</time>
      </trkpt>
      <trkpt lat="48.47364" lon="7.21282">
        <ele>324.4</ele>
        <time>2026-03-15T13:11:40Z</time>
      </trkpt>
      <trkpt lat="48.47355" lon="7.21285">
        <ele>323.8</ele>
        <time>2026-03-15T13:11:45Z</time>
      </trkpt>
      <trkpt lat="48.47348" lon="7.21284">
        <ele>323.6</ele>
        <time>2026-03-15T13:11:50Z</time>
      </trkpt>
      <trkpt lat="48.47343" lon="7.21281">
        <ele>323.5</ele>
        <time>2026-03-15T13:11:55Z</time>
      </trkpt>
      <trkpt lat="48.47338" lon="7.21278">
        <ele>323.5</ele>
        <time>2026-03-15T13:12:00Z</time>
      </trkpt>
      <trkpt lat="48.47331" lon="7.21276">
        <ele>323.4</ele>
        <time>2026-03-15T13:12:05Z</time>
      </trkpt>
      <trkpt lat="48.47323" lon="7.21275">
        <ele>323.3</ele>
        <time>2026-03-15T13:12:10Z</time>
      </trkpt>
      <trkpt lat="48.47316" lon="7.21272">
        <ele>323.3</ele>
        <time>2026-03-15T13:12:15Z</time>
      </trkpt>
      <trkpt lat="48.47309" lon="7.21272">
        <ele>323.1</ele>
        <time>2026-03-15T13:12:20Z</time>
      </trkpt>
      <trkpt lat="48.47302" lon="7.21271">
        <ele>323</ele>
        <time>2026-03-15T13:12:25Z</time>
      </trkpt>
      <trkpt lat="48.47291" lon="7.2127">
        <ele>322.8</ele>
        <time>2026-03-15T13:12:30Z</time>
      </trkpt>
      <trkpt lat="48.47284" lon="7.21267">
        <ele>322.8</ele>
        <time>2026-03-15T13:12:35Z</time>
      </trkpt>
      <trkpt lat="48.47279" lon="7.21267">
        <ele>322.7</ele>
        <time>2026-03-15T13:12:40Z</time>
      </trkpt>
      <trkpt lat="48.47273" lon="7.21263">
        <ele>322.8</ele>
        <time>2026-03-15T13:12:45Z</time>
      </trkpt>
      <trkpt lat="48.47268" lon="7.21258">
        <ele>323</ele>
        <time>2026-03-15T13:12:50Z</time>
      </trkpt>
      <trkpt lat="48.47264" lon="7.21253">
        <ele>323.2</ele>
        <time>2026-03-15T13:12:55Z</time>
      </trkpt>
      <trkpt lat="48.47259" lon="7.21248">
        <ele>323.4</ele>
        <time>2026-03-15T13:13:00Z</time>
      </trkpt>
      <trkpt lat="48.47255" lon="7.2124">
        <ele>323.9</ele>
        <time>2026-03-15T13:13:05Z</time>
      </trkpt>
      <trkpt lat="48.47252" lon="7.21234">
        <ele>324.2</ele>
        <time>2026-03-15T13:13:10Z</time>
      </trkpt>
      <trkpt lat="48.47247" lon="7.21235">
        <ele>324</ele>
        <time>2026-03-15T13:13:15Z</time>
      </trkpt>
      <trkpt lat="48.47239" lon="7.21231">
        <ele>324</ele>
        <time>2026-03-15T13:13:20Z</time>
      </trkpt>
      <trkpt lat="48.4723" lon="7.21226">
        <ele>324</ele>
        <time>2026-03-15T13:13:25Z</time>
      </trkpt>
      <trkpt lat="48.47225" lon="7.21219">
        <ele>324.3</ele>
        <time>2026-03-15T13:13:30Z</time>
      </trkpt>
      <trkpt lat="48.4722" lon="7.21213">
        <ele>324.5</ele>
        <time>2026-03-15T13:13:35Z</time>
      </trkpt>
      <trkpt lat="48.47217" lon="7.21205">
        <ele>324.8</ele>
        <time>2026-03-15T13:13:40Z</time>
      </trkpt>
      <trkpt lat="48.47212" lon="7.212">
        <ele>324.9</ele>
        <time>2026-03-15T13:13:45Z</time>
      </trkpt>
      <trkpt lat="48.47204" lon="7.21199">
        <ele>324.6</ele>
        <time>2026-03-15T13:13:50Z</time>
      </trkpt>
      <trkpt lat="48.47197" lon="7.21194">
        <ele>324.5</ele>
        <time>2026-03-15T13:13:55Z</time>
      </trkpt>
      <trkpt lat="48.47191" lon="7.21189">
        <ele>324.4</ele>
        <time>2026-03-15T13:14:00Z</time>
      </trkpt>
      <trkpt lat="48.47185" lon="7.21187">
        <ele>324.2</ele>
        <time>2026-03-15T13:14:05Z</time>
      </trkpt>
      <trkpt lat="48.4718" lon="7.21181">
        <ele>324.2</ele>
        <time>2026-03-15T13:14:10Z</time>
      </trkpt>
      <trkpt lat="48.47175" lon="7.21176">
        <ele>324.1</ele>
        <time>2026-03-15T13:14:15Z</time>
      </trkpt>
      <trkpt lat="48.4717" lon="7.21174">
        <ele>323.9</ele>
        <time>2026-03-15T13:14:20Z</time>
      </trkpt>
      <trkpt lat="48.47164" lon="7.21164">
        <ele>324.2</ele>
        <time>2026-03-15T13:14:25Z</time>
      </trkpt>
      <trkpt lat="48.47158" lon="7.21163">
        <ele>324.1</ele>
        <time>2026-03-15T13:14:30Z</time>
      </trkpt>
      <trkpt lat="48.47151" lon="7.21158">
        <ele>324.3</ele>
        <time>2026-03-15T13:14:35Z</time>
      </trkpt>
      <trkpt lat="48.47143" lon="7.21158">
        <ele>324.1</ele>
        <time>2026-03-15T13:14:40Z</time>
      </trkpt>
      <trkpt lat="48.47135" lon="7.21155">
        <ele>324.2</ele>
        <time>2026-03-15T13:14:45Z</time>
      </trkpt>
      <trkpt lat="48.47127" lon="7.21153">
        <ele>324.1</ele>
        <time>2026-03-15T13:14:50Z</time>
      </trkpt>
      <trkpt lat="48.47121" lon="7.2115">
        <ele>324.2</ele>
        <time>2026-03-15T13:14:55Z</time>
      </trkpt>
      <trkpt lat="48.47113" lon="7.21149">
        <ele>324.1</ele>
        <time>2026-03-15T13:15:00Z</time>
      </trkpt>
      <trkpt lat="48.47106" lon="7.21147">
        <ele>324</ele>
        <time>2026-03-15T13:15:05Z</time>
      </trkpt>
      <trkpt lat="48.471" lon="7.21147">
        <ele>323.9</ele>
        <time>2026-03-15T13:15:10Z</time>
      </trkpt>
      <trkpt lat="48.47093" lon="7.21146">
        <ele>323.7</ele>
        <time>2026-03-15T13:15:15Z</time>
      </trkpt>
      <trkpt lat="48.47085" lon="7.21145">
        <ele>323.6</ele>
        <time>2026-03-15T13:15:20Z</time>
      </trkpt>
      <trkpt lat="48.47079" lon="7.21143">
        <ele>323.5</ele>
        <time>2026-03-15T13:15:25Z</time>
      </trkpt>
      <trkpt lat="48.47072" lon="7.21142">
        <ele>323.3</ele>
        <time>2026-03-15T13:15:30Z</time>
      </trkpt>
      <trkpt lat="48.47066" lon="7.21146">
        <ele>322.8</ele>
        <time>2026-03-15T13:15:35Z</time>
      </trkpt>
      <trkpt lat="48.47059" lon="7.21148">
        <ele>322.3</ele>
        <time>2026-03-15T13:15:40Z</time>
      </trkpt>
      <trkpt lat="48.47053" lon="7.2115">
        <ele>322</ele>
        <time>2026-03-15T13:15:45Z</time>
      </trkpt>
      <trkpt lat="48.47048" lon="7.21157">
        <ele>321.3</ele>
        <time>2026-03-15T13:15:50Z</time>
      </trkpt>
      <trkpt lat="48.47046" lon="7.21167">
        <ele>320.7</ele>
        <time>2026-03-15T13:15:55Z</time>
      </trkpt>
      <trkpt lat="48.47045" lon="7.21177">
        <ele>320.5</ele>
        <time>2026-03-15T13:16:00Z</time>
      </trkpt>
      <trkpt lat="48.47042" lon="7.21185">
        <ele>320.4</ele>
        <time>2026-03-15T13:16:05Z</time>
      </trkpt>
      <trkpt lat="48.47039" lon="7.21192">
        <ele>320.3</ele>
        <time>2026-03-15T13:16:10Z</time>
      </trkpt>
      <trkpt lat="48.47035" lon="7.21201">
        <ele>320.2</ele>
        <time>2026-03-15T13:16:15Z</time>
      </trkpt>
      <trkpt lat="48.4703" lon="7.21206">
        <ele>320</ele>
        <time>2026-03-15T13:16:20Z</time>
      </trkpt>
      <trkpt lat="48.47028" lon="7.21214">
        <ele>320</ele>
        <time>2026-03-15T13:16:25Z</time>
      </trkpt>
      <trkpt lat="48.47027" lon="7.21225">
        <ele>320</ele>
        <time>2026-03-15T13:16:30Z</time>
      </trkpt>
      <trkpt lat="48.47025" lon="7.2123">
        <ele>320</ele>
        <time>2026-03-15T13:16:35Z</time>
      </trkpt>
      <trkpt lat="48.47024" lon="7.21234">
        <ele>320</ele>
        <time>2026-03-15T13:16:40Z</time>
      </trkpt>
      <trkpt lat="48.47021" lon="7.21242">
        <ele>320</ele>
        <time>2026-03-15T13:16:45Z</time>
      </trkpt>
      <trkpt lat="48.47017" lon="7.2125">
        <ele>320</ele>
        <time>2026-03-15T13:16:50Z</time>
      </trkpt>
      <trkpt lat="48.47012" lon="7.21258">
        <ele>320.1</ele>
        <time>2026-03-15T13:16:55Z</time>
      </trkpt>
      <trkpt lat="48.47009" lon="7.21265">
        <ele>320.1</ele>
        <time>2026-03-15T13:17:00Z</time>
      </trkpt>
      <trkpt lat="48.47004" lon="7.21272">
        <ele>320.2</ele>
        <time>2026-03-15T13:17:05Z</time>
      </trkpt>
      <trkpt lat="48.47003" lon="7.21282">
        <ele>320.3</ele>
        <time>2026-03-15T13:17:10Z</time>
      </trkpt>
      <trkpt lat="48.47003" lon="7.21291">
        <ele>320.4</ele>
        <time>2026-03-15T13:17:15Z</time>
      </trkpt>
      <trkpt lat="48.47005" lon="7.21296">
        <ele>320.5</ele>
        <time>2026-03-15T13:17:20Z</time>
      </trkpt>
      <trkpt lat="48.47005" lon="7.21302">
        <ele>320.5</ele>
        <time>2026-03-15T13:17:25Z</time>
      </trkpt>
      <trkpt lat="48.47007" lon="7.21303">
        <ele>320.5</ele>
        <time>2026-03-15T13:17:30Z</time>
      </trkpt>
      <trkpt lat="48.47007" lon="7.21303">
        <ele>320.5</ele>
        <time>2026-03-15T13:17:35Z</time>
      </trkpt>
      <trkpt lat="48.47005" lon="7.21297">
        <ele>320.5</ele>
        <time>2026-03-15T13:17:40Z</time>
      </trkpt>
      <trkpt lat="48.47005" lon="7.21297">
        <ele>320.5</ele>
        <time>2026-03-15T13:17:45Z</time>
      </trkpt>
      <trkpt lat="48.47005" lon="7.21297">
        <ele>320.5</ele>
        <time>2026-03-15T13:17:50Z</time>
      </trkpt>
      <trkpt lat="48.47003" lon="7.2129">
        <ele>320.4</ele>
        <time>2026-03-15T13:17:55Z</time>
      </trkpt>
      <trkpt lat="48.46996" lon="7.21288">
        <ele>320.5</ele>
        <time>2026-03-15T13:18:00Z</time>
      </trkpt>
      <trkpt lat="48.4699" lon="7.21284">
        <ele>320.5</ele>
        <time>2026-03-15T13:18:05Z</time>
      </trkpt>
      <trkpt lat="48.46983" lon="7.21281">
        <ele>320.5</ele>
        <time>2026-03-15T13:18:10Z</time>
      </trkpt>
      <trkpt lat="48.46975" lon="7.21278">
        <ele>320.5</ele>
        <time>2026-03-15T13:18:15Z</time>
      </trkpt>
      <trkpt lat="48.4697" lon="7.21272">
        <ele>320.5</ele>
        <time>2026-03-15T13:18:20Z</time>
      </trkpt>
      <trkpt lat="48.46963" lon="7.21269">
        <ele>320.6</ele>
        <time>2026-03-15T13:18:25Z</time>
      </trkpt>
      <trkpt lat="48.46957" lon="7.21265">
        <ele>320.6</ele>
        <time>2026-03-15T13:18:30Z</time>
      </trkpt>
      <trkpt lat="48.46951" lon="7.21262">
        <ele>320.6</ele>
        <time>2026-03-15T13:18:35Z</time>
      </trkpt>
      <trkpt lat="48.46945" lon="7.21257">
        <ele>320.7</ele>
        <time>2026-03-15T13:18:40Z</time>
      </trkpt>
      <trkpt lat="48.46938" lon="7.21254">
        <ele>320.8</ele>
        <time>2026-03-15T13:18:45Z</time>
      </trkpt>
      <trkpt lat="48.46932" lon="7.21248">
        <ele>320.8</ele>
        <time>2026-03-15T13:18:50Z</time>
      </trkpt>
      <trkpt lat="48.46926" lon="7.21243">
        <ele>320.7</ele>
        <time>2026-03-15T13:18:55Z</time>
      </trkpt>
      <trkpt lat="48.4692" lon="7.2124">
        <ele>320.7</ele>
        <time>2026-03-15T13:19:00Z</time>
      </trkpt>
      <trkpt lat="48.46913" lon="7.21236">
        <ele>320.6</ele>
        <time>2026-03-15T13:19:05Z</time>
      </trkpt>
      <trkpt lat="48.46906" lon="7.21232">
        <ele>320.5</ele>
        <time>2026-03-15T13:19:10Z</time>
      </trkpt>
      <trkpt lat="48.469" lon="7.21228">
        <ele>320.4</ele>
        <time>2026-03-15T13:19:15Z</time>
      </trkpt>
      <trkpt lat="48.46893" lon="7.21223">
        <ele>320.3</ele>
        <time>2026-03-15T13:19:20Z</time>
      </trkpt>
      <trkpt lat="48.46885" lon="7.21221">
        <ele>320.2</ele>
        <time>2026-03-15T13:19:25Z</time>
      </trkpt>
      <trkpt lat="48.4688" lon="7.21215">
        <ele>320.1</ele>
        <time>2026-03-15T13:19:30Z</time>
      </trkpt>
      <trkpt lat="48.46875" lon="7.21208">
        <ele>320</ele>
        <time>2026-03-15T13:19:35Z</time>
      </trkpt>
      <trkpt lat="48.4687" lon="7.21202">
        <ele>319.9</ele>
        <time>2026-03-15T13:19:40Z</time>
      </trkpt>
      <trkpt lat="48.46864" lon="7.21195">
        <ele>319.9</ele>
        <time>2026-03-15T13:19:45Z</time>
      </trkpt>
      <trkpt lat="48.46856" lon="7.2119">
        <ele>319.9</ele>
        <time>2026-03-15T13:19:50Z</time>
      </trkpt>
      <trkpt lat="48.4685" lon="7.21186">
        <ele>319.9</ele>
        <time>2026-03-15T13:19:55Z</time>
      </trkpt>
      <trkpt lat="48.46844" lon="7.21179">
        <ele>319.9</ele>
        <time>2026-03-15T13:20:00Z</time>
      </trkpt>
      <trkpt lat="48.46839" lon="7.21171">
        <ele>319.9</ele>
        <time>2026-03-15T13:20:05Z</time>
      </trkpt>
      <trkpt lat="48.46833" lon="7.21163">
        <ele>320</ele>
        <time>2026-03-15T13:20:10Z</time>
      </trkpt>
      <trkpt lat="48.46828" lon="7.21153">
        <ele>320.1</ele>
        <time>2026-03-15T13:20:15Z</time>
      </trkpt>
      <trkpt lat="48.46822" lon="7.21147">
        <ele>320.2</ele>
        <time>2026-03-15T13:20:20Z</time>
      </trkpt>
      <trkpt lat="48.46817" lon="7.21142">
        <ele>320.3</ele>
        <time>2026-03-15T13:20:25Z</time>
      </trkpt>
      <trkpt lat="48.46812" lon="7.21134">
        <ele>320.4</ele>
        <time>2026-03-15T13:20:30Z</time>
      </trkpt>
      <trkpt lat="48.46807" lon="7.21127">
        <ele>320.5</ele>
        <time>2026-03-15T13:20:35Z</time>
      </trkpt>
      <trkpt lat="48.468" lon="7.21121">
        <ele>320.6</ele>
        <time>2026-03-15T13:20:40Z</time>
      </trkpt>
      <trkpt lat="48.46793" lon="7.21117">
        <ele>320.8</ele>
        <time>2026-03-15T13:20:45Z</time>
      </trkpt>
      <trkpt lat="48.46789" lon="7.21108">
        <ele>320.9</ele>
        <time>2026-03-15T13:20:50Z</time>
      </trkpt>
      <trkpt lat="48.46784" lon="7.21103">
        <ele>321</ele>
        <time>2026-03-15T13:20:55Z</time>
      </trkpt>
      <trkpt lat="48.46779" lon="7.21096">
        <ele>321.2</ele>
        <time>2026-03-15T13:21:00Z</time>
      </trkpt>
      <trkpt lat="48.46774" lon="7.21087">
        <ele>321.4</ele>
        <time>2026-03-15T13:21:05Z</time>
      </trkpt>
      <trkpt lat="48.46768" lon="7.2108">
        <ele>321.6</ele>
        <time>2026-03-15T13:21:10Z</time>
      </trkpt>
      <trkpt lat="48.46761" lon="7.21072">
        <ele>321.8</ele>
        <time>2026-03-15T13:21:15Z</time>
      </trkpt>
      <trkpt lat="48.46756" lon="7.21063">
        <ele>321.9</ele>
        <time>2026-03-15T13:21:20Z</time>
      </trkpt>
      <trkpt lat="48.46751" lon="7.21056">
        <ele>322</ele>
        <time>2026-03-15T13:21:25Z</time>
      </trkpt>
      <trkpt lat="48.46745" lon="7.21048">
        <ele>322</ele>
        <time>2026-03-15T13:21:30Z</time>
      </trkpt>
      <trkpt lat="48.4674" lon="7.2104">
        <ele>322.1</ele>
        <time>2026-03-15T13:21:35Z</time>
      </trkpt>
      <trkpt lat="48.46735" lon="7.21035">
        <ele>322.1</ele>
        <time>2026-03-15T13:21:40Z</time>
      </trkpt>
      <trkpt lat="48.4673" lon="7.21029">
        <ele>322.2</ele>
        <time>2026-03-15T13:21:45Z</time>
      </trkpt>
      <trkpt lat="48.46725" lon="7.21021">
        <ele>322.2</ele>
        <time>2026-03-15T13:21:50Z</time>
      </trkpt>
      <trkpt lat="48.46721" lon="7.21013">
        <ele>322.3</ele>
        <time>2026-03-15T13:21:55Z</time>
      </trkpt>
      <trkpt lat="48.46717" lon="7.21006">
        <ele>322.4</ele>
        <time>2026-03-15T13:22:00Z</time>
      </trkpt>
      <trkpt lat="48.46713" lon="7.20997">
        <ele>322.5</ele>
        <time>2026-03-15T13:22:05Z</time>
      </trkpt>
      <trkpt lat="48.46709" lon="7.20988">
        <ele>322.6</ele>
        <time>2026-03-15T13:22:10Z</time>
      </trkpt>
      <trkpt lat="48.46703" lon="7.20978">
        <ele>322.8</ele>
        <time>2026-03-15T13:22:15Z</time>
      </trkpt>
      <trkpt lat="48.46699" lon="7.2097">
        <ele>323</ele>
        <time>2026-03-15T13:22:20Z</time>
      </trkpt>
      <trkpt lat="48.46694" lon="7.20965">
        <ele>323.1</ele>
        <time>2026-03-15T13:22:25Z</time>
      </trkpt>
      <trkpt lat="48.4669" lon="7.20958">
        <ele>323.2</ele>
        <time>2026-03-15T13:22:30Z</time>
      </trkpt>
      <trkpt lat="48.46681" lon="7.20947">
        <ele>323.5</ele>
        <time>2026-03-15T13:22:35Z</time>
      </trkpt>
      <trkpt lat="48.46677" lon="7.20939">
        <ele>323.6</ele>
        <time>2026-03-15T13:22:40Z</time>
      </trkpt>
      <trkpt lat="48.46672" lon="7.20934">
        <ele>323.7</ele>
        <time>2026-03-15T13:22:45Z</time>
      </trkpt>
      <trkpt lat="48.46666" lon="7.20926">
        <ele>323.9</ele>
        <time>2026-03-15T13:22:50Z</time>
      </trkpt>
      <trkpt lat="48.46661" lon="7.20919">
        <ele>324</ele>
        <time>2026-03-15T13:22:55Z</time>
      </trkpt>
      <trkpt lat="48.46655" lon="7.2091">
        <ele>324.1</ele>
        <time>2026-03-15T13:23:00Z</time>
      </trkpt>
      <trkpt lat="48.4665" lon="7.20905">
        <ele>324.1</ele>
        <time>2026-03-15T13:23:05Z</time>
      </trkpt>
      <trkpt lat="48.46645" lon="7.20899">
        <ele>324.2</ele>
        <time>2026-03-15T13:23:10Z</time>
      </trkpt>
      <trkpt lat="48.46636" lon="7.20896">
        <ele>324.3</ele>
        <time>2026-03-15T13:23:15Z</time>
      </trkpt>
      <trkpt lat="48.46628" lon="7.20893">
        <ele>324.4</ele>
        <time>2026-03-15T13:23:20Z</time>
      </trkpt>
      <trkpt lat="48.46621" lon="7.20891">
        <ele>324.6</ele>
        <time>2026-03-15T13:23:25Z</time>
      </trkpt>
      <trkpt lat="48.46615" lon="7.20886">
        <ele>324.7</ele>
        <time>2026-03-15T13:23:30Z</time>
      </trkpt>
      <trkpt lat="48.46609" lon="7.2088">
        <ele>324.9</ele>
        <time>2026-03-15T13:23:35Z</time>
      </trkpt>
      <trkpt lat="48.46602" lon="7.20876">
        <ele>325</ele>
        <time>2026-03-15T13:23:40Z</time>
      </trkpt>
      <trkpt lat="48.46595" lon="7.20872">
        <ele>325.2</ele>
        <time>2026-03-15T13:23:45Z</time>
      </trkpt>
      <trkpt lat="48.46588" lon="7.20866">
        <ele>325.5</ele>
        <time>2026-03-15T13:23:50Z</time>
      </trkpt>
      <trkpt lat="48.46582" lon="7.20861">
        <ele>325.7</ele>
        <time>2026-03-15T13:23:55Z</time>
      </trkpt>
      <trkpt lat="48.46576" lon="7.20856">
        <ele>325.8</ele>
        <time>2026-03-15T13:24:00Z</time>
      </trkpt>
      <trkpt lat="48.46569" lon="7.2085">
        <ele>325.8</ele>
        <time>2026-03-15T13:24:05Z</time>
      </trkpt>
      <trkpt lat="48.46562" lon="7.20847">
        <ele>325.9</ele>
        <time>2026-03-15T13:24:10Z</time>
      </trkpt>
      <trkpt lat="48.46557" lon="7.20843">
        <ele>325.9</ele>
        <time>2026-03-15T13:24:15Z</time>
      </trkpt>
      <trkpt lat="48.46551" lon="7.2084">
        <ele>326</ele>
        <time>2026-03-15T13:24:20Z</time>
      </trkpt>
      <trkpt lat="48.46547" lon="7.20833">
        <ele>326</ele>
        <time>2026-03-15T13:24:25Z</time>
      </trkpt>
      <trkpt lat="48.46541" lon="7.20828">
        <ele>326.1</ele>
        <time>2026-03-15T13:24:30Z</time>
      </trkpt>
      <trkpt lat="48.46535" lon="7.20821">
        <ele>326.2</ele>
        <time>2026-03-15T13:24:35Z</time>
      </trkpt>
      <trkpt lat="48.4653" lon="7.20815">
        <ele>326.3</ele>
        <time>2026-03-15T13:24:40Z</time>
      </trkpt>
      <trkpt lat="48.46525" lon="7.20807">
        <ele>326.4</ele>
        <time>2026-03-15T13:24:45Z</time>
      </trkpt>
      <trkpt lat="48.46521" lon="7.208">
        <ele>326.5</ele>
        <time>2026-03-15T13:24:50Z</time>
      </trkpt>
      <trkpt lat="48.46517" lon="7.20796">
        <ele>326.5</ele>
        <time>2026-03-15T13:24:55Z</time>
      </trkpt>
      <trkpt lat="48.4651" lon="7.20793">
        <ele>326.5</ele>
        <time>2026-03-15T13:25:00Z</time>
      </trkpt>
      <trkpt lat="48.46505" lon="7.20787">
        <ele>326.6</ele>
        <time>2026-03-15T13:25:05Z</time>
      </trkpt>
      <trkpt lat="48.46498" lon="7.2078">
        <ele>326.6</ele>
        <time>2026-03-15T13:25:10Z</time>
      </trkpt>
      <trkpt lat="48.46494" lon="7.20774">
        <ele>326.7</ele>
        <time>2026-03-15T13:25:15Z</time>
      </trkpt>
      <trkpt lat="48.46491" lon="7.20764">
        <ele>326.8</ele>
        <time>2026-03-15T13:25:20Z</time>
      </trkpt>
      <trkpt lat="48.46486" lon="7.20758">
        <ele>326.9</ele>
        <time>2026-03-15T13:25:25Z</time>
      </trkpt>
      <trkpt lat="48.4648" lon="7.20748">
        <ele>327</ele>
        <time>2026-03-15T13:25:30Z</time>
      </trkpt>
      <trkpt lat="48.46473" lon="7.2074">
        <ele>327.2</ele>
        <time>2026-03-15T13:25:35Z</time>
      </trkpt>
      <trkpt lat="48.46467" lon="7.20732">
        <ele>327.4</ele>
        <time>2026-03-15T13:25:40Z</time>
      </trkpt>
      <trkpt lat="48.46463" lon="7.20722">
        <ele>327.7</ele>
        <time>2026-03-15T13:25:45Z</time>
      </trkpt>
      <trkpt lat="48.46458" lon="7.20716">
        <ele>327.8</ele>
        <time>2026-03-15T13:25:50Z</time>
      </trkpt>
      <trkpt lat="48.46453" lon="7.2071">
        <ele>328</ele>
        <time>2026-03-15T13:25:55Z</time>
      </trkpt>
      <trkpt lat="48.46447" lon="7.20702">
        <ele>328.2</ele>
        <time>2026-03-15T13:26:00Z</time>
      </trkpt>
      <trkpt lat="48.4644" lon="7.20695">
        <ele>328.3</ele>
        <time>2026-03-15T13:26:05Z</time>
      </trkpt>
      <trkpt lat="48.46433" lon="7.20687">
        <ele>328.5</ele>
        <time>2026-03-15T13:26:10Z</time>
      </trkpt>
      <trkpt lat="48.46426" lon="7.2068">
        <ele>328.7</ele>
        <time>2026-03-15T13:26:15Z</time>
      </trkpt>
      <trkpt lat="48.46421" lon="7.20673">
        <ele>328.8</ele>
        <time>2026-03-15T13:26:20Z</time>
      </trkpt>
      <trkpt lat="48.46416" lon="7.20668">
        <ele>329</ele>
        <time>2026-03-15T13:26:25Z</time>
      </trkpt>
      <trkpt lat="48.46412" lon="7.20664">
        <ele>329</ele>
        <time>2026-03-15T13:26:30Z</time>
      </trkpt>
      <trkpt lat="48.46406" lon="7.20659">
        <ele>329</ele>
        <time>2026-03-15T13:26:35Z</time>
      </trkpt>
      <trkpt lat="48.46401" lon="7.20656">
        <ele>329.1</ele>
        <time>2026-03-15T13:26:40Z</time>
      </trkpt>
      <trkpt lat="48.46392" lon="7.20645">
        <ele>329.1</ele>
        <time>2026-03-15T13:26:45Z</time>
      </trkpt>
      <trkpt lat="48.46386" lon="7.20639">
        <ele>329.2</ele>
        <time>2026-03-15T13:26:50Z</time>
      </trkpt>
      <trkpt lat="48.46381" lon="7.20633">
        <ele>329.2</ele>
        <time>2026-03-15T13:26:55Z</time>
      </trkpt>
      <trkpt lat="48.46376" lon="7.20629">
        <ele>329.3</ele>
        <time>2026-03-15T13:27:00Z</time>
      </trkpt>
      <trkpt lat="48.46371" lon="7.20623">
        <ele>329.3</ele>
        <time>2026-03-15T13:27:05Z</time>
      </trkpt>
      <trkpt lat="48.46366" lon="7.20617">
        <ele>329.4</ele>
        <time>2026-03-15T13:27:10Z</time>
      </trkpt>
      <trkpt lat="48.4636" lon="7.2061">
        <ele>329.5</ele>
        <time>2026-03-15T13:27:15Z</time>
      </trkpt>
      <trkpt lat="48.46354" lon="7.20605">
        <ele>329.6</ele>
        <time>2026-03-15T13:27:20Z</time>
      </trkpt>
      <trkpt lat="48.46347" lon="7.20596">
        <ele>329.7</ele>
        <time>2026-03-15T13:27:25Z</time>
      </trkpt>
      <trkpt lat="48.46339" lon="7.20592">
        <ele>329.9</ele>
        <time>2026-03-15T13:27:30Z</time>
      </trkpt>
      <trkpt lat="48.46335" lon="7.20587">
        <ele>330</ele>
        <time>2026-03-15T13:27:35Z</time>
      </trkpt>
      <trkpt lat="48.46332" lon="7.20581">
        <ele>330.1</ele>
        <time>2026-03-15T13:27:40Z</time>
      </trkpt>
      <trkpt lat="48.46326" lon="7.20574">
        <ele>330.3</ele>
        <time>2026-03-15T13:27:45Z</time>
      </trkpt>
      <trkpt lat="48.4632" lon="7.20569">
        <ele>330.5</ele>
        <time>2026-03-15T13:27:50Z</time>
      </trkpt>
      <trkpt lat="48.46315" lon="7.20561">
        <ele>330.8</ele>
        <time>2026-03-15T13:27:55Z</time>
      </trkpt>
      <trkpt lat="48.46309" lon="7.20557">
        <ele>331</ele>
        <time>2026-03-15T13:28:00Z</time>
      </trkpt>
      <trkpt lat="48.46303" lon="7.20548">
        <ele>331.3</ele>
        <time>2026-03-15T13:28:05Z</time>
      </trkpt>
      <trkpt lat="48.46299" lon="7.2054">
        <ele>331.6</ele>
        <time>2026-03-15T13:28:10Z</time>
      </trkpt>
      <trkpt lat="48.46293" lon="7.20534">
        <ele>331.8</ele>
        <time>2026-03-15T13:28:15Z</time>
      </trkpt>
      <trkpt lat="48.46287" lon="7.20529">
        <ele>332.1</ele>
        <time>2026-03-15T13:28:20Z</time>
      </trkpt>
      <trkpt lat="48.46278" lon="7.20521">
        <ele>332.6</ele>
        <time>2026-03-15T13:28:25Z</time>
      </trkpt>
      <trkpt lat="48.46273" lon="7.2052">
        <ele>332.8</ele>
        <time>2026-03-15T13:28:30Z</time>
      </trkpt>
      <trkpt lat="48.46268" lon="7.20515">
        <ele>333</ele>
        <time>2026-03-15T13:28:35Z</time>
      </trkpt>
      <trkpt lat="48.46264" lon="7.20506">
        <ele>333.4</ele>
        <time>2026-03-15T13:28:40Z</time>
      </trkpt>
      <trkpt lat="48.46259" lon="7.20501">
        <ele>333.7</ele>
        <time>2026-03-15T13:28:45Z</time>
      </trkpt>
      <trkpt lat="48.46255" lon="7.20498">
        <ele>333.9</ele>
        <time>2026-03-15T13:28:50Z</time>
      </trkpt>
      <trkpt lat="48.46253" lon="7.20498">
        <ele>334</ele>
        <time>2026-03-15T13:28:55Z</time>
      </trkpt>
      <trkpt lat="48.46249" lon="7.20492">
        <ele>334.4</ele>
        <time>2026-03-15T13:29:00Z</time>
      </trkpt>
      <trkpt lat="48.46243" lon="7.20485">
        <ele>335.1</ele>
        <time>2026-03-15T13:29:05Z</time>
      </trkpt>
      <trkpt lat="48.46237" lon="7.20482">
        <ele>335.6</ele>
        <time>2026-03-15T13:29:10Z</time>
      </trkpt>
      <trkpt lat="48.46232" lon="7.20478">
        <ele>336.1</ele>
        <time>2026-03-15T13:29:15Z</time>
      </trkpt>
      <trkpt lat="48.46228" lon="7.20473">
        <ele>336.7</ele>
        <time>2026-03-15T13:29:20Z</time>
      </trkpt>
      <trkpt lat="48.46225" lon="7.20467">
        <ele>337.3</ele>
        <time>2026-03-15T13:29:25Z</time>
      </trkpt>
      <trkpt lat="48.46225" lon="7.20462">
        <ele>337.6</ele>
        <time>2026-03-15T13:29:30Z</time>
      </trkpt>
      <trkpt lat="48.46223" lon="7.20469">
        <ele>337.3</ele>
        <time>2026-03-15T13:29:35Z</time>
      </trkpt>
      <trkpt lat="48.46217" lon="7.20477">
        <ele>337.1</ele>
        <time>2026-03-15T13:29:40Z</time>
      </trkpt>
      <trkpt lat="48.4621" lon="7.20482">
        <ele>337.2</ele>
        <time>2026-03-15T13:29:45Z</time>
      </trkpt>
      <trkpt lat="48.46205" lon="7.20485">
        <ele>337.3</ele>
        <time>2026-03-15T13:29:50Z</time>
      </trkpt>
      <trkpt lat="48.46198" lon="7.20493">
        <ele>337</ele>
        <time>2026-03-15T13:29:55Z</time>
      </trkpt>
      <trkpt lat="48.46188" lon="7.20503">
        <ele>336.9</ele>
        <time>2026-03-15T13:30:00Z</time>
      </trkpt>
      <trkpt lat="48.46182" lon="7.20509">
        <ele>336.9</ele>
        <time>2026-03-15T13:30:05Z</time>
      </trkpt>
      <trkpt lat="48.46177" lon="7.20513">
        <ele>336.9</ele>
        <time>2026-03-15T13:30:10Z</time>
      </trkpt>
      <trkpt lat="48.46171" lon="7.20514">
        <ele>337.1</ele>
        <time>2026-03-15T13:30:15Z</time>
      </trkpt>
      <trkpt lat="48.46165" lon="7.20516">
        <ele>337.3</ele>
        <time>2026-03-15T13:30:20Z</time>
      </trkpt>
      <trkpt lat="48.46161" lon="7.20524">
        <ele>337.1</ele>
        <time>2026-03-15T13:30:25Z</time>
      </trkpt>
      <trkpt lat="48.46158" lon="7.2052">
        <ele>337.4</ele>
        <time>2026-03-15T13:30:30Z</time>
      </trkpt>
      <trkpt lat="48.46153" lon="7.20519">
        <ele>337.6</ele>
        <time>2026-03-15T13:30:35Z</time>
      </trkpt>
      <trkpt lat="48.46145" lon="7.20522">
        <ele>337.8</ele>
        <time>2026-03-15T13:30:40Z</time>
      </trkpt>
      <trkpt lat="48.46139" lon="7.20525">
        <ele>337.8</ele>
        <time>2026-03-15T13:30:45Z</time>
      </trkpt>
      <trkpt lat="48.46133" lon="7.20528">
        <ele>337.9</ele>
        <time>2026-03-15T13:30:50Z</time>
      </trkpt>
      <trkpt lat="48.46128" lon="7.20532">
        <ele>337.8</ele>
        <time>2026-03-15T13:30:55Z</time>
      </trkpt>
      <trkpt lat="48.46123" lon="7.20534">
        <ele>337.8</ele>
        <time>2026-03-15T13:31:00Z</time>
      </trkpt>
      <trkpt lat="48.46117" lon="7.20534">
        <ele>338</ele>
        <time>2026-03-15T13:31:05Z</time>
      </trkpt>
      <trkpt lat="48.4611" lon="7.20534">
        <ele>338.3</ele>
        <time>2026-03-15T13:31:10Z</time>
      </trkpt>
      <trkpt lat="48.46104" lon="7.20537">
        <ele>338.2</ele>
        <time>2026-03-15T13:31:15Z</time>
      </trkpt>
      <trkpt lat="48.46097" lon="7.20537">
        <ele>338.5</ele>
        <time>2026-03-15T13:31:20Z</time>
      </trkpt>
      <trkpt lat="48.46092" lon="7.20538">
        <ele>338.5</ele>
        <time>2026-03-15T13:31:25Z</time>
      </trkpt>
      <trkpt lat="48.46086" lon="7.20548">
        <ele>337.9</ele>
        <time>2026-03-15T13:31:30Z</time>
      </trkpt>
      <trkpt lat="48.46087" lon="7.20561">
        <ele>336.8</ele>
        <time>2026-03-15T13:31:35Z</time>
      </trkpt>
      <trkpt lat="48.46089" lon="7.2057">
        <ele>336</ele>
        <time>2026-03-15T13:31:40Z</time>
      </trkpt>
      <trkpt lat="48.46089" lon="7.20578">
        <ele>335.4</ele>
        <time>2026-03-15T13:31:45Z</time>
      </trkpt>
      <trkpt lat="48.46089" lon="7.20589">
        <ele>334.9</ele>
        <time>2026-03-15T13:31:50Z</time>
      </trkpt>
      <trkpt lat="48.46091" lon="7.206">
        <ele>334.9</ele>
        <time>2026-03-15T13:31:55Z</time>
      </trkpt>
      <trkpt lat="48.46092" lon="7.20608">
        <ele>334.9</ele>
        <time>2026-03-15T13:32:00Z</time>
      </trkpt>
      <trkpt lat="48.46091" lon="7.20617">
        <ele>334.9</ele>
        <time>2026-03-15T13:32:05Z</time>
      </trkpt>
      <trkpt lat="48.46093" lon="7.20624">
        <ele>334.8</ele>
        <time>2026-03-15T13:32:10Z</time>
      </trkpt>
      <trkpt lat="48.46095" lon="7.2063">
        <ele>334.8</ele>
        <time>2026-03-15T13:32:15Z</time>
      </trkpt>
      <trkpt lat="48.46097" lon="7.20633">
        <ele>334.7</ele>
        <time>2026-03-15T13:32:20Z</time>
      </trkpt>
      <trkpt lat="48.46102" lon="7.20638">
        <ele>334.6</ele>
        <time>2026-03-15T13:32:25Z</time>
      </trkpt>
      <trkpt lat="48.46105" lon="7.20643">
        <ele>334.6</ele>
        <time>2026-03-15T13:32:30Z</time>
      </trkpt>
      <trkpt lat="48.46107" lon="7.20647">
        <ele>334.5</ele>
        <time>2026-03-15T13:32:35Z</time>
      </trkpt>
    </trkseg>
  </trk>
</gpx>